<?xml version="1.0" encoding="UTF-8" standalone="no" ?>
<gpx xmlns="http://www.topografix.com/GPX/1/1" xmlns:xsi="http://www.w3.org/2001/XMLSchema-instance" xsi:schemaLocation="http://www.topografix.com/GPX/1/1 http://www.topografix.com/GPX/1/1/gpx.xsd" version="1.1" creator="VisuGPX - https://www.visugpx.com">
  <metadata>
    <name>Circuit le Hameau de Rochefort - 140112</name>
    <desc><![CDATA[Des montées très pentues, plusieurs DH technique et un poil trop de route...]]></desc>
  </metadata>
  <trk>
    <name><![CDATA[TracÃ© actuel: 14 JAN 2012 08:24]]></name>
    <trkseg>
      <trkpt lat="45.67861" lon="4.64916">
        <ele>322</ele>
        <time>2012-01-14T07:24:19Z</time>
      </trkpt>
      <trkpt lat="45.67861" lon="4.64916">
        <ele>322</ele>
        <time>2012-01-14T07:24:34Z</time>
      </trkpt>
      <trkpt lat="45.67861" lon="4.64916">
        <ele>322</ele>
        <time>2012-01-14T07:24:45Z</time>
      </trkpt>
      <trkpt lat="45.67862" lon="4.64916">
        <ele>323</ele>
        <time>2012-01-14T07:24:57Z</time>
      </trkpt>
      <trkpt lat="45.67862" lon="4.64916">
        <ele>322</ele>
        <time>2012-01-14T07:25:13Z</time>
      </trkpt>
      <trkpt lat="45.67863" lon="4.64918">
        <ele>322</ele>
        <time>2012-01-14T07:25:20Z</time>
      </trkpt>
      <trkpt lat="45.67873" lon="4.64909">
        <ele>321</ele>
        <time>2012-01-14T07:25:26Z</time>
      </trkpt>
      <trkpt lat="45.67869" lon="4.64896">
        <ele>321</ele>
        <time>2012-01-14T07:25:31Z</time>
      </trkpt>
      <trkpt lat="45.67865" lon="4.64893">
        <ele>322</ele>
        <time>2012-01-14T07:25:33Z</time>
      </trkpt>
      <trkpt lat="45.67847" lon="4.64879">
        <ele>323</ele>
        <time>2012-01-14T07:25:42Z</time>
      </trkpt>
      <trkpt lat="45.67828" lon="4.6486">
        <ele>322</ele>
        <time>2012-01-14T07:25:51Z</time>
      </trkpt>
      <trkpt lat="45.67809" lon="4.64845">
        <ele>324</ele>
        <time>2012-01-14T07:25:59Z</time>
      </trkpt>
      <trkpt lat="45.67786" lon="4.64826">
        <ele>325</ele>
        <time>2012-01-14T07:26:09Z</time>
      </trkpt>
      <trkpt lat="45.67764" lon="4.64814">
        <ele>326</ele>
        <time>2012-01-14T07:26:18Z</time>
      </trkpt>
      <trkpt lat="45.67746" lon="4.64811">
        <ele>327</ele>
        <time>2012-01-14T07:26:25Z</time>
      </trkpt>
      <trkpt lat="45.67729" lon="4.64799">
        <ele>326</ele>
        <time>2012-01-14T07:26:31Z</time>
      </trkpt>
      <trkpt lat="45.67714" lon="4.6478">
        <ele>327</ele>
        <time>2012-01-14T07:26:37Z</time>
      </trkpt>
      <trkpt lat="45.67691" lon="4.64755">
        <ele>326</ele>
        <time>2012-01-14T07:26:46Z</time>
      </trkpt>
      <trkpt lat="45.67662" lon="4.6474">
        <ele>326</ele>
        <time>2012-01-14T07:26:56Z</time>
      </trkpt>
      <trkpt lat="45.67648" lon="4.64736">
        <ele>328</ele>
        <time>2012-01-14T07:27:04Z</time>
      </trkpt>
      <trkpt lat="45.67643" lon="4.64734">
        <ele>327</ele>
        <time>2012-01-14T07:27:10Z</time>
      </trkpt>
      <trkpt lat="45.67635" lon="4.64733">
        <ele>327</ele>
        <time>2012-01-14T07:27:17Z</time>
      </trkpt>
      <trkpt lat="45.67622" lon="4.6473">
        <ele>328</ele>
        <time>2012-01-14T07:27:24Z</time>
      </trkpt>
      <trkpt lat="45.6761" lon="4.64729">
        <ele>328</ele>
        <time>2012-01-14T07:27:31Z</time>
      </trkpt>
      <trkpt lat="45.6759" lon="4.64729">
        <ele>328</ele>
        <time>2012-01-14T07:27:40Z</time>
      </trkpt>
      <trkpt lat="45.67574" lon="4.64729">
        <ele>330</ele>
        <time>2012-01-14T07:27:48Z</time>
      </trkpt>
      <trkpt lat="45.67561" lon="4.64728">
        <ele>331</ele>
        <time>2012-01-14T07:27:56Z</time>
      </trkpt>
      <trkpt lat="45.67545" lon="4.64728">
        <ele>333</ele>
        <time>2012-01-14T07:28:05Z</time>
      </trkpt>
      <trkpt lat="45.67532" lon="4.64727">
        <ele>335</ele>
        <time>2012-01-14T07:28:13Z</time>
      </trkpt>
      <trkpt lat="45.67519" lon="4.64726">
        <ele>337</ele>
        <time>2012-01-14T07:28:21Z</time>
      </trkpt>
      <trkpt lat="45.67503" lon="4.64724">
        <ele>339</ele>
        <time>2012-01-14T07:28:30Z</time>
      </trkpt>
      <trkpt lat="45.6749" lon="4.64723">
        <ele>340</ele>
        <time>2012-01-14T07:28:38Z</time>
      </trkpt>
      <trkpt lat="45.67474" lon="4.64723">
        <ele>342</ele>
        <time>2012-01-14T07:28:48Z</time>
      </trkpt>
      <trkpt lat="45.67459" lon="4.64723">
        <ele>343</ele>
        <time>2012-01-14T07:28:57Z</time>
      </trkpt>
      <trkpt lat="45.67443" lon="4.64723">
        <ele>345</ele>
        <time>2012-01-14T07:29:07Z</time>
      </trkpt>
      <trkpt lat="45.67425" lon="4.64722">
        <ele>346</ele>
        <time>2012-01-14T07:29:18Z</time>
      </trkpt>
      <trkpt lat="45.67409" lon="4.6472">
        <ele>348</ele>
        <time>2012-01-14T07:29:28Z</time>
      </trkpt>
      <trkpt lat="45.67392" lon="4.64719">
        <ele>349</ele>
        <time>2012-01-14T07:29:38Z</time>
      </trkpt>
      <trkpt lat="45.6738" lon="4.64719">
        <ele>351</ele>
        <time>2012-01-14T07:29:46Z</time>
      </trkpt>
      <trkpt lat="45.67371" lon="4.64718">
        <ele>352</ele>
        <time>2012-01-14T07:29:52Z</time>
      </trkpt>
      <trkpt lat="45.67354" lon="4.6472">
        <ele>353</ele>
        <time>2012-01-14T07:30:03Z</time>
      </trkpt>
      <trkpt lat="45.67341" lon="4.64719">
        <ele>355</ele>
        <time>2012-01-14T07:30:12Z</time>
      </trkpt>
      <trkpt lat="45.67328" lon="4.64716">
        <ele>356</ele>
        <time>2012-01-14T07:30:21Z</time>
      </trkpt>
      <trkpt lat="45.67314" lon="4.64711">
        <ele>358</ele>
        <time>2012-01-14T07:30:30Z</time>
      </trkpt>
      <trkpt lat="45.67302" lon="4.64706">
        <ele>359</ele>
        <time>2012-01-14T07:30:39Z</time>
      </trkpt>
      <trkpt lat="45.67286" lon="4.64698">
        <ele>361</ele>
        <time>2012-01-14T07:30:50Z</time>
      </trkpt>
      <trkpt lat="45.67272" lon="4.6469">
        <ele>363</ele>
        <time>2012-01-14T07:31:00Z</time>
      </trkpt>
      <trkpt lat="45.6726" lon="4.64684">
        <ele>364</ele>
        <time>2012-01-14T07:31:08Z</time>
      </trkpt>
      <trkpt lat="45.67248" lon="4.64677">
        <ele>365</ele>
        <time>2012-01-14T07:31:17Z</time>
      </trkpt>
      <trkpt lat="45.67235" lon="4.64667">
        <ele>367</ele>
        <time>2012-01-14T07:31:27Z</time>
      </trkpt>
      <trkpt lat="45.67231" lon="4.64662">
        <ele>368</ele>
        <time>2012-01-14T07:31:31Z</time>
      </trkpt>
      <trkpt lat="45.67218" lon="4.64649">
        <ele>370</ele>
        <time>2012-01-14T07:31:42Z</time>
      </trkpt>
      <trkpt lat="45.67211" lon="4.64638">
        <ele>371</ele>
        <time>2012-01-14T07:31:49Z</time>
      </trkpt>
      <trkpt lat="45.67207" lon="4.64631">
        <ele>373</ele>
        <time>2012-01-14T07:31:54Z</time>
      </trkpt>
      <trkpt lat="45.67199" lon="4.64619">
        <ele>374</ele>
        <time>2012-01-14T07:32:02Z</time>
      </trkpt>
      <trkpt lat="45.67189" lon="4.64608">
        <ele>375</ele>
        <time>2012-01-14T07:32:11Z</time>
      </trkpt>
      <trkpt lat="45.67179" lon="4.64599">
        <ele>376</ele>
        <time>2012-01-14T07:32:19Z</time>
      </trkpt>
      <trkpt lat="45.67174" lon="4.64594">
        <ele>377</ele>
        <time>2012-01-14T07:32:23Z</time>
      </trkpt>
      <trkpt lat="45.6716" lon="4.64581">
        <ele>378</ele>
        <time>2012-01-14T07:32:34Z</time>
      </trkpt>
      <trkpt lat="45.67147" lon="4.64568">
        <ele>381</ele>
        <time>2012-01-14T07:32:45Z</time>
      </trkpt>
      <trkpt lat="45.67142" lon="4.64562">
        <ele>381</ele>
        <time>2012-01-14T07:32:50Z</time>
      </trkpt>
      <trkpt lat="45.67127" lon="4.64549">
        <ele>382</ele>
        <time>2012-01-14T07:33:01Z</time>
      </trkpt>
      <trkpt lat="45.67114" lon="4.64539">
        <ele>383</ele>
        <time>2012-01-14T07:33:10Z</time>
      </trkpt>
      <trkpt lat="45.671" lon="4.64539">
        <ele>386</ele>
        <time>2012-01-14T07:33:19Z</time>
      </trkpt>
      <trkpt lat="45.67089" lon="4.64535">
        <ele>387</ele>
        <time>2012-01-14T07:33:27Z</time>
      </trkpt>
      <trkpt lat="45.6708" lon="4.64529">
        <ele>388</ele>
        <time>2012-01-14T07:33:34Z</time>
      </trkpt>
      <trkpt lat="45.67071" lon="4.64521">
        <ele>389</ele>
        <time>2012-01-14T07:33:41Z</time>
      </trkpt>
      <trkpt lat="45.67058" lon="4.64511">
        <ele>391</ele>
        <time>2012-01-14T07:33:51Z</time>
      </trkpt>
      <trkpt lat="45.67048" lon="4.64502">
        <ele>393</ele>
        <time>2012-01-14T07:33:59Z</time>
      </trkpt>
      <trkpt lat="45.67038" lon="4.64488">
        <ele>395</ele>
        <time>2012-01-14T07:34:08Z</time>
      </trkpt>
      <trkpt lat="45.6703" lon="4.64476">
        <ele>395</ele>
        <time>2012-01-14T07:34:15Z</time>
      </trkpt>
      <trkpt lat="45.67023" lon="4.64463">
        <ele>396</ele>
        <time>2012-01-14T07:34:22Z</time>
      </trkpt>
      <trkpt lat="45.67013" lon="4.6445">
        <ele>398</ele>
        <time>2012-01-14T07:34:31Z</time>
      </trkpt>
      <trkpt lat="45.67007" lon="4.64443">
        <ele>398</ele>
        <time>2012-01-14T07:34:36Z</time>
      </trkpt>
      <trkpt lat="45.66994" lon="4.64429">
        <ele>400</ele>
        <time>2012-01-14T07:34:46Z</time>
      </trkpt>
      <trkpt lat="45.66983" lon="4.64418">
        <ele>401</ele>
        <time>2012-01-14T07:34:54Z</time>
      </trkpt>
      <trkpt lat="45.66974" lon="4.64411">
        <ele>401</ele>
        <time>2012-01-14T07:35:00Z</time>
      </trkpt>
      <trkpt lat="45.66966" lon="4.64401">
        <ele>401</ele>
        <time>2012-01-14T07:35:06Z</time>
      </trkpt>
      <trkpt lat="45.66952" lon="4.64386">
        <ele>401</ele>
        <time>2012-01-14T07:35:14Z</time>
      </trkpt>
      <trkpt lat="45.66937" lon="4.64368">
        <ele>402</ele>
        <time>2012-01-14T07:35:23Z</time>
      </trkpt>
      <trkpt lat="45.66928" lon="4.64348">
        <ele>404</ele>
        <time>2012-01-14T07:35:31Z</time>
      </trkpt>
      <trkpt lat="45.66921" lon="4.64332">
        <ele>405</ele>
        <time>2012-01-14T07:35:38Z</time>
      </trkpt>
      <trkpt lat="45.66913" lon="4.64311">
        <ele>407</ele>
        <time>2012-01-14T07:35:47Z</time>
      </trkpt>
      <trkpt lat="45.66907" lon="4.64294">
        <ele>408</ele>
        <time>2012-01-14T07:35:54Z</time>
      </trkpt>
      <trkpt lat="45.66897" lon="4.64273">
        <ele>408</ele>
        <time>2012-01-14T07:36:03Z</time>
      </trkpt>
      <trkpt lat="45.66885" lon="4.64249">
        <ele>411</ele>
        <time>2012-01-14T07:36:14Z</time>
      </trkpt>
      <trkpt lat="45.66876" lon="4.64227">
        <ele>411</ele>
        <time>2012-01-14T07:36:23Z</time>
      </trkpt>
      <trkpt lat="45.66868" lon="4.64206">
        <ele>413</ele>
        <time>2012-01-14T07:36:31Z</time>
      </trkpt>
      <trkpt lat="45.66862" lon="4.64181">
        <ele>412</ele>
        <time>2012-01-14T07:36:40Z</time>
      </trkpt>
      <trkpt lat="45.66856" lon="4.64154">
        <ele>414</ele>
        <time>2012-01-14T07:36:49Z</time>
      </trkpt>
      <trkpt lat="45.66851" lon="4.64136">
        <ele>414</ele>
        <time>2012-01-14T07:36:56Z</time>
      </trkpt>
      <trkpt lat="45.66841" lon="4.64115">
        <ele>416</ele>
        <time>2012-01-14T07:37:05Z</time>
      </trkpt>
      <trkpt lat="45.66827" lon="4.64096">
        <ele>417</ele>
        <time>2012-01-14T07:37:15Z</time>
      </trkpt>
      <trkpt lat="45.66811" lon="4.64077">
        <ele>418</ele>
        <time>2012-01-14T07:37:25Z</time>
      </trkpt>
      <trkpt lat="45.66797" lon="4.64058">
        <ele>420</ele>
        <time>2012-01-14T07:37:35Z</time>
      </trkpt>
      <trkpt lat="45.66787" lon="4.64044">
        <ele>420</ele>
        <time>2012-01-14T07:37:42Z</time>
      </trkpt>
      <trkpt lat="45.66773" lon="4.64029">
        <ele>421</ele>
        <time>2012-01-14T07:37:51Z</time>
      </trkpt>
      <trkpt lat="45.66756" lon="4.64014">
        <ele>422</ele>
        <time>2012-01-14T07:37:59Z</time>
      </trkpt>
      <trkpt lat="45.66733" lon="4.63999">
        <ele>422</ele>
        <time>2012-01-14T07:38:09Z</time>
      </trkpt>
      <trkpt lat="45.66713" lon="4.63987">
        <ele>424</ele>
        <time>2012-01-14T07:38:18Z</time>
      </trkpt>
      <trkpt lat="45.66688" lon="4.63973">
        <ele>424</ele>
        <time>2012-01-14T07:38:28Z</time>
      </trkpt>
      <trkpt lat="45.66664" lon="4.63961">
        <ele>425</ele>
        <time>2012-01-14T07:38:38Z</time>
      </trkpt>
      <trkpt lat="45.66648" lon="4.63952">
        <ele>426</ele>
        <time>2012-01-14T07:38:45Z</time>
      </trkpt>
      <trkpt lat="45.66629" lon="4.6394">
        <ele>427</ele>
        <time>2012-01-14T07:38:54Z</time>
      </trkpt>
      <trkpt lat="45.66612" lon="4.63931">
        <ele>428</ele>
        <time>2012-01-14T07:39:02Z</time>
      </trkpt>
      <trkpt lat="45.66596" lon="4.63923">
        <ele>429</ele>
        <time>2012-01-14T07:39:10Z</time>
      </trkpt>
      <trkpt lat="45.66577" lon="4.63913">
        <ele>429</ele>
        <time>2012-01-14T07:39:18Z</time>
      </trkpt>
      <trkpt lat="45.6656" lon="4.63904">
        <ele>430</ele>
        <time>2012-01-14T07:39:25Z</time>
      </trkpt>
      <trkpt lat="45.66541" lon="4.63895">
        <ele>431</ele>
        <time>2012-01-14T07:39:33Z</time>
      </trkpt>
      <trkpt lat="45.66533" lon="4.63867">
        <ele>433</ele>
        <time>2012-01-14T07:39:42Z</time>
      </trkpt>
      <trkpt lat="45.66527" lon="4.63841">
        <ele>434</ele>
        <time>2012-01-14T07:39:50Z</time>
      </trkpt>
      <trkpt lat="45.66519" lon="4.63809">
        <ele>436</ele>
        <time>2012-01-14T07:40:00Z</time>
      </trkpt>
      <trkpt lat="45.66513" lon="4.63782">
        <ele>437</ele>
        <time>2012-01-14T07:40:09Z</time>
      </trkpt>
      <trkpt lat="45.66504" lon="4.63753">
        <ele>439</ele>
        <time>2012-01-14T07:40:20Z</time>
      </trkpt>
      <trkpt lat="45.66491" lon="4.63731">
        <ele>441</ele>
        <time>2012-01-14T07:40:30Z</time>
      </trkpt>
      <trkpt lat="45.66479" lon="4.63719">
        <ele>441</ele>
        <time>2012-01-14T07:40:37Z</time>
      </trkpt>
      <trkpt lat="45.6646" lon="4.63702">
        <ele>443</ele>
        <time>2012-01-14T07:40:48Z</time>
      </trkpt>
      <trkpt lat="45.66444" lon="4.63691">
        <ele>445</ele>
        <time>2012-01-14T07:40:57Z</time>
      </trkpt>
      <trkpt lat="45.66425" lon="4.63683">
        <ele>446</ele>
        <time>2012-01-14T07:41:07Z</time>
      </trkpt>
      <trkpt lat="45.66406" lon="4.63679">
        <ele>447</ele>
        <time>2012-01-14T07:41:16Z</time>
      </trkpt>
      <trkpt lat="45.664" lon="4.6368">
        <ele>446</ele>
        <time>2012-01-14T07:41:19Z</time>
      </trkpt>
      <trkpt lat="45.66391" lon="4.6367">
        <ele>448</ele>
        <time>2012-01-14T07:41:25Z</time>
      </trkpt>
      <trkpt lat="45.66372" lon="4.63652">
        <ele>450</ele>
        <time>2012-01-14T07:41:36Z</time>
      </trkpt>
      <trkpt lat="45.66359" lon="4.63646">
        <ele>451</ele>
        <time>2012-01-14T07:41:44Z</time>
      </trkpt>
      <trkpt lat="45.66345" lon="4.63648">
        <ele>453</ele>
        <time>2012-01-14T07:41:52Z</time>
      </trkpt>
      <trkpt lat="45.66333" lon="4.63656">
        <ele>454</ele>
        <time>2012-01-14T07:42:00Z</time>
      </trkpt>
      <trkpt lat="45.66328" lon="4.63659">
        <ele>454</ele>
        <time>2012-01-14T07:42:07Z</time>
      </trkpt>
      <trkpt lat="45.66328" lon="4.63659">
        <ele>454</ele>
        <time>2012-01-14T07:42:14Z</time>
      </trkpt>
      <trkpt lat="45.66327" lon="4.63659">
        <ele>454</ele>
        <time>2012-01-14T07:42:25Z</time>
      </trkpt>
      <trkpt lat="45.66328" lon="4.6366">
        <ele>454</ele>
        <time>2012-01-14T07:42:33Z</time>
      </trkpt>
      <trkpt lat="45.66328" lon="4.6366">
        <ele>454</ele>
        <time>2012-01-14T07:42:47Z</time>
      </trkpt>
      <trkpt lat="45.66328" lon="4.6366">
        <ele>455</ele>
        <time>2012-01-14T07:43:03Z</time>
      </trkpt>
      <trkpt lat="45.66328" lon="4.6366">
        <ele>453</ele>
        <time>2012-01-14T07:43:18Z</time>
      </trkpt>
      <trkpt lat="45.66328" lon="4.6366">
        <ele>454</ele>
        <time>2012-01-14T07:43:34Z</time>
      </trkpt>
      <trkpt lat="45.66328" lon="4.6366">
        <ele>454</ele>
        <time>2012-01-14T07:43:55Z</time>
      </trkpt>
      <trkpt lat="45.66328" lon="4.6366">
        <ele>454</ele>
        <time>2012-01-14T07:44:06Z</time>
      </trkpt>
      <trkpt lat="45.66328" lon="4.6366">
        <ele>454</ele>
        <time>2012-01-14T07:44:20Z</time>
      </trkpt>
      <trkpt lat="45.66327" lon="4.6366">
        <ele>454</ele>
        <time>2012-01-14T07:44:36Z</time>
      </trkpt>
      <trkpt lat="45.66327" lon="4.6366">
        <ele>455</ele>
        <time>2012-01-14T07:44:49Z</time>
      </trkpt>
      <trkpt lat="45.66327" lon="4.6366">
        <ele>455</ele>
        <time>2012-01-14T07:45:02Z</time>
      </trkpt>
      <trkpt lat="45.66327" lon="4.63659">
        <ele>454</ele>
        <time>2012-01-14T07:45:19Z</time>
      </trkpt>
      <trkpt lat="45.66327" lon="4.63659">
        <ele>454</ele>
        <time>2012-01-14T07:45:37Z</time>
      </trkpt>
      <trkpt lat="45.66327" lon="4.6366">
        <ele>454</ele>
        <time>2012-01-14T07:45:53Z</time>
      </trkpt>
      <trkpt lat="45.66327" lon="4.6366">
        <ele>454</ele>
        <time>2012-01-14T07:46:09Z</time>
      </trkpt>
      <trkpt lat="45.66327" lon="4.6366">
        <ele>454</ele>
        <time>2012-01-14T07:46:17Z</time>
      </trkpt>
      <trkpt lat="45.66327" lon="4.63661">
        <ele>454</ele>
        <time>2012-01-14T07:46:19Z</time>
      </trkpt>
      <trkpt lat="45.6632" lon="4.63668">
        <ele>455</ele>
        <time>2012-01-14T07:46:25Z</time>
      </trkpt>
      <trkpt lat="45.66309" lon="4.63663">
        <ele>457</ele>
        <time>2012-01-14T07:46:33Z</time>
      </trkpt>
      <trkpt lat="45.6631" lon="4.6365">
        <ele>459</ele>
        <time>2012-01-14T07:46:38Z</time>
      </trkpt>
      <trkpt lat="45.6631" lon="4.63643">
        <ele>460</ele>
        <time>2012-01-14T07:46:41Z</time>
      </trkpt>
      <trkpt lat="45.66308" lon="4.63631">
        <ele>461</ele>
        <time>2012-01-14T07:46:46Z</time>
      </trkpt>
      <trkpt lat="45.66304" lon="4.63613">
        <ele>463</ele>
        <time>2012-01-14T07:46:54Z</time>
      </trkpt>
      <trkpt lat="45.66298" lon="4.63592">
        <ele>465</ele>
        <time>2012-01-14T07:47:03Z</time>
      </trkpt>
      <trkpt lat="45.66291" lon="4.63575">
        <ele>466</ele>
        <time>2012-01-14T07:47:11Z</time>
      </trkpt>
      <trkpt lat="45.66278" lon="4.63556">
        <ele>467</ele>
        <time>2012-01-14T07:47:21Z</time>
      </trkpt>
      <trkpt lat="45.66265" lon="4.63539">
        <ele>469</ele>
        <time>2012-01-14T07:47:31Z</time>
      </trkpt>
      <trkpt lat="45.66251" lon="4.63519">
        <ele>471</ele>
        <time>2012-01-14T07:47:42Z</time>
      </trkpt>
      <trkpt lat="45.66238" lon="4.63501">
        <ele>473</ele>
        <time>2012-01-14T07:47:52Z</time>
      </trkpt>
      <trkpt lat="45.66227" lon="4.63486">
        <ele>474</ele>
        <time>2012-01-14T07:48:01Z</time>
      </trkpt>
      <trkpt lat="45.66218" lon="4.63474">
        <ele>475</ele>
        <time>2012-01-14T07:48:08Z</time>
      </trkpt>
      <trkpt lat="45.66207" lon="4.63455">
        <ele>477</ele>
        <time>2012-01-14T07:48:18Z</time>
      </trkpt>
      <trkpt lat="45.66196" lon="4.63437">
        <ele>479</ele>
        <time>2012-01-14T07:48:28Z</time>
      </trkpt>
      <trkpt lat="45.66187" lon="4.63423">
        <ele>481</ele>
        <time>2012-01-14T07:48:36Z</time>
      </trkpt>
      <trkpt lat="45.66177" lon="4.63406">
        <ele>484</ele>
        <time>2012-01-14T07:48:45Z</time>
      </trkpt>
      <trkpt lat="45.66173" lon="4.63401">
        <ele>483</ele>
        <time>2012-01-14T07:48:48Z</time>
      </trkpt>
      <trkpt lat="45.66167" lon="4.63392">
        <ele>485</ele>
        <time>2012-01-14T07:48:53Z</time>
      </trkpt>
      <trkpt lat="45.66151" lon="4.6337">
        <ele>488</ele>
        <time>2012-01-14T07:49:06Z</time>
      </trkpt>
      <trkpt lat="45.66139" lon="4.63359">
        <ele>489</ele>
        <time>2012-01-14T07:49:15Z</time>
      </trkpt>
      <trkpt lat="45.66131" lon="4.6334">
        <ele>490</ele>
        <time>2012-01-14T07:49:23Z</time>
      </trkpt>
      <trkpt lat="45.66124" lon="4.63323">
        <ele>491</ele>
        <time>2012-01-14T07:49:31Z</time>
      </trkpt>
      <trkpt lat="45.66115" lon="4.63306">
        <ele>492</ele>
        <time>2012-01-14T07:49:39Z</time>
      </trkpt>
      <trkpt lat="45.66108" lon="4.6329">
        <ele>495</ele>
        <time>2012-01-14T07:49:47Z</time>
      </trkpt>
      <trkpt lat="45.66104" lon="4.63288">
        <ele>495</ele>
        <time>2012-01-14T07:49:50Z</time>
      </trkpt>
      <trkpt lat="45.66099" lon="4.63276">
        <ele>496</ele>
        <time>2012-01-14T07:49:56Z</time>
      </trkpt>
      <trkpt lat="45.66094" lon="4.63257">
        <ele>496</ele>
        <time>2012-01-14T07:50:04Z</time>
      </trkpt>
      <trkpt lat="45.66088" lon="4.6324">
        <ele>498</ele>
        <time>2012-01-14T07:50:11Z</time>
      </trkpt>
      <trkpt lat="45.66078" lon="4.6322">
        <ele>500</ele>
        <time>2012-01-14T07:50:20Z</time>
      </trkpt>
      <trkpt lat="45.66067" lon="4.63206">
        <ele>500</ele>
        <time>2012-01-14T07:50:28Z</time>
      </trkpt>
      <trkpt lat="45.66057" lon="4.63186">
        <ele>500</ele>
        <time>2012-01-14T07:50:36Z</time>
      </trkpt>
      <trkpt lat="45.66056" lon="4.63166">
        <ele>501</ele>
        <time>2012-01-14T07:50:43Z</time>
      </trkpt>
      <trkpt lat="45.66051" lon="4.63153">
        <ele>502</ele>
        <time>2012-01-14T07:50:48Z</time>
      </trkpt>
      <trkpt lat="45.6604" lon="4.63143">
        <ele>503</ele>
        <time>2012-01-14T07:50:54Z</time>
      </trkpt>
      <trkpt lat="45.66026" lon="4.63124">
        <ele>503</ele>
        <time>2012-01-14T07:51:02Z</time>
      </trkpt>
      <trkpt lat="45.66022" lon="4.63119">
        <ele>504</ele>
        <time>2012-01-14T07:51:04Z</time>
      </trkpt>
      <trkpt lat="45.66007" lon="4.63099">
        <ele>504</ele>
        <time>2012-01-14T07:51:11Z</time>
      </trkpt>
      <trkpt lat="45.65991" lon="4.63077">
        <ele>504</ele>
        <time>2012-01-14T07:51:19Z</time>
      </trkpt>
      <trkpt lat="45.65982" lon="4.63058">
        <ele>505</ele>
        <time>2012-01-14T07:51:25Z</time>
      </trkpt>
      <trkpt lat="45.65967" lon="4.6303">
        <ele>506</ele>
        <time>2012-01-14T07:51:34Z</time>
      </trkpt>
      <trkpt lat="45.65951" lon="4.63005">
        <ele>507</ele>
        <time>2012-01-14T07:51:43Z</time>
      </trkpt>
      <trkpt lat="45.65942" lon="4.62984">
        <ele>506</ele>
        <time>2012-01-14T07:51:49Z</time>
      </trkpt>
      <trkpt lat="45.65939" lon="4.62968">
        <ele>505</ele>
        <time>2012-01-14T07:51:52Z</time>
      </trkpt>
      <trkpt lat="45.65939" lon="4.62961">
        <ele>505</ele>
        <time>2012-01-14T07:51:53Z</time>
      </trkpt>
      <trkpt lat="45.65938" lon="4.62954">
        <ele>504</ele>
        <time>2012-01-14T07:51:54Z</time>
      </trkpt>
      <trkpt lat="45.65939" lon="4.62946">
        <ele>504</ele>
        <time>2012-01-14T07:51:55Z</time>
      </trkpt>
      <trkpt lat="45.65939" lon="4.62939">
        <ele>502</ele>
        <time>2012-01-14T07:51:56Z</time>
      </trkpt>
      <trkpt lat="45.65939" lon="4.62931">
        <ele>502</ele>
        <time>2012-01-14T07:51:57Z</time>
      </trkpt>
      <trkpt lat="45.65939" lon="4.62924">
        <ele>503</ele>
        <time>2012-01-14T07:51:58Z</time>
      </trkpt>
      <trkpt lat="45.65939" lon="4.62916">
        <ele>503</ele>
        <time>2012-01-14T07:51:59Z</time>
      </trkpt>
      <trkpt lat="45.65937" lon="4.6286">
        <ele>501</ele>
        <time>2012-01-14T07:52:06Z</time>
      </trkpt>
      <trkpt lat="45.65933" lon="4.62844">
        <ele>501</ele>
        <time>2012-01-14T07:52:08Z</time>
      </trkpt>
      <trkpt lat="45.65931" lon="4.62837">
        <ele>501</ele>
        <time>2012-01-14T07:52:09Z</time>
      </trkpt>
      <trkpt lat="45.65928" lon="4.6283">
        <ele>500</ele>
        <time>2012-01-14T07:52:10Z</time>
      </trkpt>
      <trkpt lat="45.65925" lon="4.62823">
        <ele>500</ele>
        <time>2012-01-14T07:52:11Z</time>
      </trkpt>
      <trkpt lat="45.65921" lon="4.62816">
        <ele>500</ele>
        <time>2012-01-14T07:52:12Z</time>
      </trkpt>
      <trkpt lat="45.65905" lon="4.62787">
        <ele>499</ele>
        <time>2012-01-14T07:52:16Z</time>
      </trkpt>
      <trkpt lat="45.65901" lon="4.62782">
        <ele>498</ele>
        <time>2012-01-14T07:52:17Z</time>
      </trkpt>
      <trkpt lat="45.65895" lon="4.62777">
        <ele>498</ele>
        <time>2012-01-14T07:52:18Z</time>
      </trkpt>
      <trkpt lat="45.65889" lon="4.62775">
        <ele>498</ele>
        <time>2012-01-14T07:52:19Z</time>
      </trkpt>
      <trkpt lat="45.65883" lon="4.62774">
        <ele>498</ele>
        <time>2012-01-14T07:52:20Z</time>
      </trkpt>
      <trkpt lat="45.65877" lon="4.62774">
        <ele>498</ele>
        <time>2012-01-14T07:52:21Z</time>
      </trkpt>
      <trkpt lat="45.65861" lon="4.62773">
        <ele>497</ele>
        <time>2012-01-14T07:52:24Z</time>
      </trkpt>
      <trkpt lat="45.65856" lon="4.62773">
        <ele>497</ele>
        <time>2012-01-14T07:52:25Z</time>
      </trkpt>
      <trkpt lat="45.65834" lon="4.62775">
        <ele>498</ele>
        <time>2012-01-14T07:52:31Z</time>
      </trkpt>
      <trkpt lat="45.65812" lon="4.62775">
        <ele>499</ele>
        <time>2012-01-14T07:52:40Z</time>
      </trkpt>
      <trkpt lat="45.65792" lon="4.62772">
        <ele>501</ele>
        <time>2012-01-14T07:52:49Z</time>
      </trkpt>
      <trkpt lat="45.65774" lon="4.62768">
        <ele>503</ele>
        <time>2012-01-14T07:52:58Z</time>
      </trkpt>
      <trkpt lat="45.65757" lon="4.62759">
        <ele>506</ele>
        <time>2012-01-14T07:53:07Z</time>
      </trkpt>
      <trkpt lat="45.65739" lon="4.62751">
        <ele>508</ele>
        <time>2012-01-14T07:53:15Z</time>
      </trkpt>
      <trkpt lat="45.65719" lon="4.62743">
        <ele>509</ele>
        <time>2012-01-14T07:53:23Z</time>
      </trkpt>
      <trkpt lat="45.65696" lon="4.62734">
        <ele>509</ele>
        <time>2012-01-14T07:53:33Z</time>
      </trkpt>
      <trkpt lat="45.65679" lon="4.62727">
        <ele>509</ele>
        <time>2012-01-14T07:53:41Z</time>
      </trkpt>
      <trkpt lat="45.65668" lon="4.62719">
        <ele>508</ele>
        <time>2012-01-14T07:53:44Z</time>
      </trkpt>
      <trkpt lat="45.65657" lon="4.6271">
        <ele>508</ele>
        <time>2012-01-14T07:53:47Z</time>
      </trkpt>
      <trkpt lat="45.65653" lon="4.62705">
        <ele>508</ele>
        <time>2012-01-14T07:53:48Z</time>
      </trkpt>
      <trkpt lat="45.65623" lon="4.62673">
        <ele>506</ele>
        <time>2012-01-14T07:53:56Z</time>
      </trkpt>
      <trkpt lat="45.6562" lon="4.6267">
        <ele>506</ele>
        <time>2012-01-14T07:53:57Z</time>
      </trkpt>
      <trkpt lat="45.65617" lon="4.62665">
        <ele>506</ele>
        <time>2012-01-14T07:53:58Z</time>
      </trkpt>
      <trkpt lat="45.65614" lon="4.62661">
        <ele>506</ele>
        <time>2012-01-14T07:53:59Z</time>
      </trkpt>
      <trkpt lat="45.65603" lon="4.6264">
        <ele>506</ele>
        <time>2012-01-14T07:54:05Z</time>
      </trkpt>
      <trkpt lat="45.65603" lon="4.62626">
        <ele>507</ele>
        <time>2012-01-14T07:54:10Z</time>
      </trkpt>
      <trkpt lat="45.65605" lon="4.62607">
        <ele>510</ele>
        <time>2012-01-14T07:54:17Z</time>
      </trkpt>
      <trkpt lat="45.6561" lon="4.62584">
        <ele>511</ele>
        <time>2012-01-14T07:54:25Z</time>
      </trkpt>
      <trkpt lat="45.65619" lon="4.62555">
        <ele>512</ele>
        <time>2012-01-14T07:54:35Z</time>
      </trkpt>
      <trkpt lat="45.65627" lon="4.62533">
        <ele>512</ele>
        <time>2012-01-14T07:54:42Z</time>
      </trkpt>
      <trkpt lat="45.65629" lon="4.62529">
        <ele>512</ele>
        <time>2012-01-14T07:54:43Z</time>
      </trkpt>
      <trkpt lat="45.6564" lon="4.62486">
        <ele>509</ele>
        <time>2012-01-14T07:54:49Z</time>
      </trkpt>
      <trkpt lat="45.65645" lon="4.62468">
        <ele>508</ele>
        <time>2012-01-14T07:54:51Z</time>
      </trkpt>
      <trkpt lat="45.65654" lon="4.62442">
        <ele>507</ele>
        <time>2012-01-14T07:54:54Z</time>
      </trkpt>
      <trkpt lat="45.65658" lon="4.62434">
        <ele>506</ele>
        <time>2012-01-14T07:54:55Z</time>
      </trkpt>
      <trkpt lat="45.65662" lon="4.62427">
        <ele>506</ele>
        <time>2012-01-14T07:54:56Z</time>
      </trkpt>
      <trkpt lat="45.65666" lon="4.62421">
        <ele>506</ele>
        <time>2012-01-14T07:54:57Z</time>
      </trkpt>
      <trkpt lat="45.65671" lon="4.62416">
        <ele>505</ele>
        <time>2012-01-14T07:54:58Z</time>
      </trkpt>
      <trkpt lat="45.65683" lon="4.62402">
        <ele>505</ele>
        <time>2012-01-14T07:55:01Z</time>
      </trkpt>
      <trkpt lat="45.65692" lon="4.62378">
        <ele>505</ele>
        <time>2012-01-14T07:55:06Z</time>
      </trkpt>
      <trkpt lat="45.65696" lon="4.62349">
        <ele>506</ele>
        <time>2012-01-14T07:55:12Z</time>
      </trkpt>
      <trkpt lat="45.65692" lon="4.62315">
        <ele>507</ele>
        <time>2012-01-14T07:55:20Z</time>
      </trkpt>
      <trkpt lat="45.65689" lon="4.62295">
        <ele>509</ele>
        <time>2012-01-14T07:55:27Z</time>
      </trkpt>
      <trkpt lat="45.65689" lon="4.62292">
        <ele>509</ele>
        <time>2012-01-14T07:55:28Z</time>
      </trkpt>
      <trkpt lat="45.65688" lon="4.62289">
        <ele>510</ele>
        <time>2012-01-14T07:55:29Z</time>
      </trkpt>
      <trkpt lat="45.65686" lon="4.6227">
        <ele>512</ele>
        <time>2012-01-14T07:55:36Z</time>
      </trkpt>
      <trkpt lat="45.65686" lon="4.62249">
        <ele>514</ele>
        <time>2012-01-14T07:55:45Z</time>
      </trkpt>
      <trkpt lat="45.65687" lon="4.62228">
        <ele>517</ele>
        <time>2012-01-14T07:55:54Z</time>
      </trkpt>
      <trkpt lat="45.65688" lon="4.6221">
        <ele>518</ele>
        <time>2012-01-14T07:56:02Z</time>
      </trkpt>
      <trkpt lat="45.65692" lon="4.62193">
        <ele>520</ele>
        <time>2012-01-14T07:56:10Z</time>
      </trkpt>
      <trkpt lat="45.65696" lon="4.6218">
        <ele>520</ele>
        <time>2012-01-14T07:56:16Z</time>
      </trkpt>
      <trkpt lat="45.65698" lon="4.62162">
        <ele>522</ele>
        <time>2012-01-14T07:56:23Z</time>
      </trkpt>
      <trkpt lat="45.657" lon="4.62142">
        <ele>524</ele>
        <time>2012-01-14T07:56:31Z</time>
      </trkpt>
      <trkpt lat="45.65701" lon="4.62124">
        <ele>525</ele>
        <time>2012-01-14T07:56:38Z</time>
      </trkpt>
      <trkpt lat="45.65701" lon="4.62107">
        <ele>525</ele>
        <time>2012-01-14T07:56:45Z</time>
      </trkpt>
      <trkpt lat="45.65701" lon="4.62104">
        <ele>526</ele>
        <time>2012-01-14T07:56:46Z</time>
      </trkpt>
      <trkpt lat="45.65703" lon="4.62084">
        <ele>527</ele>
        <time>2012-01-14T07:56:53Z</time>
      </trkpt>
      <trkpt lat="45.65703" lon="4.62061">
        <ele>527</ele>
        <time>2012-01-14T07:57:01Z</time>
      </trkpt>
      <trkpt lat="45.65707" lon="4.62041">
        <ele>526</ele>
        <time>2012-01-14T07:57:07Z</time>
      </trkpt>
      <trkpt lat="45.65716" lon="4.62019">
        <ele>527</ele>
        <time>2012-01-14T07:57:15Z</time>
      </trkpt>
      <trkpt lat="45.65728" lon="4.61994">
        <ele>527</ele>
        <time>2012-01-14T07:57:24Z</time>
      </trkpt>
      <trkpt lat="45.6574" lon="4.61965">
        <ele>528</ele>
        <time>2012-01-14T07:57:34Z</time>
      </trkpt>
      <trkpt lat="45.65746" lon="4.61949">
        <ele>529</ele>
        <time>2012-01-14T07:57:40Z</time>
      </trkpt>
      <trkpt lat="45.65751" lon="4.61926">
        <ele>532</ele>
        <time>2012-01-14T07:57:49Z</time>
      </trkpt>
      <trkpt lat="45.65752" lon="4.61921">
        <ele>533</ele>
        <time>2012-01-14T07:57:51Z</time>
      </trkpt>
      <trkpt lat="45.65752" lon="4.61919">
        <ele>532</ele>
        <time>2012-01-14T07:57:52Z</time>
      </trkpt>
      <trkpt lat="45.65754" lon="4.61894">
        <ele>532</ele>
        <time>2012-01-14T07:58:00Z</time>
      </trkpt>
      <trkpt lat="45.65754" lon="4.61868">
        <ele>530</ele>
        <time>2012-01-14T07:58:03Z</time>
      </trkpt>
      <trkpt lat="45.65755" lon="4.61858">
        <ele>529</ele>
        <time>2012-01-14T07:58:04Z</time>
      </trkpt>
      <trkpt lat="45.65758" lon="4.61848">
        <ele>528</ele>
        <time>2012-01-14T07:58:05Z</time>
      </trkpt>
      <trkpt lat="45.65761" lon="4.61837">
        <ele>528</ele>
        <time>2012-01-14T07:58:06Z</time>
      </trkpt>
      <trkpt lat="45.65773" lon="4.61797">
        <ele>525</ele>
        <time>2012-01-14T07:58:10Z</time>
      </trkpt>
      <trkpt lat="45.65778" lon="4.61774">
        <ele>522</ele>
        <time>2012-01-14T07:58:13Z</time>
      </trkpt>
      <trkpt lat="45.65778" lon="4.61769">
        <ele>522</ele>
        <time>2012-01-14T07:58:14Z</time>
      </trkpt>
      <trkpt lat="45.65777" lon="4.61763">
        <ele>521</ele>
        <time>2012-01-14T07:58:15Z</time>
      </trkpt>
      <trkpt lat="45.65774" lon="4.61756">
        <ele>521</ele>
        <time>2012-01-14T07:58:16Z</time>
      </trkpt>
      <trkpt lat="45.65772" lon="4.61751">
        <ele>521</ele>
        <time>2012-01-14T07:58:17Z</time>
      </trkpt>
      <trkpt lat="45.65769" lon="4.61748">
        <ele>522</ele>
        <time>2012-01-14T07:58:18Z</time>
      </trkpt>
      <trkpt lat="45.65767" lon="4.61748">
        <ele>522</ele>
        <time>2012-01-14T07:58:19Z</time>
      </trkpt>
      <trkpt lat="45.65765" lon="4.61747">
        <ele>522</ele>
        <time>2012-01-14T07:58:20Z</time>
      </trkpt>
      <trkpt lat="45.65763" lon="4.61747">
        <ele>522</ele>
        <time>2012-01-14T07:58:21Z</time>
      </trkpt>
      <trkpt lat="45.65761" lon="4.61747">
        <ele>522</ele>
        <time>2012-01-14T07:58:22Z</time>
      </trkpt>
      <trkpt lat="45.65759" lon="4.61746">
        <ele>522</ele>
        <time>2012-01-14T07:58:23Z</time>
      </trkpt>
      <trkpt lat="45.65757" lon="4.61746">
        <ele>522</ele>
        <time>2012-01-14T07:58:24Z</time>
      </trkpt>
      <trkpt lat="45.65755" lon="4.61746">
        <ele>523</ele>
        <time>2012-01-14T07:58:25Z</time>
      </trkpt>
      <trkpt lat="45.65754" lon="4.61745">
        <ele>523</ele>
        <time>2012-01-14T07:58:26Z</time>
      </trkpt>
      <trkpt lat="45.65752" lon="4.61744">
        <ele>523</ele>
        <time>2012-01-14T07:58:27Z</time>
      </trkpt>
      <trkpt lat="45.65749" lon="4.61743">
        <ele>523</ele>
        <time>2012-01-14T07:58:28Z</time>
      </trkpt>
      <trkpt lat="45.6574" lon="4.61741">
        <ele>524</ele>
        <time>2012-01-14T07:58:34Z</time>
      </trkpt>
      <trkpt lat="45.65722" lon="4.61737">
        <ele>527</ele>
        <time>2012-01-14T07:58:44Z</time>
      </trkpt>
      <trkpt lat="45.65707" lon="4.61728">
        <ele>531</ele>
        <time>2012-01-14T07:58:54Z</time>
      </trkpt>
      <trkpt lat="45.65705" lon="4.61726">
        <ele>531</ele>
        <time>2012-01-14T07:58:55Z</time>
      </trkpt>
      <trkpt lat="45.65704" lon="4.61724">
        <ele>531</ele>
        <time>2012-01-14T07:58:56Z</time>
      </trkpt>
      <trkpt lat="45.65704" lon="4.61721">
        <ele>531</ele>
        <time>2012-01-14T07:58:57Z</time>
      </trkpt>
      <trkpt lat="45.65704" lon="4.61698">
        <ele>535</ele>
        <time>2012-01-14T07:59:07Z</time>
      </trkpt>
      <trkpt lat="45.65709" lon="4.61679">
        <ele>536</ele>
        <time>2012-01-14T07:59:15Z</time>
      </trkpt>
      <trkpt lat="45.65714" lon="4.61662">
        <ele>537</ele>
        <time>2012-01-14T07:59:23Z</time>
      </trkpt>
      <trkpt lat="45.65715" lon="4.6166">
        <ele>537</ele>
        <time>2012-01-14T07:59:24Z</time>
      </trkpt>
      <trkpt lat="45.65716" lon="4.61657">
        <ele>538</ele>
        <time>2012-01-14T07:59:25Z</time>
      </trkpt>
      <trkpt lat="45.65717" lon="4.61655">
        <ele>538</ele>
        <time>2012-01-14T07:59:26Z</time>
      </trkpt>
      <trkpt lat="45.65718" lon="4.61653">
        <ele>538</ele>
        <time>2012-01-14T07:59:27Z</time>
      </trkpt>
      <trkpt lat="45.65719" lon="4.6165">
        <ele>538</ele>
        <time>2012-01-14T07:59:28Z</time>
      </trkpt>
      <trkpt lat="45.65719" lon="4.61648">
        <ele>538</ele>
        <time>2012-01-14T07:59:29Z</time>
      </trkpt>
      <trkpt lat="45.65724" lon="4.6163">
        <ele>540</ele>
        <time>2012-01-14T07:59:37Z</time>
      </trkpt>
      <trkpt lat="45.65726" lon="4.61613">
        <ele>542</ele>
        <time>2012-01-14T07:59:44Z</time>
      </trkpt>
      <trkpt lat="45.65726" lon="4.61593">
        <ele>542</ele>
        <time>2012-01-14T07:59:52Z</time>
      </trkpt>
      <trkpt lat="45.65725" lon="4.61578">
        <ele>544</ele>
        <time>2012-01-14T07:59:58Z</time>
      </trkpt>
      <trkpt lat="45.65722" lon="4.61558">
        <ele>544</ele>
        <time>2012-01-14T08:00:05Z</time>
      </trkpt>
      <trkpt lat="45.65717" lon="4.61538">
        <ele>545</ele>
        <time>2012-01-14T08:00:13Z</time>
      </trkpt>
      <trkpt lat="45.65709" lon="4.6152">
        <ele>545</ele>
        <time>2012-01-14T08:00:20Z</time>
      </trkpt>
      <trkpt lat="45.65703" lon="4.61508">
        <ele>546</ele>
        <time>2012-01-14T08:00:26Z</time>
      </trkpt>
      <trkpt lat="45.65695" lon="4.61489">
        <ele>547</ele>
        <time>2012-01-14T08:00:33Z</time>
      </trkpt>
      <trkpt lat="45.65689" lon="4.61471">
        <ele>549</ele>
        <time>2012-01-14T08:00:42Z</time>
      </trkpt>
      <trkpt lat="45.65683" lon="4.61457">
        <ele>550</ele>
        <time>2012-01-14T08:00:49Z</time>
      </trkpt>
      <trkpt lat="45.65677" lon="4.61441">
        <ele>552</ele>
        <time>2012-01-14T08:00:57Z</time>
      </trkpt>
      <trkpt lat="45.65669" lon="4.61422">
        <ele>553</ele>
        <time>2012-01-14T08:01:07Z</time>
      </trkpt>
      <trkpt lat="45.65664" lon="4.61406">
        <ele>555</ele>
        <time>2012-01-14T08:01:15Z</time>
      </trkpt>
      <trkpt lat="45.65659" lon="4.61393">
        <ele>557</ele>
        <time>2012-01-14T08:01:22Z</time>
      </trkpt>
      <trkpt lat="45.65659" lon="4.61391">
        <ele>557</ele>
        <time>2012-01-14T08:01:23Z</time>
      </trkpt>
      <trkpt lat="45.65658" lon="4.61389">
        <ele>557</ele>
        <time>2012-01-14T08:01:24Z</time>
      </trkpt>
      <trkpt lat="45.65657" lon="4.61387">
        <ele>558</ele>
        <time>2012-01-14T08:01:25Z</time>
      </trkpt>
      <trkpt lat="45.65657" lon="4.61384">
        <ele>557</ele>
        <time>2012-01-14T08:01:26Z</time>
      </trkpt>
      <trkpt lat="45.65656" lon="4.61382">
        <ele>558</ele>
        <time>2012-01-14T08:01:27Z</time>
      </trkpt>
      <trkpt lat="45.65647" lon="4.61364">
        <ele>560</ele>
        <time>2012-01-14T08:01:37Z</time>
      </trkpt>
      <trkpt lat="45.65641" lon="4.61351">
        <ele>562</ele>
        <time>2012-01-14T08:01:44Z</time>
      </trkpt>
      <trkpt lat="45.65634" lon="4.61335">
        <ele>563</ele>
        <time>2012-01-14T08:01:52Z</time>
      </trkpt>
      <trkpt lat="45.65626" lon="4.61319">
        <ele>564</ele>
        <time>2012-01-14T08:02:00Z</time>
      </trkpt>
      <trkpt lat="45.65618" lon="4.61304">
        <ele>565</ele>
        <time>2012-01-14T08:02:08Z</time>
      </trkpt>
      <trkpt lat="45.6561" lon="4.61285">
        <ele>567</ele>
        <time>2012-01-14T08:02:18Z</time>
      </trkpt>
      <trkpt lat="45.65605" lon="4.61262">
        <ele>569</ele>
        <time>2012-01-14T08:02:28Z</time>
      </trkpt>
      <trkpt lat="45.65606" lon="4.61239">
        <ele>570</ele>
        <time>2012-01-14T08:02:37Z</time>
      </trkpt>
      <trkpt lat="45.6561" lon="4.61219">
        <ele>572</ele>
        <time>2012-01-14T08:02:45Z</time>
      </trkpt>
      <trkpt lat="45.65613" lon="4.61203">
        <ele>574</ele>
        <time>2012-01-14T08:02:52Z</time>
      </trkpt>
      <trkpt lat="45.65616" lon="4.61183">
        <ele>575</ele>
        <time>2012-01-14T08:03:00Z</time>
      </trkpt>
      <trkpt lat="45.65625" lon="4.6116">
        <ele>577</ele>
        <time>2012-01-14T08:03:10Z</time>
      </trkpt>
      <trkpt lat="45.65635" lon="4.61144">
        <ele>576</ele>
        <time>2012-01-14T08:03:18Z</time>
      </trkpt>
      <trkpt lat="45.65644" lon="4.6113">
        <ele>577</ele>
        <time>2012-01-14T08:03:25Z</time>
      </trkpt>
      <trkpt lat="45.65647" lon="4.61127">
        <ele>577</ele>
        <time>2012-01-14T08:03:27Z</time>
      </trkpt>
      <trkpt lat="45.65648" lon="4.61124">
        <ele>578</ele>
        <time>2012-01-14T08:03:28Z</time>
      </trkpt>
      <trkpt lat="45.65654" lon="4.61095">
        <ele>579</ele>
        <time>2012-01-14T08:03:38Z</time>
      </trkpt>
      <trkpt lat="45.6565" lon="4.61069">
        <ele>581</ele>
        <time>2012-01-14T08:03:47Z</time>
      </trkpt>
      <trkpt lat="45.6564" lon="4.6105">
        <ele>581</ele>
        <time>2012-01-14T08:03:55Z</time>
      </trkpt>
      <trkpt lat="45.65626" lon="4.61033">
        <ele>583</ele>
        <time>2012-01-14T08:04:04Z</time>
      </trkpt>
      <trkpt lat="45.65617" lon="4.6102">
        <ele>584</ele>
        <time>2012-01-14T08:04:11Z</time>
      </trkpt>
      <trkpt lat="45.656" lon="4.61011">
        <ele>583</ele>
        <time>2012-01-14T08:04:18Z</time>
      </trkpt>
      <trkpt lat="45.65576" lon="4.61008">
        <ele>582</ele>
        <time>2012-01-14T08:04:27Z</time>
      </trkpt>
      <trkpt lat="45.65561" lon="4.6101">
        <ele>583</ele>
        <time>2012-01-14T08:04:32Z</time>
      </trkpt>
      <trkpt lat="45.65541" lon="4.61008">
        <ele>583</ele>
        <time>2012-01-14T08:04:39Z</time>
      </trkpt>
      <trkpt lat="45.65535" lon="4.61002">
        <ele>582</ele>
        <time>2012-01-14T08:04:41Z</time>
      </trkpt>
      <trkpt lat="45.65532" lon="4.60997">
        <ele>582</ele>
        <time>2012-01-14T08:04:42Z</time>
      </trkpt>
      <trkpt lat="45.65527" lon="4.60987">
        <ele>581</ele>
        <time>2012-01-14T08:04:44Z</time>
      </trkpt>
      <trkpt lat="45.65512" lon="4.60939">
        <ele>579</ele>
        <time>2012-01-14T08:04:51Z</time>
      </trkpt>
      <trkpt lat="45.6551" lon="4.60932">
        <ele>579</ele>
        <time>2012-01-14T08:04:52Z</time>
      </trkpt>
      <trkpt lat="45.65489" lon="4.60866">
        <ele>577</ele>
        <time>2012-01-14T08:05:01Z</time>
      </trkpt>
      <trkpt lat="45.6548" lon="4.60826">
        <ele>576</ele>
        <time>2012-01-14T08:05:06Z</time>
      </trkpt>
      <trkpt lat="45.6548" lon="4.60818">
        <ele>576</ele>
        <time>2012-01-14T08:05:07Z</time>
      </trkpt>
      <trkpt lat="45.6548" lon="4.60812">
        <ele>575</ele>
        <time>2012-01-14T08:05:08Z</time>
      </trkpt>
      <trkpt lat="45.6548" lon="4.60807">
        <ele>576</ele>
        <time>2012-01-14T08:05:09Z</time>
      </trkpt>
      <trkpt lat="45.6548" lon="4.60802">
        <ele>576</ele>
        <time>2012-01-14T08:05:10Z</time>
      </trkpt>
      <trkpt lat="45.65481" lon="4.60797">
        <ele>576</ele>
        <time>2012-01-14T08:05:11Z</time>
      </trkpt>
      <trkpt lat="45.65492" lon="4.60772">
        <ele>577</ele>
        <time>2012-01-14T08:05:18Z</time>
      </trkpt>
      <trkpt lat="45.65499" lon="4.60738">
        <ele>576</ele>
        <time>2012-01-14T08:05:26Z</time>
      </trkpt>
      <trkpt lat="45.65506" lon="4.60691">
        <ele>575</ele>
        <time>2012-01-14T08:05:34Z</time>
      </trkpt>
      <trkpt lat="45.65513" lon="4.60627">
        <ele>573</ele>
        <time>2012-01-14T08:05:44Z</time>
      </trkpt>
      <trkpt lat="45.6552" lon="4.60592">
        <ele>570</ele>
        <time>2012-01-14T08:05:51Z</time>
      </trkpt>
      <trkpt lat="45.65521" lon="4.60587">
        <ele>571</ele>
        <time>2012-01-14T08:05:52Z</time>
      </trkpt>
      <trkpt lat="45.65519" lon="4.60584">
        <ele>570</ele>
        <time>2012-01-14T08:05:53Z</time>
      </trkpt>
      <trkpt lat="45.65518" lon="4.6058">
        <ele>570</ele>
        <time>2012-01-14T08:05:54Z</time>
      </trkpt>
      <trkpt lat="45.65516" lon="4.60578">
        <ele>569</ele>
        <time>2012-01-14T08:05:55Z</time>
      </trkpt>
      <trkpt lat="45.65513" lon="4.60577">
        <ele>569</ele>
        <time>2012-01-14T08:05:56Z</time>
      </trkpt>
      <trkpt lat="45.65511" lon="4.60575">
        <ele>568</ele>
        <time>2012-01-14T08:05:57Z</time>
      </trkpt>
      <trkpt lat="45.65507" lon="4.60573">
        <ele>567</ele>
        <time>2012-01-14T08:05:58Z</time>
      </trkpt>
      <trkpt lat="45.65503" lon="4.60572">
        <ele>566</ele>
        <time>2012-01-14T08:05:59Z</time>
      </trkpt>
      <trkpt lat="45.65497" lon="4.60571">
        <ele>564</ele>
        <time>2012-01-14T08:06:00Z</time>
      </trkpt>
      <trkpt lat="45.65492" lon="4.6057">
        <ele>563</ele>
        <time>2012-01-14T08:06:01Z</time>
      </trkpt>
      <trkpt lat="45.65486" lon="4.6057">
        <ele>562</ele>
        <time>2012-01-14T08:06:02Z</time>
      </trkpt>
      <trkpt lat="45.65479" lon="4.60571">
        <ele>561</ele>
        <time>2012-01-14T08:06:03Z</time>
      </trkpt>
      <trkpt lat="45.65473" lon="4.60573">
        <ele>560</ele>
        <time>2012-01-14T08:06:04Z</time>
      </trkpt>
      <trkpt lat="45.65453" lon="4.60583">
        <ele>557</ele>
        <time>2012-01-14T08:06:07Z</time>
      </trkpt>
      <trkpt lat="45.65438" lon="4.60592">
        <ele>555</ele>
        <time>2012-01-14T08:06:09Z</time>
      </trkpt>
      <trkpt lat="45.65429" lon="4.60595">
        <ele>555</ele>
        <time>2012-01-14T08:06:10Z</time>
      </trkpt>
      <trkpt lat="45.65412" lon="4.606">
        <ele>555</ele>
        <time>2012-01-14T08:06:13Z</time>
      </trkpt>
      <trkpt lat="45.65404" lon="4.60601">
        <ele>557</ele>
        <time>2012-01-14T08:06:18Z</time>
      </trkpt>
      <trkpt lat="45.65403" lon="4.60601">
        <ele>557</ele>
        <time>2012-01-14T08:06:19Z</time>
      </trkpt>
      <trkpt lat="45.65401" lon="4.60601">
        <ele>557</ele>
        <time>2012-01-14T08:06:20Z</time>
      </trkpt>
      <trkpt lat="45.65393" lon="4.60604">
        <ele>559</ele>
        <time>2012-01-14T08:06:27Z</time>
      </trkpt>
      <trkpt lat="45.65384" lon="4.60608">
        <ele>560</ele>
        <time>2012-01-14T08:06:34Z</time>
      </trkpt>
      <trkpt lat="45.6538" lon="4.6061">
        <ele>561</ele>
        <time>2012-01-14T08:06:37Z</time>
      </trkpt>
      <trkpt lat="45.65378" lon="4.60612">
        <ele>560</ele>
        <time>2012-01-14T08:06:39Z</time>
      </trkpt>
      <trkpt lat="45.65377" lon="4.60615">
        <ele>562</ele>
        <time>2012-01-14T08:06:40Z</time>
      </trkpt>
      <trkpt lat="45.65377" lon="4.60617">
        <ele>562</ele>
        <time>2012-01-14T08:06:41Z</time>
      </trkpt>
      <trkpt lat="45.65376" lon="4.60619">
        <ele>562</ele>
        <time>2012-01-14T08:06:42Z</time>
      </trkpt>
      <trkpt lat="45.65374" lon="4.60623">
        <ele>563</ele>
        <time>2012-01-14T08:06:44Z</time>
      </trkpt>
      <trkpt lat="45.65373" lon="4.60625">
        <ele>563</ele>
        <time>2012-01-14T08:06:45Z</time>
      </trkpt>
      <trkpt lat="45.65367" lon="4.60633">
        <ele>564</ele>
        <time>2012-01-14T08:06:52Z</time>
      </trkpt>
      <trkpt lat="45.65365" lon="4.60635">
        <ele>565</ele>
        <time>2012-01-14T08:06:53Z</time>
      </trkpt>
      <trkpt lat="45.65364" lon="4.60635">
        <ele>565</ele>
        <time>2012-01-14T08:06:54Z</time>
      </trkpt>
      <trkpt lat="45.65362" lon="4.60637">
        <ele>565</ele>
        <time>2012-01-14T08:06:56Z</time>
      </trkpt>
      <trkpt lat="45.6536" lon="4.6064">
        <ele>566</ele>
        <time>2012-01-14T08:07:01Z</time>
      </trkpt>
      <trkpt lat="45.65356" lon="4.60643">
        <ele>567</ele>
        <time>2012-01-14T08:07:07Z</time>
      </trkpt>
      <trkpt lat="45.6535" lon="4.6065">
        <ele>568</ele>
        <time>2012-01-14T08:07:15Z</time>
      </trkpt>
      <trkpt lat="45.65343" lon="4.60656">
        <ele>569</ele>
        <time>2012-01-14T08:07:23Z</time>
      </trkpt>
      <trkpt lat="45.65336" lon="4.6066">
        <ele>572</ele>
        <time>2012-01-14T08:07:31Z</time>
      </trkpt>
      <trkpt lat="45.65331" lon="4.60665">
        <ele>573</ele>
        <time>2012-01-14T08:07:40Z</time>
      </trkpt>
      <trkpt lat="45.65327" lon="4.60668">
        <ele>574</ele>
        <time>2012-01-14T08:07:47Z</time>
      </trkpt>
      <trkpt lat="45.65324" lon="4.60671">
        <ele>574</ele>
        <time>2012-01-14T08:07:53Z</time>
      </trkpt>
      <trkpt lat="45.65323" lon="4.60671">
        <ele>574</ele>
        <time>2012-01-14T08:08:01Z</time>
      </trkpt>
      <trkpt lat="45.65321" lon="4.60672">
        <ele>575</ele>
        <time>2012-01-14T08:08:06Z</time>
      </trkpt>
      <trkpt lat="45.6532" lon="4.60672">
        <ele>575</ele>
        <time>2012-01-14T08:08:07Z</time>
      </trkpt>
      <trkpt lat="45.65318" lon="4.60672">
        <ele>575</ele>
        <time>2012-01-14T08:08:08Z</time>
      </trkpt>
      <trkpt lat="45.65317" lon="4.60672">
        <ele>575</ele>
        <time>2012-01-14T08:08:09Z</time>
      </trkpt>
      <trkpt lat="45.65308" lon="4.60673">
        <ele>577</ele>
        <time>2012-01-14T08:08:15Z</time>
      </trkpt>
      <trkpt lat="45.65306" lon="4.60673">
        <ele>577</ele>
        <time>2012-01-14T08:08:16Z</time>
      </trkpt>
      <trkpt lat="45.65304" lon="4.60674">
        <ele>577</ele>
        <time>2012-01-14T08:08:17Z</time>
      </trkpt>
      <trkpt lat="45.65303" lon="4.60674">
        <ele>577</ele>
        <time>2012-01-14T08:08:18Z</time>
      </trkpt>
      <trkpt lat="45.65301" lon="4.60675">
        <ele>577</ele>
        <time>2012-01-14T08:08:19Z</time>
      </trkpt>
      <trkpt lat="45.65299" lon="4.60674">
        <ele>578</ele>
        <time>2012-01-14T08:08:20Z</time>
      </trkpt>
      <trkpt lat="45.65298" lon="4.60674">
        <ele>578</ele>
        <time>2012-01-14T08:08:21Z</time>
      </trkpt>
      <trkpt lat="45.65296" lon="4.60674">
        <ele>578</ele>
        <time>2012-01-14T08:08:22Z</time>
      </trkpt>
      <trkpt lat="45.65294" lon="4.60674">
        <ele>578</ele>
        <time>2012-01-14T08:08:23Z</time>
      </trkpt>
      <trkpt lat="45.65293" lon="4.60674">
        <ele>578</ele>
        <time>2012-01-14T08:08:24Z</time>
      </trkpt>
      <trkpt lat="45.65284" lon="4.60672">
        <ele>579</ele>
        <time>2012-01-14T08:08:30Z</time>
      </trkpt>
      <trkpt lat="45.65283" lon="4.60672">
        <ele>579</ele>
        <time>2012-01-14T08:08:31Z</time>
      </trkpt>
      <trkpt lat="45.65281" lon="4.60672">
        <ele>579</ele>
        <time>2012-01-14T08:08:32Z</time>
      </trkpt>
      <trkpt lat="45.6527" lon="4.60672">
        <ele>581</ele>
        <time>2012-01-14T08:08:38Z</time>
      </trkpt>
      <trkpt lat="45.6526" lon="4.60672">
        <ele>582</ele>
        <time>2012-01-14T08:08:45Z</time>
      </trkpt>
      <trkpt lat="45.65259" lon="4.60672">
        <ele>582</ele>
        <time>2012-01-14T08:08:46Z</time>
      </trkpt>
      <trkpt lat="45.65257" lon="4.60672">
        <ele>582</ele>
        <time>2012-01-14T08:08:47Z</time>
      </trkpt>
      <trkpt lat="45.65255" lon="4.60672">
        <ele>582</ele>
        <time>2012-01-14T08:08:48Z</time>
      </trkpt>
      <trkpt lat="45.65254" lon="4.60672">
        <ele>583</ele>
        <time>2012-01-14T08:08:49Z</time>
      </trkpt>
      <trkpt lat="45.65252" lon="4.60672">
        <ele>583</ele>
        <time>2012-01-14T08:08:50Z</time>
      </trkpt>
      <trkpt lat="45.65251" lon="4.60672">
        <ele>583</ele>
        <time>2012-01-14T08:08:51Z</time>
      </trkpt>
      <trkpt lat="45.6525" lon="4.60671">
        <ele>583</ele>
        <time>2012-01-14T08:08:52Z</time>
      </trkpt>
      <trkpt lat="45.65248" lon="4.60671">
        <ele>583</ele>
        <time>2012-01-14T08:08:53Z</time>
      </trkpt>
      <trkpt lat="45.65247" lon="4.6067">
        <ele>583</ele>
        <time>2012-01-14T08:08:54Z</time>
      </trkpt>
      <trkpt lat="45.65245" lon="4.6067">
        <ele>583</ele>
        <time>2012-01-14T08:08:55Z</time>
      </trkpt>
      <trkpt lat="45.65244" lon="4.6067">
        <ele>583</ele>
        <time>2012-01-14T08:08:56Z</time>
      </trkpt>
      <trkpt lat="45.65242" lon="4.6067">
        <ele>584</ele>
        <time>2012-01-14T08:08:57Z</time>
      </trkpt>
      <trkpt lat="45.65241" lon="4.6067">
        <ele>583</ele>
        <time>2012-01-14T08:08:58Z</time>
      </trkpt>
      <trkpt lat="45.6524" lon="4.6067">
        <ele>584</ele>
        <time>2012-01-14T08:08:59Z</time>
      </trkpt>
      <trkpt lat="45.65228" lon="4.60672">
        <ele>583</ele>
        <time>2012-01-14T08:09:04Z</time>
      </trkpt>
      <trkpt lat="45.65224" lon="4.60671">
        <ele>582</ele>
        <time>2012-01-14T08:09:05Z</time>
      </trkpt>
      <trkpt lat="45.65212" lon="4.60666">
        <ele>581</ele>
        <time>2012-01-14T08:09:08Z</time>
      </trkpt>
      <trkpt lat="45.65208" lon="4.60664">
        <ele>581</ele>
        <time>2012-01-14T08:09:09Z</time>
      </trkpt>
      <trkpt lat="45.65204" lon="4.60661">
        <ele>581</ele>
        <time>2012-01-14T08:09:10Z</time>
      </trkpt>
      <trkpt lat="45.65189" lon="4.60646">
        <ele>579</ele>
        <time>2012-01-14T08:09:14Z</time>
      </trkpt>
      <trkpt lat="45.65169" lon="4.60624">
        <ele>580</ele>
        <time>2012-01-14T08:09:20Z</time>
      </trkpt>
      <trkpt lat="45.65154" lon="4.60603">
        <ele>581</ele>
        <time>2012-01-14T08:09:27Z</time>
      </trkpt>
      <trkpt lat="45.6514" lon="4.60586">
        <ele>582</ele>
        <time>2012-01-14T08:09:34Z</time>
      </trkpt>
      <trkpt lat="45.65127" lon="4.60572">
        <ele>582</ele>
        <time>2012-01-14T08:09:41Z</time>
      </trkpt>
      <trkpt lat="45.65114" lon="4.6056">
        <ele>584</ele>
        <time>2012-01-14T08:09:49Z</time>
      </trkpt>
      <trkpt lat="45.65103" lon="4.60552">
        <ele>586</ele>
        <time>2012-01-14T08:09:56Z</time>
      </trkpt>
      <trkpt lat="45.65091" lon="4.60547">
        <ele>587</ele>
        <time>2012-01-14T08:10:03Z</time>
      </trkpt>
      <trkpt lat="45.65076" lon="4.60543">
        <ele>588</ele>
        <time>2012-01-14T08:10:12Z</time>
      </trkpt>
      <trkpt lat="45.65061" lon="4.60537">
        <ele>590</ele>
        <time>2012-01-14T08:10:22Z</time>
      </trkpt>
      <trkpt lat="45.6505" lon="4.60529">
        <ele>591</ele>
        <time>2012-01-14T08:10:30Z</time>
      </trkpt>
      <trkpt lat="45.65041" lon="4.60518">
        <ele>593</ele>
        <time>2012-01-14T08:10:37Z</time>
      </trkpt>
      <trkpt lat="45.65033" lon="4.60503">
        <ele>595</ele>
        <time>2012-01-14T08:10:47Z</time>
      </trkpt>
      <trkpt lat="45.65026" lon="4.60492">
        <ele>597</ele>
        <time>2012-01-14T08:10:54Z</time>
      </trkpt>
      <trkpt lat="45.65017" lon="4.60475">
        <ele>600</ele>
        <time>2012-01-14T08:11:04Z</time>
      </trkpt>
      <trkpt lat="45.65015" lon="4.60472">
        <ele>600</ele>
        <time>2012-01-14T08:11:06Z</time>
      </trkpt>
      <trkpt lat="45.65014" lon="4.60471">
        <ele>599</ele>
        <time>2012-01-14T08:11:07Z</time>
      </trkpt>
      <trkpt lat="45.65013" lon="4.60469">
        <ele>600</ele>
        <time>2012-01-14T08:11:08Z</time>
      </trkpt>
      <trkpt lat="45.65012" lon="4.60468">
        <ele>600</ele>
        <time>2012-01-14T08:11:09Z</time>
      </trkpt>
      <trkpt lat="45.65011" lon="4.60466">
        <ele>600</ele>
        <time>2012-01-14T08:11:10Z</time>
      </trkpt>
      <trkpt lat="45.65009" lon="4.60462">
        <ele>600</ele>
        <time>2012-01-14T08:11:16Z</time>
      </trkpt>
      <trkpt lat="45.65009" lon="4.60462">
        <ele>600</ele>
        <time>2012-01-14T08:11:26Z</time>
      </trkpt>
      <trkpt lat="45.65009" lon="4.60462">
        <ele>599</ele>
        <time>2012-01-14T08:11:36Z</time>
      </trkpt>
      <trkpt lat="45.65009" lon="4.60462">
        <ele>600</ele>
        <time>2012-01-14T08:11:48Z</time>
      </trkpt>
      <trkpt lat="45.65009" lon="4.60462">
        <ele>600</ele>
        <time>2012-01-14T08:11:59Z</time>
      </trkpt>
      <trkpt lat="45.65009" lon="4.60462">
        <ele>599</ele>
        <time>2012-01-14T08:12:11Z</time>
      </trkpt>
      <trkpt lat="45.65009" lon="4.60462">
        <ele>600</ele>
        <time>2012-01-14T08:12:18Z</time>
      </trkpt>
      <trkpt lat="45.65009" lon="4.60462">
        <ele>599</ele>
        <time>2012-01-14T08:12:36Z</time>
      </trkpt>
      <trkpt lat="45.65009" lon="4.60462">
        <ele>600</ele>
        <time>2012-01-14T08:12:44Z</time>
      </trkpt>
      <trkpt lat="45.65009" lon="4.60462">
        <ele>600</ele>
        <time>2012-01-14T08:12:58Z</time>
      </trkpt>
      <trkpt lat="45.65009" lon="4.60459">
        <ele>598</ele>
        <time>2012-01-14T08:13:05Z</time>
      </trkpt>
      <trkpt lat="45.65009" lon="4.60459">
        <ele>599</ele>
        <time>2012-01-14T08:13:25Z</time>
      </trkpt>
      <trkpt lat="45.65009" lon="4.6046">
        <ele>598</ele>
        <time>2012-01-14T08:13:43Z</time>
      </trkpt>
      <trkpt lat="45.65009" lon="4.6046">
        <ele>599</ele>
        <time>2012-01-14T08:14:03Z</time>
      </trkpt>
      <trkpt lat="45.65009" lon="4.6046">
        <ele>599</ele>
        <time>2012-01-14T08:14:25Z</time>
      </trkpt>
      <trkpt lat="45.65009" lon="4.6046">
        <ele>599</ele>
        <time>2012-01-14T08:14:45Z</time>
      </trkpt>
      <trkpt lat="45.65009" lon="4.6046">
        <ele>599</ele>
        <time>2012-01-14T08:15:04Z</time>
      </trkpt>
      <trkpt lat="45.65009" lon="4.6046">
        <ele>599</ele>
        <time>2012-01-14T08:15:21Z</time>
      </trkpt>
      <trkpt lat="45.65009" lon="4.6046">
        <ele>599</ele>
        <time>2012-01-14T08:15:40Z</time>
      </trkpt>
      <trkpt lat="45.65009" lon="4.6046">
        <ele>599</ele>
        <time>2012-01-14T08:16:00Z</time>
      </trkpt>
      <trkpt lat="45.65009" lon="4.6046">
        <ele>599</ele>
        <time>2012-01-14T08:16:18Z</time>
      </trkpt>
      <trkpt lat="45.65009" lon="4.6046">
        <ele>599</ele>
        <time>2012-01-14T08:16:36Z</time>
      </trkpt>
      <trkpt lat="45.65009" lon="4.6046">
        <ele>599</ele>
        <time>2012-01-14T08:16:54Z</time>
      </trkpt>
      <trkpt lat="45.65008" lon="4.60458">
        <ele>599</ele>
        <time>2012-01-14T08:17:02Z</time>
      </trkpt>
      <trkpt lat="45.64998" lon="4.60442">
        <ele>599</ele>
        <time>2012-01-14T08:17:09Z</time>
      </trkpt>
      <trkpt lat="45.64981" lon="4.60414">
        <ele>596</ele>
        <time>2012-01-14T08:17:16Z</time>
      </trkpt>
      <trkpt lat="45.64979" lon="4.60409">
        <ele>597</ele>
        <time>2012-01-14T08:17:17Z</time>
      </trkpt>
      <trkpt lat="45.64977" lon="4.60404">
        <ele>596</ele>
        <time>2012-01-14T08:17:18Z</time>
      </trkpt>
      <trkpt lat="45.64975" lon="4.60398">
        <ele>596</ele>
        <time>2012-01-14T08:17:19Z</time>
      </trkpt>
      <trkpt lat="45.64972" lon="4.60381">
        <ele>596</ele>
        <time>2012-01-14T08:17:23Z</time>
      </trkpt>
      <trkpt lat="45.64967" lon="4.60365">
        <ele>598</ele>
        <time>2012-01-14T08:17:29Z</time>
      </trkpt>
      <trkpt lat="45.64965" lon="4.60359">
        <ele>598</ele>
        <time>2012-01-14T08:17:32Z</time>
      </trkpt>
      <trkpt lat="45.64964" lon="4.60357">
        <ele>599</ele>
        <time>2012-01-14T08:17:33Z</time>
      </trkpt>
      <trkpt lat="45.64963" lon="4.60355">
        <ele>599</ele>
        <time>2012-01-14T08:17:34Z</time>
      </trkpt>
      <trkpt lat="45.64962" lon="4.60352">
        <ele>599</ele>
        <time>2012-01-14T08:17:35Z</time>
      </trkpt>
      <trkpt lat="45.64961" lon="4.6035">
        <ele>599</ele>
        <time>2012-01-14T08:17:36Z</time>
      </trkpt>
      <trkpt lat="45.6496" lon="4.60348">
        <ele>600</ele>
        <time>2012-01-14T08:17:37Z</time>
      </trkpt>
      <trkpt lat="45.64959" lon="4.60346">
        <ele>600</ele>
        <time>2012-01-14T08:17:38Z</time>
      </trkpt>
      <trkpt lat="45.64958" lon="4.60344">
        <ele>600</ele>
        <time>2012-01-14T08:17:39Z</time>
      </trkpt>
      <trkpt lat="45.64953" lon="4.60335">
        <ele>601</ele>
        <time>2012-01-14T08:17:43Z</time>
      </trkpt>
      <trkpt lat="45.64952" lon="4.60333">
        <ele>601</ele>
        <time>2012-01-14T08:17:44Z</time>
      </trkpt>
      <trkpt lat="45.64951" lon="4.60331">
        <ele>602</ele>
        <time>2012-01-14T08:17:45Z</time>
      </trkpt>
      <trkpt lat="45.64949" lon="4.60327">
        <ele>602</ele>
        <time>2012-01-14T08:17:47Z</time>
      </trkpt>
      <trkpt lat="45.64948" lon="4.60325">
        <ele>602</ele>
        <time>2012-01-14T08:17:48Z</time>
      </trkpt>
      <trkpt lat="45.64947" lon="4.60323">
        <ele>603</ele>
        <time>2012-01-14T08:17:49Z</time>
      </trkpt>
      <trkpt lat="45.64945" lon="4.60321">
        <ele>603</ele>
        <time>2012-01-14T08:17:50Z</time>
      </trkpt>
      <trkpt lat="45.64944" lon="4.60319">
        <ele>603</ele>
        <time>2012-01-14T08:17:51Z</time>
      </trkpt>
      <trkpt lat="45.64942" lon="4.60318">
        <ele>603</ele>
        <time>2012-01-14T08:17:52Z</time>
      </trkpt>
      <trkpt lat="45.64941" lon="4.60316">
        <ele>603</ele>
        <time>2012-01-14T08:17:53Z</time>
      </trkpt>
      <trkpt lat="45.6493" lon="4.60306">
        <ele>604</ele>
        <time>2012-01-14T08:18:00Z</time>
      </trkpt>
      <trkpt lat="45.64918" lon="4.60295">
        <ele>605</ele>
        <time>2012-01-14T08:18:06Z</time>
      </trkpt>
      <trkpt lat="45.64904" lon="4.60285">
        <ele>606</ele>
        <time>2012-01-14T08:18:14Z</time>
      </trkpt>
      <trkpt lat="45.64895" lon="4.60275">
        <ele>607</ele>
        <time>2012-01-14T08:18:20Z</time>
      </trkpt>
      <trkpt lat="45.64889" lon="4.60267">
        <ele>607</ele>
        <time>2012-01-14T08:18:24Z</time>
      </trkpt>
      <trkpt lat="45.64888" lon="4.60265">
        <ele>608</ele>
        <time>2012-01-14T08:18:25Z</time>
      </trkpt>
      <trkpt lat="45.64886" lon="4.60263">
        <ele>608</ele>
        <time>2012-01-14T08:18:26Z</time>
      </trkpt>
      <trkpt lat="45.64885" lon="4.6026">
        <ele>608</ele>
        <time>2012-01-14T08:18:27Z</time>
      </trkpt>
      <trkpt lat="45.64884" lon="4.60258">
        <ele>608</ele>
        <time>2012-01-14T08:18:28Z</time>
      </trkpt>
      <trkpt lat="45.64884" lon="4.60256">
        <ele>609</ele>
        <time>2012-01-14T08:18:29Z</time>
      </trkpt>
      <trkpt lat="45.64883" lon="4.60253">
        <ele>609</ele>
        <time>2012-01-14T08:18:30Z</time>
      </trkpt>
      <trkpt lat="45.64883" lon="4.60251">
        <ele>609</ele>
        <time>2012-01-14T08:18:31Z</time>
      </trkpt>
      <trkpt lat="45.64882" lon="4.60249">
        <ele>609</ele>
        <time>2012-01-14T08:18:32Z</time>
      </trkpt>
      <trkpt lat="45.64881" lon="4.60247">
        <ele>609</ele>
        <time>2012-01-14T08:18:33Z</time>
      </trkpt>
      <trkpt lat="45.6488" lon="4.60246">
        <ele>609</ele>
        <time>2012-01-14T08:18:34Z</time>
      </trkpt>
      <trkpt lat="45.64879" lon="4.60245">
        <ele>609</ele>
        <time>2012-01-14T08:18:35Z</time>
      </trkpt>
      <trkpt lat="45.64877" lon="4.60244">
        <ele>609</ele>
        <time>2012-01-14T08:18:36Z</time>
      </trkpt>
      <trkpt lat="45.64876" lon="4.60244">
        <ele>609</ele>
        <time>2012-01-14T08:18:37Z</time>
      </trkpt>
      <trkpt lat="45.64875" lon="4.60245">
        <ele>609</ele>
        <time>2012-01-14T08:18:38Z</time>
      </trkpt>
      <trkpt lat="45.64874" lon="4.60246">
        <ele>609</ele>
        <time>2012-01-14T08:18:39Z</time>
      </trkpt>
      <trkpt lat="45.64874" lon="4.60248">
        <ele>609</ele>
        <time>2012-01-14T08:18:40Z</time>
      </trkpt>
      <trkpt lat="45.64874" lon="4.60261">
        <ele>609</ele>
        <time>2012-01-14T08:18:46Z</time>
      </trkpt>
      <trkpt lat="45.64874" lon="4.60264">
        <ele>609</ele>
        <time>2012-01-14T08:18:47Z</time>
      </trkpt>
      <trkpt lat="45.64875" lon="4.60266">
        <ele>610</ele>
        <time>2012-01-14T08:18:48Z</time>
      </trkpt>
      <trkpt lat="45.64876" lon="4.60268">
        <ele>610</ele>
        <time>2012-01-14T08:18:49Z</time>
      </trkpt>
      <trkpt lat="45.64876" lon="4.60271">
        <ele>609</ele>
        <time>2012-01-14T08:18:50Z</time>
      </trkpt>
      <trkpt lat="45.64876" lon="4.60274">
        <ele>610</ele>
        <time>2012-01-14T08:18:51Z</time>
      </trkpt>
      <trkpt lat="45.64876" lon="4.60276">
        <ele>610</ele>
        <time>2012-01-14T08:18:52Z</time>
      </trkpt>
      <trkpt lat="45.64877" lon="4.60279">
        <ele>610</ele>
        <time>2012-01-14T08:18:53Z</time>
      </trkpt>
      <trkpt lat="45.64877" lon="4.60282">
        <ele>611</ele>
        <time>2012-01-14T08:18:54Z</time>
      </trkpt>
      <trkpt lat="45.64877" lon="4.60285">
        <ele>610</ele>
        <time>2012-01-14T08:18:55Z</time>
      </trkpt>
      <trkpt lat="45.64878" lon="4.60303">
        <ele>612</ele>
        <time>2012-01-14T08:19:01Z</time>
      </trkpt>
      <trkpt lat="45.64876" lon="4.60315">
        <ele>612</ele>
        <time>2012-01-14T08:19:05Z</time>
      </trkpt>
      <trkpt lat="45.64875" lon="4.60316">
        <ele>612</ele>
        <time>2012-01-14T08:19:06Z</time>
      </trkpt>
      <trkpt lat="45.64874" lon="4.60317">
        <ele>612</ele>
        <time>2012-01-14T08:19:07Z</time>
      </trkpt>
      <trkpt lat="45.64873" lon="4.60316">
        <ele>612</ele>
        <time>2012-01-14T08:19:08Z</time>
      </trkpt>
      <trkpt lat="45.64873" lon="4.60314">
        <ele>612</ele>
        <time>2012-01-14T08:19:09Z</time>
      </trkpt>
      <trkpt lat="45.64873" lon="4.60312">
        <ele>612</ele>
        <time>2012-01-14T08:19:10Z</time>
      </trkpt>
      <trkpt lat="45.64873" lon="4.60309">
        <ele>612</ele>
        <time>2012-01-14T08:19:11Z</time>
      </trkpt>
      <trkpt lat="45.64873" lon="4.60307">
        <ele>612</ele>
        <time>2012-01-14T08:19:12Z</time>
      </trkpt>
      <trkpt lat="45.64873" lon="4.60305">
        <ele>613</ele>
        <time>2012-01-14T08:19:13Z</time>
      </trkpt>
      <trkpt lat="45.64873" lon="4.60302">
        <ele>613</ele>
        <time>2012-01-14T08:19:14Z</time>
      </trkpt>
      <trkpt lat="45.64873" lon="4.603">
        <ele>613</ele>
        <time>2012-01-14T08:19:15Z</time>
      </trkpt>
      <trkpt lat="45.64872" lon="4.60297">
        <ele>613</ele>
        <time>2012-01-14T08:19:16Z</time>
      </trkpt>
      <trkpt lat="45.64872" lon="4.60295">
        <ele>613</ele>
        <time>2012-01-14T08:19:17Z</time>
      </trkpt>
      <trkpt lat="45.64871" lon="4.60293">
        <ele>614</ele>
        <time>2012-01-14T08:19:18Z</time>
      </trkpt>
      <trkpt lat="45.64871" lon="4.60291">
        <ele>614</ele>
        <time>2012-01-14T08:19:19Z</time>
      </trkpt>
      <trkpt lat="45.6487" lon="4.60288">
        <ele>613</ele>
        <time>2012-01-14T08:19:20Z</time>
      </trkpt>
      <trkpt lat="45.64869" lon="4.60286">
        <ele>614</ele>
        <time>2012-01-14T08:19:21Z</time>
      </trkpt>
      <trkpt lat="45.64868" lon="4.60284">
        <ele>614</ele>
        <time>2012-01-14T08:19:22Z</time>
      </trkpt>
      <trkpt lat="45.64867" lon="4.60281">
        <ele>614</ele>
        <time>2012-01-14T08:19:23Z</time>
      </trkpt>
      <trkpt lat="45.64867" lon="4.60279">
        <ele>614</ele>
        <time>2012-01-14T08:19:24Z</time>
      </trkpt>
      <trkpt lat="45.64866" lon="4.60276">
        <ele>614</ele>
        <time>2012-01-14T08:19:25Z</time>
      </trkpt>
      <trkpt lat="45.64866" lon="4.60274">
        <ele>614</ele>
        <time>2012-01-14T08:19:26Z</time>
      </trkpt>
      <trkpt lat="45.64866" lon="4.60271">
        <ele>615</ele>
        <time>2012-01-14T08:19:27Z</time>
      </trkpt>
      <trkpt lat="45.64863" lon="4.60251">
        <ele>616</ele>
        <time>2012-01-14T08:19:35Z</time>
      </trkpt>
      <trkpt lat="45.64862" lon="4.60231">
        <ele>617</ele>
        <time>2012-01-14T08:19:43Z</time>
      </trkpt>
      <trkpt lat="45.64863" lon="4.60212">
        <ele>618</ele>
        <time>2012-01-14T08:19:50Z</time>
      </trkpt>
      <trkpt lat="45.64864" lon="4.6019">
        <ele>621</ele>
        <time>2012-01-14T08:19:59Z</time>
      </trkpt>
      <trkpt lat="45.64866" lon="4.60177">
        <ele>622</ele>
        <time>2012-01-14T08:20:04Z</time>
      </trkpt>
      <trkpt lat="45.64874" lon="4.60156">
        <ele>623</ele>
        <time>2012-01-14T08:20:13Z</time>
      </trkpt>
      <trkpt lat="45.6488" lon="4.60141">
        <ele>625</ele>
        <time>2012-01-14T08:20:20Z</time>
      </trkpt>
      <trkpt lat="45.64893" lon="4.60136">
        <ele>625</ele>
        <time>2012-01-14T08:20:26Z</time>
      </trkpt>
      <trkpt lat="45.64908" lon="4.60147">
        <ele>625</ele>
        <time>2012-01-14T08:20:33Z</time>
      </trkpt>
      <trkpt lat="45.64916" lon="4.6017">
        <ele>625</ele>
        <time>2012-01-14T08:20:40Z</time>
      </trkpt>
      <trkpt lat="45.6492" lon="4.60195">
        <ele>626</ele>
        <time>2012-01-14T08:20:47Z</time>
      </trkpt>
      <trkpt lat="45.64925" lon="4.60222">
        <ele>626</ele>
        <time>2012-01-14T08:20:55Z</time>
      </trkpt>
      <trkpt lat="45.64937" lon="4.60253">
        <ele>627</ele>
        <time>2012-01-14T08:21:04Z</time>
      </trkpt>
      <trkpt lat="45.64941" lon="4.60258">
        <ele>627</ele>
        <time>2012-01-14T08:21:06Z</time>
      </trkpt>
      <trkpt lat="45.64946" lon="4.60259">
        <ele>627</ele>
        <time>2012-01-14T08:21:08Z</time>
      </trkpt>
      <trkpt lat="45.64946" lon="4.60249">
        <ele>628</ele>
        <time>2012-01-14T08:21:11Z</time>
      </trkpt>
      <trkpt lat="45.64937" lon="4.60226">
        <ele>630</ele>
        <time>2012-01-14T08:21:18Z</time>
      </trkpt>
      <trkpt lat="45.64933" lon="4.60207">
        <ele>631</ele>
        <time>2012-01-14T08:21:25Z</time>
      </trkpt>
      <trkpt lat="45.64932" lon="4.60179">
        <ele>633</ele>
        <time>2012-01-14T08:21:35Z</time>
      </trkpt>
      <trkpt lat="45.64933" lon="4.60168">
        <ele>635</ele>
        <time>2012-01-14T08:21:39Z</time>
      </trkpt>
      <trkpt lat="45.64934" lon="4.60148">
        <ele>636</ele>
        <time>2012-01-14T08:21:46Z</time>
      </trkpt>
      <trkpt lat="45.64935" lon="4.60121">
        <ele>638</ele>
        <time>2012-01-14T08:21:55Z</time>
      </trkpt>
      <trkpt lat="45.64938" lon="4.60097">
        <ele>639</ele>
        <time>2012-01-14T08:22:03Z</time>
      </trkpt>
      <trkpt lat="45.64944" lon="4.60068">
        <ele>640</ele>
        <time>2012-01-14T08:22:12Z</time>
      </trkpt>
      <trkpt lat="45.64952" lon="4.60036">
        <ele>641</ele>
        <time>2012-01-14T08:22:22Z</time>
      </trkpt>
      <trkpt lat="45.6496" lon="4.60005">
        <ele>642</ele>
        <time>2012-01-14T08:22:32Z</time>
      </trkpt>
      <trkpt lat="45.64968" lon="4.59984">
        <ele>643</ele>
        <time>2012-01-14T08:22:40Z</time>
      </trkpt>
      <trkpt lat="45.64977" lon="4.59959">
        <ele>645</ele>
        <time>2012-01-14T08:22:50Z</time>
      </trkpt>
      <trkpt lat="45.64985" lon="4.59934">
        <ele>648</ele>
        <time>2012-01-14T08:22:59Z</time>
      </trkpt>
      <trkpt lat="45.64989" lon="4.59912">
        <ele>649</ele>
        <time>2012-01-14T08:23:07Z</time>
      </trkpt>
      <trkpt lat="45.64995" lon="4.59887">
        <ele>651</ele>
        <time>2012-01-14T08:23:16Z</time>
      </trkpt>
      <trkpt lat="45.65" lon="4.59871">
        <ele>653</ele>
        <time>2012-01-14T08:23:23Z</time>
      </trkpt>
      <trkpt lat="45.65008" lon="4.59851">
        <ele>654</ele>
        <time>2012-01-14T08:23:32Z</time>
      </trkpt>
      <trkpt lat="45.65014" lon="4.59835">
        <ele>656</ele>
        <time>2012-01-14T08:23:40Z</time>
      </trkpt>
      <trkpt lat="45.65021" lon="4.5982">
        <ele>658</ele>
        <time>2012-01-14T08:23:48Z</time>
      </trkpt>
      <trkpt lat="45.65026" lon="4.59806">
        <ele>659</ele>
        <time>2012-01-14T08:23:55Z</time>
      </trkpt>
      <trkpt lat="45.65028" lon="4.59798">
        <ele>660</ele>
        <time>2012-01-14T08:23:59Z</time>
      </trkpt>
      <trkpt lat="45.65032" lon="4.59785">
        <ele>662</ele>
        <time>2012-01-14T08:24:06Z</time>
      </trkpt>
      <trkpt lat="45.65037" lon="4.5977">
        <ele>663</ele>
        <time>2012-01-14T08:24:14Z</time>
      </trkpt>
      <trkpt lat="45.65037" lon="4.59768">
        <ele>663</ele>
        <time>2012-01-14T08:24:15Z</time>
      </trkpt>
      <trkpt lat="45.65038" lon="4.59764">
        <ele>664</ele>
        <time>2012-01-14T08:24:17Z</time>
      </trkpt>
      <trkpt lat="45.65038" lon="4.59756">
        <ele>665</ele>
        <time>2012-01-14T08:24:21Z</time>
      </trkpt>
      <trkpt lat="45.65039" lon="4.59731">
        <ele>667</ele>
        <time>2012-01-14T08:24:33Z</time>
      </trkpt>
      <trkpt lat="45.65041" lon="4.59716">
        <ele>669</ele>
        <time>2012-01-14T08:24:41Z</time>
      </trkpt>
      <trkpt lat="45.65044" lon="4.59703">
        <ele>671</ele>
        <time>2012-01-14T08:24:49Z</time>
      </trkpt>
      <trkpt lat="45.65046" lon="4.59691">
        <ele>673</ele>
        <time>2012-01-14T08:24:56Z</time>
      </trkpt>
      <trkpt lat="45.65047" lon="4.59681">
        <ele>674</ele>
        <time>2012-01-14T08:25:01Z</time>
      </trkpt>
      <trkpt lat="45.65052" lon="4.59667">
        <ele>675</ele>
        <time>2012-01-14T08:25:09Z</time>
      </trkpt>
      <trkpt lat="45.65056" lon="4.59651">
        <ele>677</ele>
        <time>2012-01-14T08:25:17Z</time>
      </trkpt>
      <trkpt lat="45.65057" lon="4.59646">
        <ele>678</ele>
        <time>2012-01-14T08:25:20Z</time>
      </trkpt>
      <trkpt lat="45.65059" lon="4.59634">
        <ele>679</ele>
        <time>2012-01-14T08:25:26Z</time>
      </trkpt>
      <trkpt lat="45.65062" lon="4.59623">
        <ele>682</ele>
        <time>2012-01-14T08:25:33Z</time>
      </trkpt>
      <trkpt lat="45.65065" lon="4.59612">
        <ele>683</ele>
        <time>2012-01-14T08:25:40Z</time>
      </trkpt>
      <trkpt lat="45.6507" lon="4.59596">
        <ele>685</ele>
        <time>2012-01-14T08:25:49Z</time>
      </trkpt>
      <trkpt lat="45.6507" lon="4.59582">
        <ele>686</ele>
        <time>2012-01-14T08:25:56Z</time>
      </trkpt>
      <trkpt lat="45.65074" lon="4.59566">
        <ele>687</ele>
        <time>2012-01-14T08:26:04Z</time>
      </trkpt>
      <trkpt lat="45.65079" lon="4.59545">
        <ele>689</ele>
        <time>2012-01-14T08:26:14Z</time>
      </trkpt>
      <trkpt lat="45.65082" lon="4.59535">
        <ele>690</ele>
        <time>2012-01-14T08:26:20Z</time>
      </trkpt>
      <trkpt lat="45.65087" lon="4.59519">
        <ele>693</ele>
        <time>2012-01-14T08:26:29Z</time>
      </trkpt>
      <trkpt lat="45.65088" lon="4.59515">
        <ele>693</ele>
        <time>2012-01-14T08:26:31Z</time>
      </trkpt>
      <trkpt lat="45.65092" lon="4.59503">
        <ele>696</ele>
        <time>2012-01-14T08:26:38Z</time>
      </trkpt>
      <trkpt lat="45.65095" lon="4.59494">
        <ele>697</ele>
        <time>2012-01-14T08:26:44Z</time>
      </trkpt>
      <trkpt lat="45.65097" lon="4.59488">
        <ele>698</ele>
        <time>2012-01-14T08:26:48Z</time>
      </trkpt>
      <trkpt lat="45.65101" lon="4.59478">
        <ele>699</ele>
        <time>2012-01-14T08:26:55Z</time>
      </trkpt>
      <trkpt lat="45.65107" lon="4.59465">
        <ele>701</ele>
        <time>2012-01-14T08:27:03Z</time>
      </trkpt>
      <trkpt lat="45.65109" lon="4.59459">
        <ele>702</ele>
        <time>2012-01-14T08:27:07Z</time>
      </trkpt>
      <trkpt lat="45.65111" lon="4.59456">
        <ele>703</ele>
        <time>2012-01-14T08:27:10Z</time>
      </trkpt>
      <trkpt lat="45.65114" lon="4.59447">
        <ele>704</ele>
        <time>2012-01-14T08:27:16Z</time>
      </trkpt>
      <trkpt lat="45.65123" lon="4.59435">
        <ele>706</ele>
        <time>2012-01-14T08:27:26Z</time>
      </trkpt>
      <trkpt lat="45.65129" lon="4.59428">
        <ele>708</ele>
        <time>2012-01-14T08:27:33Z</time>
      </trkpt>
      <trkpt lat="45.65136" lon="4.59418">
        <ele>710</ele>
        <time>2012-01-14T08:27:41Z</time>
      </trkpt>
      <trkpt lat="45.6514" lon="4.59409">
        <ele>711</ele>
        <time>2012-01-14T08:27:49Z</time>
      </trkpt>
      <trkpt lat="45.65144" lon="4.59402">
        <ele>712</ele>
        <time>2012-01-14T08:27:56Z</time>
      </trkpt>
      <trkpt lat="45.65151" lon="4.59395">
        <ele>714</ele>
        <time>2012-01-14T08:28:03Z</time>
      </trkpt>
      <trkpt lat="45.65154" lon="4.5939">
        <ele>714</ele>
        <time>2012-01-14T08:28:07Z</time>
      </trkpt>
      <trkpt lat="45.6516" lon="4.59374">
        <ele>717</ele>
        <time>2012-01-14T08:28:17Z</time>
      </trkpt>
      <trkpt lat="45.6516" lon="4.59373">
        <ele>717</ele>
        <time>2012-01-14T08:28:18Z</time>
      </trkpt>
      <trkpt lat="45.65164" lon="4.59361">
        <ele>719</ele>
        <time>2012-01-14T08:28:26Z</time>
      </trkpt>
      <trkpt lat="45.65166" lon="4.59351">
        <ele>721</ele>
        <time>2012-01-14T08:28:32Z</time>
      </trkpt>
      <trkpt lat="45.65169" lon="4.59345">
        <ele>723</ele>
        <time>2012-01-14T08:28:37Z</time>
      </trkpt>
      <trkpt lat="45.65176" lon="4.59332">
        <ele>726</ele>
        <time>2012-01-14T08:28:46Z</time>
      </trkpt>
      <trkpt lat="45.6518" lon="4.59324">
        <ele>726</ele>
        <time>2012-01-14T08:28:51Z</time>
      </trkpt>
      <trkpt lat="45.65183" lon="4.59309">
        <ele>730</ele>
        <time>2012-01-14T08:29:01Z</time>
      </trkpt>
      <trkpt lat="45.65188" lon="4.59299">
        <ele>730</ele>
        <time>2012-01-14T08:29:08Z</time>
      </trkpt>
      <trkpt lat="45.65193" lon="4.59294">
        <ele>731</ele>
        <time>2012-01-14T08:29:13Z</time>
      </trkpt>
      <trkpt lat="45.65201" lon="4.59291">
        <ele>731</ele>
        <time>2012-01-14T08:29:21Z</time>
      </trkpt>
      <trkpt lat="45.65206" lon="4.59289">
        <ele>732</ele>
        <time>2012-01-14T08:29:28Z</time>
      </trkpt>
      <trkpt lat="45.65206" lon="4.59289">
        <ele>732</ele>
        <time>2012-01-14T08:29:52Z</time>
      </trkpt>
      <trkpt lat="45.65206" lon="4.59289">
        <ele>732</ele>
        <time>2012-01-14T08:30:14Z</time>
      </trkpt>
      <trkpt lat="45.65207" lon="4.59286">
        <ele>732</ele>
        <time>2012-01-14T08:30:16Z</time>
      </trkpt>
      <trkpt lat="45.65209" lon="4.59272">
        <ele>732</ele>
        <time>2012-01-14T08:30:24Z</time>
      </trkpt>
      <trkpt lat="45.6521" lon="4.59268">
        <ele>732</ele>
        <time>2012-01-14T08:30:26Z</time>
      </trkpt>
      <trkpt lat="45.65214" lon="4.59261">
        <ele>732</ele>
        <time>2012-01-14T08:30:34Z</time>
      </trkpt>
      <trkpt lat="45.65214" lon="4.5926">
        <ele>732</ele>
        <time>2012-01-14T08:30:45Z</time>
      </trkpt>
      <trkpt lat="45.65214" lon="4.5926">
        <ele>731</ele>
        <time>2012-01-14T08:30:55Z</time>
      </trkpt>
      <trkpt lat="45.65214" lon="4.5926">
        <ele>731</ele>
        <time>2012-01-14T08:31:11Z</time>
      </trkpt>
      <trkpt lat="45.65214" lon="4.5926">
        <ele>731</ele>
        <time>2012-01-14T08:31:30Z</time>
      </trkpt>
      <trkpt lat="45.65214" lon="4.5926">
        <ele>731</ele>
        <time>2012-01-14T08:31:45Z</time>
      </trkpt>
      <trkpt lat="45.65214" lon="4.5926">
        <ele>731</ele>
        <time>2012-01-14T08:32:01Z</time>
      </trkpt>
      <trkpt lat="45.65214" lon="4.5926">
        <ele>731</ele>
        <time>2012-01-14T08:32:19Z</time>
      </trkpt>
      <trkpt lat="45.65214" lon="4.5926">
        <ele>731</ele>
        <time>2012-01-14T08:32:32Z</time>
      </trkpt>
      <trkpt lat="45.65215" lon="4.5926">
        <ele>731</ele>
        <time>2012-01-14T08:32:49Z</time>
      </trkpt>
      <trkpt lat="45.65218" lon="4.59259">
        <ele>730</ele>
        <time>2012-01-14T08:32:53Z</time>
      </trkpt>
      <trkpt lat="45.65227" lon="4.59259">
        <ele>730</ele>
        <time>2012-01-14T08:32:58Z</time>
      </trkpt>
      <trkpt lat="45.65252" lon="4.59258">
        <ele>728</ele>
        <time>2012-01-14T08:33:05Z</time>
      </trkpt>
      <trkpt lat="45.65286" lon="4.5926">
        <ele>727</ele>
        <time>2012-01-14T08:33:12Z</time>
      </trkpt>
      <trkpt lat="45.65292" lon="4.59261">
        <ele>726</ele>
        <time>2012-01-14T08:33:13Z</time>
      </trkpt>
      <trkpt lat="45.6531" lon="4.59266">
        <ele>725</ele>
        <time>2012-01-14T08:33:16Z</time>
      </trkpt>
      <trkpt lat="45.65317" lon="4.59267">
        <ele>724</ele>
        <time>2012-01-14T08:33:17Z</time>
      </trkpt>
      <trkpt lat="45.65323" lon="4.59269">
        <ele>724</ele>
        <time>2012-01-14T08:33:18Z</time>
      </trkpt>
      <trkpt lat="45.65337" lon="4.59277">
        <ele>722</ele>
        <time>2012-01-14T08:33:20Z</time>
      </trkpt>
      <trkpt lat="45.65348" lon="4.59287">
        <ele>720</ele>
        <time>2012-01-14T08:33:22Z</time>
      </trkpt>
      <trkpt lat="45.65353" lon="4.59291">
        <ele>720</ele>
        <time>2012-01-14T08:33:23Z</time>
      </trkpt>
      <trkpt lat="45.65357" lon="4.59296">
        <ele>719</ele>
        <time>2012-01-14T08:33:24Z</time>
      </trkpt>
      <trkpt lat="45.65361" lon="4.59302">
        <ele>719</ele>
        <time>2012-01-14T08:33:25Z</time>
      </trkpt>
      <trkpt lat="45.65365" lon="4.59306">
        <ele>719</ele>
        <time>2012-01-14T08:33:26Z</time>
      </trkpt>
      <trkpt lat="45.6537" lon="4.59311">
        <ele>718</ele>
        <time>2012-01-14T08:33:27Z</time>
      </trkpt>
      <trkpt lat="45.65375" lon="4.59315">
        <ele>718</ele>
        <time>2012-01-14T08:33:28Z</time>
      </trkpt>
      <trkpt lat="45.6538" lon="4.5932">
        <ele>718</ele>
        <time>2012-01-14T08:33:29Z</time>
      </trkpt>
      <trkpt lat="45.65384" lon="4.59327">
        <ele>717</ele>
        <time>2012-01-14T08:33:30Z</time>
      </trkpt>
      <trkpt lat="45.65388" lon="4.59332">
        <ele>717</ele>
        <time>2012-01-14T08:33:31Z</time>
      </trkpt>
      <trkpt lat="45.65404" lon="4.59347">
        <ele>715</ele>
        <time>2012-01-14T08:33:34Z</time>
      </trkpt>
      <trkpt lat="45.65409" lon="4.59353">
        <ele>714</ele>
        <time>2012-01-14T08:33:35Z</time>
      </trkpt>
      <trkpt lat="45.65416" lon="4.59366">
        <ele>713</ele>
        <time>2012-01-14T08:33:37Z</time>
      </trkpt>
      <trkpt lat="45.6542" lon="4.59374">
        <ele>713</ele>
        <time>2012-01-14T08:33:38Z</time>
      </trkpt>
      <trkpt lat="45.65443" lon="4.59412">
        <ele>710</ele>
        <time>2012-01-14T08:33:43Z</time>
      </trkpt>
      <trkpt lat="45.65457" lon="4.59437">
        <ele>708</ele>
        <time>2012-01-14T08:33:46Z</time>
      </trkpt>
      <trkpt lat="45.65462" lon="4.59445">
        <ele>708</ele>
        <time>2012-01-14T08:33:47Z</time>
      </trkpt>
      <trkpt lat="45.65474" lon="4.5947">
        <ele>705</ele>
        <time>2012-01-14T08:33:50Z</time>
      </trkpt>
      <trkpt lat="45.65476" lon="4.59478">
        <ele>705</ele>
        <time>2012-01-14T08:33:51Z</time>
      </trkpt>
      <trkpt lat="45.65482" lon="4.59501">
        <ele>703</ele>
        <time>2012-01-14T08:33:54Z</time>
      </trkpt>
      <trkpt lat="45.65486" lon="4.59508">
        <ele>702</ele>
        <time>2012-01-14T08:33:55Z</time>
      </trkpt>
      <trkpt lat="45.65491" lon="4.59514">
        <ele>702</ele>
        <time>2012-01-14T08:33:56Z</time>
      </trkpt>
      <trkpt lat="45.65496" lon="4.5952">
        <ele>701</ele>
        <time>2012-01-14T08:33:57Z</time>
      </trkpt>
      <trkpt lat="45.655" lon="4.59525">
        <ele>699</ele>
        <time>2012-01-14T08:33:58Z</time>
      </trkpt>
      <trkpt lat="45.65516" lon="4.59544">
        <ele>696</ele>
        <time>2012-01-14T08:34:02Z</time>
      </trkpt>
      <trkpt lat="45.65519" lon="4.5955">
        <ele>695</ele>
        <time>2012-01-14T08:34:03Z</time>
      </trkpt>
      <trkpt lat="45.65523" lon="4.59554">
        <ele>695</ele>
        <time>2012-01-14T08:34:04Z</time>
      </trkpt>
      <trkpt lat="45.65526" lon="4.59557">
        <ele>694</ele>
        <time>2012-01-14T08:34:05Z</time>
      </trkpt>
      <trkpt lat="45.65534" lon="4.59564">
        <ele>693</ele>
        <time>2012-01-14T08:34:07Z</time>
      </trkpt>
      <trkpt lat="45.65538" lon="4.59567">
        <ele>692</ele>
        <time>2012-01-14T08:34:08Z</time>
      </trkpt>
      <trkpt lat="45.65542" lon="4.59569">
        <ele>691</ele>
        <time>2012-01-14T08:34:09Z</time>
      </trkpt>
      <trkpt lat="45.65547" lon="4.59572">
        <ele>690</ele>
        <time>2012-01-14T08:34:10Z</time>
      </trkpt>
      <trkpt lat="45.65552" lon="4.59574">
        <ele>690</ele>
        <time>2012-01-14T08:34:11Z</time>
      </trkpt>
      <trkpt lat="45.65557" lon="4.59576">
        <ele>689</ele>
        <time>2012-01-14T08:34:12Z</time>
      </trkpt>
      <trkpt lat="45.65563" lon="4.5958">
        <ele>688</ele>
        <time>2012-01-14T08:34:13Z</time>
      </trkpt>
      <trkpt lat="45.65568" lon="4.59584">
        <ele>687</ele>
        <time>2012-01-14T08:34:14Z</time>
      </trkpt>
      <trkpt lat="45.65574" lon="4.59588">
        <ele>687</ele>
        <time>2012-01-14T08:34:15Z</time>
      </trkpt>
      <trkpt lat="45.6558" lon="4.59591">
        <ele>686</ele>
        <time>2012-01-14T08:34:16Z</time>
      </trkpt>
      <trkpt lat="45.65585" lon="4.59595">
        <ele>685</ele>
        <time>2012-01-14T08:34:17Z</time>
      </trkpt>
      <trkpt lat="45.6559" lon="4.59601">
        <ele>685</ele>
        <time>2012-01-14T08:34:18Z</time>
      </trkpt>
      <trkpt lat="45.65596" lon="4.59613">
        <ele>682</ele>
        <time>2012-01-14T08:34:20Z</time>
      </trkpt>
      <trkpt lat="45.65599" lon="4.59619">
        <ele>681</ele>
        <time>2012-01-14T08:34:21Z</time>
      </trkpt>
      <trkpt lat="45.65602" lon="4.59625">
        <ele>681</ele>
        <time>2012-01-14T08:34:22Z</time>
      </trkpt>
      <trkpt lat="45.65606" lon="4.59632">
        <ele>680</ele>
        <time>2012-01-14T08:34:23Z</time>
      </trkpt>
      <trkpt lat="45.6561" lon="4.59639">
        <ele>679</ele>
        <time>2012-01-14T08:34:24Z</time>
      </trkpt>
      <trkpt lat="45.65613" lon="4.59645">
        <ele>677</ele>
        <time>2012-01-14T08:34:25Z</time>
      </trkpt>
      <trkpt lat="45.65616" lon="4.59647">
        <ele>676</ele>
        <time>2012-01-14T08:34:26Z</time>
      </trkpt>
      <trkpt lat="45.65619" lon="4.59647">
        <ele>676</ele>
        <time>2012-01-14T08:34:27Z</time>
      </trkpt>
      <trkpt lat="45.6562" lon="4.59646">
        <ele>675</ele>
        <time>2012-01-14T08:34:28Z</time>
      </trkpt>
      <trkpt lat="45.6564" lon="4.59638">
        <ele>672</ele>
        <time>2012-01-14T08:34:35Z</time>
      </trkpt>
      <trkpt lat="45.65657" lon="4.59626">
        <ele>669</ele>
        <time>2012-01-14T08:34:39Z</time>
      </trkpt>
      <trkpt lat="45.65666" lon="4.59621">
        <ele>667</ele>
        <time>2012-01-14T08:34:41Z</time>
      </trkpt>
      <trkpt lat="45.65671" lon="4.5962">
        <ele>666</ele>
        <time>2012-01-14T08:34:42Z</time>
      </trkpt>
      <trkpt lat="45.65675" lon="4.5962">
        <ele>665</ele>
        <time>2012-01-14T08:34:43Z</time>
      </trkpt>
      <trkpt lat="45.6568" lon="4.59621">
        <ele>664</ele>
        <time>2012-01-14T08:34:44Z</time>
      </trkpt>
      <trkpt lat="45.65684" lon="4.59622">
        <ele>664</ele>
        <time>2012-01-14T08:34:45Z</time>
      </trkpt>
      <trkpt lat="45.65687" lon="4.59624">
        <ele>662</ele>
        <time>2012-01-14T08:34:46Z</time>
      </trkpt>
      <trkpt lat="45.65697" lon="4.59629">
        <ele>661</ele>
        <time>2012-01-14T08:34:51Z</time>
      </trkpt>
      <trkpt lat="45.65699" lon="4.5963">
        <ele>662</ele>
        <time>2012-01-14T08:34:56Z</time>
      </trkpt>
      <trkpt lat="45.657" lon="4.59631">
        <ele>662</ele>
        <time>2012-01-14T08:34:57Z</time>
      </trkpt>
      <trkpt lat="45.65702" lon="4.59631">
        <ele>662</ele>
        <time>2012-01-14T08:34:58Z</time>
      </trkpt>
      <trkpt lat="45.65703" lon="4.5963">
        <ele>661</ele>
        <time>2012-01-14T08:34:59Z</time>
      </trkpt>
      <trkpt lat="45.65704" lon="4.59629">
        <ele>662</ele>
        <time>2012-01-14T08:35:00Z</time>
      </trkpt>
      <trkpt lat="45.65704" lon="4.59627">
        <ele>662</ele>
        <time>2012-01-14T08:35:01Z</time>
      </trkpt>
      <trkpt lat="45.65703" lon="4.59625">
        <ele>662</ele>
        <time>2012-01-14T08:35:02Z</time>
      </trkpt>
      <trkpt lat="45.65703" lon="4.59623">
        <ele>662</ele>
        <time>2012-01-14T08:35:03Z</time>
      </trkpt>
      <trkpt lat="45.65702" lon="4.59612">
        <ele>662</ele>
        <time>2012-01-14T08:35:08Z</time>
      </trkpt>
      <trkpt lat="45.6571" lon="4.59598">
        <ele>662</ele>
        <time>2012-01-14T08:35:15Z</time>
      </trkpt>
      <trkpt lat="45.65714" lon="4.5959">
        <ele>661</ele>
        <time>2012-01-14T08:35:18Z</time>
      </trkpt>
      <trkpt lat="45.65715" lon="4.59587">
        <ele>662</ele>
        <time>2012-01-14T08:35:19Z</time>
      </trkpt>
      <trkpt lat="45.65716" lon="4.59584">
        <ele>661</ele>
        <time>2012-01-14T08:35:20Z</time>
      </trkpt>
      <trkpt lat="45.65717" lon="4.5958">
        <ele>661</ele>
        <time>2012-01-14T08:35:21Z</time>
      </trkpt>
      <trkpt lat="45.65719" lon="4.59576">
        <ele>661</ele>
        <time>2012-01-14T08:35:22Z</time>
      </trkpt>
      <trkpt lat="45.6572" lon="4.59571">
        <ele>661</ele>
        <time>2012-01-14T08:35:23Z</time>
      </trkpt>
      <trkpt lat="45.65722" lon="4.59565">
        <ele>660</ele>
        <time>2012-01-14T08:35:24Z</time>
      </trkpt>
      <trkpt lat="45.65723" lon="4.5956">
        <ele>659</ele>
        <time>2012-01-14T08:35:25Z</time>
      </trkpt>
      <trkpt lat="45.65725" lon="4.59554">
        <ele>659</ele>
        <time>2012-01-14T08:35:26Z</time>
      </trkpt>
      <trkpt lat="45.65731" lon="4.59541">
        <ele>658</ele>
        <time>2012-01-14T08:35:29Z</time>
      </trkpt>
      <trkpt lat="45.65734" lon="4.59537">
        <ele>658</ele>
        <time>2012-01-14T08:35:30Z</time>
      </trkpt>
      <trkpt lat="45.65737" lon="4.59532">
        <ele>656</ele>
        <time>2012-01-14T08:35:31Z</time>
      </trkpt>
      <trkpt lat="45.65741" lon="4.59528">
        <ele>656</ele>
        <time>2012-01-14T08:35:32Z</time>
      </trkpt>
      <trkpt lat="45.65745" lon="4.59524">
        <ele>656</ele>
        <time>2012-01-14T08:35:33Z</time>
      </trkpt>
      <trkpt lat="45.6575" lon="4.59521">
        <ele>655</ele>
        <time>2012-01-14T08:35:34Z</time>
      </trkpt>
      <trkpt lat="45.65777" lon="4.59503">
        <ele>652</ele>
        <time>2012-01-14T08:35:40Z</time>
      </trkpt>
      <trkpt lat="45.65786" lon="4.59494">
        <ele>650</ele>
        <time>2012-01-14T08:35:42Z</time>
      </trkpt>
      <trkpt lat="45.65795" lon="4.59485">
        <ele>649</ele>
        <time>2012-01-14T08:35:44Z</time>
      </trkpt>
      <trkpt lat="45.65815" lon="4.59457">
        <ele>645</ele>
        <time>2012-01-14T08:35:49Z</time>
      </trkpt>
      <trkpt lat="45.65819" lon="4.59452">
        <ele>645</ele>
        <time>2012-01-14T08:35:50Z</time>
      </trkpt>
      <trkpt lat="45.65824" lon="4.59447">
        <ele>644</ele>
        <time>2012-01-14T08:35:51Z</time>
      </trkpt>
      <trkpt lat="45.65843" lon="4.5943">
        <ele>642</ele>
        <time>2012-01-14T08:35:54Z</time>
      </trkpt>
      <trkpt lat="45.65849" lon="4.59423">
        <ele>642</ele>
        <time>2012-01-14T08:35:55Z</time>
      </trkpt>
      <trkpt lat="45.65866" lon="4.59401">
        <ele>640</ele>
        <time>2012-01-14T08:35:58Z</time>
      </trkpt>
      <trkpt lat="45.6589" lon="4.59365">
        <ele>637</ele>
        <time>2012-01-14T08:36:02Z</time>
      </trkpt>
      <trkpt lat="45.65897" lon="4.59356">
        <ele>637</ele>
        <time>2012-01-14T08:36:03Z</time>
      </trkpt>
      <trkpt lat="45.65917" lon="4.59329">
        <ele>634</ele>
        <time>2012-01-14T08:36:06Z</time>
      </trkpt>
      <trkpt lat="45.65937" lon="4.59297">
        <ele>630</ele>
        <time>2012-01-14T08:36:10Z</time>
      </trkpt>
      <trkpt lat="45.65954" lon="4.59262">
        <ele>626</ele>
        <time>2012-01-14T08:36:15Z</time>
      </trkpt>
      <trkpt lat="45.65961" lon="4.59248">
        <ele>623</ele>
        <time>2012-01-14T08:36:17Z</time>
      </trkpt>
      <trkpt lat="45.65973" lon="4.59224">
        <ele>619</ele>
        <time>2012-01-14T08:36:21Z</time>
      </trkpt>
      <trkpt lat="45.65976" lon="4.59219">
        <ele>618</ele>
        <time>2012-01-14T08:36:22Z</time>
      </trkpt>
      <trkpt lat="45.65981" lon="4.59204">
        <ele>616</ele>
        <time>2012-01-14T08:36:25Z</time>
      </trkpt>
      <trkpt lat="45.65988" lon="4.59189">
        <ele>614</ele>
        <time>2012-01-14T08:36:28Z</time>
      </trkpt>
      <trkpt lat="45.65996" lon="4.59166">
        <ele>611</ele>
        <time>2012-01-14T08:36:32Z</time>
      </trkpt>
      <trkpt lat="45.65999" lon="4.5916">
        <ele>610</ele>
        <time>2012-01-14T08:36:33Z</time>
      </trkpt>
      <trkpt lat="45.6601" lon="4.59138">
        <ele>606</ele>
        <time>2012-01-14T08:36:36Z</time>
      </trkpt>
      <trkpt lat="45.66018" lon="4.59117">
        <ele>603</ele>
        <time>2012-01-14T08:36:39Z</time>
      </trkpt>
      <trkpt lat="45.66021" lon="4.5911">
        <ele>602</ele>
        <time>2012-01-14T08:36:40Z</time>
      </trkpt>
      <trkpt lat="45.66025" lon="4.59103">
        <ele>602</ele>
        <time>2012-01-14T08:36:41Z</time>
      </trkpt>
      <trkpt lat="45.66047" lon="4.59061">
        <ele>601</ele>
        <time>2012-01-14T08:36:47Z</time>
      </trkpt>
      <trkpt lat="45.66081" lon="4.59016">
        <ele>600</ele>
        <time>2012-01-14T08:36:56Z</time>
      </trkpt>
      <trkpt lat="45.6609" lon="4.59002">
        <ele>598</ele>
        <time>2012-01-14T08:37:00Z</time>
      </trkpt>
      <trkpt lat="45.66092" lon="4.58999">
        <ele>597</ele>
        <time>2012-01-14T08:37:05Z</time>
      </trkpt>
      <trkpt lat="45.66092" lon="4.58999">
        <ele>597</ele>
        <time>2012-01-14T08:37:19Z</time>
      </trkpt>
      <trkpt lat="45.66092" lon="4.58999">
        <ele>596</ele>
        <time>2012-01-14T08:37:31Z</time>
      </trkpt>
      <trkpt lat="45.66092" lon="4.58999">
        <ele>597</ele>
        <time>2012-01-14T08:37:48Z</time>
      </trkpt>
      <trkpt lat="45.66093" lon="4.58995">
        <ele>596</ele>
        <time>2012-01-14T08:37:58Z</time>
      </trkpt>
      <trkpt lat="45.66096" lon="4.58987">
        <ele>596</ele>
        <time>2012-01-14T08:38:00Z</time>
      </trkpt>
      <trkpt lat="45.66097" lon="4.58981">
        <ele>595</ele>
        <time>2012-01-14T08:38:01Z</time>
      </trkpt>
      <trkpt lat="45.66105" lon="4.58954">
        <ele>591</ele>
        <time>2012-01-14T08:38:05Z</time>
      </trkpt>
      <trkpt lat="45.66109" lon="4.58935">
        <ele>589</ele>
        <time>2012-01-14T08:38:08Z</time>
      </trkpt>
      <trkpt lat="45.66106" lon="4.5892">
        <ele>587</ele>
        <time>2012-01-14T08:38:11Z</time>
      </trkpt>
      <trkpt lat="45.66102" lon="4.58915">
        <ele>586</ele>
        <time>2012-01-14T08:38:12Z</time>
      </trkpt>
      <trkpt lat="45.66093" lon="4.58906">
        <ele>585</ele>
        <time>2012-01-14T08:38:14Z</time>
      </trkpt>
      <trkpt lat="45.66089" lon="4.58903">
        <ele>582</ele>
        <time>2012-01-14T08:38:15Z</time>
      </trkpt>
      <trkpt lat="45.66084" lon="4.589">
        <ele>581</ele>
        <time>2012-01-14T08:38:16Z</time>
      </trkpt>
      <trkpt lat="45.6608" lon="4.58898">
        <ele>581</ele>
        <time>2012-01-14T08:38:17Z</time>
      </trkpt>
      <trkpt lat="45.66075" lon="4.58896">
        <ele>579</ele>
        <time>2012-01-14T08:38:18Z</time>
      </trkpt>
      <trkpt lat="45.66053" lon="4.58891">
        <ele>576</ele>
        <time>2012-01-14T08:38:22Z</time>
      </trkpt>
      <trkpt lat="45.66029" lon="4.58894">
        <ele>574</ele>
        <time>2012-01-14T08:38:25Z</time>
      </trkpt>
      <trkpt lat="45.66021" lon="4.58897">
        <ele>572</ele>
        <time>2012-01-14T08:38:26Z</time>
      </trkpt>
      <trkpt lat="45.66013" lon="4.589">
        <ele>572</ele>
        <time>2012-01-14T08:38:27Z</time>
      </trkpt>
      <trkpt lat="45.65998" lon="4.58909">
        <ele>571</ele>
        <time>2012-01-14T08:38:29Z</time>
      </trkpt>
      <trkpt lat="45.65992" lon="4.58915">
        <ele>571</ele>
        <time>2012-01-14T08:38:30Z</time>
      </trkpt>
      <trkpt lat="45.65987" lon="4.58923">
        <ele>570</ele>
        <time>2012-01-14T08:38:31Z</time>
      </trkpt>
      <trkpt lat="45.65979" lon="4.58937">
        <ele>569</ele>
        <time>2012-01-14T08:38:33Z</time>
      </trkpt>
      <trkpt lat="45.65976" lon="4.58942">
        <ele>568</ele>
        <time>2012-01-14T08:38:34Z</time>
      </trkpt>
      <trkpt lat="45.65973" lon="4.58947">
        <ele>568</ele>
        <time>2012-01-14T08:38:35Z</time>
      </trkpt>
      <trkpt lat="45.65969" lon="4.58954">
        <ele>566</ele>
        <time>2012-01-14T08:38:37Z</time>
      </trkpt>
      <trkpt lat="45.65962" lon="4.58958">
        <ele>566</ele>
        <time>2012-01-14T08:38:43Z</time>
      </trkpt>
      <trkpt lat="45.65962" lon="4.58958">
        <ele>565</ele>
        <time>2012-01-14T08:38:56Z</time>
      </trkpt>
      <trkpt lat="45.65962" lon="4.58958">
        <ele>566</ele>
        <time>2012-01-14T08:39:01Z</time>
      </trkpt>
      <trkpt lat="45.65962" lon="4.58958">
        <ele>565</ele>
        <time>2012-01-14T08:39:05Z</time>
      </trkpt>
      <trkpt lat="45.65963" lon="4.58958">
        <ele>565</ele>
        <time>2012-01-14T08:39:08Z</time>
      </trkpt>
      <trkpt lat="45.65964" lon="4.58957">
        <ele>566</ele>
        <time>2012-01-14T08:39:09Z</time>
      </trkpt>
      <trkpt lat="45.65966" lon="4.58956">
        <ele>566</ele>
        <time>2012-01-14T08:39:10Z</time>
      </trkpt>
      <trkpt lat="45.65967" lon="4.58954">
        <ele>566</ele>
        <time>2012-01-14T08:39:11Z</time>
      </trkpt>
      <trkpt lat="45.65969" lon="4.58952">
        <ele>566</ele>
        <time>2012-01-14T08:39:12Z</time>
      </trkpt>
      <trkpt lat="45.65971" lon="4.5895">
        <ele>566</ele>
        <time>2012-01-14T08:39:13Z</time>
      </trkpt>
      <trkpt lat="45.65973" lon="4.58948">
        <ele>566</ele>
        <time>2012-01-14T08:39:14Z</time>
      </trkpt>
      <trkpt lat="45.65974" lon="4.58946">
        <ele>566</ele>
        <time>2012-01-14T08:39:15Z</time>
      </trkpt>
      <trkpt lat="45.65986" lon="4.58926">
        <ele>568</ele>
        <time>2012-01-14T08:39:22Z</time>
      </trkpt>
      <trkpt lat="45.65993" lon="4.58917">
        <ele>569</ele>
        <time>2012-01-14T08:39:26Z</time>
      </trkpt>
      <trkpt lat="45.66007" lon="4.58903">
        <ele>569</ele>
        <time>2012-01-14T08:39:33Z</time>
      </trkpt>
      <trkpt lat="45.66025" lon="4.58895">
        <ele>570</ele>
        <time>2012-01-14T08:39:41Z</time>
      </trkpt>
      <trkpt lat="45.6604" lon="4.58892">
        <ele>571</ele>
        <time>2012-01-14T08:39:49Z</time>
      </trkpt>
      <trkpt lat="45.66042" lon="4.58892">
        <ele>572</ele>
        <time>2012-01-14T08:39:50Z</time>
      </trkpt>
      <trkpt lat="45.66043" lon="4.58891">
        <ele>572</ele>
        <time>2012-01-14T08:39:51Z</time>
      </trkpt>
      <trkpt lat="45.66045" lon="4.58892">
        <ele>572</ele>
        <time>2012-01-14T08:39:52Z</time>
      </trkpt>
      <trkpt lat="45.66046" lon="4.58892">
        <ele>572</ele>
        <time>2012-01-14T08:39:53Z</time>
      </trkpt>
      <trkpt lat="45.66048" lon="4.58892">
        <ele>572</ele>
        <time>2012-01-14T08:39:54Z</time>
      </trkpt>
      <trkpt lat="45.6605" lon="4.58892">
        <ele>572</ele>
        <time>2012-01-14T08:39:55Z</time>
      </trkpt>
      <trkpt lat="45.66051" lon="4.58892">
        <ele>572</ele>
        <time>2012-01-14T08:39:56Z</time>
      </trkpt>
      <trkpt lat="45.66053" lon="4.58892">
        <ele>573</ele>
        <time>2012-01-14T08:39:57Z</time>
      </trkpt>
      <trkpt lat="45.66055" lon="4.58892">
        <ele>574</ele>
        <time>2012-01-14T08:39:58Z</time>
      </trkpt>
      <trkpt lat="45.66056" lon="4.58892">
        <ele>574</ele>
        <time>2012-01-14T08:39:59Z</time>
      </trkpt>
      <trkpt lat="45.66058" lon="4.58892">
        <ele>574</ele>
        <time>2012-01-14T08:40:00Z</time>
      </trkpt>
      <trkpt lat="45.66059" lon="4.58892">
        <ele>574</ele>
        <time>2012-01-14T08:40:01Z</time>
      </trkpt>
      <trkpt lat="45.66064" lon="4.58892">
        <ele>575</ele>
        <time>2012-01-14T08:40:04Z</time>
      </trkpt>
      <trkpt lat="45.66066" lon="4.58892">
        <ele>575</ele>
        <time>2012-01-14T08:40:05Z</time>
      </trkpt>
      <trkpt lat="45.66067" lon="4.58892">
        <ele>575</ele>
        <time>2012-01-14T08:40:06Z</time>
      </trkpt>
      <trkpt lat="45.66069" lon="4.58893">
        <ele>576</ele>
        <time>2012-01-14T08:40:07Z</time>
      </trkpt>
      <trkpt lat="45.66071" lon="4.58893">
        <ele>576</ele>
        <time>2012-01-14T08:40:08Z</time>
      </trkpt>
      <trkpt lat="45.66072" lon="4.58894">
        <ele>576</ele>
        <time>2012-01-14T08:40:09Z</time>
      </trkpt>
      <trkpt lat="45.66074" lon="4.58895">
        <ele>577</ele>
        <time>2012-01-14T08:40:10Z</time>
      </trkpt>
      <trkpt lat="45.66076" lon="4.58895">
        <ele>577</ele>
        <time>2012-01-14T08:40:11Z</time>
      </trkpt>
      <trkpt lat="45.66077" lon="4.58896">
        <ele>578</ele>
        <time>2012-01-14T08:40:12Z</time>
      </trkpt>
      <trkpt lat="45.66079" lon="4.58897">
        <ele>578</ele>
        <time>2012-01-14T08:40:13Z</time>
      </trkpt>
      <trkpt lat="45.66082" lon="4.58898">
        <ele>579</ele>
        <time>2012-01-14T08:40:15Z</time>
      </trkpt>
      <trkpt lat="45.66083" lon="4.58896">
        <ele>579</ele>
        <time>2012-01-14T08:40:16Z</time>
      </trkpt>
      <trkpt lat="45.66083" lon="4.58893">
        <ele>580</ele>
        <time>2012-01-14T08:40:17Z</time>
      </trkpt>
      <trkpt lat="45.66082" lon="4.5889">
        <ele>579</ele>
        <time>2012-01-14T08:40:18Z</time>
      </trkpt>
      <trkpt lat="45.66082" lon="4.58887">
        <ele>578</ele>
        <time>2012-01-14T08:40:19Z</time>
      </trkpt>
      <trkpt lat="45.66082" lon="4.58885">
        <ele>578</ele>
        <time>2012-01-14T08:40:20Z</time>
      </trkpt>
      <trkpt lat="45.66083" lon="4.58883">
        <ele>577</ele>
        <time>2012-01-14T08:40:21Z</time>
      </trkpt>
      <trkpt lat="45.66084" lon="4.58881">
        <ele>577</ele>
        <time>2012-01-14T08:40:22Z</time>
      </trkpt>
      <trkpt lat="45.66085" lon="4.58879">
        <ele>576</ele>
        <time>2012-01-14T08:40:23Z</time>
      </trkpt>
      <trkpt lat="45.66089" lon="4.58871">
        <ele>576</ele>
        <time>2012-01-14T08:40:26Z</time>
      </trkpt>
      <trkpt lat="45.66091" lon="4.58868">
        <ele>575</ele>
        <time>2012-01-14T08:40:27Z</time>
      </trkpt>
      <trkpt lat="45.66094" lon="4.58865">
        <ele>575</ele>
        <time>2012-01-14T08:40:28Z</time>
      </trkpt>
      <trkpt lat="45.66097" lon="4.58861">
        <ele>574</ele>
        <time>2012-01-14T08:40:29Z</time>
      </trkpt>
      <trkpt lat="45.66101" lon="4.58857">
        <ele>574</ele>
        <time>2012-01-14T08:40:30Z</time>
      </trkpt>
      <trkpt lat="45.66115" lon="4.58846">
        <ele>570</ele>
        <time>2012-01-14T08:40:33Z</time>
      </trkpt>
      <trkpt lat="45.66132" lon="4.58836">
        <ele>567</ele>
        <time>2012-01-14T08:40:36Z</time>
      </trkpt>
      <trkpt lat="45.66137" lon="4.58834">
        <ele>567</ele>
        <time>2012-01-14T08:40:37Z</time>
      </trkpt>
      <trkpt lat="45.66152" lon="4.58829">
        <ele>563</ele>
        <time>2012-01-14T08:40:40Z</time>
      </trkpt>
      <trkpt lat="45.66168" lon="4.58828">
        <ele>561</ele>
        <time>2012-01-14T08:40:43Z</time>
      </trkpt>
      <trkpt lat="45.66172" lon="4.58829">
        <ele>559</ele>
        <time>2012-01-14T08:40:44Z</time>
      </trkpt>
      <trkpt lat="45.66176" lon="4.5883">
        <ele>559</ele>
        <time>2012-01-14T08:40:45Z</time>
      </trkpt>
      <trkpt lat="45.66179" lon="4.58829">
        <ele>558</ele>
        <time>2012-01-14T08:40:46Z</time>
      </trkpt>
      <trkpt lat="45.6618" lon="4.58825">
        <ele>557</ele>
        <time>2012-01-14T08:40:47Z</time>
      </trkpt>
      <trkpt lat="45.66179" lon="4.58821">
        <ele>556</ele>
        <time>2012-01-14T08:40:48Z</time>
      </trkpt>
      <trkpt lat="45.66176" lon="4.58817">
        <ele>556</ele>
        <time>2012-01-14T08:40:49Z</time>
      </trkpt>
      <trkpt lat="45.66173" lon="4.58812">
        <ele>556</ele>
        <time>2012-01-14T08:40:50Z</time>
      </trkpt>
      <trkpt lat="45.6617" lon="4.58806">
        <ele>555</ele>
        <time>2012-01-14T08:40:51Z</time>
      </trkpt>
      <trkpt lat="45.66162" lon="4.58792">
        <ele>553</ele>
        <time>2012-01-14T08:40:53Z</time>
      </trkpt>
      <trkpt lat="45.66148" lon="4.58771">
        <ele>549</ele>
        <time>2012-01-14T08:40:56Z</time>
      </trkpt>
      <trkpt lat="45.66135" lon="4.58751">
        <ele>545</ele>
        <time>2012-01-14T08:40:59Z</time>
      </trkpt>
      <trkpt lat="45.6613" lon="4.58744">
        <ele>542</ele>
        <time>2012-01-14T08:41:00Z</time>
      </trkpt>
      <trkpt lat="45.66124" lon="4.58738">
        <ele>539</ele>
        <time>2012-01-14T08:41:01Z</time>
      </trkpt>
      <trkpt lat="45.66116" lon="4.58729">
        <ele>537</ele>
        <time>2012-01-14T08:41:03Z</time>
      </trkpt>
      <trkpt lat="45.66112" lon="4.58728">
        <ele>537</ele>
        <time>2012-01-14T08:41:04Z</time>
      </trkpt>
      <trkpt lat="45.66108" lon="4.58729">
        <ele>536</ele>
        <time>2012-01-14T08:41:05Z</time>
      </trkpt>
      <trkpt lat="45.66104" lon="4.58731">
        <ele>535</ele>
        <time>2012-01-14T08:41:06Z</time>
      </trkpt>
      <trkpt lat="45.66099" lon="4.58733">
        <ele>533</ele>
        <time>2012-01-14T08:41:07Z</time>
      </trkpt>
      <trkpt lat="45.66094" lon="4.58735">
        <ele>532</ele>
        <time>2012-01-14T08:41:08Z</time>
      </trkpt>
      <trkpt lat="45.66088" lon="4.58736">
        <ele>530</ele>
        <time>2012-01-14T08:41:09Z</time>
      </trkpt>
      <trkpt lat="45.66083" lon="4.58738">
        <ele>529</ele>
        <time>2012-01-14T08:41:10Z</time>
      </trkpt>
      <trkpt lat="45.66079" lon="4.5874">
        <ele>528</ele>
        <time>2012-01-14T08:41:11Z</time>
      </trkpt>
      <trkpt lat="45.66075" lon="4.5874">
        <ele>527</ele>
        <time>2012-01-14T08:41:12Z</time>
      </trkpt>
      <trkpt lat="45.66073" lon="4.58741">
        <ele>525</ele>
        <time>2012-01-14T08:41:13Z</time>
      </trkpt>
      <trkpt lat="45.66072" lon="4.58741">
        <ele>525</ele>
        <time>2012-01-14T08:41:15Z</time>
      </trkpt>
      <trkpt lat="45.66074" lon="4.58739">
        <ele>525</ele>
        <time>2012-01-14T08:41:18Z</time>
      </trkpt>
      <trkpt lat="45.66075" lon="4.58738">
        <ele>525</ele>
        <time>2012-01-14T08:41:19Z</time>
      </trkpt>
      <trkpt lat="45.66077" lon="4.58736">
        <ele>524</ele>
        <time>2012-01-14T08:41:20Z</time>
      </trkpt>
      <trkpt lat="45.66078" lon="4.58734">
        <ele>524</ele>
        <time>2012-01-14T08:41:21Z</time>
      </trkpt>
      <trkpt lat="45.66079" lon="4.58733">
        <ele>525</ele>
        <time>2012-01-14T08:41:22Z</time>
      </trkpt>
      <trkpt lat="45.66081" lon="4.5873">
        <ele>524</ele>
        <time>2012-01-14T08:41:23Z</time>
      </trkpt>
      <trkpt lat="45.66085" lon="4.58726">
        <ele>524</ele>
        <time>2012-01-14T08:41:26Z</time>
      </trkpt>
      <trkpt lat="45.66093" lon="4.5872">
        <ele>523</ele>
        <time>2012-01-14T08:41:29Z</time>
      </trkpt>
      <trkpt lat="45.66096" lon="4.58716">
        <ele>522</ele>
        <time>2012-01-14T08:41:30Z</time>
      </trkpt>
      <trkpt lat="45.661" lon="4.58712">
        <ele>522</ele>
        <time>2012-01-14T08:41:31Z</time>
      </trkpt>
      <trkpt lat="45.66118" lon="4.58695">
        <ele>520</ele>
        <time>2012-01-14T08:41:36Z</time>
      </trkpt>
      <trkpt lat="45.6612" lon="4.58694">
        <ele>520</ele>
        <time>2012-01-14T08:41:37Z</time>
      </trkpt>
      <trkpt lat="45.66121" lon="4.58693">
        <ele>519</ele>
        <time>2012-01-14T08:41:38Z</time>
      </trkpt>
      <trkpt lat="45.66123" lon="4.5869">
        <ele>518</ele>
        <time>2012-01-14T08:41:44Z</time>
      </trkpt>
      <trkpt lat="45.66114" lon="4.58673">
        <ele>517</ele>
        <time>2012-01-14T08:41:50Z</time>
      </trkpt>
      <trkpt lat="45.66114" lon="4.58673">
        <ele>517</ele>
        <time>2012-01-14T08:41:59Z</time>
      </trkpt>
      <trkpt lat="45.66113" lon="4.58666">
        <ele>517</ele>
        <time>2012-01-14T08:42:09Z</time>
      </trkpt>
      <trkpt lat="45.66113" lon="4.58664">
        <ele>517</ele>
        <time>2012-01-14T08:42:16Z</time>
      </trkpt>
      <trkpt lat="45.66111" lon="4.58661">
        <ele>516</ele>
        <time>2012-01-14T08:42:23Z</time>
      </trkpt>
      <trkpt lat="45.6611" lon="4.58659">
        <ele>517</ele>
        <time>2012-01-14T08:42:30Z</time>
      </trkpt>
      <trkpt lat="45.6611" lon="4.58659">
        <ele>518</ele>
        <time>2012-01-14T08:42:41Z</time>
      </trkpt>
      <trkpt lat="45.6611" lon="4.58659">
        <ele>518</ele>
        <time>2012-01-14T08:42:51Z</time>
      </trkpt>
      <trkpt lat="45.66111" lon="4.58648">
        <ele>519</ele>
        <time>2012-01-14T08:42:58Z</time>
      </trkpt>
      <trkpt lat="45.66111" lon="4.58644">
        <ele>520</ele>
        <time>2012-01-14T08:43:02Z</time>
      </trkpt>
      <trkpt lat="45.6611" lon="4.58642">
        <ele>520</ele>
        <time>2012-01-14T08:43:07Z</time>
      </trkpt>
      <trkpt lat="45.66109" lon="4.58637">
        <ele>520</ele>
        <time>2012-01-14T08:43:14Z</time>
      </trkpt>
      <trkpt lat="45.66109" lon="4.58637">
        <ele>520</ele>
        <time>2012-01-14T08:43:17Z</time>
      </trkpt>
      <trkpt lat="45.6611" lon="4.58631">
        <ele>521</ele>
        <time>2012-01-14T08:43:23Z</time>
      </trkpt>
      <trkpt lat="45.66111" lon="4.58629">
        <ele>520</ele>
        <time>2012-01-14T08:43:29Z</time>
      </trkpt>
      <trkpt lat="45.66112" lon="4.58627">
        <ele>521</ele>
        <time>2012-01-14T08:43:35Z</time>
      </trkpt>
      <trkpt lat="45.66112" lon="4.58624">
        <ele>521</ele>
        <time>2012-01-14T08:43:43Z</time>
      </trkpt>
      <trkpt lat="45.66113" lon="4.58622">
        <ele>522</ele>
        <time>2012-01-14T08:43:49Z</time>
      </trkpt>
      <trkpt lat="45.66113" lon="4.5862">
        <ele>522</ele>
        <time>2012-01-14T08:43:50Z</time>
      </trkpt>
      <trkpt lat="45.66115" lon="4.58609">
        <ele>522</ele>
        <time>2012-01-14T08:43:55Z</time>
      </trkpt>
      <trkpt lat="45.66115" lon="4.58598">
        <ele>523</ele>
        <time>2012-01-14T08:44:03Z</time>
      </trkpt>
      <trkpt lat="45.66116" lon="4.58596">
        <ele>523</ele>
        <time>2012-01-14T08:44:05Z</time>
      </trkpt>
      <trkpt lat="45.66117" lon="4.58589">
        <ele>524</ele>
        <time>2012-01-14T08:44:12Z</time>
      </trkpt>
      <trkpt lat="45.66119" lon="4.58574">
        <ele>525</ele>
        <time>2012-01-14T08:44:19Z</time>
      </trkpt>
      <trkpt lat="45.66119" lon="4.58573">
        <ele>525</ele>
        <time>2012-01-14T08:44:27Z</time>
      </trkpt>
      <trkpt lat="45.66121" lon="4.58571">
        <ele>525</ele>
        <time>2012-01-14T08:44:35Z</time>
      </trkpt>
      <trkpt lat="45.66121" lon="4.58575">
        <ele>526</ele>
        <time>2012-01-14T08:44:41Z</time>
      </trkpt>
      <trkpt lat="45.66122" lon="4.58576">
        <ele>526</ele>
        <time>2012-01-14T08:44:42Z</time>
      </trkpt>
      <trkpt lat="45.66123" lon="4.58583">
        <ele>526</ele>
        <time>2012-01-14T08:44:46Z</time>
      </trkpt>
      <trkpt lat="45.66128" lon="4.58594">
        <ele>525</ele>
        <time>2012-01-14T08:44:50Z</time>
      </trkpt>
      <trkpt lat="45.66133" lon="4.58597">
        <ele>525</ele>
        <time>2012-01-14T08:44:52Z</time>
      </trkpt>
      <trkpt lat="45.66145" lon="4.58598">
        <ele>525</ele>
        <time>2012-01-14T08:45:00Z</time>
      </trkpt>
      <trkpt lat="45.66149" lon="4.58597">
        <ele>524</ele>
        <time>2012-01-14T08:45:07Z</time>
      </trkpt>
      <trkpt lat="45.66149" lon="4.58597">
        <ele>524</ele>
        <time>2012-01-14T08:45:15Z</time>
      </trkpt>
      <trkpt lat="45.66147" lon="4.58598">
        <ele>524</ele>
        <time>2012-01-14T08:45:21Z</time>
      </trkpt>
      <trkpt lat="45.66147" lon="4.58598">
        <ele>524</ele>
        <time>2012-01-14T08:45:31Z</time>
      </trkpt>
      <trkpt lat="45.66145" lon="4.58598">
        <ele>524</ele>
        <time>2012-01-14T08:45:35Z</time>
      </trkpt>
      <trkpt lat="45.66142" lon="4.58599">
        <ele>524</ele>
        <time>2012-01-14T08:45:37Z</time>
      </trkpt>
      <trkpt lat="45.66135" lon="4.58597">
        <ele>524</ele>
        <time>2012-01-14T08:45:42Z</time>
      </trkpt>
      <trkpt lat="45.6613" lon="4.58581">
        <ele>525</ele>
        <time>2012-01-14T08:45:49Z</time>
      </trkpt>
      <trkpt lat="45.6613" lon="4.58578">
        <ele>525</ele>
        <time>2012-01-14T08:45:50Z</time>
      </trkpt>
      <trkpt lat="45.66125" lon="4.58563">
        <ele>525</ele>
        <time>2012-01-14T08:45:55Z</time>
      </trkpt>
      <trkpt lat="45.66127" lon="4.58551">
        <ele>526</ele>
        <time>2012-01-14T08:46:00Z</time>
      </trkpt>
      <trkpt lat="45.66133" lon="4.58539">
        <ele>529</ele>
        <time>2012-01-14T08:46:07Z</time>
      </trkpt>
      <trkpt lat="45.66137" lon="4.58529">
        <ele>531</ele>
        <time>2012-01-14T08:46:14Z</time>
      </trkpt>
      <trkpt lat="45.6614" lon="4.58524">
        <ele>532</ele>
        <time>2012-01-14T08:46:20Z</time>
      </trkpt>
      <trkpt lat="45.66146" lon="4.58516">
        <ele>534</ele>
        <time>2012-01-14T08:46:27Z</time>
      </trkpt>
      <trkpt lat="45.66152" lon="4.58506">
        <ele>536</ele>
        <time>2012-01-14T08:46:34Z</time>
      </trkpt>
      <trkpt lat="45.66159" lon="4.58493">
        <ele>537</ele>
        <time>2012-01-14T08:46:43Z</time>
      </trkpt>
      <trkpt lat="45.6616" lon="4.58492">
        <ele>538</ele>
        <time>2012-01-14T08:46:44Z</time>
      </trkpt>
      <trkpt lat="45.66165" lon="4.58484">
        <ele>539</ele>
        <time>2012-01-14T08:46:51Z</time>
      </trkpt>
      <trkpt lat="45.66169" lon="4.58479">
        <ele>540</ele>
        <time>2012-01-14T08:46:57Z</time>
      </trkpt>
      <trkpt lat="45.66173" lon="4.58474">
        <ele>541</ele>
        <time>2012-01-14T08:47:03Z</time>
      </trkpt>
      <trkpt lat="45.66178" lon="4.5847">
        <ele>542</ele>
        <time>2012-01-14T08:47:09Z</time>
      </trkpt>
      <trkpt lat="45.66182" lon="4.58464">
        <ele>543</ele>
        <time>2012-01-14T08:47:15Z</time>
      </trkpt>
      <trkpt lat="45.66183" lon="4.5846">
        <ele>543</ele>
        <time>2012-01-14T08:47:22Z</time>
      </trkpt>
      <trkpt lat="45.66183" lon="4.5846">
        <ele>543</ele>
        <time>2012-01-14T08:47:41Z</time>
      </trkpt>
      <trkpt lat="45.66183" lon="4.5846">
        <ele>543</ele>
        <time>2012-01-14T08:47:44Z</time>
      </trkpt>
      <trkpt lat="45.66188" lon="4.5845">
        <ele>544</ele>
        <time>2012-01-14T08:47:50Z</time>
      </trkpt>
      <trkpt lat="45.66191" lon="4.5844">
        <ele>546</ele>
        <time>2012-01-14T08:47:54Z</time>
      </trkpt>
      <trkpt lat="45.66196" lon="4.58428">
        <ele>548</ele>
        <time>2012-01-14T08:48:00Z</time>
      </trkpt>
      <trkpt lat="45.66198" lon="4.58429">
        <ele>548</ele>
        <time>2012-01-14T08:48:02Z</time>
      </trkpt>
      <trkpt lat="45.66196" lon="4.58433">
        <ele>549</ele>
        <time>2012-01-14T08:48:09Z</time>
      </trkpt>
      <trkpt lat="45.66195" lon="4.58436">
        <ele>550</ele>
        <time>2012-01-14T08:48:16Z</time>
      </trkpt>
      <trkpt lat="45.66195" lon="4.58436">
        <ele>550</ele>
        <time>2012-01-14T08:48:32Z</time>
      </trkpt>
      <trkpt lat="45.66195" lon="4.58436">
        <ele>550</ele>
        <time>2012-01-14T08:48:41Z</time>
      </trkpt>
      <trkpt lat="45.66195" lon="4.58436">
        <ele>550</ele>
        <time>2012-01-14T08:48:49Z</time>
      </trkpt>
      <trkpt lat="45.66196" lon="4.58442">
        <ele>552</ele>
        <time>2012-01-14T08:48:55Z</time>
      </trkpt>
      <trkpt lat="45.66197" lon="4.58444">
        <ele>552</ele>
        <time>2012-01-14T08:48:56Z</time>
      </trkpt>
      <trkpt lat="45.66199" lon="4.58456">
        <ele>553</ele>
        <time>2012-01-14T08:49:01Z</time>
      </trkpt>
      <trkpt lat="45.662" lon="4.58469">
        <ele>554</ele>
        <time>2012-01-14T08:49:07Z</time>
      </trkpt>
      <trkpt lat="45.662" lon="4.58475">
        <ele>554</ele>
        <time>2012-01-14T08:49:10Z</time>
      </trkpt>
      <trkpt lat="45.66203" lon="4.58485">
        <ele>556</ele>
        <time>2012-01-14T08:49:15Z</time>
      </trkpt>
      <trkpt lat="45.66206" lon="4.58495">
        <ele>558</ele>
        <time>2012-01-14T08:49:22Z</time>
      </trkpt>
      <trkpt lat="45.66207" lon="4.58496">
        <ele>559</ele>
        <time>2012-01-14T08:49:23Z</time>
      </trkpt>
      <trkpt lat="45.66211" lon="4.585">
        <ele>560</ele>
        <time>2012-01-14T08:49:30Z</time>
      </trkpt>
      <trkpt lat="45.66212" lon="4.58501">
        <ele>560</ele>
        <time>2012-01-14T08:49:31Z</time>
      </trkpt>
      <trkpt lat="45.66219" lon="4.58506">
        <ele>562</ele>
        <time>2012-01-14T08:49:37Z</time>
      </trkpt>
      <trkpt lat="45.66229" lon="4.58515">
        <ele>563</ele>
        <time>2012-01-14T08:49:44Z</time>
      </trkpt>
      <trkpt lat="45.66233" lon="4.58516">
        <ele>564</ele>
        <time>2012-01-14T08:49:46Z</time>
      </trkpt>
      <trkpt lat="45.66235" lon="4.58517">
        <ele>564</ele>
        <time>2012-01-14T08:49:47Z</time>
      </trkpt>
      <trkpt lat="45.66238" lon="4.58519">
        <ele>565</ele>
        <time>2012-01-14T08:49:50Z</time>
      </trkpt>
      <trkpt lat="45.66244" lon="4.58523">
        <ele>566</ele>
        <time>2012-01-14T08:49:55Z</time>
      </trkpt>
      <trkpt lat="45.66254" lon="4.58526">
        <ele>567</ele>
        <time>2012-01-14T08:50:03Z</time>
      </trkpt>
      <trkpt lat="45.66265" lon="4.5853">
        <ele>569</ele>
        <time>2012-01-14T08:50:11Z</time>
      </trkpt>
      <trkpt lat="45.6627" lon="4.58529">
        <ele>569</ele>
        <time>2012-01-14T08:50:15Z</time>
      </trkpt>
      <trkpt lat="45.66275" lon="4.58525">
        <ele>571</ele>
        <time>2012-01-14T08:50:20Z</time>
      </trkpt>
      <trkpt lat="45.66277" lon="4.58523">
        <ele>571</ele>
        <time>2012-01-14T08:50:22Z</time>
      </trkpt>
      <trkpt lat="45.66281" lon="4.58511">
        <ele>572</ele>
        <time>2012-01-14T08:50:29Z</time>
      </trkpt>
      <trkpt lat="45.66278" lon="4.58504">
        <ele>573</ele>
        <time>2012-01-14T08:50:34Z</time>
      </trkpt>
      <trkpt lat="45.66279" lon="4.5849">
        <ele>574</ele>
        <time>2012-01-14T08:50:41Z</time>
      </trkpt>
      <trkpt lat="45.6628" lon="4.58476">
        <ele>575</ele>
        <time>2012-01-14T08:50:50Z</time>
      </trkpt>
      <trkpt lat="45.66281" lon="4.58458">
        <ele>577</ele>
        <time>2012-01-14T08:51:00Z</time>
      </trkpt>
      <trkpt lat="45.66284" lon="4.58438">
        <ele>579</ele>
        <time>2012-01-14T08:51:10Z</time>
      </trkpt>
      <trkpt lat="45.66286" lon="4.58419">
        <ele>580</ele>
        <time>2012-01-14T08:51:21Z</time>
      </trkpt>
      <trkpt lat="45.66289" lon="4.58402">
        <ele>582</ele>
        <time>2012-01-14T08:51:30Z</time>
      </trkpt>
      <trkpt lat="45.6629" lon="4.58386">
        <ele>584</ele>
        <time>2012-01-14T08:51:39Z</time>
      </trkpt>
      <trkpt lat="45.6629" lon="4.58382">
        <ele>585</ele>
        <time>2012-01-14T08:51:41Z</time>
      </trkpt>
      <trkpt lat="45.66292" lon="4.58364">
        <ele>587</ele>
        <time>2012-01-14T08:51:51Z</time>
      </trkpt>
      <trkpt lat="45.66293" lon="4.58349">
        <ele>588</ele>
        <time>2012-01-14T08:52:00Z</time>
      </trkpt>
      <trkpt lat="45.66293" lon="4.58347">
        <ele>589</ele>
        <time>2012-01-14T08:52:01Z</time>
      </trkpt>
      <trkpt lat="45.66292" lon="4.58339">
        <ele>590</ele>
        <time>2012-01-14T08:52:05Z</time>
      </trkpt>
      <trkpt lat="45.66291" lon="4.58334">
        <ele>591</ele>
        <time>2012-01-14T08:52:08Z</time>
      </trkpt>
      <trkpt lat="45.66286" lon="4.58325">
        <ele>593</ele>
        <time>2012-01-14T08:52:15Z</time>
      </trkpt>
      <trkpt lat="45.66283" lon="4.58316">
        <ele>593</ele>
        <time>2012-01-14T08:52:21Z</time>
      </trkpt>
      <trkpt lat="45.6628" lon="4.58307">
        <ele>594</ele>
        <time>2012-01-14T08:52:27Z</time>
      </trkpt>
      <trkpt lat="45.66279" lon="4.58305">
        <ele>594</ele>
        <time>2012-01-14T08:52:28Z</time>
      </trkpt>
      <trkpt lat="45.66275" lon="4.58289">
        <ele>596</ele>
        <time>2012-01-14T08:52:35Z</time>
      </trkpt>
      <trkpt lat="45.66274" lon="4.58287">
        <ele>596</ele>
        <time>2012-01-14T08:52:36Z</time>
      </trkpt>
      <trkpt lat="45.66273" lon="4.58274">
        <ele>597</ele>
        <time>2012-01-14T08:52:44Z</time>
      </trkpt>
      <trkpt lat="45.66273" lon="4.58262">
        <ele>599</ele>
        <time>2012-01-14T08:52:52Z</time>
      </trkpt>
      <trkpt lat="45.66275" lon="4.58251">
        <ele>600</ele>
        <time>2012-01-14T08:52:59Z</time>
      </trkpt>
      <trkpt lat="45.66277" lon="4.58248">
        <ele>600</ele>
        <time>2012-01-14T08:53:01Z</time>
      </trkpt>
      <trkpt lat="45.66278" lon="4.58245">
        <ele>601</ele>
        <time>2012-01-14T08:53:03Z</time>
      </trkpt>
      <trkpt lat="45.66284" lon="4.58235">
        <ele>603</ele>
        <time>2012-01-14T08:53:10Z</time>
      </trkpt>
      <trkpt lat="45.66292" lon="4.58225">
        <ele>606</ele>
        <time>2012-01-14T08:53:19Z</time>
      </trkpt>
      <trkpt lat="45.66301" lon="4.58224">
        <ele>609</ele>
        <time>2012-01-14T08:53:27Z</time>
      </trkpt>
      <trkpt lat="45.66302" lon="4.58223">
        <ele>609</ele>
        <time>2012-01-14T08:53:28Z</time>
      </trkpt>
      <trkpt lat="45.66311" lon="4.58223">
        <ele>612</ele>
        <time>2012-01-14T08:53:34Z</time>
      </trkpt>
      <trkpt lat="45.66318" lon="4.58222">
        <ele>613</ele>
        <time>2012-01-14T08:53:40Z</time>
      </trkpt>
      <trkpt lat="45.6632" lon="4.58222">
        <ele>613</ele>
        <time>2012-01-14T08:53:42Z</time>
      </trkpt>
      <trkpt lat="45.6633" lon="4.58218">
        <ele>615</ele>
        <time>2012-01-14T08:53:51Z</time>
      </trkpt>
      <trkpt lat="45.66337" lon="4.58216">
        <ele>616</ele>
        <time>2012-01-14T08:53:59Z</time>
      </trkpt>
      <trkpt lat="45.66345" lon="4.58213">
        <ele>617</ele>
        <time>2012-01-14T08:54:07Z</time>
      </trkpt>
      <trkpt lat="45.66352" lon="4.58209">
        <ele>618</ele>
        <time>2012-01-14T08:54:14Z</time>
      </trkpt>
      <trkpt lat="45.66353" lon="4.58209">
        <ele>618</ele>
        <time>2012-01-14T08:54:15Z</time>
      </trkpt>
      <trkpt lat="45.66359" lon="4.58204">
        <ele>619</ele>
        <time>2012-01-14T08:54:21Z</time>
      </trkpt>
      <trkpt lat="45.66366" lon="4.58197">
        <ele>621</ele>
        <time>2012-01-14T08:54:29Z</time>
      </trkpt>
      <trkpt lat="45.66375" lon="4.58188">
        <ele>622</ele>
        <time>2012-01-14T08:54:38Z</time>
      </trkpt>
      <trkpt lat="45.66381" lon="4.5818">
        <ele>623</ele>
        <time>2012-01-14T08:54:46Z</time>
      </trkpt>
      <trkpt lat="45.6639" lon="4.58171">
        <ele>624</ele>
        <time>2012-01-14T08:54:56Z</time>
      </trkpt>
      <trkpt lat="45.66399" lon="4.58162">
        <ele>625</ele>
        <time>2012-01-14T08:55:06Z</time>
      </trkpt>
      <trkpt lat="45.66408" lon="4.58153">
        <ele>627</ele>
        <time>2012-01-14T08:55:15Z</time>
      </trkpt>
      <trkpt lat="45.66416" lon="4.58143">
        <ele>629</ele>
        <time>2012-01-14T08:55:23Z</time>
      </trkpt>
      <trkpt lat="45.66422" lon="4.58135">
        <ele>631</ele>
        <time>2012-01-14T08:55:31Z</time>
      </trkpt>
      <trkpt lat="45.66423" lon="4.58135">
        <ele>631</ele>
        <time>2012-01-14T08:55:32Z</time>
      </trkpt>
      <trkpt lat="45.66429" lon="4.58127">
        <ele>631</ele>
        <time>2012-01-14T08:55:40Z</time>
      </trkpt>
      <trkpt lat="45.66436" lon="4.58121">
        <ele>632</ele>
        <time>2012-01-14T08:55:48Z</time>
      </trkpt>
      <trkpt lat="45.66441" lon="4.58117">
        <ele>633</ele>
        <time>2012-01-14T08:55:53Z</time>
      </trkpt>
      <trkpt lat="45.66446" lon="4.58112">
        <ele>634</ele>
        <time>2012-01-14T08:55:58Z</time>
      </trkpt>
      <trkpt lat="45.66457" lon="4.58098">
        <ele>637</ele>
        <time>2012-01-14T08:56:10Z</time>
      </trkpt>
      <trkpt lat="45.66466" lon="4.58085">
        <ele>638</ele>
        <time>2012-01-14T08:56:20Z</time>
      </trkpt>
      <trkpt lat="45.66466" lon="4.58083">
        <ele>638</ele>
        <time>2012-01-14T08:56:21Z</time>
      </trkpt>
      <trkpt lat="45.66472" lon="4.58074">
        <ele>639</ele>
        <time>2012-01-14T08:56:28Z</time>
      </trkpt>
      <trkpt lat="45.66475" lon="4.58068">
        <ele>640</ele>
        <time>2012-01-14T08:56:33Z</time>
      </trkpt>
      <trkpt lat="45.66479" lon="4.58059">
        <ele>639</ele>
        <time>2012-01-14T08:56:42Z</time>
      </trkpt>
      <trkpt lat="45.66479" lon="4.58059">
        <ele>639</ele>
        <time>2012-01-14T08:56:53Z</time>
      </trkpt>
      <trkpt lat="45.66479" lon="4.58059">
        <ele>639</ele>
        <time>2012-01-14T08:57:10Z</time>
      </trkpt>
      <trkpt lat="45.66479" lon="4.58059">
        <ele>639</ele>
        <time>2012-01-14T08:57:18Z</time>
      </trkpt>
      <trkpt lat="45.66494" lon="4.58054">
        <ele>639</ele>
        <time>2012-01-14T08:57:24Z</time>
      </trkpt>
      <trkpt lat="45.66512" lon="4.58048">
        <ele>636</ele>
        <time>2012-01-14T08:57:27Z</time>
      </trkpt>
      <trkpt lat="45.66519" lon="4.58045">
        <ele>635</ele>
        <time>2012-01-14T08:57:28Z</time>
      </trkpt>
      <trkpt lat="45.66543" lon="4.5803">
        <ele>631</ele>
        <time>2012-01-14T08:57:31Z</time>
      </trkpt>
      <trkpt lat="45.66549" lon="4.58023">
        <ele>631</ele>
        <time>2012-01-14T08:57:32Z</time>
      </trkpt>
      <trkpt lat="45.6658" lon="4.57982">
        <ele>629</ele>
        <time>2012-01-14T08:57:37Z</time>
      </trkpt>
      <trkpt lat="45.66591" lon="4.57966">
        <ele>630</ele>
        <time>2012-01-14T08:57:40Z</time>
      </trkpt>
      <trkpt lat="45.66596" lon="4.57957">
        <ele>631</ele>
        <time>2012-01-14T08:57:45Z</time>
      </trkpt>
      <trkpt lat="45.66598" lon="4.57956">
        <ele>631</ele>
        <time>2012-01-14T08:57:46Z</time>
      </trkpt>
      <trkpt lat="45.666" lon="4.57954">
        <ele>632</ele>
        <time>2012-01-14T08:57:47Z</time>
      </trkpt>
      <trkpt lat="45.66604" lon="4.5795">
        <ele>632</ele>
        <time>2012-01-14T08:57:53Z</time>
      </trkpt>
      <trkpt lat="45.66604" lon="4.5795">
        <ele>631</ele>
        <time>2012-01-14T08:58:05Z</time>
      </trkpt>
      <trkpt lat="45.66604" lon="4.5795">
        <ele>631</ele>
        <time>2012-01-14T08:58:15Z</time>
      </trkpt>
      <trkpt lat="45.66605" lon="4.5795">
        <ele>631</ele>
        <time>2012-01-14T08:58:16Z</time>
      </trkpt>
      <trkpt lat="45.66608" lon="4.5795">
        <ele>631</ele>
        <time>2012-01-14T08:58:19Z</time>
      </trkpt>
      <trkpt lat="45.66609" lon="4.57949">
        <ele>631</ele>
        <time>2012-01-14T08:58:20Z</time>
      </trkpt>
      <trkpt lat="45.66609" lon="4.57947">
        <ele>632</ele>
        <time>2012-01-14T08:58:21Z</time>
      </trkpt>
      <trkpt lat="45.6661" lon="4.57946">
        <ele>631</ele>
        <time>2012-01-14T08:58:22Z</time>
      </trkpt>
      <trkpt lat="45.66612" lon="4.57945">
        <ele>631</ele>
        <time>2012-01-14T08:58:23Z</time>
      </trkpt>
      <trkpt lat="45.66613" lon="4.57943">
        <ele>631</ele>
        <time>2012-01-14T08:58:24Z</time>
      </trkpt>
      <trkpt lat="45.66614" lon="4.57942">
        <ele>632</ele>
        <time>2012-01-14T08:58:25Z</time>
      </trkpt>
      <trkpt lat="45.66631" lon="4.57924">
        <ele>632</ele>
        <time>2012-01-14T08:58:36Z</time>
      </trkpt>
      <trkpt lat="45.66639" lon="4.57908">
        <ele>632</ele>
        <time>2012-01-14T08:58:42Z</time>
      </trkpt>
      <trkpt lat="45.66639" lon="4.57904">
        <ele>631</ele>
        <time>2012-01-14T08:58:43Z</time>
      </trkpt>
      <trkpt lat="45.66639" lon="4.57889">
        <ele>632</ele>
        <time>2012-01-14T08:58:47Z</time>
      </trkpt>
      <trkpt lat="45.66637" lon="4.57886">
        <ele>631</ele>
        <time>2012-01-14T08:58:48Z</time>
      </trkpt>
      <trkpt lat="45.66636" lon="4.57883">
        <ele>631</ele>
        <time>2012-01-14T08:58:49Z</time>
      </trkpt>
      <trkpt lat="45.66634" lon="4.5788">
        <ele>631</ele>
        <time>2012-01-14T08:58:50Z</time>
      </trkpt>
      <trkpt lat="45.66632" lon="4.57879">
        <ele>631</ele>
        <time>2012-01-14T08:58:51Z</time>
      </trkpt>
      <trkpt lat="45.66631" lon="4.57878">
        <ele>632</ele>
        <time>2012-01-14T08:58:52Z</time>
      </trkpt>
      <trkpt lat="45.66629" lon="4.57877">
        <ele>631</ele>
        <time>2012-01-14T08:58:53Z</time>
      </trkpt>
      <trkpt lat="45.66628" lon="4.57876">
        <ele>631</ele>
        <time>2012-01-14T08:58:54Z</time>
      </trkpt>
      <trkpt lat="45.66627" lon="4.57876">
        <ele>631</ele>
        <time>2012-01-14T08:58:55Z</time>
      </trkpt>
      <trkpt lat="45.66625" lon="4.57875">
        <ele>631</ele>
        <time>2012-01-14T08:58:56Z</time>
      </trkpt>
      <trkpt lat="45.66623" lon="4.57874">
        <ele>631</ele>
        <time>2012-01-14T08:58:57Z</time>
      </trkpt>
      <trkpt lat="45.66613" lon="4.57871">
        <ele>631</ele>
        <time>2012-01-14T08:59:05Z</time>
      </trkpt>
      <trkpt lat="45.66612" lon="4.57869">
        <ele>631</ele>
        <time>2012-01-14T08:59:07Z</time>
      </trkpt>
      <trkpt lat="45.66611" lon="4.57867">
        <ele>631</ele>
        <time>2012-01-14T08:59:08Z</time>
      </trkpt>
      <trkpt lat="45.66612" lon="4.57866">
        <ele>631</ele>
        <time>2012-01-14T08:59:09Z</time>
      </trkpt>
      <trkpt lat="45.66614" lon="4.57866">
        <ele>630</ele>
        <time>2012-01-14T08:59:10Z</time>
      </trkpt>
      <trkpt lat="45.66617" lon="4.57877">
        <ele>631</ele>
        <time>2012-01-14T08:59:15Z</time>
      </trkpt>
      <trkpt lat="45.66617" lon="4.57884">
        <ele>631</ele>
        <time>2012-01-14T08:59:18Z</time>
      </trkpt>
      <trkpt lat="45.66607" lon="4.57905">
        <ele>632</ele>
        <time>2012-01-14T08:59:28Z</time>
      </trkpt>
      <trkpt lat="45.66593" lon="4.57926">
        <ele>634</ele>
        <time>2012-01-14T08:59:38Z</time>
      </trkpt>
      <trkpt lat="45.66577" lon="4.57944">
        <ele>636</ele>
        <time>2012-01-14T08:59:48Z</time>
      </trkpt>
      <trkpt lat="45.6656" lon="4.5796">
        <ele>637</ele>
        <time>2012-01-14T08:59:57Z</time>
      </trkpt>
      <trkpt lat="45.66545" lon="4.57974">
        <ele>638</ele>
        <time>2012-01-14T09:00:05Z</time>
      </trkpt>
      <trkpt lat="45.66531" lon="4.57987">
        <ele>639</ele>
        <time>2012-01-14T09:00:12Z</time>
      </trkpt>
      <trkpt lat="45.66513" lon="4.58004">
        <ele>641</ele>
        <time>2012-01-14T09:00:22Z</time>
      </trkpt>
      <trkpt lat="45.66492" lon="4.58018">
        <ele>642</ele>
        <time>2012-01-14T09:00:32Z</time>
      </trkpt>
      <trkpt lat="45.66478" lon="4.58024">
        <ele>643</ele>
        <time>2012-01-14T09:00:38Z</time>
      </trkpt>
      <trkpt lat="45.66459" lon="4.58029">
        <ele>644</ele>
        <time>2012-01-14T09:00:46Z</time>
      </trkpt>
      <trkpt lat="45.66442" lon="4.58029">
        <ele>645</ele>
        <time>2012-01-14T09:00:54Z</time>
      </trkpt>
      <trkpt lat="45.66423" lon="4.58024">
        <ele>646</ele>
        <time>2012-01-14T09:01:02Z</time>
      </trkpt>
      <trkpt lat="45.66406" lon="4.58016">
        <ele>647</ele>
        <time>2012-01-14T09:01:10Z</time>
      </trkpt>
      <trkpt lat="45.66387" lon="4.58">
        <ele>649</ele>
        <time>2012-01-14T09:01:19Z</time>
      </trkpt>
      <trkpt lat="45.66367" lon="4.57972">
        <ele>651</ele>
        <time>2012-01-14T09:01:31Z</time>
      </trkpt>
      <trkpt lat="45.66354" lon="4.57942">
        <ele>653</ele>
        <time>2012-01-14T09:01:41Z</time>
      </trkpt>
      <trkpt lat="45.66346" lon="4.57919">
        <ele>653</ele>
        <time>2012-01-14T09:01:49Z</time>
      </trkpt>
      <trkpt lat="45.66337" lon="4.57895">
        <ele>655</ele>
        <time>2012-01-14T09:01:57Z</time>
      </trkpt>
      <trkpt lat="45.66325" lon="4.57856">
        <ele>656</ele>
        <time>2012-01-14T09:02:09Z</time>
      </trkpt>
      <trkpt lat="45.66318" lon="4.57827">
        <ele>658</ele>
        <time>2012-01-14T09:02:18Z</time>
      </trkpt>
      <trkpt lat="45.66312" lon="4.5779">
        <ele>659</ele>
        <time>2012-01-14T09:02:29Z</time>
      </trkpt>
      <trkpt lat="45.6631" lon="4.57763">
        <ele>660</ele>
        <time>2012-01-14T09:02:37Z</time>
      </trkpt>
      <trkpt lat="45.6631" lon="4.57736">
        <ele>662</ele>
        <time>2012-01-14T09:02:45Z</time>
      </trkpt>
      <trkpt lat="45.66314" lon="4.57703">
        <ele>663</ele>
        <time>2012-01-14T09:02:55Z</time>
      </trkpt>
      <trkpt lat="45.66319" lon="4.57677">
        <ele>664</ele>
        <time>2012-01-14T09:03:03Z</time>
      </trkpt>
      <trkpt lat="45.66323" lon="4.57647">
        <ele>665</ele>
        <time>2012-01-14T09:03:12Z</time>
      </trkpt>
      <trkpt lat="45.66328" lon="4.57622">
        <ele>666</ele>
        <time>2012-01-14T09:03:20Z</time>
      </trkpt>
      <trkpt lat="45.66332" lon="4.57594">
        <ele>667</ele>
        <time>2012-01-14T09:03:29Z</time>
      </trkpt>
      <trkpt lat="45.66337" lon="4.57566">
        <ele>669</ele>
        <time>2012-01-14T09:03:38Z</time>
      </trkpt>
      <trkpt lat="45.66341" lon="4.57529">
        <ele>671</ele>
        <time>2012-01-14T09:03:49Z</time>
      </trkpt>
      <trkpt lat="45.6634" lon="4.57492">
        <ele>673</ele>
        <time>2012-01-14T09:04:00Z</time>
      </trkpt>
      <trkpt lat="45.66334" lon="4.57455">
        <ele>674</ele>
        <time>2012-01-14T09:04:11Z</time>
      </trkpt>
      <trkpt lat="45.66326" lon="4.57428">
        <ele>676</ele>
        <time>2012-01-14T09:04:20Z</time>
      </trkpt>
      <trkpt lat="45.66334" lon="4.57415">
        <ele>677</ele>
        <time>2012-01-14T09:04:26Z</time>
      </trkpt>
      <trkpt lat="45.6634" lon="4.57414">
        <ele>677</ele>
        <time>2012-01-14T09:04:30Z</time>
      </trkpt>
      <trkpt lat="45.6635" lon="4.57402">
        <ele>680</ele>
        <time>2012-01-14T09:04:39Z</time>
      </trkpt>
      <trkpt lat="45.66356" lon="4.57389">
        <ele>681</ele>
        <time>2012-01-14T09:04:48Z</time>
      </trkpt>
      <trkpt lat="45.66357" lon="4.57387">
        <ele>682</ele>
        <time>2012-01-14T09:04:49Z</time>
      </trkpt>
      <trkpt lat="45.66361" lon="4.57384">
        <ele>683</ele>
        <time>2012-01-14T09:04:53Z</time>
      </trkpt>
      <trkpt lat="45.66369" lon="4.5739">
        <ele>684</ele>
        <time>2012-01-14T09:05:00Z</time>
      </trkpt>
      <trkpt lat="45.66374" lon="4.57402">
        <ele>686</ele>
        <time>2012-01-14T09:05:09Z</time>
      </trkpt>
      <trkpt lat="45.66379" lon="4.57412">
        <ele>687</ele>
        <time>2012-01-14T09:05:16Z</time>
      </trkpt>
      <trkpt lat="45.66384" lon="4.57423">
        <ele>687</ele>
        <time>2012-01-14T09:05:23Z</time>
      </trkpt>
      <trkpt lat="45.66385" lon="4.57429">
        <ele>688</ele>
        <time>2012-01-14T09:05:27Z</time>
      </trkpt>
      <trkpt lat="45.66386" lon="4.57432">
        <ele>689</ele>
        <time>2012-01-14T09:05:29Z</time>
      </trkpt>
      <trkpt lat="45.66386" lon="4.57436">
        <ele>688</ele>
        <time>2012-01-14T09:05:31Z</time>
      </trkpt>
      <trkpt lat="45.66389" lon="4.57451">
        <ele>690</ele>
        <time>2012-01-14T09:05:39Z</time>
      </trkpt>
      <trkpt lat="45.66391" lon="4.57458">
        <ele>691</ele>
        <time>2012-01-14T09:05:43Z</time>
      </trkpt>
      <trkpt lat="45.66394" lon="4.57467">
        <ele>692</ele>
        <time>2012-01-14T09:05:48Z</time>
      </trkpt>
      <trkpt lat="45.66397" lon="4.57476">
        <ele>693</ele>
        <time>2012-01-14T09:05:53Z</time>
      </trkpt>
      <trkpt lat="45.66403" lon="4.57491">
        <ele>695</ele>
        <time>2012-01-14T09:06:03Z</time>
      </trkpt>
      <trkpt lat="45.66407" lon="4.57507">
        <ele>698</ele>
        <time>2012-01-14T09:06:12Z</time>
      </trkpt>
      <trkpt lat="45.66407" lon="4.57508">
        <ele>698</ele>
        <time>2012-01-14T09:06:13Z</time>
      </trkpt>
      <trkpt lat="45.66412" lon="4.57522">
        <ele>699</ele>
        <time>2012-01-14T09:06:21Z</time>
      </trkpt>
      <trkpt lat="45.66415" lon="4.57535">
        <ele>701</ele>
        <time>2012-01-14T09:06:30Z</time>
      </trkpt>
      <trkpt lat="45.66417" lon="4.57545">
        <ele>702</ele>
        <time>2012-01-14T09:06:38Z</time>
      </trkpt>
      <trkpt lat="45.66421" lon="4.57556">
        <ele>703</ele>
        <time>2012-01-14T09:06:45Z</time>
      </trkpt>
      <trkpt lat="45.66424" lon="4.57562">
        <ele>704</ele>
        <time>2012-01-14T09:06:49Z</time>
      </trkpt>
      <trkpt lat="45.66426" lon="4.57566">
        <ele>705</ele>
        <time>2012-01-14T09:06:51Z</time>
      </trkpt>
      <trkpt lat="45.66434" lon="4.57575">
        <ele>706</ele>
        <time>2012-01-14T09:07:00Z</time>
      </trkpt>
      <trkpt lat="45.66439" lon="4.5758">
        <ele>707</ele>
        <time>2012-01-14T09:07:05Z</time>
      </trkpt>
      <trkpt lat="45.66447" lon="4.57582">
        <ele>709</ele>
        <time>2012-01-14T09:07:13Z</time>
      </trkpt>
      <trkpt lat="45.66456" lon="4.5758">
        <ele>711</ele>
        <time>2012-01-14T09:07:21Z</time>
      </trkpt>
      <trkpt lat="45.66466" lon="4.57575">
        <ele>712</ele>
        <time>2012-01-14T09:07:29Z</time>
      </trkpt>
      <trkpt lat="45.66469" lon="4.57573">
        <ele>712</ele>
        <time>2012-01-14T09:07:32Z</time>
      </trkpt>
      <trkpt lat="45.66477" lon="4.57556">
        <ele>712</ele>
        <time>2012-01-14T09:07:44Z</time>
      </trkpt>
      <trkpt lat="45.66484" lon="4.57534">
        <ele>713</ele>
        <time>2012-01-14T09:07:55Z</time>
      </trkpt>
      <trkpt lat="45.6649" lon="4.57517">
        <ele>714</ele>
        <time>2012-01-14T09:08:03Z</time>
      </trkpt>
      <trkpt lat="45.66495" lon="4.57501">
        <ele>714</ele>
        <time>2012-01-14T09:08:10Z</time>
      </trkpt>
      <trkpt lat="45.66501" lon="4.57486">
        <ele>715</ele>
        <time>2012-01-14T09:08:17Z</time>
      </trkpt>
      <trkpt lat="45.66506" lon="4.57468">
        <ele>716</ele>
        <time>2012-01-14T09:08:26Z</time>
      </trkpt>
      <trkpt lat="45.6651" lon="4.57456">
        <ele>717</ele>
        <time>2012-01-14T09:08:32Z</time>
      </trkpt>
      <trkpt lat="45.66522" lon="4.57432">
        <ele>718</ele>
        <time>2012-01-14T09:08:43Z</time>
      </trkpt>
      <trkpt lat="45.66532" lon="4.57413">
        <ele>718</ele>
        <time>2012-01-14T09:08:51Z</time>
      </trkpt>
      <trkpt lat="45.66543" lon="4.57387">
        <ele>719</ele>
        <time>2012-01-14T09:09:00Z</time>
      </trkpt>
      <trkpt lat="45.66553" lon="4.57365">
        <ele>718</ele>
        <time>2012-01-14T09:09:08Z</time>
      </trkpt>
      <trkpt lat="45.66568" lon="4.57341">
        <ele>719</ele>
        <time>2012-01-14T09:09:18Z</time>
      </trkpt>
      <trkpt lat="45.66587" lon="4.57327">
        <ele>719</ele>
        <time>2012-01-14T09:09:26Z</time>
      </trkpt>
      <trkpt lat="45.666" lon="4.57321">
        <ele>721</ele>
        <time>2012-01-14T09:09:33Z</time>
      </trkpt>
      <trkpt lat="45.66608" lon="4.5731">
        <ele>720</ele>
        <time>2012-01-14T09:09:40Z</time>
      </trkpt>
      <trkpt lat="45.66622" lon="4.57302">
        <ele>721</ele>
        <time>2012-01-14T09:09:46Z</time>
      </trkpt>
      <trkpt lat="45.66634" lon="4.57301">
        <ele>722</ele>
        <time>2012-01-14T09:09:52Z</time>
      </trkpt>
      <trkpt lat="45.66645" lon="4.573">
        <ele>723</ele>
        <time>2012-01-14T09:09:58Z</time>
      </trkpt>
      <trkpt lat="45.66665" lon="4.57302">
        <ele>725</ele>
        <time>2012-01-14T09:10:08Z</time>
      </trkpt>
      <trkpt lat="45.66679" lon="4.57303">
        <ele>728</ele>
        <time>2012-01-14T09:10:16Z</time>
      </trkpt>
      <trkpt lat="45.66697" lon="4.57305">
        <ele>728</ele>
        <time>2012-01-14T09:10:25Z</time>
      </trkpt>
      <trkpt lat="45.66715" lon="4.57305">
        <ele>728</ele>
        <time>2012-01-14T09:10:33Z</time>
      </trkpt>
      <trkpt lat="45.66734" lon="4.57307">
        <ele>727</ele>
        <time>2012-01-14T09:10:41Z</time>
      </trkpt>
      <trkpt lat="45.66739" lon="4.57308">
        <ele>727</ele>
        <time>2012-01-14T09:10:46Z</time>
      </trkpt>
      <trkpt lat="45.66739" lon="4.57308">
        <ele>727</ele>
        <time>2012-01-14T09:10:53Z</time>
      </trkpt>
      <trkpt lat="45.66739" lon="4.57308">
        <ele>728</ele>
        <time>2012-01-14T09:10:59Z</time>
      </trkpt>
      <trkpt lat="45.66737" lon="4.57307">
        <ele>729</ele>
        <time>2012-01-14T09:11:06Z</time>
      </trkpt>
      <trkpt lat="45.66733" lon="4.57305">
        <ele>730</ele>
        <time>2012-01-14T09:11:13Z</time>
      </trkpt>
      <trkpt lat="45.66727" lon="4.57297">
        <ele>731</ele>
        <time>2012-01-14T09:11:22Z</time>
      </trkpt>
      <trkpt lat="45.66733" lon="4.57296">
        <ele>732</ele>
        <time>2012-01-14T09:11:32Z</time>
      </trkpt>
      <trkpt lat="45.66733" lon="4.57296">
        <ele>732</ele>
        <time>2012-01-14T09:11:41Z</time>
      </trkpt>
      <trkpt lat="45.66733" lon="4.57296">
        <ele>732</ele>
        <time>2012-01-14T09:11:54Z</time>
      </trkpt>
      <trkpt lat="45.66733" lon="4.57296">
        <ele>732</ele>
        <time>2012-01-14T09:12:12Z</time>
      </trkpt>
      <trkpt lat="45.66733" lon="4.57296">
        <ele>731</ele>
        <time>2012-01-14T09:12:35Z</time>
      </trkpt>
      <trkpt lat="45.66733" lon="4.57296">
        <ele>732</ele>
        <time>2012-01-14T09:12:56Z</time>
      </trkpt>
      <trkpt lat="45.66733" lon="4.57296">
        <ele>732</ele>
        <time>2012-01-14T09:13:17Z</time>
      </trkpt>
      <trkpt lat="45.66733" lon="4.57296">
        <ele>732</ele>
        <time>2012-01-14T09:13:40Z</time>
      </trkpt>
      <trkpt lat="45.66733" lon="4.57296">
        <ele>733</ele>
        <time>2012-01-14T09:14:05Z</time>
      </trkpt>
      <trkpt lat="45.66733" lon="4.57296">
        <ele>732</ele>
        <time>2012-01-14T09:14:29Z</time>
      </trkpt>
      <trkpt lat="45.66733" lon="4.57296">
        <ele>733</ele>
        <time>2012-01-14T09:14:51Z</time>
      </trkpt>
      <trkpt lat="45.66733" lon="4.57296">
        <ele>734</ele>
        <time>2012-01-14T09:15:08Z</time>
      </trkpt>
      <trkpt lat="45.66733" lon="4.57296">
        <ele>733</ele>
        <time>2012-01-14T09:15:29Z</time>
      </trkpt>
      <trkpt lat="45.66733" lon="4.57296">
        <ele>733</ele>
        <time>2012-01-14T09:15:52Z</time>
      </trkpt>
      <trkpt lat="45.66732" lon="4.57296">
        <ele>733</ele>
        <time>2012-01-14T09:16:15Z</time>
      </trkpt>
      <trkpt lat="45.66732" lon="4.57296">
        <ele>733</ele>
        <time>2012-01-14T09:16:41Z</time>
      </trkpt>
      <trkpt lat="45.66732" lon="4.57296">
        <ele>733</ele>
        <time>2012-01-14T09:17:05Z</time>
      </trkpt>
      <trkpt lat="45.66732" lon="4.57296">
        <ele>733</ele>
        <time>2012-01-14T09:17:35Z</time>
      </trkpt>
      <trkpt lat="45.66732" lon="4.57296">
        <ele>733</ele>
        <time>2012-01-14T09:17:57Z</time>
      </trkpt>
      <trkpt lat="45.66732" lon="4.57296">
        <ele>732</ele>
        <time>2012-01-14T09:18:20Z</time>
      </trkpt>
      <trkpt lat="45.66732" lon="4.57296">
        <ele>733</ele>
        <time>2012-01-14T09:18:44Z</time>
      </trkpt>
      <trkpt lat="45.66732" lon="4.57296">
        <ele>732</ele>
        <time>2012-01-14T09:19:07Z</time>
      </trkpt>
      <trkpt lat="45.66732" lon="4.57296">
        <ele>732</ele>
        <time>2012-01-14T09:19:29Z</time>
      </trkpt>
      <trkpt lat="45.66732" lon="4.57295">
        <ele>732</ele>
        <time>2012-01-14T09:19:51Z</time>
      </trkpt>
      <trkpt lat="45.66731" lon="4.57295">
        <ele>733</ele>
        <time>2012-01-14T09:20:11Z</time>
      </trkpt>
      <trkpt lat="45.66731" lon="4.57295">
        <ele>733</ele>
        <time>2012-01-14T09:20:38Z</time>
      </trkpt>
      <trkpt lat="45.66732" lon="4.57296">
        <ele>734</ele>
        <time>2012-01-14T09:21:05Z</time>
      </trkpt>
      <trkpt lat="45.66732" lon="4.57296">
        <ele>733</ele>
        <time>2012-01-14T09:21:32Z</time>
      </trkpt>
      <trkpt lat="45.66732" lon="4.57296">
        <ele>732</ele>
        <time>2012-01-14T09:21:59Z</time>
      </trkpt>
      <trkpt lat="45.66732" lon="4.57296">
        <ele>733</ele>
        <time>2012-01-14T09:22:24Z</time>
      </trkpt>
      <trkpt lat="45.66732" lon="4.57296">
        <ele>732</ele>
        <time>2012-01-14T09:22:47Z</time>
      </trkpt>
      <trkpt lat="45.66732" lon="4.57296">
        <ele>733</ele>
        <time>2012-01-14T09:23:11Z</time>
      </trkpt>
      <trkpt lat="45.66733" lon="4.57296">
        <ele>732</ele>
        <time>2012-01-14T09:23:34Z</time>
      </trkpt>
      <trkpt lat="45.66733" lon="4.57296">
        <ele>733</ele>
        <time>2012-01-14T09:23:57Z</time>
      </trkpt>
      <trkpt lat="45.66733" lon="4.57297">
        <ele>732</ele>
        <time>2012-01-14T09:24:20Z</time>
      </trkpt>
      <trkpt lat="45.66733" lon="4.57297">
        <ele>732</ele>
        <time>2012-01-14T09:24:43Z</time>
      </trkpt>
      <trkpt lat="45.66732" lon="4.57296">
        <ele>732</ele>
        <time>2012-01-14T09:25:07Z</time>
      </trkpt>
      <trkpt lat="45.66732" lon="4.57296">
        <ele>732</ele>
        <time>2012-01-14T09:25:32Z</time>
      </trkpt>
      <trkpt lat="45.66732" lon="4.57296">
        <ele>733</ele>
        <time>2012-01-14T09:25:55Z</time>
      </trkpt>
      <trkpt lat="45.66732" lon="4.57296">
        <ele>732</ele>
        <time>2012-01-14T09:26:11Z</time>
      </trkpt>
      <trkpt lat="45.66732" lon="4.57295">
        <ele>732</ele>
        <time>2012-01-14T09:26:15Z</time>
      </trkpt>
      <trkpt lat="45.66726" lon="4.57295">
        <ele>733</ele>
        <time>2012-01-14T09:26:21Z</time>
      </trkpt>
      <trkpt lat="45.66725" lon="4.57298">
        <ele>732</ele>
        <time>2012-01-14T09:26:23Z</time>
      </trkpt>
      <trkpt lat="45.66732" lon="4.57303">
        <ele>730</ele>
        <time>2012-01-14T09:26:28Z</time>
      </trkpt>
      <trkpt lat="45.66736" lon="4.57304">
        <ele>729</ele>
        <time>2012-01-14T09:26:30Z</time>
      </trkpt>
      <trkpt lat="45.66746" lon="4.57309">
        <ele>728</ele>
        <time>2012-01-14T09:26:34Z</time>
      </trkpt>
      <trkpt lat="45.66769" lon="4.57313">
        <ele>728</ele>
        <time>2012-01-14T09:26:41Z</time>
      </trkpt>
      <trkpt lat="45.66786" lon="4.57305">
        <ele>728</ele>
        <time>2012-01-14T09:26:48Z</time>
      </trkpt>
      <trkpt lat="45.66801" lon="4.57294">
        <ele>730</ele>
        <time>2012-01-14T09:26:56Z</time>
      </trkpt>
      <trkpt lat="45.66816" lon="4.57293">
        <ele>729</ele>
        <time>2012-01-14T09:27:01Z</time>
      </trkpt>
      <trkpt lat="45.66824" lon="4.57293">
        <ele>729</ele>
        <time>2012-01-14T09:27:03Z</time>
      </trkpt>
      <trkpt lat="45.66828" lon="4.57291">
        <ele>728</ele>
        <time>2012-01-14T09:27:04Z</time>
      </trkpt>
      <trkpt lat="45.66832" lon="4.57289">
        <ele>728</ele>
        <time>2012-01-14T09:27:05Z</time>
      </trkpt>
      <trkpt lat="45.66839" lon="4.57285">
        <ele>728</ele>
        <time>2012-01-14T09:27:07Z</time>
      </trkpt>
      <trkpt lat="45.66843" lon="4.57285">
        <ele>728</ele>
        <time>2012-01-14T09:27:08Z</time>
      </trkpt>
      <trkpt lat="45.66846" lon="4.57285">
        <ele>728</ele>
        <time>2012-01-14T09:27:09Z</time>
      </trkpt>
      <trkpt lat="45.66849" lon="4.57286">
        <ele>728</ele>
        <time>2012-01-14T09:27:10Z</time>
      </trkpt>
      <trkpt lat="45.66851" lon="4.57287">
        <ele>728</ele>
        <time>2012-01-14T09:27:11Z</time>
      </trkpt>
      <trkpt lat="45.66853" lon="4.57289">
        <ele>729</ele>
        <time>2012-01-14T09:27:12Z</time>
      </trkpt>
      <trkpt lat="45.66855" lon="4.5729">
        <ele>729</ele>
        <time>2012-01-14T09:27:13Z</time>
      </trkpt>
      <trkpt lat="45.66877" lon="4.57304">
        <ele>729</ele>
        <time>2012-01-14T09:27:22Z</time>
      </trkpt>
      <trkpt lat="45.66892" lon="4.57311">
        <ele>729</ele>
        <time>2012-01-14T09:27:29Z</time>
      </trkpt>
      <trkpt lat="45.66898" lon="4.57312">
        <ele>728</ele>
        <time>2012-01-14T09:27:33Z</time>
      </trkpt>
      <trkpt lat="45.66899" lon="4.5731">
        <ele>728</ele>
        <time>2012-01-14T09:27:34Z</time>
      </trkpt>
      <trkpt lat="45.66901" lon="4.57308">
        <ele>728</ele>
        <time>2012-01-14T09:27:35Z</time>
      </trkpt>
      <trkpt lat="45.66901" lon="4.57306">
        <ele>728</ele>
        <time>2012-01-14T09:27:36Z</time>
      </trkpt>
      <trkpt lat="45.66902" lon="4.57303">
        <ele>727</ele>
        <time>2012-01-14T09:27:37Z</time>
      </trkpt>
      <trkpt lat="45.66907" lon="4.57277">
        <ele>728</ele>
        <time>2012-01-14T09:27:44Z</time>
      </trkpt>
      <trkpt lat="45.66912" lon="4.57246">
        <ele>728</ele>
        <time>2012-01-14T09:27:51Z</time>
      </trkpt>
      <trkpt lat="45.66914" lon="4.57238">
        <ele>727</ele>
        <time>2012-01-14T09:27:54Z</time>
      </trkpt>
      <trkpt lat="45.66915" lon="4.57236">
        <ele>728</ele>
        <time>2012-01-14T09:27:55Z</time>
      </trkpt>
      <trkpt lat="45.66917" lon="4.57235">
        <ele>727</ele>
        <time>2012-01-14T09:27:56Z</time>
      </trkpt>
      <trkpt lat="45.66922" lon="4.57233">
        <ele>727</ele>
        <time>2012-01-14T09:27:59Z</time>
      </trkpt>
      <trkpt lat="45.66923" lon="4.5723">
        <ele>727</ele>
        <time>2012-01-14T09:28:00Z</time>
      </trkpt>
      <trkpt lat="45.66924" lon="4.57227">
        <ele>727</ele>
        <time>2012-01-14T09:28:01Z</time>
      </trkpt>
      <trkpt lat="45.66934" lon="4.57204">
        <ele>725</ele>
        <time>2012-01-14T09:28:06Z</time>
      </trkpt>
      <trkpt lat="45.66944" lon="4.57179">
        <ele>724</ele>
        <time>2012-01-14T09:28:10Z</time>
      </trkpt>
      <trkpt lat="45.66947" lon="4.57174">
        <ele>723</ele>
        <time>2012-01-14T09:28:11Z</time>
      </trkpt>
      <trkpt lat="45.66951" lon="4.57169">
        <ele>722</ele>
        <time>2012-01-14T09:28:12Z</time>
      </trkpt>
      <trkpt lat="45.66956" lon="4.57165">
        <ele>722</ele>
        <time>2012-01-14T09:28:13Z</time>
      </trkpt>
      <trkpt lat="45.66963" lon="4.57164">
        <ele>721</ele>
        <time>2012-01-14T09:28:14Z</time>
      </trkpt>
      <trkpt lat="45.66969" lon="4.57166">
        <ele>720</ele>
        <time>2012-01-14T09:28:15Z</time>
      </trkpt>
      <trkpt lat="45.66973" lon="4.5717">
        <ele>719</ele>
        <time>2012-01-14T09:28:16Z</time>
      </trkpt>
      <trkpt lat="45.66975" lon="4.57175">
        <ele>719</ele>
        <time>2012-01-14T09:28:17Z</time>
      </trkpt>
      <trkpt lat="45.66975" lon="4.57182">
        <ele>718</ele>
        <time>2012-01-14T09:28:18Z</time>
      </trkpt>
      <trkpt lat="45.66974" lon="4.5719">
        <ele>717</ele>
        <time>2012-01-14T09:28:19Z</time>
      </trkpt>
      <trkpt lat="45.66974" lon="4.57199">
        <ele>716</ele>
        <time>2012-01-14T09:28:20Z</time>
      </trkpt>
      <trkpt lat="45.66973" lon="4.57207">
        <ele>716</ele>
        <time>2012-01-14T09:28:21Z</time>
      </trkpt>
      <trkpt lat="45.6697" lon="4.57238">
        <ele>713</ele>
        <time>2012-01-14T09:28:25Z</time>
      </trkpt>
      <trkpt lat="45.66971" lon="4.57246">
        <ele>711</ele>
        <time>2012-01-14T09:28:27Z</time>
      </trkpt>
      <trkpt lat="45.66972" lon="4.57251">
        <ele>711</ele>
        <time>2012-01-14T09:28:28Z</time>
      </trkpt>
      <trkpt lat="45.66974" lon="4.57255">
        <ele>710</ele>
        <time>2012-01-14T09:28:29Z</time>
      </trkpt>
      <trkpt lat="45.66977" lon="4.57259">
        <ele>708</ele>
        <time>2012-01-14T09:28:30Z</time>
      </trkpt>
      <trkpt lat="45.6698" lon="4.57262">
        <ele>707</ele>
        <time>2012-01-14T09:28:31Z</time>
      </trkpt>
      <trkpt lat="45.66984" lon="4.57265">
        <ele>706</ele>
        <time>2012-01-14T09:28:32Z</time>
      </trkpt>
      <trkpt lat="45.66987" lon="4.57268">
        <ele>705</ele>
        <time>2012-01-14T09:28:33Z</time>
      </trkpt>
      <trkpt lat="45.66991" lon="4.57272">
        <ele>704</ele>
        <time>2012-01-14T09:28:34Z</time>
      </trkpt>
      <trkpt lat="45.66993" lon="4.57275">
        <ele>703</ele>
        <time>2012-01-14T09:28:35Z</time>
      </trkpt>
      <trkpt lat="45.66996" lon="4.57276">
        <ele>702</ele>
        <time>2012-01-14T09:28:36Z</time>
      </trkpt>
      <trkpt lat="45.66997" lon="4.57276">
        <ele>702</ele>
        <time>2012-01-14T09:28:37Z</time>
      </trkpt>
      <trkpt lat="45.66999" lon="4.57275">
        <ele>702</ele>
        <time>2012-01-14T09:28:41Z</time>
      </trkpt>
      <trkpt lat="45.67" lon="4.57275">
        <ele>701</ele>
        <time>2012-01-14T09:28:50Z</time>
      </trkpt>
      <trkpt lat="45.67003" lon="4.5728">
        <ele>701</ele>
        <time>2012-01-14T09:28:58Z</time>
      </trkpt>
      <trkpt lat="45.67004" lon="4.57283">
        <ele>701</ele>
        <time>2012-01-14T09:29:01Z</time>
      </trkpt>
      <trkpt lat="45.67005" lon="4.57285">
        <ele>700</ele>
        <time>2012-01-14T09:29:07Z</time>
      </trkpt>
      <trkpt lat="45.67005" lon="4.57288">
        <ele>700</ele>
        <time>2012-01-14T09:29:11Z</time>
      </trkpt>
      <trkpt lat="45.67005" lon="4.57292">
        <ele>699</ele>
        <time>2012-01-14T09:29:12Z</time>
      </trkpt>
      <trkpt lat="45.67006" lon="4.57297">
        <ele>699</ele>
        <time>2012-01-14T09:29:13Z</time>
      </trkpt>
      <trkpt lat="45.6701" lon="4.57323">
        <ele>697</ele>
        <time>2012-01-14T09:29:17Z</time>
      </trkpt>
      <trkpt lat="45.67012" lon="4.5733">
        <ele>696</ele>
        <time>2012-01-14T09:29:18Z</time>
      </trkpt>
      <trkpt lat="45.67013" lon="4.57337">
        <ele>695</ele>
        <time>2012-01-14T09:29:19Z</time>
      </trkpt>
      <trkpt lat="45.67013" lon="4.57344">
        <ele>694</ele>
        <time>2012-01-14T09:29:20Z</time>
      </trkpt>
      <trkpt lat="45.67013" lon="4.57351">
        <ele>693</ele>
        <time>2012-01-14T09:29:21Z</time>
      </trkpt>
      <trkpt lat="45.67011" lon="4.57358">
        <ele>692</ele>
        <time>2012-01-14T09:29:22Z</time>
      </trkpt>
      <trkpt lat="45.6701" lon="4.57366">
        <ele>691</ele>
        <time>2012-01-14T09:29:23Z</time>
      </trkpt>
      <trkpt lat="45.67008" lon="4.57373">
        <ele>691</ele>
        <time>2012-01-14T09:29:24Z</time>
      </trkpt>
      <trkpt lat="45.67004" lon="4.57381">
        <ele>690</ele>
        <time>2012-01-14T09:29:25Z</time>
      </trkpt>
      <trkpt lat="45.67" lon="4.57388">
        <ele>688</ele>
        <time>2012-01-14T09:29:26Z</time>
      </trkpt>
      <trkpt lat="45.66995" lon="4.57395">
        <ele>688</ele>
        <time>2012-01-14T09:29:27Z</time>
      </trkpt>
      <trkpt lat="45.6699" lon="4.57401">
        <ele>687</ele>
        <time>2012-01-14T09:29:28Z</time>
      </trkpt>
      <trkpt lat="45.66979" lon="4.57412">
        <ele>687</ele>
        <time>2012-01-14T09:29:30Z</time>
      </trkpt>
      <trkpt lat="45.66974" lon="4.57418">
        <ele>687</ele>
        <time>2012-01-14T09:29:31Z</time>
      </trkpt>
      <trkpt lat="45.66969" lon="4.57424">
        <ele>686</ele>
        <time>2012-01-14T09:29:32Z</time>
      </trkpt>
      <trkpt lat="45.66959" lon="4.57438">
        <ele>683</ele>
        <time>2012-01-14T09:29:34Z</time>
      </trkpt>
      <trkpt lat="45.66946" lon="4.57449">
        <ele>682</ele>
        <time>2012-01-14T09:29:36Z</time>
      </trkpt>
      <trkpt lat="45.66939" lon="4.57453">
        <ele>681</ele>
        <time>2012-01-14T09:29:37Z</time>
      </trkpt>
      <trkpt lat="45.66933" lon="4.57458">
        <ele>679</ele>
        <time>2012-01-14T09:29:38Z</time>
      </trkpt>
      <trkpt lat="45.66927" lon="4.57462">
        <ele>677</ele>
        <time>2012-01-14T09:29:39Z</time>
      </trkpt>
      <trkpt lat="45.66922" lon="4.57465">
        <ele>676</ele>
        <time>2012-01-14T09:29:40Z</time>
      </trkpt>
      <trkpt lat="45.66919" lon="4.57467">
        <ele>674</ele>
        <time>2012-01-14T09:29:41Z</time>
      </trkpt>
      <trkpt lat="45.66917" lon="4.57469">
        <ele>674</ele>
        <time>2012-01-14T09:29:42Z</time>
      </trkpt>
      <trkpt lat="45.66918" lon="4.5747">
        <ele>674</ele>
        <time>2012-01-14T09:29:43Z</time>
      </trkpt>
      <trkpt lat="45.66919" lon="4.57473">
        <ele>674</ele>
        <time>2012-01-14T09:29:44Z</time>
      </trkpt>
      <trkpt lat="45.66922" lon="4.57476">
        <ele>673</ele>
        <time>2012-01-14T09:29:45Z</time>
      </trkpt>
      <trkpt lat="45.66926" lon="4.57481">
        <ele>672</ele>
        <time>2012-01-14T09:29:46Z</time>
      </trkpt>
      <trkpt lat="45.66932" lon="4.57485">
        <ele>672</ele>
        <time>2012-01-14T09:29:47Z</time>
      </trkpt>
      <trkpt lat="45.66938" lon="4.57489">
        <ele>671</ele>
        <time>2012-01-14T09:29:48Z</time>
      </trkpt>
      <trkpt lat="45.6697" lon="4.57507">
        <ele>667</ele>
        <time>2012-01-14T09:29:52Z</time>
      </trkpt>
      <trkpt lat="45.66987" lon="4.57516">
        <ele>664</ele>
        <time>2012-01-14T09:29:54Z</time>
      </trkpt>
      <trkpt lat="45.66994" lon="4.5752">
        <ele>664</ele>
        <time>2012-01-14T09:29:55Z</time>
      </trkpt>
      <trkpt lat="45.67012" lon="4.5753">
        <ele>661</ele>
        <time>2012-01-14T09:29:58Z</time>
      </trkpt>
      <trkpt lat="45.67017" lon="4.57532">
        <ele>660</ele>
        <time>2012-01-14T09:29:59Z</time>
      </trkpt>
      <trkpt lat="45.67022" lon="4.57533">
        <ele>659</ele>
        <time>2012-01-14T09:30:00Z</time>
      </trkpt>
      <trkpt lat="45.67028" lon="4.57532">
        <ele>658</ele>
        <time>2012-01-14T09:30:01Z</time>
      </trkpt>
      <trkpt lat="45.67035" lon="4.57529">
        <ele>657</ele>
        <time>2012-01-14T09:30:02Z</time>
      </trkpt>
      <trkpt lat="45.67041" lon="4.57526">
        <ele>657</ele>
        <time>2012-01-14T09:30:03Z</time>
      </trkpt>
      <trkpt lat="45.67047" lon="4.57525">
        <ele>656</ele>
        <time>2012-01-14T09:30:04Z</time>
      </trkpt>
      <trkpt lat="45.67052" lon="4.57526">
        <ele>654</ele>
        <time>2012-01-14T09:30:05Z</time>
      </trkpt>
      <trkpt lat="45.67056" lon="4.57532">
        <ele>654</ele>
        <time>2012-01-14T09:30:06Z</time>
      </trkpt>
      <trkpt lat="45.67058" lon="4.57539">
        <ele>654</ele>
        <time>2012-01-14T09:30:07Z</time>
      </trkpt>
      <trkpt lat="45.67059" lon="4.57545">
        <ele>654</ele>
        <time>2012-01-14T09:30:08Z</time>
      </trkpt>
      <trkpt lat="45.67062" lon="4.57553">
        <ele>653</ele>
        <time>2012-01-14T09:30:09Z</time>
      </trkpt>
      <trkpt lat="45.67065" lon="4.5756">
        <ele>653</ele>
        <time>2012-01-14T09:30:10Z</time>
      </trkpt>
      <trkpt lat="45.67069" lon="4.57568">
        <ele>652</ele>
        <time>2012-01-14T09:30:11Z</time>
      </trkpt>
      <trkpt lat="45.67069" lon="4.57577">
        <ele>652</ele>
        <time>2012-01-14T09:30:12Z</time>
      </trkpt>
      <trkpt lat="45.67067" lon="4.57586">
        <ele>652</ele>
        <time>2012-01-14T09:30:13Z</time>
      </trkpt>
      <trkpt lat="45.67063" lon="4.57594">
        <ele>652</ele>
        <time>2012-01-14T09:30:14Z</time>
      </trkpt>
      <trkpt lat="45.67058" lon="4.57603">
        <ele>651</ele>
        <time>2012-01-14T09:30:15Z</time>
      </trkpt>
      <trkpt lat="45.67045" lon="4.57632">
        <ele>649</ele>
        <time>2012-01-14T09:30:18Z</time>
      </trkpt>
      <trkpt lat="45.6704" lon="4.57641">
        <ele>649</ele>
        <time>2012-01-14T09:30:19Z</time>
      </trkpt>
      <trkpt lat="45.67035" lon="4.57648">
        <ele>649</ele>
        <time>2012-01-14T09:30:20Z</time>
      </trkpt>
      <trkpt lat="45.67029" lon="4.57654">
        <ele>649</ele>
        <time>2012-01-14T09:30:21Z</time>
      </trkpt>
      <trkpt lat="45.67023" lon="4.57659">
        <ele>649</ele>
        <time>2012-01-14T09:30:22Z</time>
      </trkpt>
      <trkpt lat="45.67017" lon="4.57663">
        <ele>649</ele>
        <time>2012-01-14T09:30:23Z</time>
      </trkpt>
      <trkpt lat="45.67006" lon="4.57671">
        <ele>647</ele>
        <time>2012-01-14T09:30:25Z</time>
      </trkpt>
      <trkpt lat="45.67001" lon="4.57676">
        <ele>647</ele>
        <time>2012-01-14T09:30:26Z</time>
      </trkpt>
      <trkpt lat="45.66997" lon="4.57683">
        <ele>646</ele>
        <time>2012-01-14T09:30:27Z</time>
      </trkpt>
      <trkpt lat="45.66993" lon="4.57692">
        <ele>646</ele>
        <time>2012-01-14T09:30:28Z</time>
      </trkpt>
      <trkpt lat="45.66991" lon="4.57703">
        <ele>645</ele>
        <time>2012-01-14T09:30:29Z</time>
      </trkpt>
      <trkpt lat="45.66989" lon="4.57714">
        <ele>645</ele>
        <time>2012-01-14T09:30:30Z</time>
      </trkpt>
      <trkpt lat="45.66982" lon="4.57748">
        <ele>643</ele>
        <time>2012-01-14T09:30:33Z</time>
      </trkpt>
      <trkpt lat="45.6698" lon="4.5776">
        <ele>642</ele>
        <time>2012-01-14T09:30:34Z</time>
      </trkpt>
      <trkpt lat="45.66974" lon="4.57781">
        <ele>642</ele>
        <time>2012-01-14T09:30:36Z</time>
      </trkpt>
      <trkpt lat="45.66971" lon="4.57792">
        <ele>642</ele>
        <time>2012-01-14T09:30:37Z</time>
      </trkpt>
      <trkpt lat="45.6697" lon="4.57803">
        <ele>642</ele>
        <time>2012-01-14T09:30:38Z</time>
      </trkpt>
      <trkpt lat="45.66962" lon="4.57845">
        <ele>642</ele>
        <time>2012-01-14T09:30:43Z</time>
      </trkpt>
      <trkpt lat="45.66961" lon="4.57872">
        <ele>643</ele>
        <time>2012-01-14T09:30:48Z</time>
      </trkpt>
      <trkpt lat="45.66962" lon="4.579">
        <ele>645</ele>
        <time>2012-01-14T09:30:56Z</time>
      </trkpt>
      <trkpt lat="45.66959" lon="4.57928">
        <ele>648</ele>
        <time>2012-01-14T09:31:04Z</time>
      </trkpt>
      <trkpt lat="45.66954" lon="4.57956">
        <ele>649</ele>
        <time>2012-01-14T09:31:12Z</time>
      </trkpt>
      <trkpt lat="45.66952" lon="4.57982">
        <ele>649</ele>
        <time>2012-01-14T09:31:19Z</time>
      </trkpt>
      <trkpt lat="45.66952" lon="4.57995">
        <ele>649</ele>
        <time>2012-01-14T09:31:25Z</time>
      </trkpt>
      <trkpt lat="45.66952" lon="4.57997">
        <ele>650</ele>
        <time>2012-01-14T09:31:26Z</time>
      </trkpt>
      <trkpt lat="45.66952" lon="4.57998">
        <ele>650</ele>
        <time>2012-01-14T09:31:27Z</time>
      </trkpt>
      <trkpt lat="45.66953" lon="4.58006">
        <ele>651</ele>
        <time>2012-01-14T09:31:33Z</time>
      </trkpt>
      <trkpt lat="45.66953" lon="4.58008">
        <ele>650</ele>
        <time>2012-01-14T09:31:34Z</time>
      </trkpt>
      <trkpt lat="45.66954" lon="4.58009">
        <ele>651</ele>
        <time>2012-01-14T09:31:35Z</time>
      </trkpt>
      <trkpt lat="45.66957" lon="4.58021">
        <ele>651</ele>
        <time>2012-01-14T09:31:43Z</time>
      </trkpt>
      <trkpt lat="45.6696" lon="4.58041">
        <ele>653</ele>
        <time>2012-01-14T09:31:52Z</time>
      </trkpt>
      <trkpt lat="45.66965" lon="4.58068">
        <ele>655</ele>
        <time>2012-01-14T09:32:02Z</time>
      </trkpt>
      <trkpt lat="45.66968" lon="4.58094">
        <ele>656</ele>
        <time>2012-01-14T09:32:11Z</time>
      </trkpt>
      <trkpt lat="45.66971" lon="4.58125">
        <ele>658</ele>
        <time>2012-01-14T09:32:22Z</time>
      </trkpt>
      <trkpt lat="45.66974" lon="4.58156">
        <ele>661</ele>
        <time>2012-01-14T09:32:32Z</time>
      </trkpt>
      <trkpt lat="45.66981" lon="4.58185">
        <ele>662</ele>
        <time>2012-01-14T09:32:41Z</time>
      </trkpt>
      <trkpt lat="45.66991" lon="4.5821">
        <ele>663</ele>
        <time>2012-01-14T09:32:49Z</time>
      </trkpt>
      <trkpt lat="45.67003" lon="4.58239">
        <ele>662</ele>
        <time>2012-01-14T09:32:56Z</time>
      </trkpt>
      <trkpt lat="45.6702" lon="4.58262">
        <ele>663</ele>
        <time>2012-01-14T09:33:04Z</time>
      </trkpt>
      <trkpt lat="45.67044" lon="4.5829">
        <ele>662</ele>
        <time>2012-01-14T09:33:12Z</time>
      </trkpt>
      <trkpt lat="45.67057" lon="4.58304">
        <ele>662</ele>
        <time>2012-01-14T09:33:16Z</time>
      </trkpt>
      <trkpt lat="45.67061" lon="4.58304">
        <ele>662</ele>
        <time>2012-01-14T09:33:17Z</time>
      </trkpt>
      <trkpt lat="45.67066" lon="4.58301">
        <ele>660</ele>
        <time>2012-01-14T09:33:18Z</time>
      </trkpt>
      <trkpt lat="45.67072" lon="4.58297">
        <ele>660</ele>
        <time>2012-01-14T09:33:19Z</time>
      </trkpt>
      <trkpt lat="45.67079" lon="4.58291">
        <ele>659</ele>
        <time>2012-01-14T09:33:20Z</time>
      </trkpt>
      <trkpt lat="45.67086" lon="4.58284">
        <ele>657</ele>
        <time>2012-01-14T09:33:21Z</time>
      </trkpt>
      <trkpt lat="45.67101" lon="4.58273">
        <ele>655</ele>
        <time>2012-01-14T09:33:23Z</time>
      </trkpt>
      <trkpt lat="45.67108" lon="4.5827">
        <ele>654</ele>
        <time>2012-01-14T09:33:24Z</time>
      </trkpt>
      <trkpt lat="45.67115" lon="4.58271">
        <ele>654</ele>
        <time>2012-01-14T09:33:25Z</time>
      </trkpt>
      <trkpt lat="45.67121" lon="4.58275">
        <ele>654</ele>
        <time>2012-01-14T09:33:26Z</time>
      </trkpt>
      <trkpt lat="45.67125" lon="4.58282">
        <ele>654</ele>
        <time>2012-01-14T09:33:27Z</time>
      </trkpt>
      <trkpt lat="45.67129" lon="4.58291">
        <ele>653</ele>
        <time>2012-01-14T09:33:28Z</time>
      </trkpt>
      <trkpt lat="45.67136" lon="4.5831">
        <ele>652</ele>
        <time>2012-01-14T09:33:30Z</time>
      </trkpt>
      <trkpt lat="45.6714" lon="4.58329">
        <ele>651</ele>
        <time>2012-01-14T09:33:32Z</time>
      </trkpt>
      <trkpt lat="45.67144" lon="4.58347">
        <ele>649</ele>
        <time>2012-01-14T09:33:34Z</time>
      </trkpt>
      <trkpt lat="45.67147" lon="4.58354">
        <ele>648</ele>
        <time>2012-01-14T09:33:35Z</time>
      </trkpt>
      <trkpt lat="45.67152" lon="4.58363">
        <ele>647</ele>
        <time>2012-01-14T09:33:36Z</time>
      </trkpt>
      <trkpt lat="45.67155" lon="4.58373">
        <ele>646</ele>
        <time>2012-01-14T09:33:37Z</time>
      </trkpt>
      <trkpt lat="45.67159" lon="4.58384">
        <ele>645</ele>
        <time>2012-01-14T09:33:38Z</time>
      </trkpt>
      <trkpt lat="45.67163" lon="4.58394">
        <ele>644</ele>
        <time>2012-01-14T09:33:39Z</time>
      </trkpt>
      <trkpt lat="45.67169" lon="4.58404">
        <ele>643</ele>
        <time>2012-01-14T09:33:40Z</time>
      </trkpt>
      <trkpt lat="45.67175" lon="4.58413">
        <ele>641</ele>
        <time>2012-01-14T09:33:41Z</time>
      </trkpt>
      <trkpt lat="45.67189" lon="4.58432">
        <ele>641</ele>
        <time>2012-01-14T09:33:43Z</time>
      </trkpt>
      <trkpt lat="45.67194" lon="4.58443">
        <ele>640</ele>
        <time>2012-01-14T09:33:44Z</time>
      </trkpt>
      <trkpt lat="45.67197" lon="4.58455">
        <ele>639</ele>
        <time>2012-01-14T09:33:45Z</time>
      </trkpt>
      <trkpt lat="45.67197" lon="4.58466">
        <ele>639</ele>
        <time>2012-01-14T09:33:46Z</time>
      </trkpt>
      <trkpt lat="45.67197" lon="4.58477">
        <ele>640</ele>
        <time>2012-01-14T09:33:47Z</time>
      </trkpt>
      <trkpt lat="45.67197" lon="4.58507">
        <ele>638</ele>
        <time>2012-01-14T09:33:50Z</time>
      </trkpt>
      <trkpt lat="45.672" lon="4.58532">
        <ele>638</ele>
        <time>2012-01-14T09:33:53Z</time>
      </trkpt>
      <trkpt lat="45.67202" lon="4.58539">
        <ele>638</ele>
        <time>2012-01-14T09:33:54Z</time>
      </trkpt>
      <trkpt lat="45.67205" lon="4.58544">
        <ele>639</ele>
        <time>2012-01-14T09:33:55Z</time>
      </trkpt>
      <trkpt lat="45.67207" lon="4.58547">
        <ele>638</ele>
        <time>2012-01-14T09:33:56Z</time>
      </trkpt>
      <trkpt lat="45.67209" lon="4.5855">
        <ele>639</ele>
        <time>2012-01-14T09:33:57Z</time>
      </trkpt>
      <trkpt lat="45.67212" lon="4.58553">
        <ele>639</ele>
        <time>2012-01-14T09:33:58Z</time>
      </trkpt>
      <trkpt lat="45.67215" lon="4.58556">
        <ele>639</ele>
        <time>2012-01-14T09:33:59Z</time>
      </trkpt>
      <trkpt lat="45.67218" lon="4.58558">
        <ele>639</ele>
        <time>2012-01-14T09:34:00Z</time>
      </trkpt>
      <trkpt lat="45.67245" lon="4.5858">
        <ele>639</ele>
        <time>2012-01-14T09:34:08Z</time>
      </trkpt>
      <trkpt lat="45.67269" lon="4.58589">
        <ele>639</ele>
        <time>2012-01-14T09:34:15Z</time>
      </trkpt>
      <trkpt lat="45.67289" lon="4.58589">
        <ele>639</ele>
        <time>2012-01-14T09:34:21Z</time>
      </trkpt>
      <trkpt lat="45.67309" lon="4.58584">
        <ele>641</ele>
        <time>2012-01-14T09:34:27Z</time>
      </trkpt>
      <trkpt lat="45.67329" lon="4.5858">
        <ele>641</ele>
        <time>2012-01-14T09:34:33Z</time>
      </trkpt>
      <trkpt lat="45.67347" lon="4.58579">
        <ele>641</ele>
        <time>2012-01-14T09:34:40Z</time>
      </trkpt>
      <trkpt lat="45.67358" lon="4.58579">
        <ele>640</ele>
        <time>2012-01-14T09:34:43Z</time>
      </trkpt>
      <trkpt lat="45.67362" lon="4.58581">
        <ele>640</ele>
        <time>2012-01-14T09:34:44Z</time>
      </trkpt>
      <trkpt lat="45.67365" lon="4.58582">
        <ele>640</ele>
        <time>2012-01-14T09:34:45Z</time>
      </trkpt>
      <trkpt lat="45.67389" lon="4.5858">
        <ele>640</ele>
        <time>2012-01-14T09:34:51Z</time>
      </trkpt>
      <trkpt lat="45.67418" lon="4.58581">
        <ele>642</ele>
        <time>2012-01-14T09:34:57Z</time>
      </trkpt>
      <trkpt lat="45.67439" lon="4.58594">
        <ele>641</ele>
        <time>2012-01-14T09:35:02Z</time>
      </trkpt>
      <trkpt lat="45.67472" lon="4.58621">
        <ele>642</ele>
        <time>2012-01-14T09:35:10Z</time>
      </trkpt>
      <trkpt lat="45.67486" lon="4.58634">
        <ele>642</ele>
        <time>2012-01-14T09:35:16Z</time>
      </trkpt>
      <trkpt lat="45.67486" lon="4.58635">
        <ele>642</ele>
        <time>2012-01-14T09:35:25Z</time>
      </trkpt>
      <trkpt lat="45.67486" lon="4.58635">
        <ele>642</ele>
        <time>2012-01-14T09:35:41Z</time>
      </trkpt>
      <trkpt lat="45.67486" lon="4.58634">
        <ele>642</ele>
        <time>2012-01-14T09:35:57Z</time>
      </trkpt>
      <trkpt lat="45.67486" lon="4.58634">
        <ele>642</ele>
        <time>2012-01-14T09:36:19Z</time>
      </trkpt>
      <trkpt lat="45.67489" lon="4.58635">
        <ele>642</ele>
        <time>2012-01-14T09:36:35Z</time>
      </trkpt>
      <trkpt lat="45.67489" lon="4.58635">
        <ele>642</ele>
        <time>2012-01-14T09:36:40Z</time>
      </trkpt>
      <trkpt lat="45.6749" lon="4.58635">
        <ele>642</ele>
        <time>2012-01-14T09:36:43Z</time>
      </trkpt>
      <trkpt lat="45.67497" lon="4.58634">
        <ele>642</ele>
        <time>2012-01-14T09:36:49Z</time>
      </trkpt>
      <trkpt lat="45.67499" lon="4.58636">
        <ele>643</ele>
        <time>2012-01-14T09:36:51Z</time>
      </trkpt>
      <trkpt lat="45.675" lon="4.58638">
        <ele>642</ele>
        <time>2012-01-14T09:36:52Z</time>
      </trkpt>
      <trkpt lat="45.6751" lon="4.58655">
        <ele>640</ele>
        <time>2012-01-14T09:36:58Z</time>
      </trkpt>
      <trkpt lat="45.67516" lon="4.58664">
        <ele>638</ele>
        <time>2012-01-14T09:37:00Z</time>
      </trkpt>
      <trkpt lat="45.67531" lon="4.58686">
        <ele>634</ele>
        <time>2012-01-14T09:37:03Z</time>
      </trkpt>
      <trkpt lat="45.67538" lon="4.58694">
        <ele>632</ele>
        <time>2012-01-14T09:37:04Z</time>
      </trkpt>
      <trkpt lat="45.67558" lon="4.58712">
        <ele>629</ele>
        <time>2012-01-14T09:37:07Z</time>
      </trkpt>
      <trkpt lat="45.67561" lon="4.58719">
        <ele>627</ele>
        <time>2012-01-14T09:37:08Z</time>
      </trkpt>
      <trkpt lat="45.67563" lon="4.58727">
        <ele>626</ele>
        <time>2012-01-14T09:37:09Z</time>
      </trkpt>
      <trkpt lat="45.67564" lon="4.58737">
        <ele>625</ele>
        <time>2012-01-14T09:37:10Z</time>
      </trkpt>
      <trkpt lat="45.67564" lon="4.58747">
        <ele>625</ele>
        <time>2012-01-14T09:37:11Z</time>
      </trkpt>
      <trkpt lat="45.67563" lon="4.58757">
        <ele>624</ele>
        <time>2012-01-14T09:37:12Z</time>
      </trkpt>
      <trkpt lat="45.6756" lon="4.58767">
        <ele>624</ele>
        <time>2012-01-14T09:37:13Z</time>
      </trkpt>
      <trkpt lat="45.67557" lon="4.58777">
        <ele>624</ele>
        <time>2012-01-14T09:37:14Z</time>
      </trkpt>
      <trkpt lat="45.67552" lon="4.58786">
        <ele>623</ele>
        <time>2012-01-14T09:37:15Z</time>
      </trkpt>
      <trkpt lat="45.67547" lon="4.58794">
        <ele>622</ele>
        <time>2012-01-14T09:37:16Z</time>
      </trkpt>
      <trkpt lat="45.67541" lon="4.58801">
        <ele>622</ele>
        <time>2012-01-14T09:37:17Z</time>
      </trkpt>
      <trkpt lat="45.67535" lon="4.58806">
        <ele>621</ele>
        <time>2012-01-14T09:37:18Z</time>
      </trkpt>
      <trkpt lat="45.67495" lon="4.5884">
        <ele>618</ele>
        <time>2012-01-14T09:37:24Z</time>
      </trkpt>
      <trkpt lat="45.67488" lon="4.58848">
        <ele>617</ele>
        <time>2012-01-14T09:37:25Z</time>
      </trkpt>
      <trkpt lat="45.67476" lon="4.58864">
        <ele>614</ele>
        <time>2012-01-14T09:37:27Z</time>
      </trkpt>
      <trkpt lat="45.67471" lon="4.58871">
        <ele>612</ele>
        <time>2012-01-14T09:37:28Z</time>
      </trkpt>
      <trkpt lat="45.67468" lon="4.5888">
        <ele>612</ele>
        <time>2012-01-14T09:37:29Z</time>
      </trkpt>
      <trkpt lat="45.67465" lon="4.58888">
        <ele>611</ele>
        <time>2012-01-14T09:37:30Z</time>
      </trkpt>
      <trkpt lat="45.6746" lon="4.58894">
        <ele>610</ele>
        <time>2012-01-14T09:37:31Z</time>
      </trkpt>
      <trkpt lat="45.67456" lon="4.589">
        <ele>610</ele>
        <time>2012-01-14T09:37:32Z</time>
      </trkpt>
      <trkpt lat="45.67451" lon="4.58906">
        <ele>609</ele>
        <time>2012-01-14T09:37:33Z</time>
      </trkpt>
      <trkpt lat="45.67445" lon="4.58912">
        <ele>609</ele>
        <time>2012-01-14T09:37:34Z</time>
      </trkpt>
      <trkpt lat="45.67435" lon="4.58923">
        <ele>608</ele>
        <time>2012-01-14T09:37:36Z</time>
      </trkpt>
      <trkpt lat="45.67431" lon="4.5893">
        <ele>607</ele>
        <time>2012-01-14T09:37:37Z</time>
      </trkpt>
      <trkpt lat="45.67427" lon="4.58937">
        <ele>607</ele>
        <time>2012-01-14T09:37:38Z</time>
      </trkpt>
      <trkpt lat="45.67404" lon="4.58983">
        <ele>604</ele>
        <time>2012-01-14T09:37:45Z</time>
      </trkpt>
      <trkpt lat="45.67401" lon="4.5899">
        <ele>603</ele>
        <time>2012-01-14T09:37:46Z</time>
      </trkpt>
      <trkpt lat="45.67398" lon="4.58998">
        <ele>603</ele>
        <time>2012-01-14T09:37:47Z</time>
      </trkpt>
      <trkpt lat="45.67392" lon="4.59014">
        <ele>601</ele>
        <time>2012-01-14T09:37:49Z</time>
      </trkpt>
      <trkpt lat="45.67384" lon="4.59028">
        <ele>598</ele>
        <time>2012-01-14T09:37:51Z</time>
      </trkpt>
      <trkpt lat="45.67379" lon="4.59035">
        <ele>597</ele>
        <time>2012-01-14T09:37:52Z</time>
      </trkpt>
      <trkpt lat="45.67375" lon="4.59042">
        <ele>596</ele>
        <time>2012-01-14T09:37:53Z</time>
      </trkpt>
      <trkpt lat="45.6737" lon="4.59049">
        <ele>595</ele>
        <time>2012-01-14T09:37:54Z</time>
      </trkpt>
      <trkpt lat="45.67367" lon="4.59056">
        <ele>595</ele>
        <time>2012-01-14T09:37:55Z</time>
      </trkpt>
      <trkpt lat="45.67363" lon="4.59065">
        <ele>594</ele>
        <time>2012-01-14T09:37:56Z</time>
      </trkpt>
      <trkpt lat="45.67349" lon="4.59116">
        <ele>591</ele>
        <time>2012-01-14T09:38:01Z</time>
      </trkpt>
      <trkpt lat="45.67345" lon="4.59135">
        <ele>588</ele>
        <time>2012-01-14T09:38:03Z</time>
      </trkpt>
      <trkpt lat="45.67343" lon="4.59153">
        <ele>586</ele>
        <time>2012-01-14T09:38:05Z</time>
      </trkpt>
      <trkpt lat="45.67343" lon="4.59161">
        <ele>586</ele>
        <time>2012-01-14T09:38:06Z</time>
      </trkpt>
      <trkpt lat="45.67343" lon="4.59169">
        <ele>584</ele>
        <time>2012-01-14T09:38:07Z</time>
      </trkpt>
      <trkpt lat="45.67346" lon="4.59183">
        <ele>581</ele>
        <time>2012-01-14T09:38:09Z</time>
      </trkpt>
      <trkpt lat="45.67347" lon="4.59189">
        <ele>580</ele>
        <time>2012-01-14T09:38:10Z</time>
      </trkpt>
      <trkpt lat="45.67345" lon="4.59195">
        <ele>578</ele>
        <time>2012-01-14T09:38:11Z</time>
      </trkpt>
      <trkpt lat="45.67342" lon="4.592">
        <ele>577</ele>
        <time>2012-01-14T09:38:12Z</time>
      </trkpt>
      <trkpt lat="45.67338" lon="4.59207">
        <ele>576</ele>
        <time>2012-01-14T09:38:13Z</time>
      </trkpt>
      <trkpt lat="45.67333" lon="4.59214">
        <ele>575</ele>
        <time>2012-01-14T09:38:14Z</time>
      </trkpt>
      <trkpt lat="45.67324" lon="4.59229">
        <ele>573</ele>
        <time>2012-01-14T09:38:16Z</time>
      </trkpt>
      <trkpt lat="45.6732" lon="4.59236">
        <ele>571</ele>
        <time>2012-01-14T09:38:17Z</time>
      </trkpt>
      <trkpt lat="45.67312" lon="4.59249">
        <ele>569</ele>
        <time>2012-01-14T09:38:19Z</time>
      </trkpt>
      <trkpt lat="45.67309" lon="4.59251">
        <ele>568</ele>
        <time>2012-01-14T09:38:20Z</time>
      </trkpt>
      <trkpt lat="45.67305" lon="4.59251">
        <ele>567</ele>
        <time>2012-01-14T09:38:21Z</time>
      </trkpt>
      <trkpt lat="45.67301" lon="4.59249">
        <ele>567</ele>
        <time>2012-01-14T09:38:22Z</time>
      </trkpt>
      <trkpt lat="45.67299" lon="4.59249">
        <ele>567</ele>
        <time>2012-01-14T09:38:23Z</time>
      </trkpt>
      <trkpt lat="45.67298" lon="4.59252">
        <ele>566</ele>
        <time>2012-01-14T09:38:24Z</time>
      </trkpt>
      <trkpt lat="45.67299" lon="4.59254">
        <ele>566</ele>
        <time>2012-01-14T09:38:25Z</time>
      </trkpt>
      <trkpt lat="45.67301" lon="4.59256">
        <ele>566</ele>
        <time>2012-01-14T09:38:26Z</time>
      </trkpt>
      <trkpt lat="45.67303" lon="4.59257">
        <ele>566</ele>
        <time>2012-01-14T09:38:27Z</time>
      </trkpt>
      <trkpt lat="45.67304" lon="4.59258">
        <ele>566</ele>
        <time>2012-01-14T09:38:28Z</time>
      </trkpt>
      <trkpt lat="45.67305" lon="4.59258">
        <ele>566</ele>
        <time>2012-01-14T09:38:29Z</time>
      </trkpt>
      <trkpt lat="45.67307" lon="4.59259">
        <ele>566</ele>
        <time>2012-01-14T09:38:30Z</time>
      </trkpt>
      <trkpt lat="45.67318" lon="4.5926">
        <ele>565</ele>
        <time>2012-01-14T09:38:38Z</time>
      </trkpt>
      <trkpt lat="45.67338" lon="4.59249">
        <ele>565</ele>
        <time>2012-01-14T09:38:47Z</time>
      </trkpt>
      <trkpt lat="45.67363" lon="4.59236">
        <ele>564</ele>
        <time>2012-01-14T09:38:56Z</time>
      </trkpt>
      <trkpt lat="45.67386" lon="4.5923">
        <ele>563</ele>
        <time>2012-01-14T09:39:03Z</time>
      </trkpt>
      <trkpt lat="45.67391" lon="4.59231">
        <ele>563</ele>
        <time>2012-01-14T09:39:04Z</time>
      </trkpt>
      <trkpt lat="45.67413" lon="4.59241">
        <ele>562</ele>
        <time>2012-01-14T09:39:10Z</time>
      </trkpt>
      <trkpt lat="45.67421" lon="4.59245">
        <ele>562</ele>
        <time>2012-01-14T09:39:12Z</time>
      </trkpt>
      <trkpt lat="45.67428" lon="4.5925">
        <ele>562</ele>
        <time>2012-01-14T09:39:14Z</time>
      </trkpt>
      <trkpt lat="45.67432" lon="4.59253">
        <ele>562</ele>
        <time>2012-01-14T09:39:15Z</time>
      </trkpt>
      <trkpt lat="45.6744" lon="4.59261">
        <ele>562</ele>
        <time>2012-01-14T09:39:17Z</time>
      </trkpt>
      <trkpt lat="45.67444" lon="4.59266">
        <ele>561</ele>
        <time>2012-01-14T09:39:18Z</time>
      </trkpt>
      <trkpt lat="45.67447" lon="4.59272">
        <ele>561</ele>
        <time>2012-01-14T09:39:19Z</time>
      </trkpt>
      <trkpt lat="45.67451" lon="4.5928">
        <ele>560</ele>
        <time>2012-01-14T09:39:20Z</time>
      </trkpt>
      <trkpt lat="45.67454" lon="4.59287">
        <ele>560</ele>
        <time>2012-01-14T09:39:21Z</time>
      </trkpt>
      <trkpt lat="45.6746" lon="4.59303">
        <ele>559</ele>
        <time>2012-01-14T09:39:23Z</time>
      </trkpt>
      <trkpt lat="45.67469" lon="4.59327">
        <ele>558</ele>
        <time>2012-01-14T09:39:26Z</time>
      </trkpt>
      <trkpt lat="45.67476" lon="4.59343">
        <ele>556</ele>
        <time>2012-01-14T09:39:30Z</time>
      </trkpt>
      <trkpt lat="45.67478" lon="4.59347">
        <ele>556</ele>
        <time>2012-01-14T09:39:31Z</time>
      </trkpt>
      <trkpt lat="45.67481" lon="4.59352">
        <ele>555</ele>
        <time>2012-01-14T09:39:32Z</time>
      </trkpt>
      <trkpt lat="45.67487" lon="4.59362">
        <ele>554</ele>
        <time>2012-01-14T09:39:34Z</time>
      </trkpt>
      <trkpt lat="45.67491" lon="4.59364">
        <ele>553</ele>
        <time>2012-01-14T09:39:35Z</time>
      </trkpt>
      <trkpt lat="45.67496" lon="4.59366">
        <ele>553</ele>
        <time>2012-01-14T09:39:36Z</time>
      </trkpt>
      <trkpt lat="45.67503" lon="4.59365">
        <ele>552</ele>
        <time>2012-01-14T09:39:37Z</time>
      </trkpt>
      <trkpt lat="45.67509" lon="4.59363">
        <ele>552</ele>
        <time>2012-01-14T09:39:38Z</time>
      </trkpt>
      <trkpt lat="45.67524" lon="4.59359">
        <ele>549</ele>
        <time>2012-01-14T09:39:41Z</time>
      </trkpt>
      <trkpt lat="45.67545" lon="4.59349">
        <ele>546</ele>
        <time>2012-01-14T09:39:45Z</time>
      </trkpt>
      <trkpt lat="45.67556" lon="4.59341">
        <ele>545</ele>
        <time>2012-01-14T09:39:47Z</time>
      </trkpt>
      <trkpt lat="45.67562" lon="4.59337">
        <ele>545</ele>
        <time>2012-01-14T09:39:48Z</time>
      </trkpt>
      <trkpt lat="45.67568" lon="4.59332">
        <ele>545</ele>
        <time>2012-01-14T09:39:49Z</time>
      </trkpt>
      <trkpt lat="45.6759" lon="4.59305">
        <ele>543</ele>
        <time>2012-01-14T09:39:54Z</time>
      </trkpt>
      <trkpt lat="45.67594" lon="4.593">
        <ele>543</ele>
        <time>2012-01-14T09:39:55Z</time>
      </trkpt>
      <trkpt lat="45.67604" lon="4.59286">
        <ele>543</ele>
        <time>2012-01-14T09:39:58Z</time>
      </trkpt>
      <trkpt lat="45.67607" lon="4.59282">
        <ele>543</ele>
        <time>2012-01-14T09:39:59Z</time>
      </trkpt>
      <trkpt lat="45.6761" lon="4.59277">
        <ele>543</ele>
        <time>2012-01-14T09:40:00Z</time>
      </trkpt>
      <trkpt lat="45.67629" lon="4.59246">
        <ele>543</ele>
        <time>2012-01-14T09:40:07Z</time>
      </trkpt>
      <trkpt lat="45.67633" lon="4.59242">
        <ele>543</ele>
        <time>2012-01-14T09:40:08Z</time>
      </trkpt>
      <trkpt lat="45.67651" lon="4.59219">
        <ele>542</ele>
        <time>2012-01-14T09:40:13Z</time>
      </trkpt>
      <trkpt lat="45.67655" lon="4.59214">
        <ele>542</ele>
        <time>2012-01-14T09:40:14Z</time>
      </trkpt>
      <trkpt lat="45.6766" lon="4.59209">
        <ele>540</ele>
        <time>2012-01-14T09:40:15Z</time>
      </trkpt>
      <trkpt lat="45.67663" lon="4.59206">
        <ele>540</ele>
        <time>2012-01-14T09:40:16Z</time>
      </trkpt>
      <trkpt lat="45.67666" lon="4.59204">
        <ele>540</ele>
        <time>2012-01-14T09:40:17Z</time>
      </trkpt>
      <trkpt lat="45.67669" lon="4.59201">
        <ele>538</ele>
        <time>2012-01-14T09:40:19Z</time>
      </trkpt>
      <trkpt lat="45.67673" lon="4.59198">
        <ele>538</ele>
        <time>2012-01-14T09:40:21Z</time>
      </trkpt>
      <trkpt lat="45.67675" lon="4.59198">
        <ele>537</ele>
        <time>2012-01-14T09:40:22Z</time>
      </trkpt>
      <trkpt lat="45.67677" lon="4.59199">
        <ele>537</ele>
        <time>2012-01-14T09:40:23Z</time>
      </trkpt>
      <trkpt lat="45.67691" lon="4.59222">
        <ele>537</ele>
        <time>2012-01-14T09:40:30Z</time>
      </trkpt>
      <trkpt lat="45.67694" lon="4.59244">
        <ele>538</ele>
        <time>2012-01-14T09:40:36Z</time>
      </trkpt>
      <trkpt lat="45.67697" lon="4.59258">
        <ele>539</ele>
        <time>2012-01-14T09:40:41Z</time>
      </trkpt>
      <trkpt lat="45.67701" lon="4.59277">
        <ele>541</ele>
        <time>2012-01-14T09:40:50Z</time>
      </trkpt>
      <trkpt lat="45.67703" lon="4.59289">
        <ele>543</ele>
        <time>2012-01-14T09:40:57Z</time>
      </trkpt>
      <trkpt lat="45.67704" lon="4.59293">
        <ele>543</ele>
        <time>2012-01-14T09:40:59Z</time>
      </trkpt>
      <trkpt lat="45.67703" lon="4.59294">
        <ele>544</ele>
        <time>2012-01-14T09:41:00Z</time>
      </trkpt>
      <trkpt lat="45.67703" lon="4.59296">
        <ele>543</ele>
        <time>2012-01-14T09:41:01Z</time>
      </trkpt>
      <trkpt lat="45.67702" lon="4.59298">
        <ele>543</ele>
        <time>2012-01-14T09:41:02Z</time>
      </trkpt>
      <trkpt lat="45.67702" lon="4.593">
        <ele>544</ele>
        <time>2012-01-14T09:41:03Z</time>
      </trkpt>
      <trkpt lat="45.67701" lon="4.59302">
        <ele>544</ele>
        <time>2012-01-14T09:41:04Z</time>
      </trkpt>
      <trkpt lat="45.677" lon="4.59313">
        <ele>544</ele>
        <time>2012-01-14T09:41:10Z</time>
      </trkpt>
      <trkpt lat="45.677" lon="4.59314">
        <ele>545</ele>
        <time>2012-01-14T09:41:11Z</time>
      </trkpt>
      <trkpt lat="45.677" lon="4.59316">
        <ele>545</ele>
        <time>2012-01-14T09:41:12Z</time>
      </trkpt>
      <trkpt lat="45.677" lon="4.59318">
        <ele>545</ele>
        <time>2012-01-14T09:41:13Z</time>
      </trkpt>
      <trkpt lat="45.677" lon="4.5932">
        <ele>546</ele>
        <time>2012-01-14T09:41:19Z</time>
      </trkpt>
      <trkpt lat="45.677" lon="4.5932">
        <ele>545</ele>
        <time>2012-01-14T09:41:35Z</time>
      </trkpt>
      <trkpt lat="45.677" lon="4.5932">
        <ele>545</ele>
        <time>2012-01-14T09:41:49Z</time>
      </trkpt>
      <trkpt lat="45.67699" lon="4.59326">
        <ele>546</ele>
        <time>2012-01-14T09:41:56Z</time>
      </trkpt>
      <trkpt lat="45.67699" lon="4.59329">
        <ele>547</ele>
        <time>2012-01-14T09:42:02Z</time>
      </trkpt>
      <trkpt lat="45.67699" lon="4.59334">
        <ele>547</ele>
        <time>2012-01-14T09:42:04Z</time>
      </trkpt>
      <trkpt lat="45.67699" lon="4.59336">
        <ele>547</ele>
        <time>2012-01-14T09:42:05Z</time>
      </trkpt>
      <trkpt lat="45.67698" lon="4.59339">
        <ele>548</ele>
        <time>2012-01-14T09:42:06Z</time>
      </trkpt>
      <trkpt lat="45.67698" lon="4.59342">
        <ele>548</ele>
        <time>2012-01-14T09:42:07Z</time>
      </trkpt>
      <trkpt lat="45.67698" lon="4.59344">
        <ele>548</ele>
        <time>2012-01-14T09:42:08Z</time>
      </trkpt>
      <trkpt lat="45.67698" lon="4.59347">
        <ele>548</ele>
        <time>2012-01-14T09:42:09Z</time>
      </trkpt>
      <trkpt lat="45.67698" lon="4.59349">
        <ele>548</ele>
        <time>2012-01-14T09:42:10Z</time>
      </trkpt>
      <trkpt lat="45.67697" lon="4.59351">
        <ele>549</ele>
        <time>2012-01-14T09:42:11Z</time>
      </trkpt>
      <trkpt lat="45.67697" lon="4.59353">
        <ele>549</ele>
        <time>2012-01-14T09:42:12Z</time>
      </trkpt>
      <trkpt lat="45.67696" lon="4.59356">
        <ele>549</ele>
        <time>2012-01-14T09:42:13Z</time>
      </trkpt>
      <trkpt lat="45.67696" lon="4.59357">
        <ele>550</ele>
        <time>2012-01-14T09:42:14Z</time>
      </trkpt>
      <trkpt lat="45.67695" lon="4.5937">
        <ele>551</ele>
        <time>2012-01-14T09:42:20Z</time>
      </trkpt>
      <trkpt lat="45.67691" lon="4.59387">
        <ele>553</ele>
        <time>2012-01-14T09:42:28Z</time>
      </trkpt>
      <trkpt lat="45.6769" lon="4.59403">
        <ele>556</ele>
        <time>2012-01-14T09:42:36Z</time>
      </trkpt>
      <trkpt lat="45.67685" lon="4.59422">
        <ele>558</ele>
        <time>2012-01-14T09:42:44Z</time>
      </trkpt>
      <trkpt lat="45.67684" lon="4.59428">
        <ele>557</ele>
        <time>2012-01-14T09:42:47Z</time>
      </trkpt>
      <trkpt lat="45.67683" lon="4.5943">
        <ele>557</ele>
        <time>2012-01-14T09:42:48Z</time>
      </trkpt>
      <trkpt lat="45.67683" lon="4.59431">
        <ele>557</ele>
        <time>2012-01-14T09:42:49Z</time>
      </trkpt>
      <trkpt lat="45.67683" lon="4.59433">
        <ele>557</ele>
        <time>2012-01-14T09:42:50Z</time>
      </trkpt>
      <trkpt lat="45.67683" lon="4.59435">
        <ele>557</ele>
        <time>2012-01-14T09:42:51Z</time>
      </trkpt>
      <trkpt lat="45.67683" lon="4.59437">
        <ele>557</ele>
        <time>2012-01-14T09:42:52Z</time>
      </trkpt>
      <trkpt lat="45.67684" lon="4.59439">
        <ele>557</ele>
        <time>2012-01-14T09:42:53Z</time>
      </trkpt>
      <trkpt lat="45.67684" lon="4.59441">
        <ele>557</ele>
        <time>2012-01-14T09:42:54Z</time>
      </trkpt>
      <trkpt lat="45.67685" lon="4.59443">
        <ele>557</ele>
        <time>2012-01-14T09:42:55Z</time>
      </trkpt>
      <trkpt lat="45.67686" lon="4.59445">
        <ele>557</ele>
        <time>2012-01-14T09:42:56Z</time>
      </trkpt>
      <trkpt lat="45.67687" lon="4.59446">
        <ele>557</ele>
        <time>2012-01-14T09:42:57Z</time>
      </trkpt>
      <trkpt lat="45.67687" lon="4.59448">
        <ele>558</ele>
        <time>2012-01-14T09:42:58Z</time>
      </trkpt>
      <trkpt lat="45.67688" lon="4.5945">
        <ele>558</ele>
        <time>2012-01-14T09:42:59Z</time>
      </trkpt>
      <trkpt lat="45.67689" lon="4.59453">
        <ele>558</ele>
        <time>2012-01-14T09:43:00Z</time>
      </trkpt>
      <trkpt lat="45.6769" lon="4.59455">
        <ele>558</ele>
        <time>2012-01-14T09:43:01Z</time>
      </trkpt>
      <trkpt lat="45.6769" lon="4.59457">
        <ele>558</ele>
        <time>2012-01-14T09:43:02Z</time>
      </trkpt>
      <trkpt lat="45.67692" lon="4.59463">
        <ele>559</ele>
        <time>2012-01-14T09:43:05Z</time>
      </trkpt>
      <trkpt lat="45.67692" lon="4.59466">
        <ele>559</ele>
        <time>2012-01-14T09:43:06Z</time>
      </trkpt>
      <trkpt lat="45.67692" lon="4.59469">
        <ele>559</ele>
        <time>2012-01-14T09:43:08Z</time>
      </trkpt>
      <trkpt lat="45.67689" lon="4.59481">
        <ele>560</ele>
        <time>2012-01-14T09:43:14Z</time>
      </trkpt>
      <trkpt lat="45.67687" lon="4.59482">
        <ele>560</ele>
        <time>2012-01-14T09:43:15Z</time>
      </trkpt>
      <trkpt lat="45.67686" lon="4.59484">
        <ele>561</ele>
        <time>2012-01-14T09:43:16Z</time>
      </trkpt>
      <trkpt lat="45.6768" lon="4.59493">
        <ele>561</ele>
        <time>2012-01-14T09:43:22Z</time>
      </trkpt>
      <trkpt lat="45.67678" lon="4.59496">
        <ele>562</ele>
        <time>2012-01-14T09:43:25Z</time>
      </trkpt>
      <trkpt lat="45.67677" lon="4.59497">
        <ele>562</ele>
        <time>2012-01-14T09:43:26Z</time>
      </trkpt>
      <trkpt lat="45.6767" lon="4.59506">
        <ele>564</ele>
        <time>2012-01-14T09:43:33Z</time>
      </trkpt>
      <trkpt lat="45.67666" lon="4.59514">
        <ele>566</ele>
        <time>2012-01-14T09:43:39Z</time>
      </trkpt>
      <trkpt lat="45.67664" lon="4.59516">
        <ele>565</ele>
        <time>2012-01-14T09:43:40Z</time>
      </trkpt>
      <trkpt lat="45.67664" lon="4.59517">
        <ele>566</ele>
        <time>2012-01-14T09:43:41Z</time>
      </trkpt>
      <trkpt lat="45.67662" lon="4.59529">
        <ele>568</ele>
        <time>2012-01-14T09:43:48Z</time>
      </trkpt>
      <trkpt lat="45.67661" lon="4.59531">
        <ele>568</ele>
        <time>2012-01-14T09:43:49Z</time>
      </trkpt>
      <trkpt lat="45.6766" lon="4.59537">
        <ele>570</ele>
        <time>2012-01-14T09:43:54Z</time>
      </trkpt>
      <trkpt lat="45.6766" lon="4.59538">
        <ele>569</ele>
        <time>2012-01-14T09:44:02Z</time>
      </trkpt>
      <trkpt lat="45.67658" lon="4.59544">
        <ele>571</ele>
        <time>2012-01-14T09:44:08Z</time>
      </trkpt>
      <trkpt lat="45.67656" lon="4.5955">
        <ele>573</ele>
        <time>2012-01-14T09:44:16Z</time>
      </trkpt>
      <trkpt lat="45.67654" lon="4.59557">
        <ele>574</ele>
        <time>2012-01-14T09:44:24Z</time>
      </trkpt>
      <trkpt lat="45.67653" lon="4.59565">
        <ele>575</ele>
        <time>2012-01-14T09:44:33Z</time>
      </trkpt>
      <trkpt lat="45.67653" lon="4.59573">
        <ele>576</ele>
        <time>2012-01-14T09:44:40Z</time>
      </trkpt>
      <trkpt lat="45.67651" lon="4.59583">
        <ele>578</ele>
        <time>2012-01-14T09:44:48Z</time>
      </trkpt>
      <trkpt lat="45.67651" lon="4.59586">
        <ele>580</ele>
        <time>2012-01-14T09:44:56Z</time>
      </trkpt>
      <trkpt lat="45.67651" lon="4.59588">
        <ele>579</ele>
        <time>2012-01-14T09:45:04Z</time>
      </trkpt>
      <trkpt lat="45.6765" lon="4.59601">
        <ele>580</ele>
        <time>2012-01-14T09:45:12Z</time>
      </trkpt>
      <trkpt lat="45.6765" lon="4.59606">
        <ele>580</ele>
        <time>2012-01-14T09:45:15Z</time>
      </trkpt>
      <trkpt lat="45.6765" lon="4.59608">
        <ele>581</ele>
        <time>2012-01-14T09:45:16Z</time>
      </trkpt>
      <trkpt lat="45.6765" lon="4.5961">
        <ele>581</ele>
        <time>2012-01-14T09:45:17Z</time>
      </trkpt>
      <trkpt lat="45.67649" lon="4.59613">
        <ele>581</ele>
        <time>2012-01-14T09:45:18Z</time>
      </trkpt>
      <trkpt lat="45.67649" lon="4.59622">
        <ele>582</ele>
        <time>2012-01-14T09:45:22Z</time>
      </trkpt>
      <trkpt lat="45.67648" lon="4.59625">
        <ele>582</ele>
        <time>2012-01-14T09:45:23Z</time>
      </trkpt>
      <trkpt lat="45.67647" lon="4.59627">
        <ele>582</ele>
        <time>2012-01-14T09:45:24Z</time>
      </trkpt>
      <trkpt lat="45.67648" lon="4.5963">
        <ele>583</ele>
        <time>2012-01-14T09:45:25Z</time>
      </trkpt>
      <trkpt lat="45.67647" lon="4.59633">
        <ele>583</ele>
        <time>2012-01-14T09:45:26Z</time>
      </trkpt>
      <trkpt lat="45.67647" lon="4.59635">
        <ele>583</ele>
        <time>2012-01-14T09:45:27Z</time>
      </trkpt>
      <trkpt lat="45.67647" lon="4.59637">
        <ele>583</ele>
        <time>2012-01-14T09:45:28Z</time>
      </trkpt>
      <trkpt lat="45.67647" lon="4.59639">
        <ele>582</ele>
        <time>2012-01-14T09:45:29Z</time>
      </trkpt>
      <trkpt lat="45.67645" lon="4.59657">
        <ele>583</ele>
        <time>2012-01-14T09:45:36Z</time>
      </trkpt>
      <trkpt lat="45.67645" lon="4.5966">
        <ele>583</ele>
        <time>2012-01-14T09:45:37Z</time>
      </trkpt>
      <trkpt lat="45.67644" lon="4.59662">
        <ele>583</ele>
        <time>2012-01-14T09:45:38Z</time>
      </trkpt>
      <trkpt lat="45.67643" lon="4.59665">
        <ele>583</ele>
        <time>2012-01-14T09:45:39Z</time>
      </trkpt>
      <trkpt lat="45.67643" lon="4.59668">
        <ele>584</ele>
        <time>2012-01-14T09:45:40Z</time>
      </trkpt>
      <trkpt lat="45.67642" lon="4.5967">
        <ele>584</ele>
        <time>2012-01-14T09:45:41Z</time>
      </trkpt>
      <trkpt lat="45.67641" lon="4.59672">
        <ele>584</ele>
        <time>2012-01-14T09:45:42Z</time>
      </trkpt>
      <trkpt lat="45.67641" lon="4.59674">
        <ele>585</ele>
        <time>2012-01-14T09:45:43Z</time>
      </trkpt>
      <trkpt lat="45.6764" lon="4.59676">
        <ele>584</ele>
        <time>2012-01-14T09:45:44Z</time>
      </trkpt>
      <trkpt lat="45.67639" lon="4.59679">
        <ele>584</ele>
        <time>2012-01-14T09:45:45Z</time>
      </trkpt>
      <trkpt lat="45.67638" lon="4.59682">
        <ele>584</ele>
        <time>2012-01-14T09:45:46Z</time>
      </trkpt>
      <trkpt lat="45.67631" lon="4.59714">
        <ele>583</ele>
        <time>2012-01-14T09:45:54Z</time>
      </trkpt>
      <trkpt lat="45.67626" lon="4.59724">
        <ele>583</ele>
        <time>2012-01-14T09:45:58Z</time>
      </trkpt>
      <trkpt lat="45.67624" lon="4.59727">
        <ele>583</ele>
        <time>2012-01-14T09:45:59Z</time>
      </trkpt>
      <trkpt lat="45.67613" lon="4.5974">
        <ele>583</ele>
        <time>2012-01-14T09:46:05Z</time>
      </trkpt>
      <trkpt lat="45.676" lon="4.59758">
        <ele>585</ele>
        <time>2012-01-14T09:46:13Z</time>
      </trkpt>
      <trkpt lat="45.67592" lon="4.59765">
        <ele>586</ele>
        <time>2012-01-14T09:46:18Z</time>
      </trkpt>
      <trkpt lat="45.6759" lon="4.59767">
        <ele>586</ele>
        <time>2012-01-14T09:46:19Z</time>
      </trkpt>
      <trkpt lat="45.67589" lon="4.59768">
        <ele>586</ele>
        <time>2012-01-14T09:46:20Z</time>
      </trkpt>
      <trkpt lat="45.67588" lon="4.59771">
        <ele>587</ele>
        <time>2012-01-14T09:46:21Z</time>
      </trkpt>
      <trkpt lat="45.67587" lon="4.59773">
        <ele>587</ele>
        <time>2012-01-14T09:46:22Z</time>
      </trkpt>
      <trkpt lat="45.67586" lon="4.59775">
        <ele>587</ele>
        <time>2012-01-14T09:46:23Z</time>
      </trkpt>
      <trkpt lat="45.67582" lon="4.5978">
        <ele>588</ele>
        <time>2012-01-14T09:46:28Z</time>
      </trkpt>
      <trkpt lat="45.6758" lon="4.59782">
        <ele>588</ele>
        <time>2012-01-14T09:46:29Z</time>
      </trkpt>
      <trkpt lat="45.67579" lon="4.59783">
        <ele>588</ele>
        <time>2012-01-14T09:46:30Z</time>
      </trkpt>
      <trkpt lat="45.67577" lon="4.59784">
        <ele>589</ele>
        <time>2012-01-14T09:46:31Z</time>
      </trkpt>
      <trkpt lat="45.67576" lon="4.59786">
        <ele>589</ele>
        <time>2012-01-14T09:46:32Z</time>
      </trkpt>
      <trkpt lat="45.67575" lon="4.59788">
        <ele>589</ele>
        <time>2012-01-14T09:46:33Z</time>
      </trkpt>
      <trkpt lat="45.67573" lon="4.59791">
        <ele>590</ele>
        <time>2012-01-14T09:46:35Z</time>
      </trkpt>
      <trkpt lat="45.67571" lon="4.59795">
        <ele>591</ele>
        <time>2012-01-14T09:46:37Z</time>
      </trkpt>
      <trkpt lat="45.67567" lon="4.59801">
        <ele>592</ele>
        <time>2012-01-14T09:46:41Z</time>
      </trkpt>
      <trkpt lat="45.67566" lon="4.59802">
        <ele>592</ele>
        <time>2012-01-14T09:46:42Z</time>
      </trkpt>
      <trkpt lat="45.6756" lon="4.59811">
        <ele>593</ele>
        <time>2012-01-14T09:46:49Z</time>
      </trkpt>
      <trkpt lat="45.67558" lon="4.59814">
        <ele>594</ele>
        <time>2012-01-14T09:46:51Z</time>
      </trkpt>
      <trkpt lat="45.67558" lon="4.59816">
        <ele>594</ele>
        <time>2012-01-14T09:46:52Z</time>
      </trkpt>
      <trkpt lat="45.67551" lon="4.59829">
        <ele>595</ele>
        <time>2012-01-14T09:47:01Z</time>
      </trkpt>
      <trkpt lat="45.67549" lon="4.59838">
        <ele>596</ele>
        <time>2012-01-14T09:47:07Z</time>
      </trkpt>
      <trkpt lat="45.67545" lon="4.59848">
        <ele>598</ele>
        <time>2012-01-14T09:47:14Z</time>
      </trkpt>
      <trkpt lat="45.67545" lon="4.5985">
        <ele>598</ele>
        <time>2012-01-14T09:47:15Z</time>
      </trkpt>
      <trkpt lat="45.67544" lon="4.59855">
        <ele>598</ele>
        <time>2012-01-14T09:47:18Z</time>
      </trkpt>
      <trkpt lat="45.67543" lon="4.59856">
        <ele>599</ele>
        <time>2012-01-14T09:47:19Z</time>
      </trkpt>
      <trkpt lat="45.67542" lon="4.59858">
        <ele>599</ele>
        <time>2012-01-14T09:47:20Z</time>
      </trkpt>
      <trkpt lat="45.67541" lon="4.59861">
        <ele>599</ele>
        <time>2012-01-14T09:47:22Z</time>
      </trkpt>
      <trkpt lat="45.67541" lon="4.59863">
        <ele>600</ele>
        <time>2012-01-14T09:47:23Z</time>
      </trkpt>
      <trkpt lat="45.67539" lon="4.5987">
        <ele>600</ele>
        <time>2012-01-14T09:47:27Z</time>
      </trkpt>
      <trkpt lat="45.67539" lon="4.59872">
        <ele>601</ele>
        <time>2012-01-14T09:47:28Z</time>
      </trkpt>
      <trkpt lat="45.67537" lon="4.59883">
        <ele>601</ele>
        <time>2012-01-14T09:47:34Z</time>
      </trkpt>
      <trkpt lat="45.67534" lon="4.59892">
        <ele>601</ele>
        <time>2012-01-14T09:47:41Z</time>
      </trkpt>
      <trkpt lat="45.67534" lon="4.59893">
        <ele>601</ele>
        <time>2012-01-14T09:47:42Z</time>
      </trkpt>
      <trkpt lat="45.67533" lon="4.59895">
        <ele>601</ele>
        <time>2012-01-14T09:47:43Z</time>
      </trkpt>
      <trkpt lat="45.67532" lon="4.59897">
        <ele>601</ele>
        <time>2012-01-14T09:47:44Z</time>
      </trkpt>
      <trkpt lat="45.6753" lon="4.59904">
        <ele>601</ele>
        <time>2012-01-14T09:47:50Z</time>
      </trkpt>
      <trkpt lat="45.6753" lon="4.59904">
        <ele>600</ele>
        <time>2012-01-14T09:48:10Z</time>
      </trkpt>
      <trkpt lat="45.6753" lon="4.59904">
        <ele>601</ele>
        <time>2012-01-14T09:48:25Z</time>
      </trkpt>
      <trkpt lat="45.67529" lon="4.59906">
        <ele>601</ele>
        <time>2012-01-14T09:48:37Z</time>
      </trkpt>
      <trkpt lat="45.67529" lon="4.59907">
        <ele>601</ele>
        <time>2012-01-14T09:48:38Z</time>
      </trkpt>
      <trkpt lat="45.67529" lon="4.59909">
        <ele>601</ele>
        <time>2012-01-14T09:48:39Z</time>
      </trkpt>
      <trkpt lat="45.67527" lon="4.59915">
        <ele>601</ele>
        <time>2012-01-14T09:48:42Z</time>
      </trkpt>
      <trkpt lat="45.67526" lon="4.59918">
        <ele>600</ele>
        <time>2012-01-14T09:48:43Z</time>
      </trkpt>
      <trkpt lat="45.67526" lon="4.59922">
        <ele>600</ele>
        <time>2012-01-14T09:48:44Z</time>
      </trkpt>
      <trkpt lat="45.67525" lon="4.59926">
        <ele>600</ele>
        <time>2012-01-14T09:48:45Z</time>
      </trkpt>
      <trkpt lat="45.67524" lon="4.59931">
        <ele>600</ele>
        <time>2012-01-14T09:48:46Z</time>
      </trkpt>
      <trkpt lat="45.67524" lon="4.59936">
        <ele>600</ele>
        <time>2012-01-14T09:48:47Z</time>
      </trkpt>
      <trkpt lat="45.67524" lon="4.59942">
        <ele>600</ele>
        <time>2012-01-14T09:48:48Z</time>
      </trkpt>
      <trkpt lat="45.67525" lon="4.59956">
        <ele>599</ele>
        <time>2012-01-14T09:48:50Z</time>
      </trkpt>
      <trkpt lat="45.67528" lon="4.59971">
        <ele>598</ele>
        <time>2012-01-14T09:48:52Z</time>
      </trkpt>
      <trkpt lat="45.67532" lon="4.59979">
        <ele>597</ele>
        <time>2012-01-14T09:48:53Z</time>
      </trkpt>
      <trkpt lat="45.67537" lon="4.59987">
        <ele>596</ele>
        <time>2012-01-14T09:48:54Z</time>
      </trkpt>
      <trkpt lat="45.67553" lon="4.60023">
        <ele>595</ele>
        <time>2012-01-14T09:48:58Z</time>
      </trkpt>
      <trkpt lat="45.67556" lon="4.60032">
        <ele>594</ele>
        <time>2012-01-14T09:48:59Z</time>
      </trkpt>
      <trkpt lat="45.67559" lon="4.60041">
        <ele>594</ele>
        <time>2012-01-14T09:49:00Z</time>
      </trkpt>
      <trkpt lat="45.67562" lon="4.60052">
        <ele>594</ele>
        <time>2012-01-14T09:49:01Z</time>
      </trkpt>
      <trkpt lat="45.67564" lon="4.60064">
        <ele>592</ele>
        <time>2012-01-14T09:49:02Z</time>
      </trkpt>
      <trkpt lat="45.67569" lon="4.60088">
        <ele>590</ele>
        <time>2012-01-14T09:49:04Z</time>
      </trkpt>
      <trkpt lat="45.67571" lon="4.60111">
        <ele>588</ele>
        <time>2012-01-14T09:49:06Z</time>
      </trkpt>
      <trkpt lat="45.67571" lon="4.60134">
        <ele>587</ele>
        <time>2012-01-14T09:49:08Z</time>
      </trkpt>
      <trkpt lat="45.6757" lon="4.60145">
        <ele>585</ele>
        <time>2012-01-14T09:49:09Z</time>
      </trkpt>
      <trkpt lat="45.67562" lon="4.6018">
        <ele>582</ele>
        <time>2012-01-14T09:49:12Z</time>
      </trkpt>
      <trkpt lat="45.67554" lon="4.602">
        <ele>580</ele>
        <time>2012-01-14T09:49:14Z</time>
      </trkpt>
      <trkpt lat="45.67548" lon="4.60207">
        <ele>579</ele>
        <time>2012-01-14T09:49:15Z</time>
      </trkpt>
      <trkpt lat="45.67543" lon="4.60214">
        <ele>578</ele>
        <time>2012-01-14T09:49:16Z</time>
      </trkpt>
      <trkpt lat="45.67539" lon="4.60221">
        <ele>577</ele>
        <time>2012-01-14T09:49:17Z</time>
      </trkpt>
      <trkpt lat="45.67534" lon="4.6023">
        <ele>576</ele>
        <time>2012-01-14T09:49:18Z</time>
      </trkpt>
      <trkpt lat="45.6753" lon="4.60238">
        <ele>575</ele>
        <time>2012-01-14T09:49:19Z</time>
      </trkpt>
      <trkpt lat="45.67526" lon="4.60243">
        <ele>574</ele>
        <time>2012-01-14T09:49:20Z</time>
      </trkpt>
      <trkpt lat="45.67521" lon="4.60247">
        <ele>572</ele>
        <time>2012-01-14T09:49:21Z</time>
      </trkpt>
      <trkpt lat="45.67517" lon="4.6025">
        <ele>572</ele>
        <time>2012-01-14T09:49:22Z</time>
      </trkpt>
      <trkpt lat="45.67514" lon="4.60256">
        <ele>571</ele>
        <time>2012-01-14T09:49:23Z</time>
      </trkpt>
      <trkpt lat="45.67512" lon="4.60264">
        <ele>570</ele>
        <time>2012-01-14T09:49:24Z</time>
      </trkpt>
      <trkpt lat="45.6751" lon="4.60271">
        <ele>569</ele>
        <time>2012-01-14T09:49:25Z</time>
      </trkpt>
      <trkpt lat="45.67505" lon="4.60288">
        <ele>567</ele>
        <time>2012-01-14T09:49:27Z</time>
      </trkpt>
      <trkpt lat="45.67501" lon="4.60295">
        <ele>566</ele>
        <time>2012-01-14T09:49:28Z</time>
      </trkpt>
      <trkpt lat="45.67497" lon="4.60303">
        <ele>564</ele>
        <time>2012-01-14T09:49:29Z</time>
      </trkpt>
      <trkpt lat="45.67493" lon="4.60312">
        <ele>564</ele>
        <time>2012-01-14T09:49:30Z</time>
      </trkpt>
      <trkpt lat="45.67489" lon="4.6032">
        <ele>563</ele>
        <time>2012-01-14T09:49:31Z</time>
      </trkpt>
      <trkpt lat="45.67487" lon="4.60328">
        <ele>561</ele>
        <time>2012-01-14T09:49:32Z</time>
      </trkpt>
      <trkpt lat="45.67486" lon="4.60334">
        <ele>560</ele>
        <time>2012-01-14T09:49:33Z</time>
      </trkpt>
      <trkpt lat="45.67485" lon="4.6034">
        <ele>559</ele>
        <time>2012-01-14T09:49:34Z</time>
      </trkpt>
      <trkpt lat="45.67484" lon="4.60346">
        <ele>558</ele>
        <time>2012-01-14T09:49:35Z</time>
      </trkpt>
      <trkpt lat="45.67482" lon="4.60352">
        <ele>557</ele>
        <time>2012-01-14T09:49:36Z</time>
      </trkpt>
      <trkpt lat="45.6748" lon="4.60357">
        <ele>556</ele>
        <time>2012-01-14T09:49:37Z</time>
      </trkpt>
      <trkpt lat="45.67478" lon="4.60362">
        <ele>555</ele>
        <time>2012-01-14T09:49:38Z</time>
      </trkpt>
      <trkpt lat="45.67472" lon="4.60372">
        <ele>553</ele>
        <time>2012-01-14T09:49:40Z</time>
      </trkpt>
      <trkpt lat="45.67463" lon="4.60385">
        <ele>549</ele>
        <time>2012-01-14T09:49:43Z</time>
      </trkpt>
      <trkpt lat="45.67462" lon="4.60387">
        <ele>549</ele>
        <time>2012-01-14T09:49:44Z</time>
      </trkpt>
      <trkpt lat="45.67461" lon="4.60389">
        <ele>549</ele>
        <time>2012-01-14T09:49:45Z</time>
      </trkpt>
      <trkpt lat="45.6746" lon="4.60389">
        <ele>548</ele>
        <time>2012-01-14T09:49:46Z</time>
      </trkpt>
      <trkpt lat="45.67453" lon="4.60386">
        <ele>547</ele>
        <time>2012-01-14T09:49:50Z</time>
      </trkpt>
      <trkpt lat="45.67438" lon="4.60378">
        <ele>544</ele>
        <time>2012-01-14T09:49:54Z</time>
      </trkpt>
      <trkpt lat="45.67433" lon="4.60376">
        <ele>541</ele>
        <time>2012-01-14T09:49:55Z</time>
      </trkpt>
      <trkpt lat="45.67427" lon="4.60373">
        <ele>541</ele>
        <time>2012-01-14T09:49:56Z</time>
      </trkpt>
      <trkpt lat="45.67422" lon="4.60369">
        <ele>539</ele>
        <time>2012-01-14T09:49:57Z</time>
      </trkpt>
      <trkpt lat="45.67417" lon="4.60364">
        <ele>538</ele>
        <time>2012-01-14T09:49:58Z</time>
      </trkpt>
      <trkpt lat="45.67413" lon="4.60358">
        <ele>538</ele>
        <time>2012-01-14T09:49:59Z</time>
      </trkpt>
      <trkpt lat="45.67409" lon="4.6035">
        <ele>537</ele>
        <time>2012-01-14T09:50:00Z</time>
      </trkpt>
      <trkpt lat="45.67406" lon="4.60341">
        <ele>535</ele>
        <time>2012-01-14T09:50:01Z</time>
      </trkpt>
      <trkpt lat="45.67403" lon="4.60332">
        <ele>535</ele>
        <time>2012-01-14T09:50:02Z</time>
      </trkpt>
      <trkpt lat="45.67402" lon="4.60323">
        <ele>534</ele>
        <time>2012-01-14T09:50:03Z</time>
      </trkpt>
      <trkpt lat="45.67399" lon="4.60315">
        <ele>533</ele>
        <time>2012-01-14T09:50:04Z</time>
      </trkpt>
      <trkpt lat="45.67397" lon="4.60307">
        <ele>532</ele>
        <time>2012-01-14T09:50:05Z</time>
      </trkpt>
      <trkpt lat="45.67394" lon="4.603">
        <ele>530</ele>
        <time>2012-01-14T09:50:06Z</time>
      </trkpt>
      <trkpt lat="45.67392" lon="4.60293">
        <ele>528</ele>
        <time>2012-01-14T09:50:07Z</time>
      </trkpt>
      <trkpt lat="45.67389" lon="4.60287">
        <ele>527</ele>
        <time>2012-01-14T09:50:08Z</time>
      </trkpt>
      <trkpt lat="45.67387" lon="4.6028">
        <ele>525</ele>
        <time>2012-01-14T09:50:09Z</time>
      </trkpt>
      <trkpt lat="45.67385" lon="4.60273">
        <ele>524</ele>
        <time>2012-01-14T09:50:10Z</time>
      </trkpt>
      <trkpt lat="45.67383" lon="4.60268">
        <ele>523</ele>
        <time>2012-01-14T09:50:11Z</time>
      </trkpt>
      <trkpt lat="45.6738" lon="4.60266">
        <ele>522</ele>
        <time>2012-01-14T09:50:12Z</time>
      </trkpt>
      <trkpt lat="45.67376" lon="4.60268">
        <ele>522</ele>
        <time>2012-01-14T09:50:13Z</time>
      </trkpt>
      <trkpt lat="45.67371" lon="4.60271">
        <ele>521</ele>
        <time>2012-01-14T09:50:14Z</time>
      </trkpt>
      <trkpt lat="45.67368" lon="4.60277">
        <ele>520</ele>
        <time>2012-01-14T09:50:15Z</time>
      </trkpt>
      <trkpt lat="45.67365" lon="4.60282">
        <ele>519</ele>
        <time>2012-01-14T09:50:16Z</time>
      </trkpt>
      <trkpt lat="45.67362" lon="4.60286">
        <ele>518</ele>
        <time>2012-01-14T09:50:17Z</time>
      </trkpt>
      <trkpt lat="45.67358" lon="4.6029">
        <ele>516</ele>
        <time>2012-01-14T09:50:18Z</time>
      </trkpt>
      <trkpt lat="45.67354" lon="4.60294">
        <ele>514</ele>
        <time>2012-01-14T09:50:19Z</time>
      </trkpt>
      <trkpt lat="45.6735" lon="4.603">
        <ele>513</ele>
        <time>2012-01-14T09:50:20Z</time>
      </trkpt>
      <trkpt lat="45.67347" lon="4.60307">
        <ele>513</ele>
        <time>2012-01-14T09:50:21Z</time>
      </trkpt>
      <trkpt lat="45.67343" lon="4.60316">
        <ele>512</ele>
        <time>2012-01-14T09:50:22Z</time>
      </trkpt>
      <trkpt lat="45.67332" lon="4.60352">
        <ele>508</ele>
        <time>2012-01-14T09:50:26Z</time>
      </trkpt>
      <trkpt lat="45.67329" lon="4.60359">
        <ele>507</ele>
        <time>2012-01-14T09:50:27Z</time>
      </trkpt>
      <trkpt lat="45.67319" lon="4.60387">
        <ele>503</ele>
        <time>2012-01-14T09:50:32Z</time>
      </trkpt>
      <trkpt lat="45.67318" lon="4.60393">
        <ele>502</ele>
        <time>2012-01-14T09:50:33Z</time>
      </trkpt>
      <trkpt lat="45.67316" lon="4.60399">
        <ele>501</ele>
        <time>2012-01-14T09:50:34Z</time>
      </trkpt>
      <trkpt lat="45.67313" lon="4.60402">
        <ele>500</ele>
        <time>2012-01-14T09:50:35Z</time>
      </trkpt>
      <trkpt lat="45.6731" lon="4.604">
        <ele>500</ele>
        <time>2012-01-14T09:50:36Z</time>
      </trkpt>
      <trkpt lat="45.67307" lon="4.60397">
        <ele>499</ele>
        <time>2012-01-14T09:50:37Z</time>
      </trkpt>
      <trkpt lat="45.67305" lon="4.60392">
        <ele>498</ele>
        <time>2012-01-14T09:50:38Z</time>
      </trkpt>
      <trkpt lat="45.67302" lon="4.60386">
        <ele>497</ele>
        <time>2012-01-14T09:50:39Z</time>
      </trkpt>
      <trkpt lat="45.67299" lon="4.6038">
        <ele>497</ele>
        <time>2012-01-14T09:50:40Z</time>
      </trkpt>
      <trkpt lat="45.67294" lon="4.60369">
        <ele>495</ele>
        <time>2012-01-14T09:50:42Z</time>
      </trkpt>
      <trkpt lat="45.67293" lon="4.60362">
        <ele>494</ele>
        <time>2012-01-14T09:50:43Z</time>
      </trkpt>
      <trkpt lat="45.67292" lon="4.60355">
        <ele>494</ele>
        <time>2012-01-14T09:50:44Z</time>
      </trkpt>
      <trkpt lat="45.67292" lon="4.60347">
        <ele>493</ele>
        <time>2012-01-14T09:50:45Z</time>
      </trkpt>
      <trkpt lat="45.67291" lon="4.60338">
        <ele>492</ele>
        <time>2012-01-14T09:50:46Z</time>
      </trkpt>
      <trkpt lat="45.67288" lon="4.60327">
        <ele>491</ele>
        <time>2012-01-14T09:50:47Z</time>
      </trkpt>
      <trkpt lat="45.67285" lon="4.60318">
        <ele>490</ele>
        <time>2012-01-14T09:50:48Z</time>
      </trkpt>
      <trkpt lat="45.67279" lon="4.60298">
        <ele>488</ele>
        <time>2012-01-14T09:50:50Z</time>
      </trkpt>
      <trkpt lat="45.67276" lon="4.60288">
        <ele>487</ele>
        <time>2012-01-14T09:50:51Z</time>
      </trkpt>
      <trkpt lat="45.67273" lon="4.60278">
        <ele>487</ele>
        <time>2012-01-14T09:50:52Z</time>
      </trkpt>
      <trkpt lat="45.67265" lon="4.6025">
        <ele>484</ele>
        <time>2012-01-14T09:50:55Z</time>
      </trkpt>
      <trkpt lat="45.67264" lon="4.6024">
        <ele>482</ele>
        <time>2012-01-14T09:50:56Z</time>
      </trkpt>
      <trkpt lat="45.67264" lon="4.60228">
        <ele>482</ele>
        <time>2012-01-14T09:50:57Z</time>
      </trkpt>
      <trkpt lat="45.67262" lon="4.60211">
        <ele>480</ele>
        <time>2012-01-14T09:50:59Z</time>
      </trkpt>
      <trkpt lat="45.67259" lon="4.60207">
        <ele>479</ele>
        <time>2012-01-14T09:51:00Z</time>
      </trkpt>
      <trkpt lat="45.67255" lon="4.60204">
        <ele>479</ele>
        <time>2012-01-14T09:51:01Z</time>
      </trkpt>
      <trkpt lat="45.67251" lon="4.60204">
        <ele>478</ele>
        <time>2012-01-14T09:51:02Z</time>
      </trkpt>
      <trkpt lat="45.67248" lon="4.60205">
        <ele>477</ele>
        <time>2012-01-14T09:51:03Z</time>
      </trkpt>
      <trkpt lat="45.67244" lon="4.60204">
        <ele>477</ele>
        <time>2012-01-14T09:51:04Z</time>
      </trkpt>
      <trkpt lat="45.6724" lon="4.60202">
        <ele>476</ele>
        <time>2012-01-14T09:51:05Z</time>
      </trkpt>
      <trkpt lat="45.67237" lon="4.602">
        <ele>475</ele>
        <time>2012-01-14T09:51:06Z</time>
      </trkpt>
      <trkpt lat="45.67233" lon="4.60198">
        <ele>475</ele>
        <time>2012-01-14T09:51:07Z</time>
      </trkpt>
      <trkpt lat="45.67231" lon="4.60194">
        <ele>475</ele>
        <time>2012-01-14T09:51:08Z</time>
      </trkpt>
      <trkpt lat="45.67229" lon="4.60189">
        <ele>475</ele>
        <time>2012-01-14T09:51:09Z</time>
      </trkpt>
      <trkpt lat="45.67214" lon="4.60159">
        <ele>472</ele>
        <time>2012-01-14T09:51:16Z</time>
      </trkpt>
      <trkpt lat="45.67208" lon="4.60134">
        <ele>472</ele>
        <time>2012-01-14T09:51:22Z</time>
      </trkpt>
      <trkpt lat="45.67197" lon="4.60099">
        <ele>470</ele>
        <time>2012-01-14T09:51:29Z</time>
      </trkpt>
      <trkpt lat="45.6719" lon="4.60082">
        <ele>468</ele>
        <time>2012-01-14T09:51:32Z</time>
      </trkpt>
      <trkpt lat="45.67177" lon="4.60051">
        <ele>465</ele>
        <time>2012-01-14T09:51:38Z</time>
      </trkpt>
      <trkpt lat="45.67174" lon="4.60046">
        <ele>465</ele>
        <time>2012-01-14T09:51:39Z</time>
      </trkpt>
      <trkpt lat="45.67164" lon="4.60023">
        <ele>463</ele>
        <time>2012-01-14T09:51:43Z</time>
      </trkpt>
      <trkpt lat="45.67161" lon="4.6002">
        <ele>462</ele>
        <time>2012-01-14T09:51:44Z</time>
      </trkpt>
      <trkpt lat="45.67158" lon="4.60018">
        <ele>462</ele>
        <time>2012-01-14T09:51:45Z</time>
      </trkpt>
      <trkpt lat="45.67155" lon="4.60017">
        <ele>461</ele>
        <time>2012-01-14T09:51:46Z</time>
      </trkpt>
      <trkpt lat="45.67152" lon="4.60016">
        <ele>462</ele>
        <time>2012-01-14T09:51:47Z</time>
      </trkpt>
      <trkpt lat="45.67144" lon="4.60019">
        <ele>462</ele>
        <time>2012-01-14T09:51:51Z</time>
      </trkpt>
      <trkpt lat="45.67142" lon="4.60018">
        <ele>461</ele>
        <time>2012-01-14T09:51:52Z</time>
      </trkpt>
      <trkpt lat="45.6714" lon="4.60015">
        <ele>462</ele>
        <time>2012-01-14T09:51:53Z</time>
      </trkpt>
      <trkpt lat="45.67139" lon="4.60012">
        <ele>461</ele>
        <time>2012-01-14T09:51:54Z</time>
      </trkpt>
      <trkpt lat="45.67138" lon="4.60008">
        <ele>461</ele>
        <time>2012-01-14T09:51:55Z</time>
      </trkpt>
      <trkpt lat="45.67138" lon="4.60004">
        <ele>461</ele>
        <time>2012-01-14T09:51:56Z</time>
      </trkpt>
      <trkpt lat="45.67133" lon="4.59977">
        <ele>459</ele>
        <time>2012-01-14T09:52:05Z</time>
      </trkpt>
      <trkpt lat="45.67129" lon="4.59943">
        <ele>457</ele>
        <time>2012-01-14T09:52:12Z</time>
      </trkpt>
      <trkpt lat="45.67128" lon="4.59938">
        <ele>457</ele>
        <time>2012-01-14T09:52:13Z</time>
      </trkpt>
      <trkpt lat="45.67122" lon="4.59907">
        <ele>455</ele>
        <time>2012-01-14T09:52:18Z</time>
      </trkpt>
      <trkpt lat="45.67121" lon="4.599">
        <ele>455</ele>
        <time>2012-01-14T09:52:19Z</time>
      </trkpt>
      <trkpt lat="45.67114" lon="4.59878">
        <ele>453</ele>
        <time>2012-01-14T09:52:22Z</time>
      </trkpt>
      <trkpt lat="45.67111" lon="4.59871">
        <ele>453</ele>
        <time>2012-01-14T09:52:23Z</time>
      </trkpt>
      <trkpt lat="45.67108" lon="4.59864">
        <ele>452</ele>
        <time>2012-01-14T09:52:24Z</time>
      </trkpt>
      <trkpt lat="45.67104" lon="4.59858">
        <ele>453</ele>
        <time>2012-01-14T09:52:25Z</time>
      </trkpt>
      <trkpt lat="45.671" lon="4.59853">
        <ele>452</ele>
        <time>2012-01-14T09:52:26Z</time>
      </trkpt>
      <trkpt lat="45.67096" lon="4.59848">
        <ele>452</ele>
        <time>2012-01-14T09:52:27Z</time>
      </trkpt>
      <trkpt lat="45.67086" lon="4.5983">
        <ele>452</ele>
        <time>2012-01-14T09:52:32Z</time>
      </trkpt>
      <trkpt lat="45.67079" lon="4.59801">
        <ele>454</ele>
        <time>2012-01-14T09:52:41Z</time>
      </trkpt>
      <trkpt lat="45.67075" lon="4.59775">
        <ele>455</ele>
        <time>2012-01-14T09:52:49Z</time>
      </trkpt>
      <trkpt lat="45.67067" lon="4.59746">
        <ele>456</ele>
        <time>2012-01-14T09:52:58Z</time>
      </trkpt>
      <trkpt lat="45.67058" lon="4.59724">
        <ele>457</ele>
        <time>2012-01-14T09:53:05Z</time>
      </trkpt>
      <trkpt lat="45.67048" lon="4.59706">
        <ele>458</ele>
        <time>2012-01-14T09:53:12Z</time>
      </trkpt>
      <trkpt lat="45.67029" lon="4.59684">
        <ele>457</ele>
        <time>2012-01-14T09:53:21Z</time>
      </trkpt>
      <trkpt lat="45.67012" lon="4.59665">
        <ele>456</ele>
        <time>2012-01-14T09:53:26Z</time>
      </trkpt>
      <trkpt lat="45.67008" lon="4.59663">
        <ele>455</ele>
        <time>2012-01-14T09:53:27Z</time>
      </trkpt>
      <trkpt lat="45.67004" lon="4.59663">
        <ele>456</ele>
        <time>2012-01-14T09:53:28Z</time>
      </trkpt>
      <trkpt lat="45.67001" lon="4.59665">
        <ele>455</ele>
        <time>2012-01-14T09:53:29Z</time>
      </trkpt>
      <trkpt lat="45.66998" lon="4.59668">
        <ele>455</ele>
        <time>2012-01-14T09:53:30Z</time>
      </trkpt>
      <trkpt lat="45.66993" lon="4.59676">
        <ele>455</ele>
        <time>2012-01-14T09:53:33Z</time>
      </trkpt>
      <trkpt lat="45.66981" lon="4.597">
        <ele>457</ele>
        <time>2012-01-14T09:53:42Z</time>
      </trkpt>
      <trkpt lat="45.66968" lon="4.59711">
        <ele>459</ele>
        <time>2012-01-14T09:53:50Z</time>
      </trkpt>
      <trkpt lat="45.66957" lon="4.59718">
        <ele>460</ele>
        <time>2012-01-14T09:53:57Z</time>
      </trkpt>
      <trkpt lat="45.66947" lon="4.59725">
        <ele>461</ele>
        <time>2012-01-14T09:54:04Z</time>
      </trkpt>
      <trkpt lat="45.66937" lon="4.59731">
        <ele>462</ele>
        <time>2012-01-14T09:54:11Z</time>
      </trkpt>
      <trkpt lat="45.66935" lon="4.59733">
        <ele>463</ele>
        <time>2012-01-14T09:54:13Z</time>
      </trkpt>
      <trkpt lat="45.66926" lon="4.59737">
        <ele>463</ele>
        <time>2012-01-14T09:54:20Z</time>
      </trkpt>
      <trkpt lat="45.66919" lon="4.59743">
        <ele>464</ele>
        <time>2012-01-14T09:54:26Z</time>
      </trkpt>
      <trkpt lat="45.6691" lon="4.59749">
        <ele>466</ele>
        <time>2012-01-14T09:54:34Z</time>
      </trkpt>
      <trkpt lat="45.66906" lon="4.59754">
        <ele>467</ele>
        <time>2012-01-14T09:54:41Z</time>
      </trkpt>
      <trkpt lat="45.66897" lon="4.59765">
        <ele>468</ele>
        <time>2012-01-14T09:54:48Z</time>
      </trkpt>
      <trkpt lat="45.66887" lon="4.5978">
        <ele>470</ele>
        <time>2012-01-14T09:54:58Z</time>
      </trkpt>
      <trkpt lat="45.66882" lon="4.59786">
        <ele>471</ele>
        <time>2012-01-14T09:55:04Z</time>
      </trkpt>
      <trkpt lat="45.66881" lon="4.59789">
        <ele>472</ele>
        <time>2012-01-14T09:55:06Z</time>
      </trkpt>
      <trkpt lat="45.66874" lon="4.59799">
        <ele>472</ele>
        <time>2012-01-14T09:55:12Z</time>
      </trkpt>
      <trkpt lat="45.66866" lon="4.5981">
        <ele>473</ele>
        <time>2012-01-14T09:55:17Z</time>
      </trkpt>
      <trkpt lat="45.66861" lon="4.59818">
        <ele>474</ele>
        <time>2012-01-14T09:55:21Z</time>
      </trkpt>
      <trkpt lat="45.66857" lon="4.59822">
        <ele>474</ele>
        <time>2012-01-14T09:55:24Z</time>
      </trkpt>
      <trkpt lat="45.66853" lon="4.59828">
        <ele>475</ele>
        <time>2012-01-14T09:55:27Z</time>
      </trkpt>
      <trkpt lat="45.66845" lon="4.59846">
        <ele>476</ele>
        <time>2012-01-14T09:55:35Z</time>
      </trkpt>
      <trkpt lat="45.66846" lon="4.59855">
        <ele>476</ele>
        <time>2012-01-14T09:55:39Z</time>
      </trkpt>
      <trkpt lat="45.66849" lon="4.59861">
        <ele>476</ele>
        <time>2012-01-14T09:55:43Z</time>
      </trkpt>
      <trkpt lat="45.66861" lon="4.59866">
        <ele>478</ele>
        <time>2012-01-14T09:55:52Z</time>
      </trkpt>
      <trkpt lat="45.66873" lon="4.59869">
        <ele>479</ele>
        <time>2012-01-14T09:55:59Z</time>
      </trkpt>
      <trkpt lat="45.66889" lon="4.59872">
        <ele>480</ele>
        <time>2012-01-14T09:56:08Z</time>
      </trkpt>
      <trkpt lat="45.66907" lon="4.59871">
        <ele>482</ele>
        <time>2012-01-14T09:56:18Z</time>
      </trkpt>
      <trkpt lat="45.66909" lon="4.59871">
        <ele>482</ele>
        <time>2012-01-14T09:56:19Z</time>
      </trkpt>
      <trkpt lat="45.66927" lon="4.59864">
        <ele>484</ele>
        <time>2012-01-14T09:56:30Z</time>
      </trkpt>
      <trkpt lat="45.66938" lon="4.59863">
        <ele>484</ele>
        <time>2012-01-14T09:56:37Z</time>
      </trkpt>
      <trkpt lat="45.66953" lon="4.59874">
        <ele>486</ele>
        <time>2012-01-14T09:56:46Z</time>
      </trkpt>
      <trkpt lat="45.66963" lon="4.59895">
        <ele>487</ele>
        <time>2012-01-14T09:56:55Z</time>
      </trkpt>
      <trkpt lat="45.66965" lon="4.599">
        <ele>487</ele>
        <time>2012-01-14T09:56:58Z</time>
      </trkpt>
      <trkpt lat="45.66956" lon="4.59905">
        <ele>488</ele>
        <time>2012-01-14T09:57:04Z</time>
      </trkpt>
      <trkpt lat="45.66948" lon="4.59914">
        <ele>489</ele>
        <time>2012-01-14T09:57:11Z</time>
      </trkpt>
      <trkpt lat="45.66946" lon="4.59915">
        <ele>489</ele>
        <time>2012-01-14T09:57:12Z</time>
      </trkpt>
      <trkpt lat="45.66934" lon="4.59924">
        <ele>491</ele>
        <time>2012-01-14T09:57:21Z</time>
      </trkpt>
      <trkpt lat="45.6692" lon="4.59934">
        <ele>492</ele>
        <time>2012-01-14T09:57:30Z</time>
      </trkpt>
      <trkpt lat="45.66906" lon="4.59943">
        <ele>493</ele>
        <time>2012-01-14T09:57:38Z</time>
      </trkpt>
      <trkpt lat="45.66889" lon="4.59955">
        <ele>493</ele>
        <time>2012-01-14T09:57:48Z</time>
      </trkpt>
      <trkpt lat="45.66876" lon="4.59963">
        <ele>496</ele>
        <time>2012-01-14T09:57:57Z</time>
      </trkpt>
      <trkpt lat="45.66869" lon="4.59973">
        <ele>498</ele>
        <time>2012-01-14T09:58:05Z</time>
      </trkpt>
      <trkpt lat="45.66867" lon="4.59974">
        <ele>498</ele>
        <time>2012-01-14T09:58:07Z</time>
      </trkpt>
      <trkpt lat="45.66859" lon="4.59987">
        <ele>500</ele>
        <time>2012-01-14T09:58:16Z</time>
      </trkpt>
      <trkpt lat="45.66859" lon="4.59988">
        <ele>500</ele>
        <time>2012-01-14T09:58:17Z</time>
      </trkpt>
      <trkpt lat="45.66852" lon="4.59998">
        <ele>502</ele>
        <time>2012-01-14T09:58:25Z</time>
      </trkpt>
      <trkpt lat="45.66849" lon="4.60002">
        <ele>503</ele>
        <time>2012-01-14T09:58:28Z</time>
      </trkpt>
      <trkpt lat="45.66841" lon="4.60011">
        <ele>505</ele>
        <time>2012-01-14T09:58:37Z</time>
      </trkpt>
      <trkpt lat="45.66835" lon="4.60015">
        <ele>507</ele>
        <time>2012-01-14T09:58:43Z</time>
      </trkpt>
      <trkpt lat="45.66827" lon="4.6002">
        <ele>510</ele>
        <time>2012-01-14T09:58:51Z</time>
      </trkpt>
      <trkpt lat="45.66826" lon="4.60021">
        <ele>510</ele>
        <time>2012-01-14T09:58:57Z</time>
      </trkpt>
      <trkpt lat="45.6682" lon="4.60022">
        <ele>511</ele>
        <time>2012-01-14T09:59:06Z</time>
      </trkpt>
      <trkpt lat="45.66816" lon="4.60024">
        <ele>512</ele>
        <time>2012-01-14T09:59:13Z</time>
      </trkpt>
      <trkpt lat="45.66813" lon="4.60031">
        <ele>513</ele>
        <time>2012-01-14T09:59:21Z</time>
      </trkpt>
      <trkpt lat="45.66811" lon="4.60038">
        <ele>515</ele>
        <time>2012-01-14T09:59:30Z</time>
      </trkpt>
      <trkpt lat="45.66811" lon="4.60038">
        <ele>514</ele>
        <time>2012-01-14T09:59:41Z</time>
      </trkpt>
      <trkpt lat="45.66809" lon="4.60046">
        <ele>516</ele>
        <time>2012-01-14T09:59:46Z</time>
      </trkpt>
      <trkpt lat="45.66807" lon="4.60053">
        <ele>517</ele>
        <time>2012-01-14T09:59:50Z</time>
      </trkpt>
      <trkpt lat="45.66798" lon="4.60068">
        <ele>520</ele>
        <time>2012-01-14T10:00:00Z</time>
      </trkpt>
      <trkpt lat="45.6679" lon="4.60074">
        <ele>522</ele>
        <time>2012-01-14T10:00:08Z</time>
      </trkpt>
      <trkpt lat="45.66789" lon="4.60074">
        <ele>523</ele>
        <time>2012-01-14T10:00:09Z</time>
      </trkpt>
      <trkpt lat="45.66779" lon="4.60078">
        <ele>524</ele>
        <time>2012-01-14T10:00:18Z</time>
      </trkpt>
      <trkpt lat="45.6677" lon="4.60082">
        <ele>525</ele>
        <time>2012-01-14T10:00:27Z</time>
      </trkpt>
      <trkpt lat="45.66762" lon="4.60084">
        <ele>526</ele>
        <time>2012-01-14T10:00:35Z</time>
      </trkpt>
      <trkpt lat="45.66755" lon="4.60085">
        <ele>527</ele>
        <time>2012-01-14T10:00:43Z</time>
      </trkpt>
      <trkpt lat="45.66746" lon="4.60083">
        <ele>528</ele>
        <time>2012-01-14T10:00:50Z</time>
      </trkpt>
      <trkpt lat="45.66734" lon="4.60085">
        <ele>531</ele>
        <time>2012-01-14T10:01:00Z</time>
      </trkpt>
      <trkpt lat="45.66728" lon="4.60084">
        <ele>532</ele>
        <time>2012-01-14T10:01:07Z</time>
      </trkpt>
      <trkpt lat="45.66726" lon="4.60084">
        <ele>532</ele>
        <time>2012-01-14T10:01:08Z</time>
      </trkpt>
      <trkpt lat="45.66719" lon="4.60078">
        <ele>534</ele>
        <time>2012-01-14T10:01:16Z</time>
      </trkpt>
      <trkpt lat="45.66709" lon="4.60074">
        <ele>536</ele>
        <time>2012-01-14T10:01:24Z</time>
      </trkpt>
      <trkpt lat="45.66707" lon="4.60072">
        <ele>537</ele>
        <time>2012-01-14T10:01:26Z</time>
      </trkpt>
      <trkpt lat="45.66702" lon="4.60068">
        <ele>539</ele>
        <time>2012-01-14T10:01:33Z</time>
      </trkpt>
      <trkpt lat="45.66695" lon="4.60064">
        <ele>541</ele>
        <time>2012-01-14T10:01:42Z</time>
      </trkpt>
      <trkpt lat="45.6669" lon="4.6006">
        <ele>542</ele>
        <time>2012-01-14T10:01:50Z</time>
      </trkpt>
      <trkpt lat="45.6669" lon="4.6006">
        <ele>542</ele>
        <time>2012-01-14T10:01:59Z</time>
      </trkpt>
      <trkpt lat="45.6669" lon="4.6006">
        <ele>542</ele>
        <time>2012-01-14T10:02:10Z</time>
      </trkpt>
      <trkpt lat="45.6669" lon="4.6006">
        <ele>542</ele>
        <time>2012-01-14T10:02:22Z</time>
      </trkpt>
      <trkpt lat="45.6669" lon="4.6006">
        <ele>542</ele>
        <time>2012-01-14T10:02:33Z</time>
      </trkpt>
      <trkpt lat="45.6669" lon="4.6006">
        <ele>541</ele>
        <time>2012-01-14T10:02:48Z</time>
      </trkpt>
      <trkpt lat="45.6669" lon="4.6006">
        <ele>541</ele>
        <time>2012-01-14T10:03:00Z</time>
      </trkpt>
      <trkpt lat="45.66684" lon="4.60059">
        <ele>541</ele>
        <time>2012-01-14T10:03:06Z</time>
      </trkpt>
      <trkpt lat="45.66675" lon="4.60057">
        <ele>542</ele>
        <time>2012-01-14T10:03:12Z</time>
      </trkpt>
      <trkpt lat="45.66666" lon="4.60053">
        <ele>544</ele>
        <time>2012-01-14T10:03:18Z</time>
      </trkpt>
      <trkpt lat="45.66661" lon="4.6005">
        <ele>545</ele>
        <time>2012-01-14T10:03:21Z</time>
      </trkpt>
      <trkpt lat="45.66655" lon="4.60046">
        <ele>546</ele>
        <time>2012-01-14T10:03:25Z</time>
      </trkpt>
      <trkpt lat="45.66645" lon="4.60044">
        <ele>548</ele>
        <time>2012-01-14T10:03:32Z</time>
      </trkpt>
      <trkpt lat="45.66637" lon="4.60041">
        <ele>549</ele>
        <time>2012-01-14T10:03:40Z</time>
      </trkpt>
      <trkpt lat="45.66625" lon="4.60044">
        <ele>551</ele>
        <time>2012-01-14T10:03:48Z</time>
      </trkpt>
      <trkpt lat="45.66617" lon="4.60049">
        <ele>553</ele>
        <time>2012-01-14T10:03:55Z</time>
      </trkpt>
      <trkpt lat="45.66613" lon="4.60053">
        <ele>553</ele>
        <time>2012-01-14T10:04:00Z</time>
      </trkpt>
      <trkpt lat="45.66609" lon="4.60054">
        <ele>553</ele>
        <time>2012-01-14T10:04:07Z</time>
      </trkpt>
      <trkpt lat="45.66609" lon="4.60055">
        <ele>553</ele>
        <time>2012-01-14T10:04:24Z</time>
      </trkpt>
      <trkpt lat="45.66605" lon="4.6006">
        <ele>553</ele>
        <time>2012-01-14T10:04:28Z</time>
      </trkpt>
      <trkpt lat="45.66595" lon="4.60066">
        <ele>555</ele>
        <time>2012-01-14T10:04:36Z</time>
      </trkpt>
      <trkpt lat="45.66594" lon="4.60067">
        <ele>555</ele>
        <time>2012-01-14T10:04:37Z</time>
      </trkpt>
      <trkpt lat="45.66584" lon="4.60069">
        <ele>556</ele>
        <time>2012-01-14T10:04:45Z</time>
      </trkpt>
      <trkpt lat="45.66578" lon="4.60069">
        <ele>557</ele>
        <time>2012-01-14T10:04:51Z</time>
      </trkpt>
      <trkpt lat="45.66573" lon="4.60059">
        <ele>558</ele>
        <time>2012-01-14T10:04:59Z</time>
      </trkpt>
      <trkpt lat="45.66571" lon="4.60054">
        <ele>559</ele>
        <time>2012-01-14T10:05:02Z</time>
      </trkpt>
      <trkpt lat="45.66564" lon="4.6004">
        <ele>560</ele>
        <time>2012-01-14T10:05:11Z</time>
      </trkpt>
      <trkpt lat="45.66562" lon="4.60033">
        <ele>561</ele>
        <time>2012-01-14T10:05:15Z</time>
      </trkpt>
      <trkpt lat="45.66559" lon="4.60022">
        <ele>563</ele>
        <time>2012-01-14T10:05:22Z</time>
      </trkpt>
      <trkpt lat="45.66555" lon="4.60011">
        <ele>564</ele>
        <time>2012-01-14T10:05:30Z</time>
      </trkpt>
      <trkpt lat="45.66554" lon="4.60002">
        <ele>565</ele>
        <time>2012-01-14T10:05:36Z</time>
      </trkpt>
      <trkpt lat="45.66552" lon="4.59993">
        <ele>566</ele>
        <time>2012-01-14T10:05:42Z</time>
      </trkpt>
      <trkpt lat="45.6655" lon="4.59982">
        <ele>567</ele>
        <time>2012-01-14T10:05:49Z</time>
      </trkpt>
      <trkpt lat="45.66549" lon="4.5997">
        <ele>569</ele>
        <time>2012-01-14T10:05:58Z</time>
      </trkpt>
      <trkpt lat="45.66549" lon="4.5996">
        <ele>571</ele>
        <time>2012-01-14T10:06:05Z</time>
      </trkpt>
      <trkpt lat="45.66549" lon="4.59952">
        <ele>572</ele>
        <time>2012-01-14T10:06:12Z</time>
      </trkpt>
      <trkpt lat="45.66549" lon="4.59943">
        <ele>573</ele>
        <time>2012-01-14T10:06:19Z</time>
      </trkpt>
      <trkpt lat="45.66546" lon="4.5993">
        <ele>575</ele>
        <time>2012-01-14T10:06:26Z</time>
      </trkpt>
      <trkpt lat="45.66545" lon="4.59916">
        <ele>576</ele>
        <time>2012-01-14T10:06:34Z</time>
      </trkpt>
      <trkpt lat="45.66544" lon="4.59906">
        <ele>578</ele>
        <time>2012-01-14T10:06:41Z</time>
      </trkpt>
      <trkpt lat="45.66542" lon="4.59898">
        <ele>579</ele>
        <time>2012-01-14T10:06:47Z</time>
      </trkpt>
      <trkpt lat="45.6654" lon="4.59886">
        <ele>581</ele>
        <time>2012-01-14T10:06:54Z</time>
      </trkpt>
      <trkpt lat="45.66537" lon="4.59872">
        <ele>583</ele>
        <time>2012-01-14T10:07:01Z</time>
      </trkpt>
      <trkpt lat="45.66538" lon="4.59866">
        <ele>583</ele>
        <time>2012-01-14T10:07:06Z</time>
      </trkpt>
      <trkpt lat="45.66539" lon="4.59855">
        <ele>584</ele>
        <time>2012-01-14T10:07:15Z</time>
      </trkpt>
      <trkpt lat="45.66538" lon="4.59849">
        <ele>585</ele>
        <time>2012-01-14T10:07:21Z</time>
      </trkpt>
      <trkpt lat="45.66539" lon="4.59837">
        <ele>584</ele>
        <time>2012-01-14T10:07:28Z</time>
      </trkpt>
      <trkpt lat="45.66539" lon="4.59822">
        <ele>585</ele>
        <time>2012-01-14T10:07:37Z</time>
      </trkpt>
      <trkpt lat="45.66539" lon="4.59812">
        <ele>587</ele>
        <time>2012-01-14T10:07:45Z</time>
      </trkpt>
      <trkpt lat="45.66538" lon="4.59803">
        <ele>587</ele>
        <time>2012-01-14T10:07:52Z</time>
      </trkpt>
      <trkpt lat="45.66538" lon="4.59794">
        <ele>588</ele>
        <time>2012-01-14T10:07:58Z</time>
      </trkpt>
      <trkpt lat="45.66538" lon="4.59789">
        <ele>589</ele>
        <time>2012-01-14T10:08:04Z</time>
      </trkpt>
      <trkpt lat="45.66539" lon="4.59777">
        <ele>590</ele>
        <time>2012-01-14T10:08:09Z</time>
      </trkpt>
      <trkpt lat="45.6654" lon="4.59774">
        <ele>590</ele>
        <time>2012-01-14T10:08:11Z</time>
      </trkpt>
      <trkpt lat="45.66541" lon="4.59764">
        <ele>591</ele>
        <time>2012-01-14T10:08:18Z</time>
      </trkpt>
      <trkpt lat="45.66541" lon="4.59762">
        <ele>591</ele>
        <time>2012-01-14T10:08:27Z</time>
      </trkpt>
      <trkpt lat="45.66541" lon="4.59762">
        <ele>591</ele>
        <time>2012-01-14T10:08:44Z</time>
      </trkpt>
      <trkpt lat="45.66541" lon="4.59762">
        <ele>591</ele>
        <time>2012-01-14T10:08:58Z</time>
      </trkpt>
      <trkpt lat="45.66541" lon="4.5976">
        <ele>591</ele>
        <time>2012-01-14T10:09:02Z</time>
      </trkpt>
      <trkpt lat="45.6654" lon="4.59748">
        <ele>591</ele>
        <time>2012-01-14T10:09:07Z</time>
      </trkpt>
      <trkpt lat="45.66535" lon="4.59725">
        <ele>590</ele>
        <time>2012-01-14T10:09:13Z</time>
      </trkpt>
      <trkpt lat="45.66532" lon="4.59715">
        <ele>590</ele>
        <time>2012-01-14T10:09:16Z</time>
      </trkpt>
      <trkpt lat="45.66524" lon="4.59693">
        <ele>589</ele>
        <time>2012-01-14T10:09:24Z</time>
      </trkpt>
      <trkpt lat="45.66519" lon="4.59679">
        <ele>590</ele>
        <time>2012-01-14T10:09:30Z</time>
      </trkpt>
      <trkpt lat="45.66502" lon="4.59653">
        <ele>589</ele>
        <time>2012-01-14T10:09:39Z</time>
      </trkpt>
      <trkpt lat="45.66484" lon="4.59639">
        <ele>589</ele>
        <time>2012-01-14T10:09:46Z</time>
      </trkpt>
      <trkpt lat="45.66465" lon="4.59628">
        <ele>589</ele>
        <time>2012-01-14T10:09:53Z</time>
      </trkpt>
      <trkpt lat="45.66453" lon="4.59615">
        <ele>589</ele>
        <time>2012-01-14T10:10:00Z</time>
      </trkpt>
      <trkpt lat="45.66439" lon="4.59596">
        <ele>589</ele>
        <time>2012-01-14T10:10:06Z</time>
      </trkpt>
      <trkpt lat="45.66423" lon="4.59576">
        <ele>590</ele>
        <time>2012-01-14T10:10:13Z</time>
      </trkpt>
      <trkpt lat="45.6641" lon="4.59558">
        <ele>591</ele>
        <time>2012-01-14T10:10:20Z</time>
      </trkpt>
      <trkpt lat="45.66395" lon="4.5954">
        <ele>593</ele>
        <time>2012-01-14T10:10:28Z</time>
      </trkpt>
      <trkpt lat="45.66383" lon="4.59533">
        <ele>592</ele>
        <time>2012-01-14T10:10:34Z</time>
      </trkpt>
      <trkpt lat="45.66367" lon="4.59529">
        <ele>592</ele>
        <time>2012-01-14T10:10:40Z</time>
      </trkpt>
      <trkpt lat="45.66361" lon="4.59525">
        <ele>593</ele>
        <time>2012-01-14T10:10:43Z</time>
      </trkpt>
      <trkpt lat="45.66357" lon="4.59512">
        <ele>593</ele>
        <time>2012-01-14T10:10:48Z</time>
      </trkpt>
      <trkpt lat="45.66355" lon="4.59491">
        <ele>594</ele>
        <time>2012-01-14T10:10:55Z</time>
      </trkpt>
      <trkpt lat="45.66352" lon="4.59481">
        <ele>595</ele>
        <time>2012-01-14T10:11:00Z</time>
      </trkpt>
      <trkpt lat="45.66348" lon="4.59473">
        <ele>596</ele>
        <time>2012-01-14T10:11:06Z</time>
      </trkpt>
      <trkpt lat="45.66339" lon="4.59462">
        <ele>597</ele>
        <time>2012-01-14T10:11:13Z</time>
      </trkpt>
      <trkpt lat="45.66335" lon="4.59455">
        <ele>597</ele>
        <time>2012-01-14T10:11:18Z</time>
      </trkpt>
      <trkpt lat="45.66332" lon="4.59451">
        <ele>598</ele>
        <time>2012-01-14T10:11:21Z</time>
      </trkpt>
      <trkpt lat="45.66329" lon="4.59448">
        <ele>599</ele>
        <time>2012-01-14T10:11:24Z</time>
      </trkpt>
      <trkpt lat="45.66321" lon="4.59434">
        <ele>600</ele>
        <time>2012-01-14T10:11:30Z</time>
      </trkpt>
      <trkpt lat="45.66315" lon="4.59421">
        <ele>601</ele>
        <time>2012-01-14T10:11:37Z</time>
      </trkpt>
      <trkpt lat="45.66308" lon="4.59412">
        <ele>602</ele>
        <time>2012-01-14T10:11:44Z</time>
      </trkpt>
      <trkpt lat="45.663" lon="4.594">
        <ele>603</ele>
        <time>2012-01-14T10:11:52Z</time>
      </trkpt>
      <trkpt lat="45.66295" lon="4.5939">
        <ele>605</ele>
        <time>2012-01-14T10:11:59Z</time>
      </trkpt>
      <trkpt lat="45.6629" lon="4.59379">
        <ele>606</ele>
        <time>2012-01-14T10:12:06Z</time>
      </trkpt>
      <trkpt lat="45.66278" lon="4.59371">
        <ele>608</ele>
        <time>2012-01-14T10:12:16Z</time>
      </trkpt>
      <trkpt lat="45.66274" lon="4.59371">
        <ele>610</ele>
        <time>2012-01-14T10:12:19Z</time>
      </trkpt>
      <trkpt lat="45.66265" lon="4.59375">
        <ele>612</ele>
        <time>2012-01-14T10:12:27Z</time>
      </trkpt>
      <trkpt lat="45.66263" lon="4.59377">
        <ele>612</ele>
        <time>2012-01-14T10:12:33Z</time>
      </trkpt>
      <trkpt lat="45.66259" lon="4.59377">
        <ele>612</ele>
        <time>2012-01-14T10:12:43Z</time>
      </trkpt>
      <trkpt lat="45.66253" lon="4.59376">
        <ele>614</ele>
        <time>2012-01-14T10:12:51Z</time>
      </trkpt>
      <trkpt lat="45.66251" lon="4.59376">
        <ele>614</ele>
        <time>2012-01-14T10:12:58Z</time>
      </trkpt>
      <trkpt lat="45.66251" lon="4.59376">
        <ele>615</ele>
        <time>2012-01-14T10:12:59Z</time>
      </trkpt>
      <trkpt lat="45.66244" lon="4.59374">
        <ele>616</ele>
        <time>2012-01-14T10:13:04Z</time>
      </trkpt>
      <trkpt lat="45.66231" lon="4.5937">
        <ele>618</ele>
        <time>2012-01-14T10:13:14Z</time>
      </trkpt>
      <trkpt lat="45.66224" lon="4.59363">
        <ele>618</ele>
        <time>2012-01-14T10:13:22Z</time>
      </trkpt>
      <trkpt lat="45.66218" lon="4.59359">
        <ele>619</ele>
        <time>2012-01-14T10:13:29Z</time>
      </trkpt>
      <trkpt lat="45.66213" lon="4.59348">
        <ele>618</ele>
        <time>2012-01-14T10:13:35Z</time>
      </trkpt>
      <trkpt lat="45.66205" lon="4.59332">
        <ele>618</ele>
        <time>2012-01-14T10:13:41Z</time>
      </trkpt>
      <trkpt lat="45.66202" lon="4.59325">
        <ele>618</ele>
        <time>2012-01-14T10:13:45Z</time>
      </trkpt>
      <trkpt lat="45.66196" lon="4.59318">
        <ele>619</ele>
        <time>2012-01-14T10:13:49Z</time>
      </trkpt>
      <trkpt lat="45.66182" lon="4.59304">
        <ele>619</ele>
        <time>2012-01-14T10:13:57Z</time>
      </trkpt>
      <trkpt lat="45.66166" lon="4.59289">
        <ele>620</ele>
        <time>2012-01-14T10:14:06Z</time>
      </trkpt>
      <trkpt lat="45.66154" lon="4.59281">
        <ele>620</ele>
        <time>2012-01-14T10:14:12Z</time>
      </trkpt>
      <trkpt lat="45.66139" lon="4.59272">
        <ele>621</ele>
        <time>2012-01-14T10:14:19Z</time>
      </trkpt>
      <trkpt lat="45.6612" lon="4.59264">
        <ele>622</ele>
        <time>2012-01-14T10:14:27Z</time>
      </trkpt>
      <trkpt lat="45.66103" lon="4.59258">
        <ele>622</ele>
        <time>2012-01-14T10:14:35Z</time>
      </trkpt>
      <trkpt lat="45.66092" lon="4.59252">
        <ele>621</ele>
        <time>2012-01-14T10:14:41Z</time>
      </trkpt>
      <trkpt lat="45.6608" lon="4.59245">
        <ele>620</ele>
        <time>2012-01-14T10:14:44Z</time>
      </trkpt>
      <trkpt lat="45.66046" lon="4.59228">
        <ele>618</ele>
        <time>2012-01-14T10:14:50Z</time>
      </trkpt>
      <trkpt lat="45.66022" lon="4.59212">
        <ele>614</ele>
        <time>2012-01-14T10:14:54Z</time>
      </trkpt>
      <trkpt lat="45.66009" lon="4.59203">
        <ele>613</ele>
        <time>2012-01-14T10:14:57Z</time>
      </trkpt>
      <trkpt lat="45.65997" lon="4.59196">
        <ele>613</ele>
        <time>2012-01-14T10:15:02Z</time>
      </trkpt>
      <trkpt lat="45.65995" lon="4.59194">
        <ele>613</ele>
        <time>2012-01-14T10:15:03Z</time>
      </trkpt>
      <trkpt lat="45.65992" lon="4.59194">
        <ele>613</ele>
        <time>2012-01-14T10:15:04Z</time>
      </trkpt>
      <trkpt lat="45.6599" lon="4.59194">
        <ele>613</ele>
        <time>2012-01-14T10:15:05Z</time>
      </trkpt>
      <trkpt lat="45.65988" lon="4.59195">
        <ele>613</ele>
        <time>2012-01-14T10:15:06Z</time>
      </trkpt>
      <trkpt lat="45.65987" lon="4.59196">
        <ele>614</ele>
        <time>2012-01-14T10:15:07Z</time>
      </trkpt>
      <trkpt lat="45.65986" lon="4.59198">
        <ele>613</ele>
        <time>2012-01-14T10:15:08Z</time>
      </trkpt>
      <trkpt lat="45.65986" lon="4.59199">
        <ele>614</ele>
        <time>2012-01-14T10:15:09Z</time>
      </trkpt>
      <trkpt lat="45.65985" lon="4.59201">
        <ele>615</ele>
        <time>2012-01-14T10:15:10Z</time>
      </trkpt>
      <trkpt lat="45.65984" lon="4.59203">
        <ele>614</ele>
        <time>2012-01-14T10:15:11Z</time>
      </trkpt>
      <trkpt lat="45.65983" lon="4.59204">
        <ele>615</ele>
        <time>2012-01-14T10:15:12Z</time>
      </trkpt>
      <trkpt lat="45.65982" lon="4.59205">
        <ele>614</ele>
        <time>2012-01-14T10:15:13Z</time>
      </trkpt>
      <trkpt lat="45.65981" lon="4.59206">
        <ele>615</ele>
        <time>2012-01-14T10:15:14Z</time>
      </trkpt>
      <trkpt lat="45.6598" lon="4.59208">
        <ele>616</ele>
        <time>2012-01-14T10:15:15Z</time>
      </trkpt>
      <trkpt lat="45.65979" lon="4.5921">
        <ele>616</ele>
        <time>2012-01-14T10:15:16Z</time>
      </trkpt>
      <trkpt lat="45.65979" lon="4.59211">
        <ele>616</ele>
        <time>2012-01-14T10:15:17Z</time>
      </trkpt>
      <trkpt lat="45.65979" lon="4.59213">
        <ele>616</ele>
        <time>2012-01-14T10:15:18Z</time>
      </trkpt>
      <trkpt lat="45.65978" lon="4.59215">
        <ele>616</ele>
        <time>2012-01-14T10:15:19Z</time>
      </trkpt>
      <trkpt lat="45.65971" lon="4.59229">
        <ele>619</ele>
        <time>2012-01-14T10:15:28Z</time>
      </trkpt>
      <trkpt lat="45.65965" lon="4.59241">
        <ele>620</ele>
        <time>2012-01-14T10:15:36Z</time>
      </trkpt>
      <trkpt lat="45.65957" lon="4.59254">
        <ele>623</ele>
        <time>2012-01-14T10:15:45Z</time>
      </trkpt>
      <trkpt lat="45.65949" lon="4.5927">
        <ele>625</ele>
        <time>2012-01-14T10:15:55Z</time>
      </trkpt>
      <trkpt lat="45.65941" lon="4.59285">
        <ele>627</ele>
        <time>2012-01-14T10:16:05Z</time>
      </trkpt>
      <trkpt lat="45.65939" lon="4.59288">
        <ele>627</ele>
        <time>2012-01-14T10:16:07Z</time>
      </trkpt>
      <trkpt lat="45.65938" lon="4.5929">
        <ele>628</ele>
        <time>2012-01-14T10:16:08Z</time>
      </trkpt>
      <trkpt lat="45.65937" lon="4.59292">
        <ele>628</ele>
        <time>2012-01-14T10:16:09Z</time>
      </trkpt>
      <trkpt lat="45.65936" lon="4.59293">
        <ele>627</ele>
        <time>2012-01-14T10:16:10Z</time>
      </trkpt>
      <trkpt lat="45.65936" lon="4.59295">
        <ele>628</ele>
        <time>2012-01-14T10:16:11Z</time>
      </trkpt>
      <trkpt lat="45.65935" lon="4.59297">
        <ele>628</ele>
        <time>2012-01-14T10:16:12Z</time>
      </trkpt>
      <trkpt lat="45.65935" lon="4.59299">
        <ele>628</ele>
        <time>2012-01-14T10:16:13Z</time>
      </trkpt>
      <trkpt lat="45.65925" lon="4.59313">
        <ele>630</ele>
        <time>2012-01-14T10:16:23Z</time>
      </trkpt>
      <trkpt lat="45.6592" lon="4.59319">
        <ele>630</ele>
        <time>2012-01-14T10:16:28Z</time>
      </trkpt>
      <trkpt lat="45.65919" lon="4.59321">
        <ele>630</ele>
        <time>2012-01-14T10:16:29Z</time>
      </trkpt>
      <trkpt lat="45.65918" lon="4.59322">
        <ele>630</ele>
        <time>2012-01-14T10:16:30Z</time>
      </trkpt>
      <trkpt lat="45.65917" lon="4.59324">
        <ele>630</ele>
        <time>2012-01-14T10:16:31Z</time>
      </trkpt>
      <trkpt lat="45.65917" lon="4.59325">
        <ele>631</ele>
        <time>2012-01-14T10:16:32Z</time>
      </trkpt>
      <trkpt lat="45.65916" lon="4.59327">
        <ele>631</ele>
        <time>2012-01-14T10:16:33Z</time>
      </trkpt>
      <trkpt lat="45.65915" lon="4.59328">
        <ele>631</ele>
        <time>2012-01-14T10:16:34Z</time>
      </trkpt>
      <trkpt lat="45.65914" lon="4.5933">
        <ele>631</ele>
        <time>2012-01-14T10:16:35Z</time>
      </trkpt>
      <trkpt lat="45.65913" lon="4.59331">
        <ele>631</ele>
        <time>2012-01-14T10:16:36Z</time>
      </trkpt>
      <trkpt lat="45.65901" lon="4.59348">
        <ele>632</ele>
        <time>2012-01-14T10:16:47Z</time>
      </trkpt>
      <trkpt lat="45.65892" lon="4.5936">
        <ele>633</ele>
        <time>2012-01-14T10:16:55Z</time>
      </trkpt>
      <trkpt lat="45.65878" lon="4.59378">
        <ele>636</ele>
        <time>2012-01-14T10:17:07Z</time>
      </trkpt>
      <trkpt lat="45.65869" lon="4.59392">
        <ele>637</ele>
        <time>2012-01-14T10:17:16Z</time>
      </trkpt>
      <trkpt lat="45.6586" lon="4.59405">
        <ele>638</ele>
        <time>2012-01-14T10:17:25Z</time>
      </trkpt>
      <trkpt lat="45.6585" lon="4.5942">
        <ele>639</ele>
        <time>2012-01-14T10:17:34Z</time>
      </trkpt>
      <trkpt lat="45.65839" lon="4.59433">
        <ele>640</ele>
        <time>2012-01-14T10:17:43Z</time>
      </trkpt>
      <trkpt lat="45.65828" lon="4.59443">
        <ele>641</ele>
        <time>2012-01-14T10:17:52Z</time>
      </trkpt>
      <trkpt lat="45.6582" lon="4.5945">
        <ele>642</ele>
        <time>2012-01-14T10:18:00Z</time>
      </trkpt>
      <trkpt lat="45.65811" lon="4.59461">
        <ele>644</ele>
        <time>2012-01-14T10:18:08Z</time>
      </trkpt>
      <trkpt lat="45.65803" lon="4.59473">
        <ele>646</ele>
        <time>2012-01-14T10:18:17Z</time>
      </trkpt>
      <trkpt lat="45.65793" lon="4.59486">
        <ele>648</ele>
        <time>2012-01-14T10:18:28Z</time>
      </trkpt>
      <trkpt lat="45.65781" lon="4.59499">
        <ele>650</ele>
        <time>2012-01-14T10:18:39Z</time>
      </trkpt>
      <trkpt lat="45.65768" lon="4.59509">
        <ele>652</ele>
        <time>2012-01-14T10:18:49Z</time>
      </trkpt>
      <trkpt lat="45.65757" lon="4.59517">
        <ele>654</ele>
        <time>2012-01-14T10:18:58Z</time>
      </trkpt>
      <trkpt lat="45.65744" lon="4.59526">
        <ele>655</ele>
        <time>2012-01-14T10:19:08Z</time>
      </trkpt>
      <trkpt lat="45.65732" lon="4.5954">
        <ele>656</ele>
        <time>2012-01-14T10:19:19Z</time>
      </trkpt>
      <trkpt lat="45.65723" lon="4.5955">
        <ele>658</ele>
        <time>2012-01-14T10:19:27Z</time>
      </trkpt>
      <trkpt lat="45.6572" lon="4.59565">
        <ele>659</ele>
        <time>2012-01-14T10:19:35Z</time>
      </trkpt>
      <trkpt lat="45.65714" lon="4.59584">
        <ele>661</ele>
        <time>2012-01-14T10:19:45Z</time>
      </trkpt>
      <trkpt lat="45.65708" lon="4.59606">
        <ele>662</ele>
        <time>2012-01-14T10:19:56Z</time>
      </trkpt>
      <trkpt lat="45.65707" lon="4.59609">
        <ele>663</ele>
        <time>2012-01-14T10:20:01Z</time>
      </trkpt>
      <trkpt lat="45.65708" lon="4.59609">
        <ele>662</ele>
        <time>2012-01-14T10:20:07Z</time>
      </trkpt>
      <trkpt lat="45.65707" lon="4.59608">
        <ele>663</ele>
        <time>2012-01-14T10:20:18Z</time>
      </trkpt>
      <trkpt lat="45.65707" lon="4.59608">
        <ele>663</ele>
        <time>2012-01-14T10:20:30Z</time>
      </trkpt>
      <trkpt lat="45.65707" lon="4.59608">
        <ele>662</ele>
        <time>2012-01-14T10:20:50Z</time>
      </trkpt>
      <trkpt lat="45.65707" lon="4.59608">
        <ele>662</ele>
        <time>2012-01-14T10:21:09Z</time>
      </trkpt>
      <trkpt lat="45.65707" lon="4.59608">
        <ele>662</ele>
        <time>2012-01-14T10:21:27Z</time>
      </trkpt>
      <trkpt lat="45.65707" lon="4.59608">
        <ele>662</ele>
        <time>2012-01-14T10:21:48Z</time>
      </trkpt>
      <trkpt lat="45.65707" lon="4.59608">
        <ele>662</ele>
        <time>2012-01-14T10:22:12Z</time>
      </trkpt>
      <trkpt lat="45.65708" lon="4.59608">
        <ele>663</ele>
        <time>2012-01-14T10:22:27Z</time>
      </trkpt>
      <trkpt lat="45.65708" lon="4.59608">
        <ele>663</ele>
        <time>2012-01-14T10:22:41Z</time>
      </trkpt>
      <trkpt lat="45.65707" lon="4.5961">
        <ele>663</ele>
        <time>2012-01-14T10:22:49Z</time>
      </trkpt>
      <trkpt lat="45.65704" lon="4.5963">
        <ele>662</ele>
        <time>2012-01-14T10:22:55Z</time>
      </trkpt>
      <trkpt lat="45.65703" lon="4.59655">
        <ele>662</ele>
        <time>2012-01-14T10:23:01Z</time>
      </trkpt>
      <trkpt lat="45.65706" lon="4.5968">
        <ele>659</ele>
        <time>2012-01-14T10:23:06Z</time>
      </trkpt>
      <trkpt lat="45.65711" lon="4.59699">
        <ele>658</ele>
        <time>2012-01-14T10:23:08Z</time>
      </trkpt>
      <trkpt lat="45.65715" lon="4.5972">
        <ele>656</ele>
        <time>2012-01-14T10:23:10Z</time>
      </trkpt>
      <trkpt lat="45.6572" lon="4.59754">
        <ele>653</ele>
        <time>2012-01-14T10:23:13Z</time>
      </trkpt>
      <trkpt lat="45.65722" lon="4.59766">
        <ele>652</ele>
        <time>2012-01-14T10:23:14Z</time>
      </trkpt>
      <trkpt lat="45.65725" lon="4.59778">
        <ele>650</ele>
        <time>2012-01-14T10:23:15Z</time>
      </trkpt>
      <trkpt lat="45.65728" lon="4.5979">
        <ele>649</ele>
        <time>2012-01-14T10:23:16Z</time>
      </trkpt>
      <trkpt lat="45.65732" lon="4.59803">
        <ele>649</ele>
        <time>2012-01-14T10:23:17Z</time>
      </trkpt>
      <trkpt lat="45.6574" lon="4.59825">
        <ele>648</ele>
        <time>2012-01-14T10:23:19Z</time>
      </trkpt>
      <trkpt lat="45.65757" lon="4.59875">
        <ele>646</ele>
        <time>2012-01-14T10:23:24Z</time>
      </trkpt>
      <trkpt lat="45.65759" lon="4.59893">
        <ele>645</ele>
        <time>2012-01-14T10:23:26Z</time>
      </trkpt>
      <trkpt lat="45.6576" lon="4.59903">
        <ele>644</ele>
        <time>2012-01-14T10:23:27Z</time>
      </trkpt>
      <trkpt lat="45.65759" lon="4.59912">
        <ele>643</ele>
        <time>2012-01-14T10:23:28Z</time>
      </trkpt>
      <trkpt lat="45.65757" lon="4.59935">
        <ele>641</ele>
        <time>2012-01-14T10:23:30Z</time>
      </trkpt>
      <trkpt lat="45.65758" lon="4.59956">
        <ele>638</ele>
        <time>2012-01-14T10:23:32Z</time>
      </trkpt>
      <trkpt lat="45.65761" lon="4.59966">
        <ele>638</ele>
        <time>2012-01-14T10:23:33Z</time>
      </trkpt>
      <trkpt lat="45.65774" lon="4.59999">
        <ele>636</ele>
        <time>2012-01-14T10:23:37Z</time>
      </trkpt>
      <trkpt lat="45.65791" lon="4.60049">
        <ele>634</ele>
        <time>2012-01-14T10:23:44Z</time>
      </trkpt>
      <trkpt lat="45.65801" lon="4.60079">
        <ele>634</ele>
        <time>2012-01-14T10:23:50Z</time>
      </trkpt>
      <trkpt lat="45.65811" lon="4.60111">
        <ele>636</ele>
        <time>2012-01-14T10:23:58Z</time>
      </trkpt>
      <trkpt lat="45.6582" lon="4.60136">
        <ele>637</ele>
        <time>2012-01-14T10:24:06Z</time>
      </trkpt>
      <trkpt lat="45.65827" lon="4.60171">
        <ele>636</ele>
        <time>2012-01-14T10:24:13Z</time>
      </trkpt>
      <trkpt lat="45.65832" lon="4.60206">
        <ele>635</ele>
        <time>2012-01-14T10:24:20Z</time>
      </trkpt>
      <trkpt lat="45.65834" lon="4.60236">
        <ele>636</ele>
        <time>2012-01-14T10:24:27Z</time>
      </trkpt>
      <trkpt lat="45.65835" lon="4.60256">
        <ele>636</ele>
        <time>2012-01-14T10:24:31Z</time>
      </trkpt>
      <trkpt lat="45.65837" lon="4.60261">
        <ele>635</ele>
        <time>2012-01-14T10:24:32Z</time>
      </trkpt>
      <trkpt lat="45.65839" lon="4.60266">
        <ele>636</ele>
        <time>2012-01-14T10:24:33Z</time>
      </trkpt>
      <trkpt lat="45.65845" lon="4.60299">
        <ele>635</ele>
        <time>2012-01-14T10:24:39Z</time>
      </trkpt>
      <trkpt lat="45.65845" lon="4.60305">
        <ele>635</ele>
        <time>2012-01-14T10:24:40Z</time>
      </trkpt>
      <trkpt lat="45.65852" lon="4.60352">
        <ele>634</ele>
        <time>2012-01-14T10:24:47Z</time>
      </trkpt>
      <trkpt lat="45.65862" lon="4.60395">
        <ele>633</ele>
        <time>2012-01-14T10:24:54Z</time>
      </trkpt>
      <trkpt lat="45.65866" lon="4.60413">
        <ele>633</ele>
        <time>2012-01-14T10:24:57Z</time>
      </trkpt>
      <trkpt lat="45.65885" lon="4.60461">
        <ele>633</ele>
        <time>2012-01-14T10:25:06Z</time>
      </trkpt>
      <trkpt lat="45.65906" lon="4.6052">
        <ele>633</ele>
        <time>2012-01-14T10:25:17Z</time>
      </trkpt>
      <trkpt lat="45.65916" lon="4.60554">
        <ele>634</ele>
        <time>2012-01-14T10:25:24Z</time>
      </trkpt>
      <trkpt lat="45.65924" lon="4.60577">
        <ele>635</ele>
        <time>2012-01-14T10:25:29Z</time>
      </trkpt>
      <trkpt lat="45.65934" lon="4.60608">
        <ele>635</ele>
        <time>2012-01-14T10:25:36Z</time>
      </trkpt>
      <trkpt lat="45.65943" lon="4.60629">
        <ele>635</ele>
        <time>2012-01-14T10:25:41Z</time>
      </trkpt>
      <trkpt lat="45.65957" lon="4.60664">
        <ele>636</ele>
        <time>2012-01-14T10:25:49Z</time>
      </trkpt>
      <trkpt lat="45.65967" lon="4.60706">
        <ele>637</ele>
        <time>2012-01-14T10:25:58Z</time>
      </trkpt>
      <trkpt lat="45.65979" lon="4.60749">
        <ele>637</ele>
        <time>2012-01-14T10:26:08Z</time>
      </trkpt>
      <trkpt lat="45.65993" lon="4.6078">
        <ele>639</ele>
        <time>2012-01-14T10:26:17Z</time>
      </trkpt>
      <trkpt lat="45.66008" lon="4.60802">
        <ele>639</ele>
        <time>2012-01-14T10:26:24Z</time>
      </trkpt>
      <trkpt lat="45.6603" lon="4.60838">
        <ele>639</ele>
        <time>2012-01-14T10:26:34Z</time>
      </trkpt>
      <trkpt lat="45.66044" lon="4.60871">
        <ele>640</ele>
        <time>2012-01-14T10:26:42Z</time>
      </trkpt>
      <trkpt lat="45.66058" lon="4.60898">
        <ele>640</ele>
        <time>2012-01-14T10:26:49Z</time>
      </trkpt>
      <trkpt lat="45.66076" lon="4.60922">
        <ele>639</ele>
        <time>2012-01-14T10:26:57Z</time>
      </trkpt>
      <trkpt lat="45.66092" lon="4.60944">
        <ele>639</ele>
        <time>2012-01-14T10:27:04Z</time>
      </trkpt>
      <trkpt lat="45.66097" lon="4.60952">
        <ele>639</ele>
        <time>2012-01-14T10:27:06Z</time>
      </trkpt>
      <trkpt lat="45.66109" lon="4.60975">
        <ele>637</ele>
        <time>2012-01-14T10:27:10Z</time>
      </trkpt>
      <trkpt lat="45.66117" lon="4.60998">
        <ele>636</ele>
        <time>2012-01-14T10:27:13Z</time>
      </trkpt>
      <trkpt lat="45.66133" lon="4.61062">
        <ele>635</ele>
        <time>2012-01-14T10:27:22Z</time>
      </trkpt>
      <trkpt lat="45.66144" lon="4.61134">
        <ele>634</ele>
        <time>2012-01-14T10:27:33Z</time>
      </trkpt>
      <trkpt lat="45.66149" lon="4.61162">
        <ele>633</ele>
        <time>2012-01-14T10:27:38Z</time>
      </trkpt>
      <trkpt lat="45.66155" lon="4.61171">
        <ele>633</ele>
        <time>2012-01-14T10:27:40Z</time>
      </trkpt>
      <trkpt lat="45.66182" lon="4.61199">
        <ele>630</ele>
        <time>2012-01-14T10:27:45Z</time>
      </trkpt>
      <trkpt lat="45.66194" lon="4.61211">
        <ele>629</ele>
        <time>2012-01-14T10:27:47Z</time>
      </trkpt>
      <trkpt lat="45.66199" lon="4.61217">
        <ele>629</ele>
        <time>2012-01-14T10:27:48Z</time>
      </trkpt>
      <trkpt lat="45.66214" lon="4.61235">
        <ele>627</ele>
        <time>2012-01-14T10:27:51Z</time>
      </trkpt>
      <trkpt lat="45.6623" lon="4.61255">
        <ele>624</ele>
        <time>2012-01-14T10:27:54Z</time>
      </trkpt>
      <trkpt lat="45.66234" lon="4.61264">
        <ele>623</ele>
        <time>2012-01-14T10:27:55Z</time>
      </trkpt>
      <trkpt lat="45.66239" lon="4.61273">
        <ele>623</ele>
        <time>2012-01-14T10:27:56Z</time>
      </trkpt>
      <trkpt lat="45.6625" lon="4.61289">
        <ele>621</ele>
        <time>2012-01-14T10:27:58Z</time>
      </trkpt>
      <trkpt lat="45.66257" lon="4.61295">
        <ele>622</ele>
        <time>2012-01-14T10:27:59Z</time>
      </trkpt>
      <trkpt lat="45.66265" lon="4.61301">
        <ele>620</ele>
        <time>2012-01-14T10:28:00Z</time>
      </trkpt>
      <trkpt lat="45.66287" lon="4.61312">
        <ele>617</ele>
        <time>2012-01-14T10:28:03Z</time>
      </trkpt>
      <trkpt lat="45.66294" lon="4.61315">
        <ele>617</ele>
        <time>2012-01-14T10:28:04Z</time>
      </trkpt>
      <trkpt lat="45.66319" lon="4.61324">
        <ele>614</ele>
        <time>2012-01-14T10:28:07Z</time>
      </trkpt>
      <trkpt lat="45.66347" lon="4.61331">
        <ele>611</ele>
        <time>2012-01-14T10:28:10Z</time>
      </trkpt>
      <trkpt lat="45.66355" lon="4.61335">
        <ele>610</ele>
        <time>2012-01-14T10:28:11Z</time>
      </trkpt>
      <trkpt lat="45.66362" lon="4.61339">
        <ele>609</ele>
        <time>2012-01-14T10:28:12Z</time>
      </trkpt>
      <trkpt lat="45.66374" lon="4.61349">
        <ele>607</ele>
        <time>2012-01-14T10:28:14Z</time>
      </trkpt>
      <trkpt lat="45.66379" lon="4.61355">
        <ele>606</ele>
        <time>2012-01-14T10:28:15Z</time>
      </trkpt>
      <trkpt lat="45.66385" lon="4.61362">
        <ele>604</ele>
        <time>2012-01-14T10:28:16Z</time>
      </trkpt>
      <trkpt lat="45.66389" lon="4.6137">
        <ele>604</ele>
        <time>2012-01-14T10:28:17Z</time>
      </trkpt>
      <trkpt lat="45.66394" lon="4.61378">
        <ele>603</ele>
        <time>2012-01-14T10:28:18Z</time>
      </trkpt>
      <trkpt lat="45.66398" lon="4.61387">
        <ele>602</ele>
        <time>2012-01-14T10:28:19Z</time>
      </trkpt>
      <trkpt lat="45.66401" lon="4.61396">
        <ele>601</ele>
        <time>2012-01-14T10:28:20Z</time>
      </trkpt>
      <trkpt lat="45.66413" lon="4.61438">
        <ele>597</ele>
        <time>2012-01-14T10:28:24Z</time>
      </trkpt>
      <trkpt lat="45.66428" lon="4.61472">
        <ele>593</ele>
        <time>2012-01-14T10:28:27Z</time>
      </trkpt>
      <trkpt lat="45.66434" lon="4.61481">
        <ele>591</ele>
        <time>2012-01-14T10:28:28Z</time>
      </trkpt>
      <trkpt lat="45.6644" lon="4.61491">
        <ele>590</ele>
        <time>2012-01-14T10:28:29Z</time>
      </trkpt>
      <trkpt lat="45.66444" lon="4.61502">
        <ele>589</ele>
        <time>2012-01-14T10:28:30Z</time>
      </trkpt>
      <trkpt lat="45.66447" lon="4.61513">
        <ele>587</ele>
        <time>2012-01-14T10:28:31Z</time>
      </trkpt>
      <trkpt lat="45.6645" lon="4.61526">
        <ele>587</ele>
        <time>2012-01-14T10:28:32Z</time>
      </trkpt>
      <trkpt lat="45.66453" lon="4.61537">
        <ele>585</ele>
        <time>2012-01-14T10:28:33Z</time>
      </trkpt>
      <trkpt lat="45.6646" lon="4.61558">
        <ele>582</ele>
        <time>2012-01-14T10:28:35Z</time>
      </trkpt>
      <trkpt lat="45.66462" lon="4.6157">
        <ele>580</ele>
        <time>2012-01-14T10:28:36Z</time>
      </trkpt>
      <trkpt lat="45.66465" lon="4.61583">
        <ele>578</ele>
        <time>2012-01-14T10:28:37Z</time>
      </trkpt>
      <trkpt lat="45.66468" lon="4.61596">
        <ele>577</ele>
        <time>2012-01-14T10:28:38Z</time>
      </trkpt>
      <trkpt lat="45.66471" lon="4.61607">
        <ele>576</ele>
        <time>2012-01-14T10:28:39Z</time>
      </trkpt>
      <trkpt lat="45.66473" lon="4.61619">
        <ele>574</ele>
        <time>2012-01-14T10:28:40Z</time>
      </trkpt>
      <trkpt lat="45.66478" lon="4.61641">
        <ele>571</ele>
        <time>2012-01-14T10:28:42Z</time>
      </trkpt>
      <trkpt lat="45.66482" lon="4.61648">
        <ele>568</ele>
        <time>2012-01-14T10:28:43Z</time>
      </trkpt>
      <trkpt lat="45.66492" lon="4.61664">
        <ele>565</ele>
        <time>2012-01-14T10:28:46Z</time>
      </trkpt>
      <trkpt lat="45.66496" lon="4.61672">
        <ele>564</ele>
        <time>2012-01-14T10:28:47Z</time>
      </trkpt>
      <trkpt lat="45.66498" lon="4.61681">
        <ele>563</ele>
        <time>2012-01-14T10:28:48Z</time>
      </trkpt>
      <trkpt lat="45.66502" lon="4.61698">
        <ele>561</ele>
        <time>2012-01-14T10:28:50Z</time>
      </trkpt>
      <trkpt lat="45.66503" lon="4.61706">
        <ele>561</ele>
        <time>2012-01-14T10:28:51Z</time>
      </trkpt>
      <trkpt lat="45.66505" lon="4.61724">
        <ele>559</ele>
        <time>2012-01-14T10:28:53Z</time>
      </trkpt>
      <trkpt lat="45.66502" lon="4.61733">
        <ele>559</ele>
        <time>2012-01-14T10:28:54Z</time>
      </trkpt>
      <trkpt lat="45.66495" lon="4.61749">
        <ele>559</ele>
        <time>2012-01-14T10:28:56Z</time>
      </trkpt>
      <trkpt lat="45.66495" lon="4.61758">
        <ele>559</ele>
        <time>2012-01-14T10:28:57Z</time>
      </trkpt>
      <trkpt lat="45.66495" lon="4.61766">
        <ele>558</ele>
        <time>2012-01-14T10:28:58Z</time>
      </trkpt>
      <trkpt lat="45.66494" lon="4.61782">
        <ele>557</ele>
        <time>2012-01-14T10:29:00Z</time>
      </trkpt>
      <trkpt lat="45.66494" lon="4.6179">
        <ele>557</ele>
        <time>2012-01-14T10:29:01Z</time>
      </trkpt>
      <trkpt lat="45.66494" lon="4.61798">
        <ele>556</ele>
        <time>2012-01-14T10:29:02Z</time>
      </trkpt>
      <trkpt lat="45.66494" lon="4.61805">
        <ele>556</ele>
        <time>2012-01-14T10:29:03Z</time>
      </trkpt>
      <trkpt lat="45.66494" lon="4.61834">
        <ele>555</ele>
        <time>2012-01-14T10:29:08Z</time>
      </trkpt>
      <trkpt lat="45.66496" lon="4.61838">
        <ele>553</ele>
        <time>2012-01-14T10:29:09Z</time>
      </trkpt>
      <trkpt lat="45.66498" lon="4.61843">
        <ele>554</ele>
        <time>2012-01-14T10:29:10Z</time>
      </trkpt>
      <trkpt lat="45.66499" lon="4.61849">
        <ele>553</ele>
        <time>2012-01-14T10:29:11Z</time>
      </trkpt>
      <trkpt lat="45.66499" lon="4.61856">
        <ele>552</ele>
        <time>2012-01-14T10:29:12Z</time>
      </trkpt>
      <trkpt lat="45.665" lon="4.61863">
        <ele>552</ele>
        <time>2012-01-14T10:29:13Z</time>
      </trkpt>
      <trkpt lat="45.665" lon="4.6187">
        <ele>552</ele>
        <time>2012-01-14T10:29:14Z</time>
      </trkpt>
      <trkpt lat="45.66501" lon="4.61884">
        <ele>550</ele>
        <time>2012-01-14T10:29:16Z</time>
      </trkpt>
      <trkpt lat="45.66506" lon="4.61904">
        <ele>550</ele>
        <time>2012-01-14T10:29:21Z</time>
      </trkpt>
      <trkpt lat="45.66512" lon="4.61929">
        <ele>548</ele>
        <time>2012-01-14T10:29:28Z</time>
      </trkpt>
      <trkpt lat="45.66515" lon="4.6194">
        <ele>548</ele>
        <time>2012-01-14T10:29:30Z</time>
      </trkpt>
      <trkpt lat="45.66517" lon="4.61946">
        <ele>547</ele>
        <time>2012-01-14T10:29:31Z</time>
      </trkpt>
      <trkpt lat="45.66521" lon="4.61961">
        <ele>546</ele>
        <time>2012-01-14T10:29:33Z</time>
      </trkpt>
      <trkpt lat="45.66535" lon="4.62013">
        <ele>544</ele>
        <time>2012-01-14T10:29:39Z</time>
      </trkpt>
      <trkpt lat="45.66556" lon="4.62087">
        <ele>543</ele>
        <time>2012-01-14T10:29:48Z</time>
      </trkpt>
      <trkpt lat="45.66559" lon="4.621">
        <ele>542</ele>
        <time>2012-01-14T10:29:50Z</time>
      </trkpt>
      <trkpt lat="45.66562" lon="4.62113">
        <ele>542</ele>
        <time>2012-01-14T10:29:52Z</time>
      </trkpt>
      <trkpt lat="45.66577" lon="4.62166">
        <ele>541</ele>
        <time>2012-01-14T10:30:01Z</time>
      </trkpt>
      <trkpt lat="45.6659" lon="4.62207">
        <ele>540</ele>
        <time>2012-01-14T10:30:09Z</time>
      </trkpt>
      <trkpt lat="45.66599" lon="4.62231">
        <ele>539</ele>
        <time>2012-01-14T10:30:13Z</time>
      </trkpt>
      <trkpt lat="45.66601" lon="4.62236">
        <ele>539</ele>
        <time>2012-01-14T10:30:14Z</time>
      </trkpt>
      <trkpt lat="45.66607" lon="4.62252">
        <ele>539</ele>
        <time>2012-01-14T10:30:17Z</time>
      </trkpt>
      <trkpt lat="45.66617" lon="4.62276">
        <ele>538</ele>
        <time>2012-01-14T10:30:23Z</time>
      </trkpt>
      <trkpt lat="45.66619" lon="4.62277">
        <ele>538</ele>
        <time>2012-01-14T10:30:24Z</time>
      </trkpt>
      <trkpt lat="45.66621" lon="4.62279">
        <ele>538</ele>
        <time>2012-01-14T10:30:25Z</time>
      </trkpt>
      <trkpt lat="45.66621" lon="4.6228">
        <ele>538</ele>
        <time>2012-01-14T10:30:26Z</time>
      </trkpt>
      <trkpt lat="45.66621" lon="4.62281">
        <ele>538</ele>
        <time>2012-01-14T10:30:31Z</time>
      </trkpt>
      <trkpt lat="45.66621" lon="4.62281">
        <ele>537</ele>
        <time>2012-01-14T10:30:48Z</time>
      </trkpt>
      <trkpt lat="45.66622" lon="4.62281">
        <ele>537</ele>
        <time>2012-01-14T10:31:02Z</time>
      </trkpt>
      <trkpt lat="45.66623" lon="4.62282">
        <ele>537</ele>
        <time>2012-01-14T10:31:03Z</time>
      </trkpt>
      <trkpt lat="45.66625" lon="4.62283">
        <ele>538</ele>
        <time>2012-01-14T10:31:04Z</time>
      </trkpt>
      <trkpt lat="45.66626" lon="4.62285">
        <ele>538</ele>
        <time>2012-01-14T10:31:05Z</time>
      </trkpt>
      <trkpt lat="45.66626" lon="4.62287">
        <ele>537</ele>
        <time>2012-01-14T10:31:06Z</time>
      </trkpt>
      <trkpt lat="45.66626" lon="4.62289">
        <ele>537</ele>
        <time>2012-01-14T10:31:07Z</time>
      </trkpt>
      <trkpt lat="45.66627" lon="4.62292">
        <ele>537</ele>
        <time>2012-01-14T10:31:08Z</time>
      </trkpt>
      <trkpt lat="45.66632" lon="4.6231">
        <ele>537</ele>
        <time>2012-01-14T10:31:13Z</time>
      </trkpt>
      <trkpt lat="45.66647" lon="4.62332">
        <ele>536</ele>
        <time>2012-01-14T10:31:19Z</time>
      </trkpt>
      <trkpt lat="45.6665" lon="4.62334">
        <ele>536</ele>
        <time>2012-01-14T10:31:20Z</time>
      </trkpt>
      <trkpt lat="45.66673" lon="4.62352">
        <ele>533</ele>
        <time>2012-01-14T10:31:25Z</time>
      </trkpt>
      <trkpt lat="45.66678" lon="4.62357">
        <ele>533</ele>
        <time>2012-01-14T10:31:26Z</time>
      </trkpt>
      <trkpt lat="45.66684" lon="4.62361">
        <ele>532</ele>
        <time>2012-01-14T10:31:27Z</time>
      </trkpt>
      <trkpt lat="45.6669" lon="4.62367">
        <ele>531</ele>
        <time>2012-01-14T10:31:28Z</time>
      </trkpt>
      <trkpt lat="45.66695" lon="4.62374">
        <ele>530</ele>
        <time>2012-01-14T10:31:29Z</time>
      </trkpt>
      <trkpt lat="45.667" lon="4.62383">
        <ele>529</ele>
        <time>2012-01-14T10:31:30Z</time>
      </trkpt>
      <trkpt lat="45.66704" lon="4.62391">
        <ele>529</ele>
        <time>2012-01-14T10:31:31Z</time>
      </trkpt>
      <trkpt lat="45.66708" lon="4.624">
        <ele>528</ele>
        <time>2012-01-14T10:31:32Z</time>
      </trkpt>
      <trkpt lat="45.66715" lon="4.62417">
        <ele>528</ele>
        <time>2012-01-14T10:31:34Z</time>
      </trkpt>
      <trkpt lat="45.6672" lon="4.62433">
        <ele>527</ele>
        <time>2012-01-14T10:31:36Z</time>
      </trkpt>
      <trkpt lat="45.66723" lon="4.62441">
        <ele>527</ele>
        <time>2012-01-14T10:31:37Z</time>
      </trkpt>
      <trkpt lat="45.66725" lon="4.62448">
        <ele>527</ele>
        <time>2012-01-14T10:31:38Z</time>
      </trkpt>
      <trkpt lat="45.66733" lon="4.62487">
        <ele>527</ele>
        <time>2012-01-14T10:31:43Z</time>
      </trkpt>
      <trkpt lat="45.66744" lon="4.6252">
        <ele>527</ele>
        <time>2012-01-14T10:31:48Z</time>
      </trkpt>
      <trkpt lat="45.66745" lon="4.62526">
        <ele>527</ele>
        <time>2012-01-14T10:31:49Z</time>
      </trkpt>
      <trkpt lat="45.66748" lon="4.62539">
        <ele>527</ele>
        <time>2012-01-14T10:31:51Z</time>
      </trkpt>
      <trkpt lat="45.66748" lon="4.62546">
        <ele>526</ele>
        <time>2012-01-14T10:31:52Z</time>
      </trkpt>
      <trkpt lat="45.66751" lon="4.62582">
        <ele>526</ele>
        <time>2012-01-14T10:31:57Z</time>
      </trkpt>
      <trkpt lat="45.6675" lon="4.62589">
        <ele>526</ele>
        <time>2012-01-14T10:31:58Z</time>
      </trkpt>
      <trkpt lat="45.66749" lon="4.62606">
        <ele>526</ele>
        <time>2012-01-14T10:32:00Z</time>
      </trkpt>
      <trkpt lat="45.66748" lon="4.62614">
        <ele>525</ele>
        <time>2012-01-14T10:32:01Z</time>
      </trkpt>
      <trkpt lat="45.66749" lon="4.62621">
        <ele>525</ele>
        <time>2012-01-14T10:32:02Z</time>
      </trkpt>
      <trkpt lat="45.66752" lon="4.62628">
        <ele>524</ele>
        <time>2012-01-14T10:32:03Z</time>
      </trkpt>
      <trkpt lat="45.66755" lon="4.62635">
        <ele>523</ele>
        <time>2012-01-14T10:32:04Z</time>
      </trkpt>
      <trkpt lat="45.66758" lon="4.62641">
        <ele>523</ele>
        <time>2012-01-14T10:32:05Z</time>
      </trkpt>
      <trkpt lat="45.66761" lon="4.62649">
        <ele>522</ele>
        <time>2012-01-14T10:32:06Z</time>
      </trkpt>
      <trkpt lat="45.66761" lon="4.62659">
        <ele>521</ele>
        <time>2012-01-14T10:32:07Z</time>
      </trkpt>
      <trkpt lat="45.66759" lon="4.62669">
        <ele>520</ele>
        <time>2012-01-14T10:32:08Z</time>
      </trkpt>
      <trkpt lat="45.66756" lon="4.62679">
        <ele>520</ele>
        <time>2012-01-14T10:32:09Z</time>
      </trkpt>
      <trkpt lat="45.66753" lon="4.62687">
        <ele>519</ele>
        <time>2012-01-14T10:32:10Z</time>
      </trkpt>
      <trkpt lat="45.66751" lon="4.62696">
        <ele>518</ele>
        <time>2012-01-14T10:32:11Z</time>
      </trkpt>
      <trkpt lat="45.66749" lon="4.62707">
        <ele>517</ele>
        <time>2012-01-14T10:32:12Z</time>
      </trkpt>
      <trkpt lat="45.6675" lon="4.62718">
        <ele>516</ele>
        <time>2012-01-14T10:32:13Z</time>
      </trkpt>
      <trkpt lat="45.66751" lon="4.62728">
        <ele>514</ele>
        <time>2012-01-14T10:32:14Z</time>
      </trkpt>
      <trkpt lat="45.66753" lon="4.62738">
        <ele>513</ele>
        <time>2012-01-14T10:32:15Z</time>
      </trkpt>
      <trkpt lat="45.66755" lon="4.62748">
        <ele>513</ele>
        <time>2012-01-14T10:32:16Z</time>
      </trkpt>
      <trkpt lat="45.66756" lon="4.62757">
        <ele>513</ele>
        <time>2012-01-14T10:32:17Z</time>
      </trkpt>
      <trkpt lat="45.66756" lon="4.62765">
        <ele>511</ele>
        <time>2012-01-14T10:32:18Z</time>
      </trkpt>
      <trkpt lat="45.66754" lon="4.62773">
        <ele>511</ele>
        <time>2012-01-14T10:32:19Z</time>
      </trkpt>
      <trkpt lat="45.66752" lon="4.6278">
        <ele>510</ele>
        <time>2012-01-14T10:32:20Z</time>
      </trkpt>
      <trkpt lat="45.6675" lon="4.62787">
        <ele>510</ele>
        <time>2012-01-14T10:32:21Z</time>
      </trkpt>
      <trkpt lat="45.66749" lon="4.62796">
        <ele>509</ele>
        <time>2012-01-14T10:32:22Z</time>
      </trkpt>
      <trkpt lat="45.66749" lon="4.62806">
        <ele>508</ele>
        <time>2012-01-14T10:32:23Z</time>
      </trkpt>
      <trkpt lat="45.6675" lon="4.62815">
        <ele>507</ele>
        <time>2012-01-14T10:32:24Z</time>
      </trkpt>
      <trkpt lat="45.66751" lon="4.62821">
        <ele>506</ele>
        <time>2012-01-14T10:32:25Z</time>
      </trkpt>
      <trkpt lat="45.66752" lon="4.62826">
        <ele>506</ele>
        <time>2012-01-14T10:32:26Z</time>
      </trkpt>
      <trkpt lat="45.66754" lon="4.62832">
        <ele>505</ele>
        <time>2012-01-14T10:32:27Z</time>
      </trkpt>
      <trkpt lat="45.66758" lon="4.62849">
        <ele>503</ele>
        <time>2012-01-14T10:32:29Z</time>
      </trkpt>
      <trkpt lat="45.66761" lon="4.62858">
        <ele>500</ele>
        <time>2012-01-14T10:32:30Z</time>
      </trkpt>
      <trkpt lat="45.66764" lon="4.62864">
        <ele>500</ele>
        <time>2012-01-14T10:32:31Z</time>
      </trkpt>
      <trkpt lat="45.66767" lon="4.62869">
        <ele>499</ele>
        <time>2012-01-14T10:32:32Z</time>
      </trkpt>
      <trkpt lat="45.66772" lon="4.62873">
        <ele>498</ele>
        <time>2012-01-14T10:32:33Z</time>
      </trkpt>
      <trkpt lat="45.66776" lon="4.62877">
        <ele>498</ele>
        <time>2012-01-14T10:32:34Z</time>
      </trkpt>
      <trkpt lat="45.66784" lon="4.62885">
        <ele>496</ele>
        <time>2012-01-14T10:32:36Z</time>
      </trkpt>
      <trkpt lat="45.66788" lon="4.6289">
        <ele>495</ele>
        <time>2012-01-14T10:32:37Z</time>
      </trkpt>
      <trkpt lat="45.66792" lon="4.62895">
        <ele>494</ele>
        <time>2012-01-14T10:32:38Z</time>
      </trkpt>
      <trkpt lat="45.66796" lon="4.629">
        <ele>494</ele>
        <time>2012-01-14T10:32:39Z</time>
      </trkpt>
      <trkpt lat="45.668" lon="4.62904">
        <ele>492</ele>
        <time>2012-01-14T10:32:40Z</time>
      </trkpt>
      <trkpt lat="45.66803" lon="4.62907">
        <ele>492</ele>
        <time>2012-01-14T10:32:41Z</time>
      </trkpt>
      <trkpt lat="45.66806" lon="4.62909">
        <ele>492</ele>
        <time>2012-01-14T10:32:42Z</time>
      </trkpt>
      <trkpt lat="45.6681" lon="4.62912">
        <ele>491</ele>
        <time>2012-01-14T10:32:43Z</time>
      </trkpt>
      <trkpt lat="45.66812" lon="4.62914">
        <ele>490</ele>
        <time>2012-01-14T10:32:44Z</time>
      </trkpt>
      <trkpt lat="45.66815" lon="4.62917">
        <ele>489</ele>
        <time>2012-01-14T10:32:45Z</time>
      </trkpt>
      <trkpt lat="45.66818" lon="4.62919">
        <ele>489</ele>
        <time>2012-01-14T10:32:46Z</time>
      </trkpt>
      <trkpt lat="45.66822" lon="4.62921">
        <ele>488</ele>
        <time>2012-01-14T10:32:48Z</time>
      </trkpt>
      <trkpt lat="45.66823" lon="4.62923">
        <ele>487</ele>
        <time>2012-01-14T10:32:49Z</time>
      </trkpt>
      <trkpt lat="45.66824" lon="4.62925">
        <ele>486</ele>
        <time>2012-01-14T10:32:50Z</time>
      </trkpt>
      <trkpt lat="45.66826" lon="4.62927">
        <ele>486</ele>
        <time>2012-01-14T10:32:51Z</time>
      </trkpt>
      <trkpt lat="45.66828" lon="4.62929">
        <ele>485</ele>
        <time>2012-01-14T10:32:52Z</time>
      </trkpt>
      <trkpt lat="45.66831" lon="4.62931">
        <ele>485</ele>
        <time>2012-01-14T10:32:53Z</time>
      </trkpt>
      <trkpt lat="45.66834" lon="4.62932">
        <ele>484</ele>
        <time>2012-01-14T10:32:54Z</time>
      </trkpt>
      <trkpt lat="45.66838" lon="4.62933">
        <ele>483</ele>
        <time>2012-01-14T10:32:55Z</time>
      </trkpt>
      <trkpt lat="45.66842" lon="4.62934">
        <ele>482</ele>
        <time>2012-01-14T10:32:56Z</time>
      </trkpt>
      <trkpt lat="45.66845" lon="4.62937">
        <ele>482</ele>
        <time>2012-01-14T10:32:57Z</time>
      </trkpt>
      <trkpt lat="45.66849" lon="4.62939">
        <ele>481</ele>
        <time>2012-01-14T10:32:58Z</time>
      </trkpt>
      <trkpt lat="45.66852" lon="4.62941">
        <ele>480</ele>
        <time>2012-01-14T10:32:59Z</time>
      </trkpt>
      <trkpt lat="45.66855" lon="4.62944">
        <ele>480</ele>
        <time>2012-01-14T10:33:00Z</time>
      </trkpt>
      <trkpt lat="45.66858" lon="4.62948">
        <ele>479</ele>
        <time>2012-01-14T10:33:01Z</time>
      </trkpt>
      <trkpt lat="45.6686" lon="4.62952">
        <ele>478</ele>
        <time>2012-01-14T10:33:02Z</time>
      </trkpt>
      <trkpt lat="45.66862" lon="4.62957">
        <ele>477</ele>
        <time>2012-01-14T10:33:03Z</time>
      </trkpt>
      <trkpt lat="45.66862" lon="4.62961">
        <ele>476</ele>
        <time>2012-01-14T10:33:04Z</time>
      </trkpt>
      <trkpt lat="45.66863" lon="4.62966">
        <ele>475</ele>
        <time>2012-01-14T10:33:05Z</time>
      </trkpt>
      <trkpt lat="45.66865" lon="4.62971">
        <ele>475</ele>
        <time>2012-01-14T10:33:06Z</time>
      </trkpt>
      <trkpt lat="45.66866" lon="4.62977">
        <ele>474</ele>
        <time>2012-01-14T10:33:07Z</time>
      </trkpt>
      <trkpt lat="45.66866" lon="4.62984">
        <ele>474</ele>
        <time>2012-01-14T10:33:08Z</time>
      </trkpt>
      <trkpt lat="45.66867" lon="4.6299">
        <ele>471</ele>
        <time>2012-01-14T10:33:09Z</time>
      </trkpt>
      <trkpt lat="45.66868" lon="4.62995">
        <ele>471</ele>
        <time>2012-01-14T10:33:10Z</time>
      </trkpt>
      <trkpt lat="45.6687" lon="4.62999">
        <ele>471</ele>
        <time>2012-01-14T10:33:11Z</time>
      </trkpt>
      <trkpt lat="45.66871" lon="4.63002">
        <ele>471</ele>
        <time>2012-01-14T10:33:12Z</time>
      </trkpt>
      <trkpt lat="45.66873" lon="4.63005">
        <ele>470</ele>
        <time>2012-01-14T10:33:13Z</time>
      </trkpt>
      <trkpt lat="45.66874" lon="4.63007">
        <ele>470</ele>
        <time>2012-01-14T10:33:14Z</time>
      </trkpt>
      <trkpt lat="45.66875" lon="4.63008">
        <ele>469</ele>
        <time>2012-01-14T10:33:20Z</time>
      </trkpt>
      <trkpt lat="45.66875" lon="4.63008">
        <ele>470</ele>
        <time>2012-01-14T10:33:34Z</time>
      </trkpt>
      <trkpt lat="45.66875" lon="4.63008">
        <ele>469</ele>
        <time>2012-01-14T10:33:52Z</time>
      </trkpt>
      <trkpt lat="45.66876" lon="4.63008">
        <ele>469</ele>
        <time>2012-01-14T10:34:10Z</time>
      </trkpt>
      <trkpt lat="45.66876" lon="4.63008">
        <ele>470</ele>
        <time>2012-01-14T10:34:27Z</time>
      </trkpt>
      <trkpt lat="45.66877" lon="4.63009">
        <ele>470</ele>
        <time>2012-01-14T10:34:46Z</time>
      </trkpt>
      <trkpt lat="45.66877" lon="4.63009">
        <ele>469</ele>
        <time>2012-01-14T10:35:05Z</time>
      </trkpt>
      <trkpt lat="45.66879" lon="4.63011">
        <ele>470</ele>
        <time>2012-01-14T10:35:19Z</time>
      </trkpt>
      <trkpt lat="45.66885" lon="4.63019">
        <ele>469</ele>
        <time>2012-01-14T10:35:23Z</time>
      </trkpt>
      <trkpt lat="45.66886" lon="4.63024">
        <ele>469</ele>
        <time>2012-01-14T10:35:24Z</time>
      </trkpt>
      <trkpt lat="45.66888" lon="4.63028">
        <ele>469</ele>
        <time>2012-01-14T10:35:25Z</time>
      </trkpt>
      <trkpt lat="45.66893" lon="4.6304">
        <ele>467</ele>
        <time>2012-01-14T10:35:28Z</time>
      </trkpt>
      <trkpt lat="45.66893" lon="4.63044">
        <ele>467</ele>
        <time>2012-01-14T10:35:29Z</time>
      </trkpt>
      <trkpt lat="45.66894" lon="4.63048">
        <ele>467</ele>
        <time>2012-01-14T10:35:30Z</time>
      </trkpt>
      <trkpt lat="45.66893" lon="4.63052">
        <ele>467</ele>
        <time>2012-01-14T10:35:31Z</time>
      </trkpt>
      <trkpt lat="45.66892" lon="4.63054">
        <ele>467</ele>
        <time>2012-01-14T10:35:32Z</time>
      </trkpt>
      <trkpt lat="45.6689" lon="4.63055">
        <ele>467</ele>
        <time>2012-01-14T10:35:33Z</time>
      </trkpt>
      <trkpt lat="45.66887" lon="4.63056">
        <ele>467</ele>
        <time>2012-01-14T10:35:34Z</time>
      </trkpt>
      <trkpt lat="45.6687" lon="4.63063">
        <ele>467</ele>
        <time>2012-01-14T10:35:41Z</time>
      </trkpt>
      <trkpt lat="45.66847" lon="4.63067">
        <ele>469</ele>
        <time>2012-01-14T10:35:49Z</time>
      </trkpt>
      <trkpt lat="45.66826" lon="4.63068">
        <ele>469</ele>
        <time>2012-01-14T10:35:56Z</time>
      </trkpt>
      <trkpt lat="45.66804" lon="4.63067">
        <ele>470</ele>
        <time>2012-01-14T10:36:04Z</time>
      </trkpt>
      <trkpt lat="45.66778" lon="4.63066">
        <ele>470</ele>
        <time>2012-01-14T10:36:13Z</time>
      </trkpt>
      <trkpt lat="45.6676" lon="4.63071">
        <ele>470</ele>
        <time>2012-01-14T10:36:20Z</time>
      </trkpt>
      <trkpt lat="45.66756" lon="4.63074">
        <ele>469</ele>
        <time>2012-01-14T10:36:21Z</time>
      </trkpt>
      <trkpt lat="45.66722" lon="4.631">
        <ele>466</ele>
        <time>2012-01-14T10:36:28Z</time>
      </trkpt>
      <trkpt lat="45.66717" lon="4.63104">
        <ele>466</ele>
        <time>2012-01-14T10:36:29Z</time>
      </trkpt>
      <trkpt lat="45.66711" lon="4.63105">
        <ele>465</ele>
        <time>2012-01-14T10:36:30Z</time>
      </trkpt>
      <trkpt lat="45.66705" lon="4.63103">
        <ele>464</ele>
        <time>2012-01-14T10:36:31Z</time>
      </trkpt>
      <trkpt lat="45.66699" lon="4.631">
        <ele>463</ele>
        <time>2012-01-14T10:36:32Z</time>
      </trkpt>
      <trkpt lat="45.66694" lon="4.63099">
        <ele>463</ele>
        <time>2012-01-14T10:36:33Z</time>
      </trkpt>
      <trkpt lat="45.66688" lon="4.631">
        <ele>462</ele>
        <time>2012-01-14T10:36:34Z</time>
      </trkpt>
      <trkpt lat="45.66683" lon="4.631">
        <ele>462</ele>
        <time>2012-01-14T10:36:35Z</time>
      </trkpt>
      <trkpt lat="45.66678" lon="4.631">
        <ele>461</ele>
        <time>2012-01-14T10:36:36Z</time>
      </trkpt>
      <trkpt lat="45.66673" lon="4.63099">
        <ele>460</ele>
        <time>2012-01-14T10:36:37Z</time>
      </trkpt>
      <trkpt lat="45.66668" lon="4.631">
        <ele>459</ele>
        <time>2012-01-14T10:36:38Z</time>
      </trkpt>
      <trkpt lat="45.66662" lon="4.63101">
        <ele>458</ele>
        <time>2012-01-14T10:36:39Z</time>
      </trkpt>
      <trkpt lat="45.66656" lon="4.63104">
        <ele>458</ele>
        <time>2012-01-14T10:36:40Z</time>
      </trkpt>
      <trkpt lat="45.66616" lon="4.6313">
        <ele>455</ele>
        <time>2012-01-14T10:36:47Z</time>
      </trkpt>
      <trkpt lat="45.66609" lon="4.63131">
        <ele>453</ele>
        <time>2012-01-14T10:36:48Z</time>
      </trkpt>
      <trkpt lat="45.66603" lon="4.63133">
        <ele>453</ele>
        <time>2012-01-14T10:36:49Z</time>
      </trkpt>
      <trkpt lat="45.66576" lon="4.63145">
        <ele>450</ele>
        <time>2012-01-14T10:36:53Z</time>
      </trkpt>
      <trkpt lat="45.66531" lon="4.63162">
        <ele>446</ele>
        <time>2012-01-14T10:36:59Z</time>
      </trkpt>
      <trkpt lat="45.66525" lon="4.63162">
        <ele>444</ele>
        <time>2012-01-14T10:37:00Z</time>
      </trkpt>
      <trkpt lat="45.6652" lon="4.63162">
        <ele>444</ele>
        <time>2012-01-14T10:37:01Z</time>
      </trkpt>
      <trkpt lat="45.66516" lon="4.63161">
        <ele>444</ele>
        <time>2012-01-14T10:37:02Z</time>
      </trkpt>
      <trkpt lat="45.66513" lon="4.6316">
        <ele>444</ele>
        <time>2012-01-14T10:37:03Z</time>
      </trkpt>
      <trkpt lat="45.6649" lon="4.63157">
        <ele>442</ele>
        <time>2012-01-14T10:37:10Z</time>
      </trkpt>
      <trkpt lat="45.66469" lon="4.63155">
        <ele>441</ele>
        <time>2012-01-14T10:37:16Z</time>
      </trkpt>
      <trkpt lat="45.66449" lon="4.63154">
        <ele>438</ele>
        <time>2012-01-14T10:37:21Z</time>
      </trkpt>
      <trkpt lat="45.66444" lon="4.63155">
        <ele>438</ele>
        <time>2012-01-14T10:37:22Z</time>
      </trkpt>
      <trkpt lat="45.6644" lon="4.63157">
        <ele>437</ele>
        <time>2012-01-14T10:37:23Z</time>
      </trkpt>
      <trkpt lat="45.66436" lon="4.6316">
        <ele>436</ele>
        <time>2012-01-14T10:37:24Z</time>
      </trkpt>
      <trkpt lat="45.66433" lon="4.63165">
        <ele>435</ele>
        <time>2012-01-14T10:37:25Z</time>
      </trkpt>
      <trkpt lat="45.66431" lon="4.6317">
        <ele>435</ele>
        <time>2012-01-14T10:37:26Z</time>
      </trkpt>
      <trkpt lat="45.6642" lon="4.63182">
        <ele>433</ele>
        <time>2012-01-14T10:37:30Z</time>
      </trkpt>
      <trkpt lat="45.66417" lon="4.63181">
        <ele>432</ele>
        <time>2012-01-14T10:37:31Z</time>
      </trkpt>
      <trkpt lat="45.66415" lon="4.63178">
        <ele>433</ele>
        <time>2012-01-14T10:37:32Z</time>
      </trkpt>
      <trkpt lat="45.66403" lon="4.63161">
        <ele>430</ele>
        <time>2012-01-14T10:37:37Z</time>
      </trkpt>
      <trkpt lat="45.664" lon="4.6316">
        <ele>431</ele>
        <time>2012-01-14T10:37:38Z</time>
      </trkpt>
      <trkpt lat="45.66396" lon="4.63162">
        <ele>430</ele>
        <time>2012-01-14T10:37:39Z</time>
      </trkpt>
      <trkpt lat="45.66392" lon="4.63167">
        <ele>429</ele>
        <time>2012-01-14T10:37:40Z</time>
      </trkpt>
      <trkpt lat="45.66387" lon="4.63172">
        <ele>428</ele>
        <time>2012-01-14T10:37:41Z</time>
      </trkpt>
      <trkpt lat="45.66381" lon="4.63177">
        <ele>427</ele>
        <time>2012-01-14T10:37:42Z</time>
      </trkpt>
      <trkpt lat="45.66363" lon="4.63197">
        <ele>426</ele>
        <time>2012-01-14T10:37:45Z</time>
      </trkpt>
      <trkpt lat="45.6636" lon="4.63205">
        <ele>427</ele>
        <time>2012-01-14T10:37:46Z</time>
      </trkpt>
      <trkpt lat="45.66359" lon="4.63214">
        <ele>427</ele>
        <time>2012-01-14T10:37:47Z</time>
      </trkpt>
      <trkpt lat="45.66358" lon="4.63221">
        <ele>427</ele>
        <time>2012-01-14T10:37:48Z</time>
      </trkpt>
      <trkpt lat="45.66359" lon="4.63227">
        <ele>427</ele>
        <time>2012-01-14T10:37:49Z</time>
      </trkpt>
      <trkpt lat="45.66359" lon="4.63232">
        <ele>427</ele>
        <time>2012-01-14T10:37:50Z</time>
      </trkpt>
      <trkpt lat="45.66359" lon="4.63235">
        <ele>427</ele>
        <time>2012-01-14T10:37:51Z</time>
      </trkpt>
      <trkpt lat="45.66357" lon="4.63254">
        <ele>427</ele>
        <time>2012-01-14T10:37:57Z</time>
      </trkpt>
      <trkpt lat="45.66354" lon="4.63277">
        <ele>430</ele>
        <time>2012-01-14T10:38:04Z</time>
      </trkpt>
      <trkpt lat="45.66351" lon="4.63307">
        <ele>431</ele>
        <time>2012-01-14T10:38:13Z</time>
      </trkpt>
      <trkpt lat="45.66347" lon="4.63335">
        <ele>433</ele>
        <time>2012-01-14T10:38:21Z</time>
      </trkpt>
      <trkpt lat="45.66343" lon="4.63365">
        <ele>434</ele>
        <time>2012-01-14T10:38:29Z</time>
      </trkpt>
      <trkpt lat="45.66337" lon="4.63393">
        <ele>434</ele>
        <time>2012-01-14T10:38:36Z</time>
      </trkpt>
      <trkpt lat="45.66334" lon="4.63422">
        <ele>434</ele>
        <time>2012-01-14T10:38:43Z</time>
      </trkpt>
      <trkpt lat="45.66338" lon="4.63453">
        <ele>434</ele>
        <time>2012-01-14T10:38:50Z</time>
      </trkpt>
      <trkpt lat="45.66345" lon="4.63488">
        <ele>435</ele>
        <time>2012-01-14T10:38:59Z</time>
      </trkpt>
      <trkpt lat="45.66352" lon="4.63522">
        <ele>437</ele>
        <time>2012-01-14T10:39:08Z</time>
      </trkpt>
      <trkpt lat="45.6636" lon="4.63555">
        <ele>439</ele>
        <time>2012-01-14T10:39:18Z</time>
      </trkpt>
      <trkpt lat="45.66366" lon="4.63577">
        <ele>441</ele>
        <time>2012-01-14T10:39:25Z</time>
      </trkpt>
      <trkpt lat="45.66369" lon="4.63598">
        <ele>441</ele>
        <time>2012-01-14T10:39:32Z</time>
      </trkpt>
      <trkpt lat="45.66366" lon="4.63624">
        <ele>443</ele>
        <time>2012-01-14T10:39:40Z</time>
      </trkpt>
      <trkpt lat="45.66363" lon="4.63645">
        <ele>443</ele>
        <time>2012-01-14T10:39:49Z</time>
      </trkpt>
      <trkpt lat="45.66362" lon="4.63648">
        <ele>443</ele>
        <time>2012-01-14T10:39:51Z</time>
      </trkpt>
      <trkpt lat="45.66361" lon="4.63648">
        <ele>443</ele>
        <time>2012-01-14T10:39:52Z</time>
      </trkpt>
      <trkpt lat="45.66359" lon="4.63648">
        <ele>443</ele>
        <time>2012-01-14T10:39:53Z</time>
      </trkpt>
      <trkpt lat="45.66357" lon="4.63647">
        <ele>444</ele>
        <time>2012-01-14T10:39:54Z</time>
      </trkpt>
      <trkpt lat="45.66356" lon="4.63647">
        <ele>444</ele>
        <time>2012-01-14T10:39:55Z</time>
      </trkpt>
      <trkpt lat="45.66354" lon="4.63646">
        <ele>444</ele>
        <time>2012-01-14T10:39:56Z</time>
      </trkpt>
      <trkpt lat="45.6634" lon="4.63652">
        <ele>446</ele>
        <time>2012-01-14T10:40:03Z</time>
      </trkpt>
      <trkpt lat="45.66324" lon="4.63665">
        <ele>447</ele>
        <time>2012-01-14T10:40:11Z</time>
      </trkpt>
      <trkpt lat="45.66312" lon="4.63674">
        <ele>448</ele>
        <time>2012-01-14T10:40:18Z</time>
      </trkpt>
      <trkpt lat="45.66301" lon="4.63692">
        <ele>447</ele>
        <time>2012-01-14T10:40:25Z</time>
      </trkpt>
      <trkpt lat="45.66294" lon="4.63714">
        <ele>445</ele>
        <time>2012-01-14T10:40:30Z</time>
      </trkpt>
      <trkpt lat="45.66294" lon="4.6372">
        <ele>444</ele>
        <time>2012-01-14T10:40:31Z</time>
      </trkpt>
      <trkpt lat="45.66294" lon="4.63726">
        <ele>443</ele>
        <time>2012-01-14T10:40:32Z</time>
      </trkpt>
      <trkpt lat="45.66296" lon="4.63732">
        <ele>443</ele>
        <time>2012-01-14T10:40:33Z</time>
      </trkpt>
      <trkpt lat="45.66297" lon="4.63737">
        <ele>442</ele>
        <time>2012-01-14T10:40:34Z</time>
      </trkpt>
      <trkpt lat="45.66299" lon="4.63744">
        <ele>441</ele>
        <time>2012-01-14T10:40:35Z</time>
      </trkpt>
      <trkpt lat="45.663" lon="4.63752">
        <ele>441</ele>
        <time>2012-01-14T10:40:36Z</time>
      </trkpt>
      <trkpt lat="45.66306" lon="4.6378">
        <ele>439</ele>
        <time>2012-01-14T10:40:39Z</time>
      </trkpt>
      <trkpt lat="45.66315" lon="4.63814">
        <ele>436</ele>
        <time>2012-01-14T10:40:42Z</time>
      </trkpt>
      <trkpt lat="45.66325" lon="4.63859">
        <ele>432</ele>
        <time>2012-01-14T10:40:46Z</time>
      </trkpt>
      <trkpt lat="45.6633" lon="4.63882">
        <ele>429</ele>
        <time>2012-01-14T10:40:48Z</time>
      </trkpt>
      <trkpt lat="45.66337" lon="4.63923">
        <ele>425</ele>
        <time>2012-01-14T10:40:52Z</time>
      </trkpt>
      <trkpt lat="45.66339" lon="4.63933">
        <ele>424</ele>
        <time>2012-01-14T10:40:53Z</time>
      </trkpt>
      <trkpt lat="45.66346" lon="4.63962">
        <ele>419</ele>
        <time>2012-01-14T10:40:56Z</time>
      </trkpt>
      <trkpt lat="45.66352" lon="4.63982">
        <ele>416</ele>
        <time>2012-01-14T10:40:59Z</time>
      </trkpt>
      <trkpt lat="45.66356" lon="4.63988">
        <ele>415</ele>
        <time>2012-01-14T10:41:00Z</time>
      </trkpt>
      <trkpt lat="45.66362" lon="4.63993">
        <ele>414</ele>
        <time>2012-01-14T10:41:01Z</time>
      </trkpt>
      <trkpt lat="45.6637" lon="4.63996">
        <ele>414</ele>
        <time>2012-01-14T10:41:02Z</time>
      </trkpt>
      <trkpt lat="45.66376" lon="4.63998">
        <ele>414</ele>
        <time>2012-01-14T10:41:03Z</time>
      </trkpt>
      <trkpt lat="45.66383" lon="4.63999">
        <ele>414</ele>
        <time>2012-01-14T10:41:04Z</time>
      </trkpt>
      <trkpt lat="45.66405" lon="4.64002">
        <ele>414</ele>
        <time>2012-01-14T10:41:09Z</time>
      </trkpt>
      <trkpt lat="45.66423" lon="4.64007">
        <ele>414</ele>
        <time>2012-01-14T10:41:16Z</time>
      </trkpt>
      <trkpt lat="45.66424" lon="4.6401">
        <ele>414</ele>
        <time>2012-01-14T10:41:17Z</time>
      </trkpt>
      <trkpt lat="45.66425" lon="4.64015">
        <ele>414</ele>
        <time>2012-01-14T10:41:18Z</time>
      </trkpt>
      <trkpt lat="45.66424" lon="4.64021">
        <ele>414</ele>
        <time>2012-01-14T10:41:19Z</time>
      </trkpt>
      <trkpt lat="45.66424" lon="4.64028">
        <ele>413</ele>
        <time>2012-01-14T10:41:20Z</time>
      </trkpt>
      <trkpt lat="45.66424" lon="4.64036">
        <ele>413</ele>
        <time>2012-01-14T10:41:21Z</time>
      </trkpt>
      <trkpt lat="45.66425" lon="4.64043">
        <ele>412</ele>
        <time>2012-01-14T10:41:22Z</time>
      </trkpt>
      <trkpt lat="45.66426" lon="4.64051">
        <ele>412</ele>
        <time>2012-01-14T10:41:23Z</time>
      </trkpt>
      <trkpt lat="45.66427" lon="4.64064">
        <ele>410</ele>
        <time>2012-01-14T10:41:25Z</time>
      </trkpt>
      <trkpt lat="45.66426" lon="4.64069">
        <ele>410</ele>
        <time>2012-01-14T10:41:26Z</time>
      </trkpt>
      <trkpt lat="45.66424" lon="4.64074">
        <ele>409</ele>
        <time>2012-01-14T10:41:27Z</time>
      </trkpt>
      <trkpt lat="45.66422" lon="4.64077">
        <ele>408</ele>
        <time>2012-01-14T10:41:28Z</time>
      </trkpt>
      <trkpt lat="45.66418" lon="4.6408">
        <ele>408</ele>
        <time>2012-01-14T10:41:29Z</time>
      </trkpt>
      <trkpt lat="45.66415" lon="4.64083">
        <ele>407</ele>
        <time>2012-01-14T10:41:30Z</time>
      </trkpt>
      <trkpt lat="45.66411" lon="4.64086">
        <ele>406</ele>
        <time>2012-01-14T10:41:31Z</time>
      </trkpt>
      <trkpt lat="45.66407" lon="4.64088">
        <ele>406</ele>
        <time>2012-01-14T10:41:32Z</time>
      </trkpt>
      <trkpt lat="45.66403" lon="4.6409">
        <ele>405</ele>
        <time>2012-01-14T10:41:33Z</time>
      </trkpt>
      <trkpt lat="45.66399" lon="4.64092">
        <ele>405</ele>
        <time>2012-01-14T10:41:34Z</time>
      </trkpt>
      <trkpt lat="45.66394" lon="4.64094">
        <ele>404</ele>
        <time>2012-01-14T10:41:35Z</time>
      </trkpt>
      <trkpt lat="45.66389" lon="4.64098">
        <ele>404</ele>
        <time>2012-01-14T10:41:36Z</time>
      </trkpt>
      <trkpt lat="45.66384" lon="4.64102">
        <ele>403</ele>
        <time>2012-01-14T10:41:37Z</time>
      </trkpt>
      <trkpt lat="45.6638" lon="4.64108">
        <ele>403</ele>
        <time>2012-01-14T10:41:38Z</time>
      </trkpt>
      <trkpt lat="45.66377" lon="4.64114">
        <ele>402</ele>
        <time>2012-01-14T10:41:39Z</time>
      </trkpt>
      <trkpt lat="45.66375" lon="4.64121">
        <ele>401</ele>
        <time>2012-01-14T10:41:40Z</time>
      </trkpt>
      <trkpt lat="45.66372" lon="4.6413">
        <ele>401</ele>
        <time>2012-01-14T10:41:41Z</time>
      </trkpt>
      <trkpt lat="45.66358" lon="4.64174">
        <ele>397</ele>
        <time>2012-01-14T10:41:45Z</time>
      </trkpt>
      <trkpt lat="45.66345" lon="4.64213">
        <ele>394</ele>
        <time>2012-01-14T10:41:48Z</time>
      </trkpt>
      <trkpt lat="45.66338" lon="4.64238">
        <ele>390</ele>
        <time>2012-01-14T10:41:50Z</time>
      </trkpt>
      <trkpt lat="45.6633" lon="4.64263">
        <ele>388</ele>
        <time>2012-01-14T10:41:52Z</time>
      </trkpt>
      <trkpt lat="45.66328" lon="4.64278">
        <ele>388</ele>
        <time>2012-01-14T10:41:53Z</time>
      </trkpt>
      <trkpt lat="45.66327" lon="4.64293">
        <ele>386</ele>
        <time>2012-01-14T10:41:54Z</time>
      </trkpt>
      <trkpt lat="45.66329" lon="4.64309">
        <ele>385</ele>
        <time>2012-01-14T10:41:55Z</time>
      </trkpt>
      <trkpt lat="45.66331" lon="4.64325">
        <ele>384</ele>
        <time>2012-01-14T10:41:56Z</time>
      </trkpt>
      <trkpt lat="45.6634" lon="4.64396">
        <ele>382</ele>
        <time>2012-01-14T10:42:01Z</time>
      </trkpt>
      <trkpt lat="45.6634" lon="4.6443">
        <ele>383</ele>
        <time>2012-01-14T10:42:05Z</time>
      </trkpt>
      <trkpt lat="45.66337" lon="4.64453">
        <ele>385</ele>
        <time>2012-01-14T10:42:11Z</time>
      </trkpt>
      <trkpt lat="45.66335" lon="4.64475">
        <ele>386</ele>
        <time>2012-01-14T10:42:18Z</time>
      </trkpt>
      <trkpt lat="45.66332" lon="4.64508">
        <ele>388</ele>
        <time>2012-01-14T10:42:27Z</time>
      </trkpt>
      <trkpt lat="45.66326" lon="4.64544">
        <ele>388</ele>
        <time>2012-01-14T10:42:36Z</time>
      </trkpt>
      <trkpt lat="45.6632" lon="4.64582">
        <ele>387</ele>
        <time>2012-01-14T10:42:44Z</time>
      </trkpt>
      <trkpt lat="45.66321" lon="4.64614">
        <ele>388</ele>
        <time>2012-01-14T10:42:51Z</time>
      </trkpt>
      <trkpt lat="45.66333" lon="4.64632">
        <ele>390</ele>
        <time>2012-01-14T10:42:57Z</time>
      </trkpt>
      <trkpt lat="45.66346" lon="4.64647">
        <ele>389</ele>
        <time>2012-01-14T10:43:03Z</time>
      </trkpt>
      <trkpt lat="45.6637" lon="4.64666">
        <ele>388</ele>
        <time>2012-01-14T10:43:10Z</time>
      </trkpt>
      <trkpt lat="45.66406" lon="4.64697">
        <ele>386</ele>
        <time>2012-01-14T10:43:18Z</time>
      </trkpt>
      <trkpt lat="45.66425" lon="4.64713">
        <ele>385</ele>
        <time>2012-01-14T10:43:22Z</time>
      </trkpt>
      <trkpt lat="45.66467" lon="4.64738">
        <ele>384</ele>
        <time>2012-01-14T10:43:31Z</time>
      </trkpt>
      <trkpt lat="45.66492" lon="4.6475">
        <ele>382</ele>
        <time>2012-01-14T10:43:36Z</time>
      </trkpt>
      <trkpt lat="45.66517" lon="4.64768">
        <ele>380</ele>
        <time>2012-01-14T10:43:40Z</time>
      </trkpt>
      <trkpt lat="45.66523" lon="4.64776">
        <ele>379</ele>
        <time>2012-01-14T10:43:41Z</time>
      </trkpt>
      <trkpt lat="45.66528" lon="4.64786">
        <ele>378</ele>
        <time>2012-01-14T10:43:42Z</time>
      </trkpt>
      <trkpt lat="45.66533" lon="4.64797">
        <ele>377</ele>
        <time>2012-01-14T10:43:43Z</time>
      </trkpt>
      <trkpt lat="45.66539" lon="4.64806">
        <ele>376</ele>
        <time>2012-01-14T10:43:44Z</time>
      </trkpt>
      <trkpt lat="45.66545" lon="4.64815">
        <ele>376</ele>
        <time>2012-01-14T10:43:45Z</time>
      </trkpt>
      <trkpt lat="45.66566" lon="4.64842">
        <ele>377</ele>
        <time>2012-01-14T10:43:49Z</time>
      </trkpt>
      <trkpt lat="45.66584" lon="4.64873">
        <ele>376</ele>
        <time>2012-01-14T10:43:55Z</time>
      </trkpt>
      <trkpt lat="45.66598" lon="4.64911">
        <ele>378</ele>
        <time>2012-01-14T10:44:04Z</time>
      </trkpt>
      <trkpt lat="45.66605" lon="4.6494">
        <ele>379</ele>
        <time>2012-01-14T10:44:11Z</time>
      </trkpt>
      <trkpt lat="45.66612" lon="4.64976">
        <ele>380</ele>
        <time>2012-01-14T10:44:20Z</time>
      </trkpt>
      <trkpt lat="45.66615" lon="4.65">
        <ele>381</ele>
        <time>2012-01-14T10:44:27Z</time>
      </trkpt>
      <trkpt lat="45.66619" lon="4.65022">
        <ele>383</ele>
        <time>2012-01-14T10:44:34Z</time>
      </trkpt>
      <trkpt lat="45.66624" lon="4.6505">
        <ele>385</ele>
        <time>2012-01-14T10:44:43Z</time>
      </trkpt>
      <trkpt lat="45.66626" lon="4.65088">
        <ele>386</ele>
        <time>2012-01-14T10:44:53Z</time>
      </trkpt>
      <trkpt lat="45.66621" lon="4.65129">
        <ele>388</ele>
        <time>2012-01-14T10:45:05Z</time>
      </trkpt>
      <trkpt lat="45.66615" lon="4.65157">
        <ele>389</ele>
        <time>2012-01-14T10:45:13Z</time>
      </trkpt>
      <trkpt lat="45.66612" lon="4.65175">
        <ele>389</ele>
        <time>2012-01-14T10:45:18Z</time>
      </trkpt>
      <trkpt lat="45.66612" lon="4.65179">
        <ele>389</ele>
        <time>2012-01-14T10:45:19Z</time>
      </trkpt>
      <trkpt lat="45.66613" lon="4.65182">
        <ele>389</ele>
        <time>2012-01-14T10:45:20Z</time>
      </trkpt>
      <trkpt lat="45.66614" lon="4.65186">
        <ele>389</ele>
        <time>2012-01-14T10:45:21Z</time>
      </trkpt>
      <trkpt lat="45.66616" lon="4.6519">
        <ele>389</ele>
        <time>2012-01-14T10:45:22Z</time>
      </trkpt>
      <trkpt lat="45.66618" lon="4.65193">
        <ele>388</ele>
        <time>2012-01-14T10:45:23Z</time>
      </trkpt>
      <trkpt lat="45.66621" lon="4.65195">
        <ele>390</ele>
        <time>2012-01-14T10:45:24Z</time>
      </trkpt>
      <trkpt lat="45.66636" lon="4.65207">
        <ele>392</ele>
        <time>2012-01-14T10:45:31Z</time>
      </trkpt>
      <trkpt lat="45.66638" lon="4.65209">
        <ele>392</ele>
        <time>2012-01-14T10:45:32Z</time>
      </trkpt>
      <trkpt lat="45.6666" lon="4.65225">
        <ele>394</ele>
        <time>2012-01-14T10:45:42Z</time>
      </trkpt>
      <trkpt lat="45.66681" lon="4.65238">
        <ele>395</ele>
        <time>2012-01-14T10:45:50Z</time>
      </trkpt>
      <trkpt lat="45.66703" lon="4.65254">
        <ele>394</ele>
        <time>2012-01-14T10:45:58Z</time>
      </trkpt>
      <trkpt lat="45.6673" lon="4.6527">
        <ele>395</ele>
        <time>2012-01-14T10:46:07Z</time>
      </trkpt>
      <trkpt lat="45.6675" lon="4.65279">
        <ele>396</ele>
        <time>2012-01-14T10:46:14Z</time>
      </trkpt>
      <trkpt lat="45.66782" lon="4.65293">
        <ele>398</ele>
        <time>2012-01-14T10:46:25Z</time>
      </trkpt>
      <trkpt lat="45.66801" lon="4.65302">
        <ele>399</ele>
        <time>2012-01-14T10:46:32Z</time>
      </trkpt>
      <trkpt lat="45.66831" lon="4.65314">
        <ele>400</ele>
        <time>2012-01-14T10:46:42Z</time>
      </trkpt>
      <trkpt lat="45.66856" lon="4.65324">
        <ele>401</ele>
        <time>2012-01-14T10:46:51Z</time>
      </trkpt>
      <trkpt lat="45.66877" lon="4.65333">
        <ele>402</ele>
        <time>2012-01-14T10:46:59Z</time>
      </trkpt>
      <trkpt lat="45.66891" lon="4.6535">
        <ele>403</ele>
        <time>2012-01-14T10:47:07Z</time>
      </trkpt>
      <trkpt lat="45.66898" lon="4.65379">
        <ele>405</ele>
        <time>2012-01-14T10:47:16Z</time>
      </trkpt>
      <trkpt lat="45.66904" lon="4.65402">
        <ele>406</ele>
        <time>2012-01-14T10:47:23Z</time>
      </trkpt>
      <trkpt lat="45.6691" lon="4.65432">
        <ele>405</ele>
        <time>2012-01-14T10:47:31Z</time>
      </trkpt>
      <trkpt lat="45.66915" lon="4.65459">
        <ele>405</ele>
        <time>2012-01-14T10:47:38Z</time>
      </trkpt>
      <trkpt lat="45.66917" lon="4.65469">
        <ele>405</ele>
        <time>2012-01-14T10:47:41Z</time>
      </trkpt>
      <trkpt lat="45.66919" lon="4.65471">
        <ele>405</ele>
        <time>2012-01-14T10:47:42Z</time>
      </trkpt>
      <trkpt lat="45.66921" lon="4.65471">
        <ele>404</ele>
        <time>2012-01-14T10:47:43Z</time>
      </trkpt>
      <trkpt lat="45.66923" lon="4.65469">
        <ele>404</ele>
        <time>2012-01-14T10:47:44Z</time>
      </trkpt>
      <trkpt lat="45.66925" lon="4.65467">
        <ele>404</ele>
        <time>2012-01-14T10:47:45Z</time>
      </trkpt>
      <trkpt lat="45.66929" lon="4.65463">
        <ele>403</ele>
        <time>2012-01-14T10:47:46Z</time>
      </trkpt>
      <trkpt lat="45.66933" lon="4.6546">
        <ele>403</ele>
        <time>2012-01-14T10:47:47Z</time>
      </trkpt>
      <trkpt lat="45.66938" lon="4.65456">
        <ele>402</ele>
        <time>2012-01-14T10:47:48Z</time>
      </trkpt>
      <trkpt lat="45.66964" lon="4.65429">
        <ele>401</ele>
        <time>2012-01-14T10:47:53Z</time>
      </trkpt>
      <trkpt lat="45.66987" lon="4.65403">
        <ele>399</ele>
        <time>2012-01-14T10:47:57Z</time>
      </trkpt>
      <trkpt lat="45.6701" lon="4.65377">
        <ele>397</ele>
        <time>2012-01-14T10:48:01Z</time>
      </trkpt>
      <trkpt lat="45.67014" lon="4.6537">
        <ele>396</ele>
        <time>2012-01-14T10:48:02Z</time>
      </trkpt>
      <trkpt lat="45.67023" lon="4.65353">
        <ele>396</ele>
        <time>2012-01-14T10:48:04Z</time>
      </trkpt>
      <trkpt lat="45.67055" lon="4.65297">
        <ele>393</ele>
        <time>2012-01-14T10:48:11Z</time>
      </trkpt>
      <trkpt lat="45.67058" lon="4.65289">
        <ele>392</ele>
        <time>2012-01-14T10:48:12Z</time>
      </trkpt>
      <trkpt lat="45.67059" lon="4.6528">
        <ele>392</ele>
        <time>2012-01-14T10:48:13Z</time>
      </trkpt>
      <trkpt lat="45.6706" lon="4.65272">
        <ele>390</ele>
        <time>2012-01-14T10:48:14Z</time>
      </trkpt>
      <trkpt lat="45.67059" lon="4.65264">
        <ele>390</ele>
        <time>2012-01-14T10:48:15Z</time>
      </trkpt>
      <trkpt lat="45.67058" lon="4.65255">
        <ele>390</ele>
        <time>2012-01-14T10:48:16Z</time>
      </trkpt>
      <trkpt lat="45.67056" lon="4.65246">
        <ele>389</ele>
        <time>2012-01-14T10:48:17Z</time>
      </trkpt>
      <trkpt lat="45.67053" lon="4.65236">
        <ele>388</ele>
        <time>2012-01-14T10:48:18Z</time>
      </trkpt>
      <trkpt lat="45.67044" lon="4.65208">
        <ele>385</ele>
        <time>2012-01-14T10:48:21Z</time>
      </trkpt>
      <trkpt lat="45.67041" lon="4.65198">
        <ele>383</ele>
        <time>2012-01-14T10:48:22Z</time>
      </trkpt>
      <trkpt lat="45.6704" lon="4.65187">
        <ele>383</ele>
        <time>2012-01-14T10:48:23Z</time>
      </trkpt>
      <trkpt lat="45.6704" lon="4.65176">
        <ele>381</ele>
        <time>2012-01-14T10:48:24Z</time>
      </trkpt>
      <trkpt lat="45.67039" lon="4.65166">
        <ele>380</ele>
        <time>2012-01-14T10:48:25Z</time>
      </trkpt>
      <trkpt lat="45.67038" lon="4.65157">
        <ele>378</ele>
        <time>2012-01-14T10:48:26Z</time>
      </trkpt>
      <trkpt lat="45.67038" lon="4.65147">
        <ele>376</ele>
        <time>2012-01-14T10:48:27Z</time>
      </trkpt>
      <trkpt lat="45.67039" lon="4.65138">
        <ele>376</ele>
        <time>2012-01-14T10:48:28Z</time>
      </trkpt>
      <trkpt lat="45.67041" lon="4.6513">
        <ele>374</ele>
        <time>2012-01-14T10:48:29Z</time>
      </trkpt>
      <trkpt lat="45.67044" lon="4.65123">
        <ele>374</ele>
        <time>2012-01-14T10:48:30Z</time>
      </trkpt>
      <trkpt lat="45.67048" lon="4.65115">
        <ele>373</ele>
        <time>2012-01-14T10:48:31Z</time>
      </trkpt>
      <trkpt lat="45.67052" lon="4.65106">
        <ele>371</ele>
        <time>2012-01-14T10:48:32Z</time>
      </trkpt>
      <trkpt lat="45.67055" lon="4.65095">
        <ele>369</ele>
        <time>2012-01-14T10:48:33Z</time>
      </trkpt>
      <trkpt lat="45.67063" lon="4.65067">
        <ele>364</ele>
        <time>2012-01-14T10:48:35Z</time>
      </trkpt>
      <trkpt lat="45.67072" lon="4.65042">
        <ele>361</ele>
        <time>2012-01-14T10:48:37Z</time>
      </trkpt>
      <trkpt lat="45.67076" lon="4.65032">
        <ele>359</ele>
        <time>2012-01-14T10:48:38Z</time>
      </trkpt>
      <trkpt lat="45.67081" lon="4.65025">
        <ele>357</ele>
        <time>2012-01-14T10:48:39Z</time>
      </trkpt>
      <trkpt lat="45.67088" lon="4.65011">
        <ele>356</ele>
        <time>2012-01-14T10:48:41Z</time>
      </trkpt>
      <trkpt lat="45.67091" lon="4.65001">
        <ele>354</ele>
        <time>2012-01-14T10:48:42Z</time>
      </trkpt>
      <trkpt lat="45.67093" lon="4.64992">
        <ele>352</ele>
        <time>2012-01-14T10:48:43Z</time>
      </trkpt>
      <trkpt lat="45.67094" lon="4.64983">
        <ele>352</ele>
        <time>2012-01-14T10:48:44Z</time>
      </trkpt>
      <trkpt lat="45.67094" lon="4.64975">
        <ele>351</ele>
        <time>2012-01-14T10:48:45Z</time>
      </trkpt>
      <trkpt lat="45.67092" lon="4.64966">
        <ele>348</ele>
        <time>2012-01-14T10:48:46Z</time>
      </trkpt>
      <trkpt lat="45.67091" lon="4.64955">
        <ele>348</ele>
        <time>2012-01-14T10:48:47Z</time>
      </trkpt>
      <trkpt lat="45.67093" lon="4.64943">
        <ele>347</ele>
        <time>2012-01-14T10:48:48Z</time>
      </trkpt>
      <trkpt lat="45.67096" lon="4.64932">
        <ele>347</ele>
        <time>2012-01-14T10:48:49Z</time>
      </trkpt>
      <trkpt lat="45.671" lon="4.64922">
        <ele>346</ele>
        <time>2012-01-14T10:48:50Z</time>
      </trkpt>
      <trkpt lat="45.67105" lon="4.64915">
        <ele>346</ele>
        <time>2012-01-14T10:48:51Z</time>
      </trkpt>
      <trkpt lat="45.67109" lon="4.64909">
        <ele>345</ele>
        <time>2012-01-14T10:48:52Z</time>
      </trkpt>
      <trkpt lat="45.67113" lon="4.64904">
        <ele>346</ele>
        <time>2012-01-14T10:48:53Z</time>
      </trkpt>
      <trkpt lat="45.67116" lon="4.649">
        <ele>346</ele>
        <time>2012-01-14T10:48:54Z</time>
      </trkpt>
      <trkpt lat="45.67119" lon="4.64898">
        <ele>346</ele>
        <time>2012-01-14T10:48:55Z</time>
      </trkpt>
      <trkpt lat="45.67132" lon="4.64887">
        <ele>348</ele>
        <time>2012-01-14T10:49:02Z</time>
      </trkpt>
      <trkpt lat="45.67133" lon="4.64886">
        <ele>349</ele>
        <time>2012-01-14T10:49:03Z</time>
      </trkpt>
      <trkpt lat="45.67135" lon="4.64884">
        <ele>348</ele>
        <time>2012-01-14T10:49:04Z</time>
      </trkpt>
      <trkpt lat="45.67137" lon="4.64883">
        <ele>349</ele>
        <time>2012-01-14T10:49:05Z</time>
      </trkpt>
      <trkpt lat="45.67139" lon="4.64881">
        <ele>349</ele>
        <time>2012-01-14T10:49:06Z</time>
      </trkpt>
      <trkpt lat="45.6714" lon="4.64878">
        <ele>349</ele>
        <time>2012-01-14T10:49:07Z</time>
      </trkpt>
      <trkpt lat="45.67142" lon="4.64876">
        <ele>349</ele>
        <time>2012-01-14T10:49:08Z</time>
      </trkpt>
      <trkpt lat="45.67148" lon="4.64856">
        <ele>351</ele>
        <time>2012-01-14T10:49:16Z</time>
      </trkpt>
      <trkpt lat="45.67156" lon="4.64831">
        <ele>351</ele>
        <time>2012-01-14T10:49:24Z</time>
      </trkpt>
      <trkpt lat="45.67165" lon="4.64807">
        <ele>352</ele>
        <time>2012-01-14T10:49:32Z</time>
      </trkpt>
      <trkpt lat="45.67172" lon="4.64789">
        <ele>354</ele>
        <time>2012-01-14T10:49:38Z</time>
      </trkpt>
      <trkpt lat="45.67181" lon="4.64766">
        <ele>355</ele>
        <time>2012-01-14T10:49:46Z</time>
      </trkpt>
      <trkpt lat="45.67192" lon="4.64743">
        <ele>356</ele>
        <time>2012-01-14T10:49:55Z</time>
      </trkpt>
      <trkpt lat="45.67205" lon="4.64717">
        <ele>359</ele>
        <time>2012-01-14T10:50:06Z</time>
      </trkpt>
      <trkpt lat="45.67222" lon="4.64694">
        <ele>361</ele>
        <time>2012-01-14T10:50:17Z</time>
      </trkpt>
      <trkpt lat="45.67235" lon="4.64676">
        <ele>362</ele>
        <time>2012-01-14T10:50:25Z</time>
      </trkpt>
      <trkpt lat="45.67238" lon="4.6467">
        <ele>362</ele>
        <time>2012-01-14T10:50:29Z</time>
      </trkpt>
      <trkpt lat="45.67239" lon="4.6467">
        <ele>362</ele>
        <time>2012-01-14T10:50:30Z</time>
      </trkpt>
      <trkpt lat="45.6724" lon="4.6467">
        <ele>362</ele>
        <time>2012-01-14T10:50:31Z</time>
      </trkpt>
      <trkpt lat="45.67241" lon="4.64671">
        <ele>362</ele>
        <time>2012-01-14T10:50:33Z</time>
      </trkpt>
      <trkpt lat="45.67242" lon="4.64673">
        <ele>362</ele>
        <time>2012-01-14T10:50:34Z</time>
      </trkpt>
      <trkpt lat="45.67244" lon="4.64675">
        <ele>361</ele>
        <time>2012-01-14T10:50:35Z</time>
      </trkpt>
      <trkpt lat="45.67246" lon="4.64676">
        <ele>361</ele>
        <time>2012-01-14T10:50:36Z</time>
      </trkpt>
      <trkpt lat="45.67248" lon="4.64677">
        <ele>361</ele>
        <time>2012-01-14T10:50:37Z</time>
      </trkpt>
      <trkpt lat="45.67251" lon="4.64679">
        <ele>361</ele>
        <time>2012-01-14T10:50:38Z</time>
      </trkpt>
      <trkpt lat="45.67277" lon="4.64694">
        <ele>358</ele>
        <time>2012-01-14T10:50:44Z</time>
      </trkpt>
      <trkpt lat="45.6729" lon="4.647">
        <ele>358</ele>
        <time>2012-01-14T10:50:46Z</time>
      </trkpt>
      <trkpt lat="45.67319" lon="4.64713">
        <ele>354</ele>
        <time>2012-01-14T10:50:50Z</time>
      </trkpt>
      <trkpt lat="45.67335" lon="4.64718">
        <ele>352</ele>
        <time>2012-01-14T10:50:52Z</time>
      </trkpt>
      <trkpt lat="45.67343" lon="4.64719">
        <ele>351</ele>
        <time>2012-01-14T10:50:53Z</time>
      </trkpt>
      <trkpt lat="45.67371" lon="4.6472">
        <ele>349</ele>
        <time>2012-01-14T10:50:57Z</time>
      </trkpt>
      <trkpt lat="45.67378" lon="4.6472">
        <ele>348</ele>
        <time>2012-01-14T10:50:58Z</time>
      </trkpt>
      <trkpt lat="45.67403" lon="4.64721">
        <ele>346</ele>
        <time>2012-01-14T10:51:01Z</time>
      </trkpt>
      <trkpt lat="45.67437" lon="4.64723">
        <ele>342</ele>
        <time>2012-01-14T10:51:05Z</time>
      </trkpt>
      <trkpt lat="45.67446" lon="4.64724">
        <ele>342</ele>
        <time>2012-01-14T10:51:06Z</time>
      </trkpt>
      <trkpt lat="45.67482" lon="4.64723">
        <ele>338</ele>
        <time>2012-01-14T10:51:10Z</time>
      </trkpt>
      <trkpt lat="45.67499" lon="4.64724">
        <ele>337</ele>
        <time>2012-01-14T10:51:12Z</time>
      </trkpt>
      <trkpt lat="45.67536" lon="4.64728">
        <ele>333</ele>
        <time>2012-01-14T10:51:16Z</time>
      </trkpt>
      <trkpt lat="45.67555" lon="4.6473">
        <ele>330</ele>
        <time>2012-01-14T10:51:18Z</time>
      </trkpt>
      <trkpt lat="45.67574" lon="4.64731">
        <ele>328</ele>
        <time>2012-01-14T10:51:20Z</time>
      </trkpt>
      <trkpt lat="45.67614" lon="4.64732">
        <ele>326</ele>
        <time>2012-01-14T10:51:24Z</time>
      </trkpt>
      <trkpt lat="45.67662" lon="4.64738">
        <ele>324</ele>
        <time>2012-01-14T10:51:30Z</time>
      </trkpt>
      <trkpt lat="45.67688" lon="4.64752">
        <ele>323</ele>
        <time>2012-01-14T10:51:34Z</time>
      </trkpt>
      <trkpt lat="45.67708" lon="4.6477">
        <ele>323</ele>
        <time>2012-01-14T10:51:39Z</time>
      </trkpt>
      <trkpt lat="45.67734" lon="4.64802">
        <ele>323</ele>
        <time>2012-01-14T10:51:47Z</time>
      </trkpt>
      <trkpt lat="45.67755" lon="4.64813">
        <ele>323</ele>
        <time>2012-01-14T10:51:53Z</time>
      </trkpt>
      <trkpt lat="45.67767" lon="4.64817">
        <ele>322</ele>
        <time>2012-01-14T10:51:56Z</time>
      </trkpt>
      <trkpt lat="45.67771" lon="4.64819">
        <ele>322</ele>
        <time>2012-01-14T10:51:57Z</time>
      </trkpt>
      <trkpt lat="45.67792" lon="4.64835">
        <ele>321</ele>
        <time>2012-01-14T10:52:02Z</time>
      </trkpt>
      <trkpt lat="45.67829" lon="4.64863">
        <ele>320</ele>
        <time>2012-01-14T10:52:10Z</time>
      </trkpt>
      <trkpt lat="45.67859" lon="4.6489">
        <ele>318</ele>
        <time>2012-01-14T10:52:17Z</time>
      </trkpt>
      <trkpt lat="45.67862" lon="4.64895">
        <ele>318</ele>
        <time>2012-01-14T10:52:18Z</time>
      </trkpt>
      <trkpt lat="45.67867" lon="4.6491">
        <ele>317</ele>
        <time>2012-01-14T10:52:21Z</time>
      </trkpt>
      <trkpt lat="45.67865" lon="4.64913">
        <ele>317</ele>
        <time>2012-01-14T10:52:22Z</time>
      </trkpt>
      <trkpt lat="45.67863" lon="4.64914">
        <ele>317</ele>
        <time>2012-01-14T10:52:23Z</time>
      </trkpt>
      <trkpt lat="45.67862" lon="4.64915">
        <ele>317</ele>
        <time>2012-01-14T10:52:27Z</time>
      </trkpt>
      <trkpt lat="45.67862" lon="4.64915">
        <ele>317</ele>
        <time>2012-01-14T10:52:33Z</time>
      </trkpt>
      <trkpt lat="45.67862" lon="4.64915">
        <ele>316</ele>
        <time>2012-01-14T10:52:45Z</time>
      </trkpt>
      <trkpt lat="45.67862" lon="4.64915">
        <ele>316</ele>
        <time>2012-01-14T10:53:03Z</time>
      </trkpt>
    </trkseg>
  </trk>
</gpx>